<?xml version='1.0' encoding='UTF-8'?><gpx version="1.1" creator="JPX - https://github.com/jenetics/jpx" xmlns="http://www.topografix.com/GPX/1/1"><trk><trkseg><trkpt lat="43.116931710443104" lon="12.169480777438883"><ele>261.0</ele><time>2026-03-24T14:52:43.999Z</time></trkpt><trkpt lat="43.116861079783796" lon="12.169593818832091"><ele>261.0</ele><time>2026-03-24T14:52:44.999Z</time></trkpt><trkpt lat="43.116797383441224" lon="12.169725008144319"><ele>261.0</ele><time>2026-03-24T14:52:45.999Z</time></trkpt><trkpt lat="43.11674198638883" lon="12.169811686072686"><ele>261.0</ele><time>2026-03-24T14:52:46.999Z</time></trkpt><trkpt lat="43.11676335850835" lon="12.169954320240231"><ele>261.0</ele><time>2026-03-24T14:52:48.999Z</time></trkpt><trkpt lat="43.11697535583298" lon="12.169909398997538"><ele>261.0</ele><time>2026-03-24T14:54:07Z</time></trkpt><trkpt lat="43.1170945518704" lon="12.169824575237588"><ele>261.0</ele><time>2026-03-24T14:54:08Z</time></trkpt><trkpt lat="43.11724184903367" lon="12.169717228943778"><ele>261.0</ele><time>2026-03-24T14:54:09Z</time></trkpt><trkpt lat="43.11740260330587" lon="12.16962302920336"><ele>262.0</ele><time>2026-03-24T14:54:10Z</time></trkpt><trkpt lat="43.11757089143975" lon="12.16950264172261"><ele>263.0</ele><time>2026-03-24T14:54:11Z</time></trkpt><trkpt lat="43.11766944616793" lon="12.169427428425195"><ele>264.0</ele><time>2026-03-24T14:54:12Z</time></trkpt><trkpt lat="43.117762344242806" lon="12.169368732125815"><ele>265.0</ele><time>2026-03-24T14:54:14Z</time></trkpt><trkpt lat="43.117827038078396" lon="12.169338591208101"><ele>265.0</ele><time>2026-03-24T14:54:17Z</time></trkpt><trkpt lat="43.11790609845762" lon="12.169405351747667"><ele>265.0</ele><time>2026-03-24T14:54:18.999Z</time></trkpt><trkpt lat="43.11796005458037" lon="12.169455226171804"><ele>265.0</ele><time>2026-03-24T14:54:19.999Z</time></trkpt><trkpt lat="43.11803747139429" lon="12.169436253535606"><ele>265.0</ele><time>2026-03-24T14:54:20.999Z</time></trkpt><trkpt lat="43.11810000242565" lon="12.169377372511864"><ele>265.0</ele><time>2026-03-24T14:54:21.999Z</time></trkpt><trkpt lat="43.11814362662574" lon="12.169275280866463"><ele>265.0</ele><time>2026-03-24T14:54:22.999Z</time></trkpt><trkpt lat="43.11820871705231" lon="12.169161220381302"><ele>266.0</ele><time>2026-03-24T14:54:23.999Z</time></trkpt><trkpt lat="43.11828509154106" lon="12.16901354902019"><ele>267.0</ele><time>2026-03-24T14:54:24.999Z</time></trkpt><trkpt lat="43.118384367826394" lon="12.168878185989733"><ele>268.0</ele><time>2026-03-24T14:54:25.999Z</time></trkpt><trkpt lat="43.11847747032112" lon="12.168749333667149"><ele>269.0</ele><time>2026-03-24T14:54:26.999Z</time></trkpt><trkpt lat="43.11855057958448" lon="12.168648151642813"><ele>269.0</ele><time>2026-03-24T14:54:27.999Z</time></trkpt><trkpt lat="43.11861160177342" lon="12.168573937488844"><ele>269.0</ele><time>2026-03-24T14:54:28.999Z</time></trkpt><trkpt lat="43.11866875244048" lon="12.168514902752054"><ele>269.0</ele><time>2026-03-24T14:54:29.999Z</time></trkpt><trkpt lat="43.11874968989441" lon="12.168523376225139"><ele>269.0</ele><time>2026-03-24T14:54:30.999Z</time></trkpt><trkpt lat="43.11882287404534" lon="12.168512102701563"><ele>269.0</ele><time>2026-03-24T14:54:31.999Z</time></trkpt><trkpt lat="43.118898807874075" lon="12.168626605314756"><ele>269.0</ele><time>2026-03-24T14:54:32.999Z</time></trkpt><trkpt lat="43.118973298399055" lon="12.16870831867377"><ele>269.0</ele><time>2026-03-24T14:54:33.999Z</time></trkpt><trkpt lat="43.11899497246449" lon="12.168815965383189"><ele>269.0</ele><time>2026-03-24T14:54:34.999Z</time></trkpt><trkpt lat="43.11897016369872" lon="12.168940373614124"><ele>269.0</ele><time>2026-03-24T14:54:35.999Z</time></trkpt><trkpt lat="43.118973001650005" lon="12.16908649722054"><ele>269.0</ele><time>2026-03-24T14:54:36.999Z</time></trkpt><trkpt lat="43.118962255863295" lon="12.169224417112902"><ele>269.0</ele><time>2026-03-24T14:54:37.999Z</time></trkpt><trkpt lat="43.118976527396434" lon="12.169358108335729"><ele>270.0</ele><time>2026-03-24T14:54:38.999Z</time></trkpt><trkpt lat="43.11901499090934" lon="12.169472234125315"><ele>271.0</ele><time>2026-03-24T14:54:39.999Z</time></trkpt><trkpt lat="43.11906651978278" lon="12.169564444987046"><ele>272.0</ele><time>2026-03-24T14:54:40.999Z</time></trkpt><trkpt lat="43.11910949195514" lon="12.169635077804744"><ele>273.0</ele><time>2026-03-24T14:54:41.999Z</time></trkpt><trkpt lat="43.119158074624394" lon="12.16971351660037"><ele>274.0</ele><time>2026-03-24T14:54:44.999Z</time></trkpt><trkpt lat="43.119226241148894" lon="12.169707311032768"><ele>275.0</ele><time>2026-03-24T14:54:46.999Z</time></trkpt><trkpt lat="43.119295033796014" lon="12.16964844261977"><ele>276.83333333333337</ele><time>2026-03-24T14:54:47.999Z</time></trkpt><trkpt lat="43.11933661993611" lon="12.169541501585206"><ele>278.6666666666667</ele><time>2026-03-24T14:54:48.999Z</time></trkpt><trkpt lat="43.11937767530249" lon="12.169467839963831"><ele>280.5</ele><time>2026-03-24T14:54:49.999Z</time></trkpt><trkpt lat="43.119428750443895" lon="12.16940629262538"><ele>282.3333333333333</ele><time>2026-03-24T14:54:50.999Z</time></trkpt><trkpt lat="43.11951828339624" lon="12.169338869987069"><ele>284.16666666666663</ele><time>2026-03-24T14:54:52.999Z</time></trkpt><trkpt lat="43.119596890256126" lon="12.1693546947682"><ele>286.0</ele><time>2026-03-24T14:54:53.999Z</time></trkpt><trkpt lat="43.119655643117135" lon="12.169411657271306"><ele>286.0</ele><time>2026-03-24T14:54:54.999Z</time></trkpt><trkpt lat="43.11967899595765" lon="12.169501065097672"><ele>286.0</ele><time>2026-03-24T14:54:55.999Z</time></trkpt><trkpt lat="43.119717747425" lon="12.169632076787734"><ele>286.0</ele><time>2026-03-24T14:54:56.999Z</time></trkpt><trkpt lat="43.119755864257804" lon="12.169775831152657"><ele>286.0</ele><time>2026-03-24T14:54:57.999Z</time></trkpt><trkpt lat="43.119757845430286" lon="12.169896497888827"><ele>286.0</ele><time>2026-03-24T14:54:58.999Z</time></trkpt><trkpt lat="43.11976877812857" lon="12.169986900425364"><ele>286.0</ele><time>2026-03-24T14:54:59.999Z</time></trkpt><trkpt lat="43.11979870294832" lon="12.170069934405559"><ele>287.0</ele><time>2026-03-24T14:55:00.999Z</time></trkpt><trkpt lat="43.119855060559914" lon="12.170139371969823"><ele>288.0</ele><time>2026-03-24T14:55:01.999Z</time></trkpt><trkpt lat="43.11996134780116" lon="12.17020916525679"><ele>289.0</ele><time>2026-03-24T14:55:02.999Z</time></trkpt><trkpt lat="43.12004630544616" lon="12.170279011650276"><ele>290.0</ele><time>2026-03-24T14:55:03.999Z</time></trkpt><trkpt lat="43.120162548940634" lon="12.170367408197382"><ele>291.0</ele><time>2026-03-24T14:55:05.999Z</time></trkpt><trkpt lat="43.12022550196307" lon="12.170380017587382"><ele>294.0</ele><time>2026-03-24T14:55:06.999Z</time></trkpt><trkpt lat="43.12030025086273" lon="12.170394526651208"><ele>297.0</ele><time>2026-03-24T14:55:08.999Z</time></trkpt><trkpt lat="43.12020327552226" lon="12.170379588106806"><ele>300.0</ele><time>2026-03-24T14:56:02Z</time></trkpt><trkpt lat="43.1200860991901" lon="12.170321028190532"><ele>303.0</ele><time>2026-03-24T14:56:05Z</time></trkpt><trkpt lat="43.12001802887047" lon="12.170241162334253"><ele>306.0</ele><time>2026-03-24T14:56:07Z</time></trkpt><trkpt lat="43.11993441214217" lon="12.17015288129355"><ele>303.5</ele><time>2026-03-24T14:56:09Z</time></trkpt><trkpt lat="43.119846727560585" lon="12.17007725971366"><ele>301.0</ele><time>2026-03-24T14:56:11Z</time></trkpt><trkpt lat="43.11980037078272" lon="12.169963711127592"><ele>298.5</ele><time>2026-03-24T14:56:13Z</time></trkpt><trkpt lat="43.11980281839238" lon="12.16987205706818"><ele>296.0</ele><time>2026-03-24T14:56:15Z</time></trkpt><trkpt lat="43.11978351078373" lon="12.169773483756016"><ele>293.5</ele><time>2026-03-24T14:56:17Z</time></trkpt><trkpt lat="43.119752558620505" lon="12.169684883608731"><ele>291.0</ele><time>2026-03-24T14:56:18Z</time></trkpt><trkpt lat="43.11972547052702" lon="12.169581353703853"><ele>290.0</ele><time>2026-03-24T14:56:19Z</time></trkpt><trkpt lat="43.1197052696797" lon="12.169494095081193"><ele>289.0</ele><time>2026-03-24T14:56:20Z</time></trkpt><trkpt lat="43.11965348824577" lon="12.169374838426997"><ele>288.0</ele><time>2026-03-24T14:56:22Z</time></trkpt><trkpt lat="43.11953625154844" lon="12.169354224083369"><ele>287.0</ele><time>2026-03-24T14:56:23.999Z</time></trkpt><trkpt lat="43.119424314136694" lon="12.169386856865344"><ele>286.0</ele><time>2026-03-24T14:56:25.999Z</time></trkpt><trkpt lat="43.11938138606728" lon="12.169453198116793"><ele>286.0</ele><time>2026-03-24T14:56:26.999Z</time></trkpt><trkpt lat="43.11934310256466" lon="12.169532093454073"><ele>286.0</ele><time>2026-03-24T14:56:27.999Z</time></trkpt><trkpt lat="43.119305472915684" lon="12.169601315476877"><ele>286.0</ele><time>2026-03-24T14:56:28.999Z</time></trkpt><trkpt lat="43.11922671363522" lon="12.169680701302015"><ele>286.0</ele><time>2026-03-24T14:56:30.999Z</time></trkpt><trkpt lat="43.119151794396345" lon="12.169697437262155"><ele>286.0</ele><time>2026-03-24T14:56:32.999Z</time></trkpt><trkpt lat="43.119101721218605" lon="12.1695325195214"><ele>286.0</ele><time>2026-03-24T14:56:34.999Z</time></trkpt><trkpt lat="43.11903671575245" lon="12.169430599771019"><ele>284.16666666666663</ele><time>2026-03-24T14:56:35.999Z</time></trkpt><trkpt lat="43.11899676755771" lon="12.16932145268749"><ele>282.3333333333333</ele><time>2026-03-24T14:56:36.999Z</time></trkpt><trkpt lat="43.11898641374869" lon="12.169198662597857"><ele>280.5</ele><time>2026-03-24T14:56:37.999Z</time></trkpt><trkpt lat="43.11899101707604" lon="12.169070376373805"><ele>278.6666666666667</ele><time>2026-03-24T14:56:38.999Z</time></trkpt><trkpt lat="43.11900201556798" lon="12.168948029364334"><ele>276.83333333333337</ele><time>2026-03-24T14:56:39.999Z</time></trkpt><trkpt lat="43.11900759570995" lon="12.168843478606124"><ele>275.0</ele><time>2026-03-24T14:56:40.999Z</time></trkpt><trkpt lat="43.11900315111972" lon="12.168745707519715"><ele>273.5</ele><time>2026-03-24T14:56:41.999Z</time></trkpt><trkpt lat="43.11890380439964" lon="12.168580358620979"><ele>272.0</ele><time>2026-03-24T14:56:43.999Z</time></trkpt><trkpt lat="43.11883399534201" lon="12.168527218749285"><ele>270.5</ele><time>2026-03-24T14:56:44.999Z</time></trkpt><trkpt lat="43.11878294107748" lon="12.168467020308896"><ele>269.0</ele><time>2026-03-24T14:56:45.999Z</time></trkpt><trkpt lat="43.11861052995585" lon="12.168523331969494"><ele>269.0</ele><time>2026-03-24T14:56:47.999Z</time></trkpt><trkpt lat="43.11852242163159" lon="12.168604391440857"><ele>269.0</ele><time>2026-03-24T14:56:48.999Z</time></trkpt><trkpt lat="43.11843377311534" lon="12.168745071507663"><ele>269.0</ele><time>2026-03-24T14:56:49.999Z</time></trkpt><trkpt lat="43.11833981882025" lon="12.168874252762885"><ele>269.0</ele><time>2026-03-24T14:56:50.999Z</time></trkpt><trkpt lat="43.118259737262825" lon="12.16898447882014"><ele>268.33333333333337</ele><time>2026-03-24T14:56:51.999Z</time></trkpt><trkpt lat="43.11819558134239" lon="12.169104856593677"><ele>267.6666666666667</ele><time>2026-03-24T14:56:52.999Z</time></trkpt><trkpt lat="43.118143306750625" lon="12.169213901439191"><ele>267.0</ele><time>2026-03-24T14:56:53.999Z</time></trkpt><trkpt lat="43.11809365032806" lon="12.169302542334691"><ele>266.3333333333333</ele><time>2026-03-24T14:56:54.999Z</time></trkpt><trkpt lat="43.118047324565474" lon="12.169373793630736"><ele>265.66666666666663</ele><time>2026-03-24T14:56:55.999Z</time></trkpt><trkpt lat="43.117969042550186" lon="12.16939332397931"><ele>265.0</ele><time>2026-03-24T14:56:57.999Z</time></trkpt><trkpt lat="43.117896956312585" lon="12.169409212406661"><ele>265.0</ele><time>2026-03-24T14:56:59.999Z</time></trkpt><trkpt lat="43.11787355876602" lon="12.16964151768118"><ele>265.0</ele><time>2026-03-24T14:57:01.999Z</time></trkpt><trkpt lat="43.117848241856954" lon="12.1698048153962"><ele>265.0</ele><time>2026-03-24T14:57:02.999Z</time></trkpt><trkpt lat="43.117849987983966" lon="12.169911015273001"><ele>265.0</ele><time>2026-03-24T14:57:03.999Z</time></trkpt><trkpt lat="43.11782296739238" lon="12.17002024007678"><ele>265.4</ele><time>2026-03-24T14:57:04.999Z</time></trkpt><trkpt lat="43.11781079679063" lon="12.170123975118134"><ele>265.8</ele><time>2026-03-24T14:57:05.999Z</time></trkpt><trkpt lat="43.117809859617736" lon="12.17022083714511"><ele>266.2</ele><time>2026-03-24T14:57:06.999Z</time></trkpt><trkpt lat="43.11775877509816" lon="12.170321430295697"><ele>266.6</ele><time>2026-03-24T14:57:07.999Z</time></trkpt><trkpt lat="43.11774733380831" lon="12.170476043519775"><ele>267.0</ele><time>2026-03-24T14:57:08.999Z</time></trkpt><trkpt lat="43.117719076376574" lon="12.170636870058052"><ele>267.2</ele><time>2026-03-24T14:57:09.999Z</time></trkpt><trkpt lat="43.1176716131052" lon="12.170810543483137"><ele>267.4</ele><time>2026-03-24T14:57:10.999Z</time></trkpt><trkpt lat="43.117603206158755" lon="12.17093381493859"><ele>267.6</ele><time>2026-03-24T14:57:11.999Z</time></trkpt><trkpt lat="43.11755859744012" lon="12.171016578499067"><ele>267.8</ele><time>2026-03-24T14:57:12.999Z</time></trkpt><trkpt lat="43.11751534306316" lon="12.171080793510564"><ele>268.0</ele><time>2026-03-24T14:57:13.999Z</time></trkpt><trkpt lat="43.11746441818759" lon="12.171229666652156"><ele>268.0</ele><time>2026-03-24T14:57:15.999Z</time></trkpt><trkpt lat="43.11758900958194" lon="12.17142396751798"><ele>268.0</ele><time>2026-03-24T14:57:16.999Z</time></trkpt><trkpt lat="43.11761028521882" lon="12.171529490259394"><ele>268.0</ele><time>2026-03-24T14:57:17.999Z</time></trkpt><trkpt lat="43.117586699549015" lon="12.171646408882193"><ele>268.0</ele><time>2026-03-24T14:57:18.999Z</time></trkpt><trkpt lat="43.117537158459285" lon="12.171776345072917"><ele>268.25</ele><time>2026-03-24T14:57:19.999Z</time></trkpt><trkpt lat="43.117468671648766" lon="12.171902426734281"><ele>268.5</ele><time>2026-03-24T14:57:20.999Z</time></trkpt><trkpt lat="43.11743053560598" lon="12.172031216825912"><ele>268.75</ele><time>2026-03-24T14:57:21.999Z</time></trkpt><trkpt lat="43.11739288838449" lon="12.172213167316434"><ele>269.0</ele><time>2026-03-24T14:57:22.999Z</time></trkpt><trkpt lat="43.11732531988214" lon="12.172379657562908"><ele>271.0</ele><time>2026-03-24T14:57:23.999Z</time></trkpt><trkpt lat="43.117259840809204" lon="12.172498011493678"><ele>273.0</ele><time>2026-03-24T14:57:24.999Z</time></trkpt><trkpt lat="43.11721458638306" lon="12.172646134917912"><ele>275.0</ele><time>2026-03-24T14:57:25.999Z</time></trkpt><trkpt lat="43.117119151803905" lon="12.172770043405542"><ele>277.0</ele><time>2026-03-24T14:57:26.999Z</time></trkpt><trkpt lat="43.117021936284836" lon="12.172862929329954"><ele>277.0</ele><time>2026-03-24T14:57:27.999Z</time></trkpt><trkpt lat="43.11694069659283" lon="12.172950422694697"><ele>277.0</ele><time>2026-03-24T14:57:28.999Z</time></trkpt><trkpt lat="43.116887401536616" lon="12.173063901996642"><ele>277.0</ele><time>2026-03-24T14:57:29.999Z</time></trkpt><trkpt lat="43.11683848301873" lon="12.173166221869417"><ele>277.0</ele><time>2026-03-24T14:57:30.999Z</time></trkpt><trkpt lat="43.11676176085542" lon="12.173240089529285"><ele>277.0</ele><time>2026-03-24T14:57:31.999Z</time></trkpt><trkpt lat="43.11665064844223" lon="12.173268359151178"><ele>279.0</ele><time>2026-03-24T14:57:33Z</time></trkpt><trkpt lat="43.11655470624131" lon="12.173338656824374"><ele>281.0</ele><time>2026-03-24T14:57:34Z</time></trkpt><trkpt lat="43.11647421318019" lon="12.173397634784173"><ele>283.0</ele><time>2026-03-24T14:57:35Z</time></trkpt><trkpt lat="43.11636009931106" lon="12.173482695057286"><ele>285.0</ele><time>2026-03-24T14:57:37Z</time></trkpt><trkpt lat="43.116276483834454" lon="12.173551242295725"><ele>287.0</ele><time>2026-03-24T14:57:39Z</time></trkpt><trkpt lat="43.11618008069789" lon="12.173640317411524"><ele>287.0</ele><time>2026-03-24T14:57:41Z</time></trkpt><trkpt lat="43.11614631549865" lon="12.173714581642315"><ele>287.0</ele><time>2026-03-24T14:57:42Z</time></trkpt><trkpt lat="43.11610870794772" lon="12.173855651400737"><ele>287.0</ele><time>2026-03-24T14:57:44Z</time></trkpt><trkpt lat="43.116120044564305" lon="12.174015329311981"><ele>287.0</ele><time>2026-03-24T14:57:46Z</time></trkpt><trkpt lat="43.11607026420565" lon="12.174181938409646"><ele>287.0</ele><time>2026-03-24T14:57:48Z</time></trkpt><trkpt lat="43.11611634644054" lon="12.174284645150784"><ele>286.4</ele><time>2026-03-24T14:57:49Z</time></trkpt><trkpt lat="43.11615623739511" lon="12.1743843163526"><ele>285.79999999999995</ele><time>2026-03-24T14:57:50Z</time></trkpt><trkpt lat="43.11619899965983" lon="12.174483098966181"><ele>285.2</ele><time>2026-03-24T14:57:51Z</time></trkpt><trkpt lat="43.11624552547976" lon="12.17461775473037"><ele>284.59999999999997</ele><time>2026-03-24T14:57:52Z</time></trkpt><trkpt lat="43.116295322556795" lon="12.174769890549978"><ele>284.0</ele><time>2026-03-24T14:57:53Z</time></trkpt><trkpt lat="43.11634706842993" lon="12.174912551855025"><ele>284.0</ele><time>2026-03-24T14:57:54Z</time></trkpt><trkpt lat="43.116394979441516" lon="12.175042594908009"><ele>284.0</ele><time>2026-03-24T14:57:55Z</time></trkpt><trkpt lat="43.11644508727545" lon="12.175172690052838"><ele>284.0</ele><time>2026-03-24T14:57:56Z</time></trkpt><trkpt lat="43.11650340425184" lon="12.17530774170972"><ele>284.0</ele><time>2026-03-24T14:57:57Z</time></trkpt><trkpt lat="43.11656972231322" lon="12.175446831449829"><ele>284.0</ele><time>2026-03-24T14:57:58Z</time></trkpt><trkpt lat="43.11664165135101" lon="12.17558833166392"><ele>285.4</ele><time>2026-03-24T14:57:59Z</time></trkpt><trkpt lat="43.116711591887785" lon="12.175725041680241"><ele>286.79999999999995</ele><time>2026-03-24T14:58:00Z</time></trkpt><trkpt lat="43.116773173153035" lon="12.175851694318366"><ele>288.20000000000005</ele><time>2026-03-24T14:58:01Z</time></trkpt><trkpt lat="43.11684092432379" lon="12.175965079786506"><ele>289.6</ele><time>2026-03-24T14:58:02Z</time></trkpt><trkpt lat="43.116899645074504" lon="12.17607732603809"><ele>291.0</ele><time>2026-03-24T14:58:03Z</time></trkpt><trkpt lat="43.11696315444785" lon="12.176169059211697"><ele>291.0</ele><time>2026-03-24T14:58:04Z</time></trkpt><trkpt lat="43.11703454746291" lon="12.176240201628392"><ele>291.0</ele><time>2026-03-24T14:58:05Z</time></trkpt><trkpt lat="43.11707824962095" lon="12.176327188898833"><ele>291.0</ele><time>2026-03-24T14:58:06Z</time></trkpt><trkpt lat="43.11712210770131" lon="12.176400085215661"><ele>291.0</ele><time>2026-03-24T14:58:07Z</time></trkpt><trkpt lat="43.11718783714615" lon="12.176512420753761"><ele>291.0</ele><time>2026-03-24T14:58:09Z</time></trkpt><trkpt lat="43.117187982261505" lon="12.1766231192652"><ele>291.0</ele><time>2026-03-24T14:58:11Z</time></trkpt><trkpt lat="43.11710555683376" lon="12.176697416461082"><ele>288.8</ele><time>2026-03-24T14:58:13Z</time></trkpt><trkpt lat="43.11702015979237" lon="12.176645043300422"><ele>286.6</ele><time>2026-03-24T14:58:14Z</time></trkpt><trkpt lat="43.11692309553375" lon="12.176640940650582"><ele>284.4</ele><time>2026-03-24T14:58:15Z</time></trkpt><trkpt lat="43.1168294518862" lon="12.176595096079728"><ele>282.2</ele><time>2026-03-24T14:58:16Z</time></trkpt><trkpt lat="43.116739911733355" lon="12.176567902771373"><ele>280.0</ele><time>2026-03-24T14:58:17Z</time></trkpt><trkpt lat="43.116650079539845" lon="12.176554950288422"><ele>279.8333333333333</ele><time>2026-03-24T14:58:18Z</time></trkpt><trkpt lat="43.116564255125695" lon="12.176528768365419"><ele>279.66666666666663</ele><time>2026-03-24T14:58:19Z</time></trkpt><trkpt lat="43.11648441738479" lon="12.176518390319313"><ele>279.5</ele><time>2026-03-24T14:58:20Z</time></trkpt><trkpt lat="43.116417988798126" lon="12.17649524627381"><ele>279.3333333333333</ele><time>2026-03-24T14:58:21Z</time></trkpt><trkpt lat="43.11630770894089" lon="12.176520272414425"><ele>279.1666666666667</ele><time>2026-03-24T14:58:23Z</time></trkpt><trkpt lat="43.11624213522652" lon="12.176501743613947"><ele>279.0</ele><time>2026-03-24T14:58:25Z</time></trkpt><trkpt lat="43.11626643212301" lon="12.176747888815106"><ele>277.8</ele><time>2026-03-24T14:58:28Z</time></trkpt><trkpt lat="43.11631194188691" lon="12.176881167746195"><ele>276.59999999999997</ele><time>2026-03-24T14:58:29Z</time></trkpt><trkpt lat="43.116338412252986" lon="12.177016349157656"><ele>275.4</ele><time>2026-03-24T14:58:30Z</time></trkpt><trkpt lat="43.11635844191694" lon="12.177136081863024"><ele>274.2</ele><time>2026-03-24T14:58:31Z</time></trkpt><trkpt lat="43.11637244000858" lon="12.177248927401102"><ele>273.0</ele><time>2026-03-24T14:58:32Z</time></trkpt><trkpt lat="43.11638008774937" lon="12.177354812598914"><ele>272.6666666666667</ele><time>2026-03-24T14:58:33Z</time></trkpt><trkpt lat="43.11638055826567" lon="12.177454936174595"><ele>272.3333333333333</ele><time>2026-03-24T14:58:34Z</time></trkpt><trkpt lat="43.11632595245451" lon="12.177574346589031"><ele>272.0</ele><time>2026-03-24T14:58:35.999Z</time></trkpt><trkpt lat="43.116287241829" lon="12.1776631389303"><ele>271.66666666666663</ele><time>2026-03-24T14:58:38.999Z</time></trkpt><trkpt lat="43.1162339092018" lon="12.177747336974255"><ele>271.3333333333333</ele><time>2026-03-24T14:58:41.999Z</time></trkpt><trkpt lat="43.11617002015745" lon="12.177835184613274"><ele>271.0</ele><time>2026-03-24T14:58:44.999Z</time></trkpt><trkpt lat="43.11611519747264" lon="12.177964909383542"><ele>271.0</ele><time>2026-03-24T14:58:46.999Z</time></trkpt><trkpt lat="43.11630777377362" lon="12.178316919827633"><ele>271.0</ele><time>2026-03-24T14:58:48.999Z</time></trkpt><trkpt lat="43.11632086606701" lon="12.1784478514502"><ele>271.0</ele><time>2026-03-24T14:58:50.999Z</time></trkpt><trkpt lat="43.11630258461669" lon="12.178544670691574"><ele>271.0</ele><time>2026-03-24T14:58:53.999Z</time></trkpt><trkpt lat="43.116280338892494" lon="12.17864316661641"><ele>271.0</ele><time>2026-03-24T14:58:54.999Z</time></trkpt><trkpt lat="43.116252967092784" lon="12.178752141759798"><ele>271.0</ele><time>2026-03-24T14:58:55.999Z</time></trkpt><trkpt lat="43.11620356599623" lon="12.178900070401934"><ele>271.0</ele><time>2026-03-24T14:58:56.999Z</time></trkpt><trkpt lat="43.116151926028174" lon="12.17902336018631"><ele>271.0</ele><time>2026-03-24T14:58:57.999Z</time></trkpt><trkpt lat="43.116090139320924" lon="12.179132615311078"><ele>272.25</ele><time>2026-03-24T14:58:58.999Z</time></trkpt><trkpt lat="43.11602826775427" lon="12.17926079594677"><ele>273.5</ele><time>2026-03-24T14:58:59.999Z</time></trkpt><trkpt lat="43.11596766090663" lon="12.179395269309992"><ele>274.75</ele><time>2026-03-24T14:59:00.999Z</time></trkpt><trkpt lat="43.11589556425609" lon="12.179561651488799"><ele>276.0</ele><time>2026-03-24T14:59:01.999Z</time></trkpt><trkpt lat="43.115810779959965" lon="12.179679928954174"><ele>276.0</ele><time>2026-03-24T14:59:02.999Z</time></trkpt><trkpt lat="43.115744090734445" lon="12.179782486998507"><ele>276.0</ele><time>2026-03-24T14:59:03.999Z</time></trkpt><trkpt lat="43.11569439594371" lon="12.17988661324125"><ele>276.0</ele><time>2026-03-24T14:59:04.999Z</time></trkpt><trkpt lat="43.11562844381649" lon="12.179984444212993"><ele>276.0</ele><time>2026-03-24T14:59:05.999Z</time></trkpt><trkpt lat="43.115559900796804" lon="12.18007444400103"><ele>276.0</ele><time>2026-03-24T14:59:06.999Z</time></trkpt><trkpt lat="43.115483833641605" lon="12.18016962752468"><ele>275.2</ele><time>2026-03-24T14:59:07.999Z</time></trkpt><trkpt lat="43.115405414516154" lon="12.180258748422936"><ele>274.40000000000003</ele><time>2026-03-24T14:59:08.999Z</time></trkpt><trkpt lat="43.11533428790613" lon="12.180339564718077"><ele>273.6</ele><time>2026-03-24T14:59:09.999Z</time></trkpt><trkpt lat="43.115263815319814" lon="12.180398756762509"><ele>272.8</ele><time>2026-03-24T14:59:10.999Z</time></trkpt><trkpt lat="43.11515619712243" lon="12.180416489811131"><ele>272.0</ele><time>2026-03-24T14:59:11.999Z</time></trkpt><trkpt lat="43.11504055633886" lon="12.18048857670784"><ele>272.0</ele><time>2026-03-24T14:59:12.999Z</time></trkpt><trkpt lat="43.11492799760706" lon="12.180545259650168"><ele>272.0</ele><time>2026-03-24T14:59:13.999Z</time></trkpt><trkpt lat="43.11482239021523" lon="12.180580458894838"><ele>272.0</ele><time>2026-03-24T14:59:14.999Z</time></trkpt><trkpt lat="43.114719864309926" lon="12.180604495055055"><ele>272.0</ele><time>2026-03-24T14:59:15.999Z</time></trkpt><trkpt lat="43.114608176531114" lon="12.180603986038484"><ele>272.0</ele><time>2026-03-24T14:59:16.999Z</time></trkpt><trkpt lat="43.11448434692992" lon="12.180613320320642"><ele>271.2</ele><time>2026-03-24T14:59:17.999Z</time></trkpt><trkpt lat="43.11437644407128" lon="12.180622538815822"><ele>270.4</ele><time>2026-03-24T14:59:18.999Z</time></trkpt><trkpt lat="43.11427830865691" lon="12.180654249743947"><ele>269.6</ele><time>2026-03-24T14:59:19.999Z</time></trkpt><trkpt lat="43.114185325981154" lon="12.180693370256666"><ele>268.8</ele><time>2026-03-24T14:59:20.999Z</time></trkpt><trkpt lat="43.11409551683264" lon="12.18073709892157"><ele>268.0</ele><time>2026-03-24T14:59:21.999Z</time></trkpt><trkpt lat="43.11401131907934" lon="12.180782252275256"><ele>267.66666666666663</ele><time>2026-03-24T14:59:22.999Z</time></trkpt><trkpt lat="43.11393219673004" lon="12.180826779201459"><ele>267.3333333333333</ele><time>2026-03-24T14:59:23.999Z</time></trkpt><trkpt lat="43.113862831882024" lon="12.180864362257747"><ele>267.0</ele><time>2026-03-24T14:59:24.999Z</time></trkpt><trkpt lat="43.1137706651629" lon="12.180904481857942"><ele>266.6666666666667</ele><time>2026-03-24T14:59:26.999Z</time></trkpt><trkpt lat="43.11371646450972" lon="12.180832579746026"><ele>266.33333333333337</ele><time>2026-03-24T14:59:28.999Z</time></trkpt><trkpt lat="43.113649087982175" lon="12.180747291773432"><ele>266.0</ele><time>2026-03-24T14:59:29.999Z</time></trkpt><trkpt lat="43.11358318001423" lon="12.180621270722522"><ele>265.75</ele><time>2026-03-24T14:59:30.999Z</time></trkpt><trkpt lat="43.11350025348755" lon="12.18050215162463"><ele>265.5</ele><time>2026-03-24T14:59:31.999Z</time></trkpt><trkpt lat="43.113370561627015" lon="12.180390192128693"><ele>265.25</ele><time>2026-03-24T14:59:32.999Z</time></trkpt><trkpt lat="43.1132281214809" lon="12.180309054872097"><ele>265.0</ele><time>2026-03-24T14:59:33.999Z</time></trkpt><trkpt lat="43.11310645032435" lon="12.180240176981043"><ele>265.0</ele><time>2026-03-24T14:59:34.999Z</time></trkpt><trkpt lat="43.11299841462821" lon="12.180168860955664"><ele>265.0</ele><time>2026-03-24T14:59:35.999Z</time></trkpt><trkpt lat="43.11288801163979" lon="12.180098056868484"><ele>265.0</ele><time>2026-03-24T14:59:36.999Z</time></trkpt><trkpt lat="43.11277998782713" lon="12.18003125769637"><ele>265.0</ele><time>2026-03-24T14:59:37.999Z</time></trkpt><trkpt lat="43.112681969227516" lon="12.179967297250025"><ele>265.0</ele><time>2026-03-24T14:59:39Z</time></trkpt><trkpt lat="43.11259654137197" lon="12.17991239639184"><ele>265.0</ele><time>2026-03-24T14:59:40Z</time></trkpt><trkpt lat="43.112532919919666" lon="12.179870796802726"><ele>265.0</ele><time>2026-03-24T14:59:41Z</time></trkpt><trkpt lat="43.11246469516182" lon="12.179828814740159"><ele>265.0</ele><time>2026-03-24T14:59:43Z</time></trkpt><trkpt lat="43.11234797272551" lon="12.179868966866216"><ele>265.0</ele><time>2026-03-24T14:59:46Z</time></trkpt><trkpt lat="43.1122893353372" lon="12.180002078023614"><ele>262.66666666666663</ele><time>2026-03-24T14:59:47Z</time></trkpt><trkpt lat="43.112208857546214" lon="12.180168041287583"><ele>260.3333333333333</ele><time>2026-03-24T14:59:48Z</time></trkpt><trkpt lat="43.11211256460229" lon="12.180354867822297"><ele>258.0</ele><time>2026-03-24T14:59:49Z</time></trkpt><trkpt lat="43.11201112282512" lon="12.180573034944482"><ele>258.6</ele><time>2026-03-24T14:59:50Z</time></trkpt><trkpt lat="43.11194380856847" lon="12.180721848825224"><ele>259.20000000000005</ele><time>2026-03-24T14:59:51Z</time></trkpt><trkpt lat="43.11190428376498" lon="12.180844771180267"><ele>259.8</ele><time>2026-03-24T14:59:52Z</time></trkpt><trkpt lat="43.11190846795965" lon="12.180952613177665"><ele>260.40000000000003</ele><time>2026-03-24T14:59:53Z</time></trkpt><trkpt lat="43.11194614743747" lon="12.181035717948808"><ele>261.0</ele><time>2026-03-24T14:59:54Z</time></trkpt><trkpt lat="43.1119856482644" lon="12.181130693188594"><ele>261.0</ele><time>2026-03-24T14:59:56Z</time></trkpt><trkpt lat="43.11195593363366" lon="12.180973759918134"><ele>261.0</ele><time>2026-03-24T15:03:40.999Z</time></trkpt><trkpt lat="43.11193265197742" lon="12.180867651430184"><ele>261.0</ele><time>2026-03-24T15:03:42.999Z</time></trkpt><trkpt lat="43.11197715923397" lon="12.180707476787054"><ele>261.0</ele><time>2026-03-24T15:03:44.999Z</time></trkpt><trkpt lat="43.112042984084226" lon="12.18057122079065"><ele>261.0</ele><time>2026-03-24T15:03:45.999Z</time></trkpt><trkpt lat="43.11212532147521" lon="12.180402804266677"><ele>261.0</ele><time>2026-03-24T15:03:46.999Z</time></trkpt><trkpt lat="43.11220914333474" lon="12.180235012970819"><ele>261.0</ele><time>2026-03-24T15:03:47.999Z</time></trkpt><trkpt lat="43.11227369535736" lon="12.180097620729297"><ele>261.0</ele><time>2026-03-24T15:03:48.999Z</time></trkpt><trkpt lat="43.11232559993286" lon="12.179989500416074"><ele>261.0</ele><time>2026-03-24T15:03:49.999Z</time></trkpt><trkpt lat="43.112368742250034" lon="12.179909599772579"><ele>261.0</ele><time>2026-03-24T15:03:51Z</time></trkpt><trkpt lat="43.112467355957925" lon="12.179837929855523"><ele>262.3333333333333</ele><time>2026-03-24T15:03:53Z</time></trkpt><trkpt lat="43.112661777150265" lon="12.17999610952652"><ele>263.66666666666663</ele><time>2026-03-24T15:03:55Z</time></trkpt><trkpt lat="43.112771794446076" lon="12.180063617884727"><ele>265.0</ele><time>2026-03-24T15:03:56Z</time></trkpt><trkpt lat="43.11287286839484" lon="12.180112732389253"><ele>265.0</ele><time>2026-03-24T15:03:57Z</time></trkpt><trkpt lat="43.1129589799307" lon="12.180175907443404"><ele>265.0</ele><time>2026-03-24T15:03:58Z</time></trkpt><trkpt lat="43.11305908916585" lon="12.18023876804025"><ele>265.0</ele><time>2026-03-24T15:03:59Z</time></trkpt><trkpt lat="43.11315776519942" lon="12.180293403412133"><ele>265.0</ele><time>2026-03-24T15:04:00Z</time></trkpt><trkpt lat="43.113246184146476" lon="12.18034486420857"><ele>265.0</ele><time>2026-03-24T15:04:01Z</time></trkpt><trkpt lat="43.11332798950427" lon="12.180398097763154"><ele>264.8</ele><time>2026-03-24T15:04:02Z</time></trkpt><trkpt lat="43.11340744116838" lon="12.18046621731611"><ele>264.6</ele><time>2026-03-24T15:04:03Z</time></trkpt><trkpt lat="43.113478623882884" lon="12.180554112691537"><ele>264.4</ele><time>2026-03-24T15:04:04Z</time></trkpt><trkpt lat="43.11356011113887" lon="12.180639666272906"><ele>264.2</ele><time>2026-03-24T15:04:05Z</time></trkpt><trkpt lat="43.113614997526966" lon="12.180731859602107"><ele>264.0</ele><time>2026-03-24T15:04:06Z</time></trkpt><trkpt lat="43.11366514280468" lon="12.180813735244413"><ele>264.4</ele><time>2026-03-24T15:04:07Z</time></trkpt><trkpt lat="43.113722759364094" lon="12.180905800526679"><ele>264.79999999999995</ele><time>2026-03-24T15:04:09Z</time></trkpt><trkpt lat="43.11376897621464" lon="12.180968624343492"><ele>265.20000000000005</ele><time>2026-03-24T15:04:16Z</time></trkpt><trkpt lat="43.113825345995856" lon="12.181078488480102"><ele>265.6</ele><time>2026-03-24T15:04:17Z</time></trkpt><trkpt lat="43.11389704926266" lon="12.181211439515273"><ele>266.0</ele><time>2026-03-24T15:04:18Z</time></trkpt><trkpt lat="43.113985682834326" lon="12.181351362529325"><ele>266.5</ele><time>2026-03-24T15:04:19Z</time></trkpt><trkpt lat="43.11407711758227" lon="12.18148904374298"><ele>267.0</ele><time>2026-03-24T15:04:20Z</time></trkpt><trkpt lat="43.114162045185225" lon="12.181642946030882"><ele>267.5</ele><time>2026-03-24T15:04:21Z</time></trkpt><trkpt lat="43.11423634231529" lon="12.181818728410786"><ele>268.0</ele><time>2026-03-24T15:04:22Z</time></trkpt><trkpt lat="43.114332951953934" lon="12.181977547478455"><ele>268.25</ele><time>2026-03-24T15:04:23Z</time></trkpt><trkpt lat="43.11440289612364" lon="12.182133693175857"><ele>268.5</ele><time>2026-03-24T15:04:24Z</time></trkpt><trkpt lat="43.11448655633984" lon="12.182266382962181"><ele>268.75</ele><time>2026-03-24T15:04:25Z</time></trkpt><trkpt lat="43.11457447332134" lon="12.182407358945651"><ele>269.0</ele><time>2026-03-24T15:04:26Z</time></trkpt><trkpt lat="43.11467170087535" lon="12.182549302425722"><ele>269.75</ele><time>2026-03-24T15:04:27Z</time></trkpt><trkpt lat="43.11476668529727" lon="12.182667215567294"><ele>270.5</ele><time>2026-03-24T15:04:28Z</time></trkpt><trkpt lat="43.11486491737682" lon="12.182783955382613"><ele>271.25</ele><time>2026-03-24T15:04:29Z</time></trkpt><trkpt lat="43.11494999053803" lon="12.182897420152354"><ele>272.0</ele><time>2026-03-24T15:04:30Z</time></trkpt><trkpt lat="43.11500319136832" lon="12.183015641270595"><ele>273.5</ele><time>2026-03-24T15:04:31Z</time></trkpt><trkpt lat="43.11503572396695" lon="12.183152399972329"><ele>275.0</ele><time>2026-03-24T15:04:32Z</time></trkpt><trkpt lat="43.11505223055441" lon="12.183317328413048"><ele>276.5</ele><time>2026-03-24T15:04:33Z</time></trkpt><trkpt lat="43.11505189932274" lon="12.18350282598103"><ele>278.0</ele><time>2026-03-24T15:04:34Z</time></trkpt><trkpt lat="43.11503976553675" lon="12.183683110616188"><ele>278.0</ele><time>2026-03-24T15:04:35Z</time></trkpt><trkpt lat="43.115029527968055" lon="12.183834866605089"><ele>278.0</ele><time>2026-03-24T15:04:36Z</time></trkpt><trkpt lat="43.11503605264299" lon="12.183960768064033"><ele>278.0</ele><time>2026-03-24T15:04:37Z</time></trkpt><trkpt lat="43.11506780322854" lon="12.184068411814936"><ele>278.0</ele><time>2026-03-24T15:04:38Z</time></trkpt><trkpt lat="43.11505414832634" lon="12.184159199436959"><ele>278.0</ele><time>2026-03-24T15:04:38.999Z</time></trkpt><trkpt lat="43.11503739773088" lon="12.184346028244251"><ele>280.33333333333337</ele><time>2026-03-24T15:04:40.999Z</time></trkpt><trkpt lat="43.11500091910018" lon="12.184456587317321"><ele>282.6666666666667</ele><time>2026-03-24T15:04:41.999Z</time></trkpt><trkpt lat="43.11498087939498" lon="12.184595483831256"><ele>285.0</ele><time>2026-03-24T15:04:42.999Z</time></trkpt><trkpt lat="43.11523315713127" lon="12.184781881712965"><ele>286.75</ele><time>2026-03-24T15:04:43.999Z</time></trkpt><trkpt lat="43.11523926411111" lon="12.18491545674253"><ele>288.5</ele><time>2026-03-24T15:04:44.999Z</time></trkpt><trkpt lat="43.11524733546953" lon="12.185091046932769"><ele>290.25</ele><time>2026-03-24T15:04:45.999Z</time></trkpt><trkpt lat="43.11526210449713" lon="12.185283077106163"><ele>292.0</ele><time>2026-03-24T15:04:46.999Z</time></trkpt><trkpt lat="43.11528239704565" lon="12.185455145513002"><ele>292.0</ele><time>2026-03-24T15:04:47.999Z</time></trkpt><trkpt lat="43.11530046034894" lon="12.185605184761119"><ele>292.0</ele><time>2026-03-24T15:04:48.999Z</time></trkpt><trkpt lat="43.11531549477687" lon="12.185749179240005"><ele>292.0</ele><time>2026-03-24T15:04:49.999Z</time></trkpt><trkpt lat="43.11533501548107" lon="12.185882530113766"><ele>292.0</ele><time>2026-03-24T15:04:50.999Z</time></trkpt><trkpt lat="43.115358569174326" lon="12.186025390410414"><ele>292.0</ele><time>2026-03-24T15:04:51.999Z</time></trkpt><trkpt lat="43.11538020364912" lon="12.186158717876262"><ele>293.2</ele><time>2026-03-24T15:04:52.999Z</time></trkpt><trkpt lat="43.11540233568439" lon="12.186303973676184"><ele>294.4</ele><time>2026-03-24T15:04:53.999Z</time></trkpt><trkpt lat="43.115417440697705" lon="12.186456722214828"><ele>295.6</ele><time>2026-03-24T15:04:54.999Z</time></trkpt><trkpt lat="43.115412322752945" lon="12.186597642199699"><ele>296.8</ele><time>2026-03-24T15:04:55.999Z</time></trkpt><trkpt lat="43.11539939122558" lon="12.186758258056102"><ele>298.0</ele><time>2026-03-24T15:04:56.999Z</time></trkpt><trkpt lat="43.115402692515026" lon="12.186919190077045"><ele>299.0</ele><time>2026-03-24T15:04:57.999Z</time></trkpt><trkpt lat="43.11542371423667" lon="12.187048433530256"><ele>300.0</ele><time>2026-03-24T15:04:58.999Z</time></trkpt><trkpt lat="43.11546277022809" lon="12.187178679635009"><ele>301.0</ele><time>2026-03-24T15:04:59.999Z</time></trkpt><trkpt lat="43.11549750112311" lon="12.187289374991407"><ele>302.0</ele><time>2026-03-24T15:05:00.999Z</time></trkpt><trkpt lat="43.11551812641231" lon="12.18737508265944"><ele>303.0</ele><time>2026-03-24T15:05:01.999Z</time></trkpt><trkpt lat="43.11554199548693" lon="12.187455530806384"><ele>304.0</ele><time>2026-03-24T15:05:03.999Z</time></trkpt><trkpt lat="43.115480398784584" lon="12.187546206716359"><ele>304.0</ele><time>2026-03-24T15:05:08.999Z</time></trkpt><trkpt lat="43.115425485093894" lon="12.187503402844104"><ele>304.0</ele><time>2026-03-24T15:05:31.999Z</time></trkpt><trkpt lat="43.11530773010545" lon="12.187404607668455"><ele>304.0</ele><time>2026-03-24T15:05:33.999Z</time></trkpt><trkpt lat="43.11518187428747" lon="12.187322315011118"><ele>304.0</ele><time>2026-03-24T15:05:35.999Z</time></trkpt><trkpt lat="43.115107166779566" lon="12.187275525668602"><ele>304.0</ele><time>2026-03-24T15:05:36.999Z</time></trkpt><trkpt lat="43.11507967516674" lon="12.18701577578097"><ele>304.0</ele><time>2026-03-24T15:05:38.999Z</time></trkpt><trkpt lat="43.114979674265236" lon="12.186977537137146"><ele>304.0</ele><time>2026-03-24T15:05:39.999Z</time></trkpt><trkpt lat="43.114910364747246" lon="12.18694875275403"><ele>304.0</ele><time>2026-03-24T15:05:40.999Z</time></trkpt><trkpt lat="43.11484746628286" lon="12.186979503361561"><ele>304.0</ele><time>2026-03-24T15:05:41.999Z</time></trkpt><trkpt lat="43.11474577137033" lon="12.18697214621838"><ele>304.0</ele><time>2026-03-24T15:05:43.999Z</time></trkpt><trkpt lat="43.114671855276185" lon="12.186951220965673"><ele>304.0</ele><time>2026-03-24T15:05:45.999Z</time></trkpt><trkpt lat="43.114666001554795" lon="12.18686451083436"><ele>303.16666666666663</ele><time>2026-03-24T15:05:46.999Z</time></trkpt><trkpt lat="43.1146346195456" lon="12.186742497805195"><ele>302.3333333333333</ele><time>2026-03-24T15:05:48.999Z</time></trkpt><trkpt lat="43.114578126220295" lon="12.186603925548956"><ele>301.5</ele><time>2026-03-24T15:05:50.999Z</time></trkpt><trkpt lat="43.11455214264064" lon="12.186513594261745"><ele>300.6666666666667</ele><time>2026-03-24T15:05:51.999Z</time></trkpt><trkpt lat="43.1145310668937" lon="12.186414994920904"><ele>299.83333333333337</ele><time>2026-03-24T15:05:52.999Z</time></trkpt><trkpt lat="43.114509348060785" lon="12.186327374283335"><ele>299.0</ele><time>2026-03-24T15:05:53.999Z</time></trkpt><trkpt lat="43.114483165479385" lon="12.186240228462088"><ele>298.1666666666667</ele><time>2026-03-24T15:05:54.999Z</time></trkpt><trkpt lat="43.11447215189335" lon="12.186141493553833"><ele>297.33333333333337</ele><time>2026-03-24T15:05:55.999Z</time></trkpt><trkpt lat="43.11443989070528" lon="12.186050280179986"><ele>296.5</ele><time>2026-03-24T15:05:57Z</time></trkpt><trkpt lat="43.114420870406356" lon="12.185953565883962"><ele>295.6666666666667</ele><time>2026-03-24T15:05:58Z</time></trkpt><trkpt lat="43.114389137725524" lon="12.18581779710363"><ele>294.8333333333333</ele><time>2026-03-24T15:06:00Z</time></trkpt><trkpt lat="43.11438186016282" lon="12.185727225844257"><ele>294.0</ele><time>2026-03-24T15:06:02Z</time></trkpt><trkpt lat="43.11439349209657" lon="12.185633460968194"><ele>292.5</ele><time>2026-03-24T15:06:06Z</time></trkpt><trkpt lat="43.11423014635819" lon="12.185643772122543"><ele>291.0</ele><time>2026-03-24T15:06:12Z</time></trkpt><trkpt lat="43.11413084234144" lon="12.185621550521763"><ele>289.5</ele><time>2026-03-24T15:06:14Z</time></trkpt><trkpt lat="43.11403116386505" lon="12.185573258163409"><ele>288.0</ele><time>2026-03-24T15:06:16Z</time></trkpt><trkpt lat="43.11394577478732" lon="12.18553666292323"><ele>286.4</ele><time>2026-03-24T15:06:18Z</time></trkpt><trkpt lat="43.11387294109571" lon="12.185463092824401"><ele>284.8</ele><time>2026-03-24T15:06:20Z</time></trkpt><trkpt lat="43.113809422186" lon="12.18535604867398"><ele>283.2</ele><time>2026-03-24T15:06:25Z</time></trkpt><trkpt lat="43.113775131650286" lon="12.185240082992543"><ele>281.6</ele><time>2026-03-24T15:06:28Z</time></trkpt><trkpt lat="43.11373584372908" lon="12.185098861409713"><ele>280.0</ele><time>2026-03-24T15:06:30Z</time></trkpt><trkpt lat="43.11367066960864" lon="12.184973034874442"><ele>280.0</ele><time>2026-03-24T15:06:32Z</time></trkpt><trkpt lat="43.113601915644175" lon="12.184857658709877"><ele>280.0</ele><time>2026-03-24T15:06:34Z</time></trkpt><trkpt lat="43.11352569585991" lon="12.18473081527021"><ele>280.0</ele><time>2026-03-24T15:06:36Z</time></trkpt><trkpt lat="43.113444955307784" lon="12.184604702338726"><ele>280.0</ele><time>2026-03-24T15:06:38Z</time></trkpt><trkpt lat="43.113350456596145" lon="12.184535219531751"><ele>279.0</ele><time>2026-03-24T15:06:40Z</time></trkpt><trkpt lat="43.11325022680938" lon="12.184482376201236"><ele>278.0</ele><time>2026-03-24T15:06:42Z</time></trkpt><trkpt lat="43.11317173156228" lon="12.184398705144158"><ele>277.0</ele><time>2026-03-24T15:06:44Z</time></trkpt><trkpt lat="43.11312180814594" lon="12.184331030533096"><ele>276.0</ele><time>2026-03-24T15:06:47Z</time></trkpt><trkpt lat="43.113066428677" lon="12.184262703488493"><ele>275.0</ele><time>2026-03-24T15:06:49Z</time></trkpt><trkpt lat="43.11343468514824" lon="12.184195441266315"><ele>275.0</ele><time>2026-03-24T15:07:02.999Z</time></trkpt><trkpt lat="43.1135366101834" lon="12.184188512873884"><ele>275.0</ele><time>2026-03-24T15:07:03.999Z</time></trkpt><trkpt lat="43.11363597953542" lon="12.184170320965448"><ele>275.0</ele><time>2026-03-24T15:07:04.999Z</time></trkpt><trkpt lat="43.113724938388394" lon="12.184154299272727"><ele>275.0</ele><time>2026-03-24T15:07:05.999Z</time></trkpt><trkpt lat="43.1137901809978" lon="12.184162550789965"><ele>275.0</ele><time>2026-03-24T15:07:06.999Z</time></trkpt><trkpt lat="43.11384106493283" lon="12.184228572225752"><ele>275.0</ele><time>2026-03-24T15:07:07.999Z</time></trkpt><trkpt lat="43.11389700215691" lon="12.184301733295722"><ele>275.0</ele><time>2026-03-24T15:07:08.999Z</time></trkpt><trkpt lat="43.113961732074934" lon="12.184365060058004"><ele>275.0</ele><time>2026-03-24T15:07:09.999Z</time></trkpt><trkpt lat="43.11403384547062" lon="12.18444942877598"><ele>275.0</ele><time>2026-03-24T15:07:10.999Z</time></trkpt><trkpt lat="43.11411492434707" lon="12.1845110925481"><ele>275.0</ele><time>2026-03-24T15:07:11.999Z</time></trkpt><trkpt lat="43.11419410006524" lon="12.184537051162918"><ele>275.0</ele><time>2026-03-24T15:07:12.999Z</time></trkpt><trkpt lat="43.11426549958477" lon="12.184545788864456"><ele>275.0</ele><time>2026-03-24T15:07:13.999Z</time></trkpt><trkpt lat="43.11434238117893" lon="12.184579624482279"><ele>276.0</ele><time>2026-03-24T15:07:14.999Z</time></trkpt><trkpt lat="43.11442472953544" lon="12.184637937213216"><ele>277.0</ele><time>2026-03-24T15:07:15.999Z</time></trkpt><trkpt lat="43.11448242184868" lon="12.184699076739967"><ele>278.0</ele><time>2026-03-24T15:07:16.999Z</time></trkpt><trkpt lat="43.11457594595644" lon="12.184758917023098"><ele>279.0</ele><time>2026-03-24T15:07:18.999Z</time></trkpt><trkpt lat="43.114701730230365" lon="12.184626398040775"><ele>280.0</ele><time>2026-03-24T15:07:20.999Z</time></trkpt><trkpt lat="43.11478353002038" lon="12.184508929256793"><ele>280.0</ele><time>2026-03-24T15:07:21.999Z</time></trkpt><trkpt lat="43.114884250950006" lon="12.184383062203763"><ele>280.0</ele><time>2026-03-24T15:07:22.999Z</time></trkpt><trkpt lat="43.114981010051736" lon="12.184277322502012"><ele>280.0</ele><time>2026-03-24T15:07:23.999Z</time></trkpt><trkpt lat="43.115046862458875" lon="12.184189554645176"><ele>280.0</ele><time>2026-03-24T15:07:24.999Z</time></trkpt><trkpt lat="43.11510151560435" lon="12.184110470133506"><ele>280.0</ele><time>2026-03-24T15:07:25.999Z</time></trkpt><trkpt lat="43.11508698564197" lon="12.183953103882622"><ele>279.5</ele><time>2026-03-24T15:07:26.999Z</time></trkpt><trkpt lat="43.11508755986103" lon="12.18379951164612"><ele>279.0</ele><time>2026-03-24T15:07:27.999Z</time></trkpt><trkpt lat="43.11509587760082" lon="12.183598777340796"><ele>278.5</ele><time>2026-03-24T15:07:28.999Z</time></trkpt><trkpt lat="43.1150961128599" lon="12.18342361413727"><ele>278.0</ele><time>2026-03-24T15:07:29.999Z</time></trkpt><trkpt lat="43.115081584787006" lon="12.18325081474858"><ele>278.0</ele><time>2026-03-24T15:07:30.999Z</time></trkpt><trkpt lat="43.115062120169" lon="12.183088350834637"><ele>278.0</ele><time>2026-03-24T15:07:31.999Z</time></trkpt><trkpt lat="43.115025884983865" lon="12.182931132049168"><ele>278.0</ele><time>2026-03-24T15:07:32.999Z</time></trkpt><trkpt lat="43.11493793091358" lon="12.18278497013349"><ele>278.0</ele><time>2026-03-24T15:07:33.999Z</time></trkpt><trkpt lat="43.114837889851614" lon="12.182659068689887"><ele>276.5</ele><time>2026-03-24T15:07:34.999Z</time></trkpt><trkpt lat="43.11474519515308" lon="12.182546042818403"><ele>275.0</ele><time>2026-03-24T15:07:35.999Z</time></trkpt><trkpt lat="43.11466446921272" lon="12.182435908062686"><ele>273.5</ele><time>2026-03-24T15:07:36.999Z</time></trkpt><trkpt lat="43.11458541108273" lon="12.18230846374825"><ele>272.0</ele><time>2026-03-24T15:07:37.999Z</time></trkpt><trkpt lat="43.11450460284324" lon="12.182169592269789"><ele>271.25</ele><time>2026-03-24T15:07:38.999Z</time></trkpt><trkpt lat="43.114427945050366" lon="12.182033977419454"><ele>270.5</ele><time>2026-03-24T15:07:39.999Z</time></trkpt><trkpt lat="43.114355111592616" lon="12.181905128152838"><ele>269.75</ele><time>2026-03-24T15:07:40.999Z</time></trkpt><trkpt lat="43.114286392487806" lon="12.181782524440532"><ele>269.0</ele><time>2026-03-24T15:07:41.999Z</time></trkpt><trkpt lat="43.114213977620516" lon="12.181651053886094"><ele>268.75</ele><time>2026-03-24T15:07:42.999Z</time></trkpt><trkpt lat="43.11413877580623" lon="12.181508700761283"><ele>268.5</ele><time>2026-03-24T15:07:43.999Z</time></trkpt><trkpt lat="43.11406873893272" lon="12.181373183063908"><ele>268.25</ele><time>2026-03-24T15:07:44.999Z</time></trkpt><trkpt lat="43.11400276944133" lon="12.18125968398004"><ele>268.0</ele><time>2026-03-24T15:07:45.999Z</time></trkpt><trkpt lat="43.11393625853504" lon="12.18116747678948"><ele>268.0</ele><time>2026-03-24T15:07:46.999Z</time></trkpt><trkpt lat="43.11388282034778" lon="12.181095775255264"><ele>268.0</ele><time>2026-03-24T15:07:47.999Z</time></trkpt><trkpt lat="43.11381710421894" lon="12.180994902088402"><ele>268.0</ele><time>2026-03-24T15:07:49.999Z</time></trkpt><trkpt lat="43.11390335828879" lon="12.180876217596982"><ele>268.0</ele><time>2026-03-24T15:07:52.999Z</time></trkpt><trkpt lat="43.11401436468366" lon="12.180828780467616"><ele>268.0</ele><time>2026-03-24T15:07:53.999Z</time></trkpt><trkpt lat="43.11415170886097" lon="12.180761425032857"><ele>268.0</ele><time>2026-03-24T15:07:54.999Z</time></trkpt><trkpt lat="43.114316598865784" lon="12.180706273792559"><ele>268.0</ele><time>2026-03-24T15:07:55.999Z</time></trkpt><trkpt lat="43.114494017010735" lon="12.180664952650945"><ele>268.0</ele><time>2026-03-24T15:07:56.999Z</time></trkpt><trkpt lat="43.11465584865895" lon="12.18065574069464"><ele>267.75</ele><time>2026-03-24T15:07:57.999Z</time></trkpt><trkpt lat="43.1147945506844" lon="12.180667085756216"><ele>267.5</ele><time>2026-03-24T15:07:58.999Z</time></trkpt><trkpt lat="43.114913646324524" lon="12.180633788567285"><ele>267.25</ele><time>2026-03-24T15:07:59.999Z</time></trkpt><trkpt lat="43.11504540472386" lon="12.180544273095792"><ele>267.0</ele><time>2026-03-24T15:08:00.999Z</time></trkpt><trkpt lat="43.11516054720865" lon="12.18046470740716"><ele>268.0</ele><time>2026-03-24T15:08:01.999Z</time></trkpt><trkpt lat="43.115265841747814" lon="12.180429352842058"><ele>269.0</ele><time>2026-03-24T15:08:03Z</time></trkpt><trkpt lat="43.115355591056534" lon="12.18038649113548"><ele>270.0</ele><time>2026-03-24T15:08:04Z</time></trkpt><trkpt lat="43.11542951618921" lon="12.180290298247483"><ele>271.0</ele><time>2026-03-24T15:08:05Z</time></trkpt><trkpt lat="43.11550561400003" lon="12.180179656941318"><ele>272.0</ele><time>2026-03-24T15:08:06Z</time></trkpt><trkpt lat="43.115599771913345" lon="12.180067198192821"><ele>272.0</ele><time>2026-03-24T15:08:07Z</time></trkpt><trkpt lat="43.11567773817626" lon="12.17997779979685"><ele>272.0</ele><time>2026-03-24T15:08:08Z</time></trkpt><trkpt lat="43.115748673105564" lon="12.179852275305665"><ele>272.0</ele><time>2026-03-24T15:08:09Z</time></trkpt><trkpt lat="43.11582612805907" lon="12.17971987975374"><ele>272.0</ele><time>2026-03-24T15:08:10Z</time></trkpt><trkpt lat="43.11590036741851" lon="12.17960930230279"><ele>272.8</ele><time>2026-03-24T15:08:11Z</time></trkpt><trkpt lat="43.1159631478471" lon="12.179495920682461"><ele>273.6</ele><time>2026-03-24T15:08:12Z</time></trkpt><trkpt lat="43.1160175218281" lon="12.179370761356045"><ele>274.40000000000003</ele><time>2026-03-24T15:08:13Z</time></trkpt><trkpt lat="43.116064050828626" lon="12.17925034577807"><ele>275.2</ele><time>2026-03-24T15:08:14Z</time></trkpt><trkpt lat="43.116113263560834" lon="12.179142377359684"><ele>276.0</ele><time>2026-03-24T15:08:15Z</time></trkpt><trkpt lat="43.11615914898111" lon="12.17904956375301"><ele>275.1666666666667</ele><time>2026-03-24T15:08:16Z</time></trkpt><trkpt lat="43.11620315248968" lon="12.178964073281167"><ele>274.3333333333333</ele><time>2026-03-24T15:08:17Z</time></trkpt><trkpt lat="43.11625529131573" lon="12.178883698490973"><ele>273.5</ele><time>2026-03-24T15:08:18Z</time></trkpt><trkpt lat="43.11629961277082" lon="12.178796029928137"><ele>272.66666666666663</ele><time>2026-03-24T15:08:19Z</time></trkpt><trkpt lat="43.11629610631381" lon="12.178672536005342"><ele>271.8333333333333</ele><time>2026-03-24T15:08:20Z</time></trkpt><trkpt lat="43.116319148884934" lon="12.178559455356371"><ele>271.0</ele><time>2026-03-24T15:08:21Z</time></trkpt><trkpt lat="43.11632710597659" lon="12.178457973724024"><ele>271.0</ele><time>2026-03-24T15:08:22Z</time></trkpt><trkpt lat="43.116317035671614" lon="12.178360069792692"><ele>271.0</ele><time>2026-03-24T15:08:23Z</time></trkpt><trkpt lat="43.11630217973727" lon="12.178263449935057"><ele>271.0</ele><time>2026-03-24T15:08:24Z</time></trkpt><trkpt lat="43.116295852016414" lon="12.17817470788212"><ele>271.0</ele><time>2026-03-24T15:08:25Z</time></trkpt><trkpt lat="43.11628867223271" lon="12.178059754130377"><ele>271.0</ele><time>2026-03-24T15:08:27Z</time></trkpt><trkpt lat="43.116300100739146" lon="12.177942675101635"><ele>271.0</ele><time>2026-03-24T15:08:29Z</time></trkpt><trkpt lat="43.11633076742547" lon="12.177799445022604"><ele>271.0</ele><time>2026-03-24T15:08:31Z</time></trkpt><trkpt lat="43.116382393034606" lon="12.177712211763863"><ele>271.0</ele><time>2026-03-24T15:08:33Z</time></trkpt><trkpt lat="43.116378702573286" lon="12.17758248234342"><ele>271.0</ele><time>2026-03-24T15:08:35Z</time></trkpt><trkpt lat="43.116396919907544" lon="12.177499299680026"><ele>271.0</ele><time>2026-03-24T15:08:37Z</time></trkpt><trkpt lat="43.116396671069595" lon="12.17740584958039"><ele>271.0</ele><time>2026-03-24T15:08:39Z</time></trkpt><trkpt lat="43.116389734333424" lon="12.177307452130702"><ele>271.0</ele><time>2026-03-24T15:08:40Z</time></trkpt><trkpt lat="43.11636636668002" lon="12.177151379928747"><ele>271.5</ele><time>2026-03-24T15:08:41Z</time></trkpt><trkpt lat="43.11632311176827" lon="12.17694644390763"><ele>272.0</ele><time>2026-03-24T15:08:42Z</time></trkpt><trkpt lat="43.116274973312464" lon="12.176772703026934"><ele>272.5</ele><time>2026-03-24T15:08:43Z</time></trkpt><trkpt lat="43.11627011824177" lon="12.176674178894185"><ele>273.0</ele><time>2026-03-24T15:08:44Z</time></trkpt><trkpt lat="43.11642962409926" lon="12.176563155539228"><ele>273.0</ele><time>2026-03-24T15:08:49Z</time></trkpt><trkpt lat="43.11655463139043" lon="12.176593773561866"><ele>273.0</ele><time>2026-03-24T15:08:50Z</time></trkpt><trkpt lat="43.11669785020889" lon="12.17662600131763"><ele>273.0</ele><time>2026-03-24T15:08:51Z</time></trkpt><trkpt lat="43.11684017194526" lon="12.176671952272747"><ele>273.0</ele><time>2026-03-24T15:08:52Z</time></trkpt><trkpt lat="43.116950776790546" lon="12.176699460144885"><ele>274.4</ele><time>2026-03-24T15:08:53Z</time></trkpt><trkpt lat="43.117041645540965" lon="12.176717665393662"><ele>275.8</ele><time>2026-03-24T15:08:54Z</time></trkpt><trkpt lat="43.11710845827268" lon="12.176734672627736"><ele>277.2</ele><time>2026-03-24T15:08:55Z</time></trkpt><trkpt lat="43.11719654530301" lon="12.17667812624285"><ele>278.6</ele><time>2026-03-24T15:08:57Z</time></trkpt><trkpt lat="43.117212805565515" lon="12.176507543031388"><ele>280.0</ele><time>2026-03-24T15:08:59Z</time></trkpt><trkpt lat="43.11714799884911" lon="12.176401312547885"><ele>282.2</ele><time>2026-03-24T15:09:00Z</time></trkpt><trkpt lat="43.117091644522255" lon="12.176300419163015"><ele>284.4</ele><time>2026-03-24T15:09:00.999Z</time></trkpt><trkpt lat="43.11702145022177" lon="12.17618672941463"><ele>286.6</ele><time>2026-03-24T15:09:01.999Z</time></trkpt><trkpt lat="43.116957721449985" lon="12.176095326531705"><ele>288.8</ele><time>2026-03-24T15:09:02.999Z</time></trkpt><trkpt lat="43.116897682652" lon="12.176005945269972"><ele>291.0</ele><time>2026-03-24T15:09:03.999Z</time></trkpt><trkpt lat="43.116836855464" lon="12.17590775536523"><ele>291.0</ele><time>2026-03-24T15:09:04.999Z</time></trkpt><trkpt lat="43.11676532099091" lon="12.17578306772151"><ele>291.0</ele><time>2026-03-24T15:09:05.999Z</time></trkpt><trkpt lat="43.11669494674822" lon="12.17564911844081"><ele>291.0</ele><time>2026-03-24T15:09:06.999Z</time></trkpt><trkpt lat="43.11662676019287" lon="12.175510522212267"><ele>291.0</ele><time>2026-03-24T15:09:07.999Z</time></trkpt><trkpt lat="43.116551629133916" lon="12.175346609446263"><ele>291.0</ele><time>2026-03-24T15:09:08.999Z</time></trkpt><trkpt lat="43.11647682948641" lon="12.175174994014155"><ele>291.0</ele><time>2026-03-24T15:09:09.999Z</time></trkpt><trkpt lat="43.116403809669215" lon="12.174993628564087"><ele>291.0</ele><time>2026-03-24T15:09:10.999Z</time></trkpt><trkpt lat="43.1163337526197" lon="12.174797601406524"><ele>291.0</ele><time>2026-03-24T15:09:11.999Z</time></trkpt><trkpt lat="43.11627400714834" lon="12.174622865117408"><ele>291.0</ele><time>2026-03-24T15:09:12.999Z</time></trkpt><trkpt lat="43.11621648233044" lon="12.174468623826936"><ele>291.0</ele><time>2026-03-24T15:09:13.999Z</time></trkpt><trkpt lat="43.11615450066715" lon="12.174340113626892"><ele>291.0</ele><time>2026-03-24T15:09:14.999Z</time></trkpt><trkpt lat="43.11612145343854" lon="12.174225166830922"><ele>291.0</ele><time>2026-03-24T15:09:15.999Z</time></trkpt><trkpt lat="43.11610702443408" lon="12.174129531571417"><ele>291.0</ele><time>2026-03-24T15:09:16.999Z</time></trkpt><trkpt lat="43.11616384613898" lon="12.17400189016812"><ele>291.0</ele><time>2026-03-24T15:09:18.999Z</time></trkpt><trkpt lat="43.11622460759845" lon="12.173975238226651"><ele>291.0</ele><time>2026-03-24T15:09:19.999Z</time></trkpt><trkpt lat="43.116309541044046" lon="12.17400498914576"><ele>291.0</ele><time>2026-03-24T15:09:20.999Z</time></trkpt><trkpt lat="43.11640095354574" lon="12.17404114724979"><ele>291.0</ele><time>2026-03-24T15:09:21.999Z</time></trkpt><trkpt lat="43.11650676551558" lon="12.17406255849973"><ele>294.25</ele><time>2026-03-24T15:09:22.999Z</time></trkpt><trkpt lat="43.11662103084286" lon="12.174082371571433"><ele>297.5</ele><time>2026-03-24T15:09:23.999Z</time></trkpt><trkpt lat="43.116736602501625" lon="12.174127353368197"><ele>300.75</ele><time>2026-03-24T15:09:24.999Z</time></trkpt><trkpt lat="43.11685604713062" lon="12.174177053186154"><ele>304.0</ele><time>2026-03-24T15:09:25.999Z</time></trkpt><trkpt lat="43.11696586730946" lon="12.174225214355497"><ele>304.0</ele><time>2026-03-24T15:09:26.999Z</time></trkpt><trkpt lat="43.11706412897589" lon="12.174303994972089"><ele>304.0</ele><time>2026-03-24T15:09:27.999Z</time></trkpt><trkpt lat="43.117153835143476" lon="12.174419442362373"><ele>304.0</ele><time>2026-03-24T15:09:28.999Z</time></trkpt><trkpt lat="43.11726027937334" lon="12.174528819075714"><ele>304.0</ele><time>2026-03-24T15:09:29.999Z</time></trkpt><trkpt lat="43.117378394301184" lon="12.174625828010862"><ele>305.75</ele><time>2026-03-24T15:09:30.999Z</time></trkpt><trkpt lat="43.11748511424356" lon="12.174718325467504"><ele>307.5</ele><time>2026-03-24T15:09:31.999Z</time></trkpt><trkpt lat="43.11758486593344" lon="12.174788094959654"><ele>309.25</ele><time>2026-03-24T15:09:32.999Z</time></trkpt><trkpt lat="43.117696209284844" lon="12.174789467828257"><ele>311.0</ele><time>2026-03-24T15:09:33.999Z</time></trkpt><trkpt lat="43.1178008273756" lon="12.174738532629709"><ele>311.0</ele><time>2026-03-24T15:09:34.999Z</time></trkpt><trkpt lat="43.11789858237164" lon="12.17468338508576"><ele>311.0</ele><time>2026-03-24T15:09:35.999Z</time></trkpt><trkpt lat="43.11798604405215" lon="12.174679567163874"><ele>311.0</ele><time>2026-03-24T15:09:36.999Z</time></trkpt><trkpt lat="43.11805640123405" lon="12.174707386896518"><ele>311.0</ele><time>2026-03-24T15:09:37.999Z</time></trkpt><trkpt lat="43.118142350306954" lon="12.174789018400563"><ele>311.0</ele><time>2026-03-24T15:09:39.999Z</time></trkpt><trkpt lat="43.11820922071735" lon="12.174834344334164"><ele>311.0</ele><time>2026-03-24T15:09:41.999Z</time></trkpt><trkpt lat="43.118325796422454" lon="12.174687462754164"><ele>311.33333333333337</ele><time>2026-03-24T15:09:42.999Z</time></trkpt><trkpt lat="43.11840233452065" lon="12.174640351399354"><ele>311.6666666666667</ele><time>2026-03-24T15:09:43.999Z</time></trkpt><trkpt lat="43.118462746944196" lon="12.174589926163621"><ele>312.0</ele><time>2026-03-24T15:09:44.999Z</time></trkpt><trkpt lat="43.118529614818165" lon="12.174535250142261"><ele>312.3333333333333</ele><time>2026-03-24T15:09:45.999Z</time></trkpt><trkpt lat="43.11860789058659" lon="12.174504680445164"><ele>312.66666666666663</ele><time>2026-03-24T15:09:46.999Z</time></trkpt><trkpt lat="43.11868233562529" lon="12.174457363363587"><ele>313.0</ele><time>2026-03-24T15:09:47.999Z</time></trkpt><trkpt lat="43.11875623485001" lon="12.17440889363397"><ele>313.0</ele><time>2026-03-24T15:09:48.999Z</time></trkpt><trkpt lat="43.11882017421793" lon="12.174365498271769"><ele>313.0</ele><time>2026-03-24T15:09:49.999Z</time></trkpt><trkpt lat="43.11889505554701" lon="12.174266741239908"><ele>313.0</ele><time>2026-03-24T15:09:51.999Z</time></trkpt><trkpt lat="43.118901569365555" lon="12.174178099420045"><ele>313.0</ele><time>2026-03-24T15:09:53.999Z</time></trkpt><trkpt lat="43.11892711204083" lon="12.174097888034455"><ele>313.0</ele><time>2026-03-24T15:09:55.999Z</time></trkpt><trkpt lat="43.11897147853885" lon="12.174176193673883"><ele>313.0</ele><time>2026-03-24T15:10:01.999Z</time></trkpt><trkpt lat="43.11894028152115" lon="12.17431478793927"><ele>313.0</ele><time>2026-03-24T15:10:11Z</time></trkpt><trkpt lat="43.11888106179844" lon="12.174603522721357"><ele>313.0</ele><time>2026-03-24T15:10:14Z</time></trkpt><trkpt lat="43.11882147742731" lon="12.174719658567144"><ele>313.0</ele><time>2026-03-24T15:10:16Z</time></trkpt><trkpt lat="43.11874659489643" lon="12.174799169727196"><ele>313.0</ele><time>2026-03-24T15:10:18Z</time></trkpt><trkpt lat="43.11866484504648" lon="12.174857774028242"><ele>315.2</ele><time>2026-03-24T15:10:20Z</time></trkpt><trkpt lat="43.11860390612762" lon="12.174902979894695"><ele>317.4</ele><time>2026-03-24T15:10:23Z</time></trkpt><trkpt lat="43.11860001235652" lon="12.175021057153526"><ele>319.59999999999997</ele><time>2026-03-24T15:10:26Z</time></trkpt><trkpt lat="43.1186613720747" lon="12.175110243822933"><ele>321.8</ele><time>2026-03-24T15:10:28Z</time></trkpt><trkpt lat="43.11876732178798" lon="12.175185813023178"><ele>324.0</ele><time>2026-03-24T15:10:30Z</time></trkpt><trkpt lat="43.11886117993846" lon="12.175285034907791"><ele>324.0</ele><time>2026-03-24T15:10:32Z</time></trkpt><trkpt lat="43.11894488789323" lon="12.175358528772367"><ele>324.0</ele><time>2026-03-24T15:10:34Z</time></trkpt><trkpt lat="43.11902263829171" lon="12.175363282033263"><ele>324.0</ele><time>2026-03-24T15:10:35Z</time></trkpt><trkpt lat="43.11909846988276" lon="12.175376708411457"><ele>324.0</ele><time>2026-03-24T15:10:36Z</time></trkpt><trkpt lat="43.11918995553114" lon="12.175417188446731"><ele>324.0</ele><time>2026-03-24T15:10:38Z</time></trkpt><trkpt lat="43.11931209193537" lon="12.175483044226826"><ele>326.1666666666667</ele><time>2026-03-24T15:10:40Z</time></trkpt><trkpt lat="43.11939461279462" lon="12.175502855629173"><ele>328.3333333333333</ele><time>2026-03-24T15:10:41Z</time></trkpt><trkpt lat="43.119468502109775" lon="12.175519680664197"><ele>330.5</ele><time>2026-03-24T15:10:42Z</time></trkpt><trkpt lat="43.11954780437865" lon="12.175539443104638"><ele>332.66666666666663</ele><time>2026-03-24T15:10:43Z</time></trkpt><trkpt lat="43.119626764780534" lon="12.17555749054666"><ele>334.8333333333333</ele><time>2026-03-24T15:10:44Z</time></trkpt><trkpt lat="43.119707733405896" lon="12.175585922961238"><ele>337.0</ele><time>2026-03-24T15:10:45Z</time></trkpt><trkpt lat="43.11977513604411" lon="12.17559954350335"><ele>337.0</ele><time>2026-03-24T15:10:46Z</time></trkpt><trkpt lat="43.11988900425106" lon="12.175607943389288"><ele>337.0</ele><time>2026-03-24T15:10:48Z</time></trkpt><trkpt lat="43.120001601057496" lon="12.17559894938386"><ele>337.0</ele><time>2026-03-24T15:10:50Z</time></trkpt><trkpt lat="43.12008524660167" lon="12.175633006759757"><ele>337.0</ele><time>2026-03-24T15:10:52Z</time></trkpt><trkpt lat="43.1201671813936" lon="12.1756882517793"><ele>337.0</ele><time>2026-03-24T15:10:54Z</time></trkpt><trkpt lat="43.120229536987715" lon="12.175700531955364"><ele>340.0</ele><time>2026-03-24T15:10:55Z</time></trkpt><trkpt lat="43.120349461065715" lon="12.1757359367284"><ele>343.0</ele><time>2026-03-24T15:10:57Z</time></trkpt><trkpt lat="43.120457547991016" lon="12.175753769289841"><ele>346.0</ele><time>2026-03-24T15:10:59Z</time></trkpt><trkpt lat="43.12055805523224" lon="12.175786076984819"><ele>349.0</ele><time>2026-03-24T15:11:01Z</time></trkpt><trkpt lat="43.1206614328171" lon="12.17582459494127"><ele>352.0</ele><time>2026-03-24T15:11:03Z</time></trkpt><trkpt lat="43.12076648223694" lon="12.175879913316287"><ele>354.66666666666663</ele><time>2026-03-24T15:11:05Z</time></trkpt><trkpt lat="43.12086224631911" lon="12.17592004818528"><ele>357.3333333333333</ele><time>2026-03-24T15:11:07Z</time></trkpt><trkpt lat="43.12096296867706" lon="12.175927521746482"><ele>360.0</ele><time>2026-03-24T15:11:09Z</time></trkpt><trkpt lat="43.1210674931643" lon="12.175970973292479"><ele>362.6666666666667</ele><time>2026-03-24T15:11:10.999Z</time></trkpt><trkpt lat="43.12113041204791" lon="12.175987098017087"><ele>365.33333333333337</ele><time>2026-03-24T15:11:11.999Z</time></trkpt><trkpt lat="43.12119658865662" lon="12.176002487154163"><ele>368.0</ele><time>2026-03-24T15:11:12.999Z</time></trkpt><trkpt lat="43.12128602358844" lon="12.17602919133653"><ele>368.0</ele><time>2026-03-24T15:11:14.999Z</time></trkpt><trkpt lat="43.121390729679845" lon="12.176072962883989"><ele>368.0</ele><time>2026-03-24T15:11:16.999Z</time></trkpt><trkpt lat="43.12146468794526" lon="12.176161708723706"><ele>368.0</ele><time>2026-03-24T15:11:18.999Z</time></trkpt><trkpt lat="43.1215901800526" lon="12.176215668304277"><ele>368.0</ele><time>2026-03-24T15:11:20.999Z</time></trkpt><trkpt lat="43.121657891585606" lon="12.176270262887458"><ele>368.0</ele><time>2026-03-24T15:11:21.999Z</time></trkpt><trkpt lat="43.12173213677512" lon="12.17633715013482"><ele>370.79999999999995</ele><time>2026-03-24T15:11:22.999Z</time></trkpt><trkpt lat="43.121800566499964" lon="12.176384876580569"><ele>373.6</ele><time>2026-03-24T15:11:23.999Z</time></trkpt><trkpt lat="43.12193077263786" lon="12.1764139668016"><ele>376.4</ele><time>2026-03-24T15:11:25.999Z</time></trkpt><trkpt lat="43.12200445767842" lon="12.1764159934899"><ele>379.20000000000005</ele><time>2026-03-24T15:11:26.999Z</time></trkpt><trkpt lat="43.1221324664248" lon="12.176395635184912"><ele>382.0</ele><time>2026-03-24T15:11:28.999Z</time></trkpt><trkpt lat="43.12222506789582" lon="12.176389043693934"><ele>382.0</ele><time>2026-03-24T15:11:29.999Z</time></trkpt><trkpt lat="43.12232347849708" lon="12.176413099563671"><ele>382.0</ele><time>2026-03-24T15:11:30.999Z</time></trkpt><trkpt lat="43.12241587273498" lon="12.176415468148882"><ele>382.0</ele><time>2026-03-24T15:11:31.999Z</time></trkpt><trkpt lat="43.12248482865597" lon="12.176402171620254"><ele>382.0</ele><time>2026-03-24T15:11:32.999Z</time></trkpt><trkpt lat="43.12261407324677" lon="12.176443577869119"><ele>382.0</ele><time>2026-03-24T15:11:34.999Z</time></trkpt><trkpt lat="43.12268378967726" lon="12.17651423244367"><ele>384.0</ele><time>2026-03-24T15:11:35.999Z</time></trkpt><trkpt lat="43.12274009302693" lon="12.176558141192325"><ele>386.0</ele><time>2026-03-24T15:11:36.999Z</time></trkpt><trkpt lat="43.12287517286233" lon="12.176555493208628"><ele>388.0</ele><time>2026-03-24T15:11:38.999Z</time></trkpt><trkpt lat="43.1229590377711" lon="12.176558546316445"><ele>390.0</ele><time>2026-03-24T15:11:39.999Z</time></trkpt><trkpt lat="43.123044909557606" lon="12.17658872602437"><ele>392.00000000000006</ele><time>2026-03-24T15:11:40.999Z</time></trkpt><trkpt lat="43.12310795348008" lon="12.176604470981472"><ele>394.0</ele><time>2026-03-24T15:11:41.999Z</time></trkpt><trkpt lat="43.12323970650196" lon="12.176546434060603"><ele>396.2</ele><time>2026-03-24T15:11:43.999Z</time></trkpt><trkpt lat="43.12331159507957" lon="12.176528749700989"><ele>398.4</ele><time>2026-03-24T15:11:44.999Z</time></trkpt><trkpt lat="43.12341029104076" lon="12.176511151548711"><ele>400.6</ele><time>2026-03-24T15:11:46.999Z</time></trkpt><trkpt lat="43.123493527834846" lon="12.176530431433118"><ele>402.8</ele><time>2026-03-24T15:11:49.999Z</time></trkpt><trkpt lat="43.12357992241317" lon="12.176602489220514"><ele>405.0</ele><time>2026-03-24T15:11:52.999Z</time></trkpt><trkpt lat="43.123683273943456" lon="12.176655969335881"><ele>405.6</ele><time>2026-03-24T15:11:54.999Z</time></trkpt><trkpt lat="43.12378048797377" lon="12.176695354618753"><ele>406.2</ele><time>2026-03-24T15:11:55.999Z</time></trkpt><trkpt lat="43.12387601716635" lon="12.176724397961257"><ele>406.79999999999995</ele><time>2026-03-24T15:11:56.999Z</time></trkpt><trkpt lat="43.123969061648104" lon="12.176756024095198"><ele>407.4</ele><time>2026-03-24T15:11:57.999Z</time></trkpt><trkpt lat="43.12404333493532" lon="12.176781838229628"><ele>408.0</ele><time>2026-03-24T15:11:58.999Z</time></trkpt><trkpt lat="43.12416058676117" lon="12.176790057418879"><ele>408.1666666666667</ele><time>2026-03-24T15:12:00.999Z</time></trkpt><trkpt lat="43.124239998953186" lon="12.176684243373431"><ele>408.33333333333337</ele><time>2026-03-24T15:12:02.999Z</time></trkpt><trkpt lat="43.12425572318878" lon="12.176585505134678"><ele>408.5</ele><time>2026-03-24T15:12:03.999Z</time></trkpt><trkpt lat="43.12425844599885" lon="12.17648629334558"><ele>408.6666666666667</ele><time>2026-03-24T15:12:04.999Z</time></trkpt><trkpt lat="43.124316583781585" lon="12.176436695800476"><ele>408.83333333333337</ele><time>2026-03-24T15:12:06.999Z</time></trkpt><trkpt lat="43.12441576672896" lon="12.176517246079129"><ele>409.0</ele><time>2026-03-24T15:12:08.999Z</time></trkpt><trkpt lat="43.12452034382381" lon="12.176573592825294"><ele>409.6</ele><time>2026-03-24T15:12:10.999Z</time></trkpt><trkpt lat="43.1246185073164" lon="12.176642567949292"><ele>410.2</ele><time>2026-03-24T15:12:12.999Z</time></trkpt><trkpt lat="43.12471950541171" lon="12.176693726552328"><ele>410.8</ele><time>2026-03-24T15:12:15Z</time></trkpt><trkpt lat="43.124826551473745" lon="12.176747761165784"><ele>411.40000000000003</ele><time>2026-03-24T15:12:17Z</time></trkpt><trkpt lat="43.1249345001827" lon="12.176805610622733"><ele>412.0</ele><time>2026-03-24T15:12:19Z</time></trkpt><trkpt lat="43.125044645195096" lon="12.176875490374494"><ele>410.6666666666667</ele><time>2026-03-24T15:12:21Z</time></trkpt><trkpt lat="43.12511104388934" lon="12.1769065942533"><ele>409.33333333333337</ele><time>2026-03-24T15:12:22Z</time></trkpt><trkpt lat="43.12518577594925" lon="12.176934948957575"><ele>408.0</ele><time>2026-03-24T15:12:23Z</time></trkpt><trkpt lat="43.12525984319321" lon="12.176971826305811"><ele>406.66666666666663</ele><time>2026-03-24T15:12:24Z</time></trkpt><trkpt lat="43.12533954177143" lon="12.177002614536562"><ele>405.3333333333333</ele><time>2026-03-24T15:12:25Z</time></trkpt><trkpt lat="43.12540878861324" lon="12.177036836171812"><ele>404.0</ele><time>2026-03-24T15:12:26Z</time></trkpt><trkpt lat="43.12548049089673" lon="12.177062146165214"><ele>403.99999999999994</ele><time>2026-03-24T15:12:27Z</time></trkpt><trkpt lat="43.12555445692395" lon="12.177092745130937"><ele>404.0</ele><time>2026-03-24T15:12:28Z</time></trkpt><trkpt lat="43.12562770841336" lon="12.177140379128064"><ele>404.0</ele><time>2026-03-24T15:12:29Z</time></trkpt><trkpt lat="43.125701012255846" lon="12.177181278960118"><ele>404.0</ele><time>2026-03-24T15:12:30Z</time></trkpt><trkpt lat="43.12577306515035" lon="12.1772210133365"><ele>403.99999999999994</ele><time>2026-03-24T15:12:31Z</time></trkpt><trkpt lat="43.1258393481762" lon="12.177252466547996"><ele>404.0</ele><time>2026-03-24T15:12:32Z</time></trkpt><trkpt lat="43.12590889174473" lon="12.177273674020045"><ele>401.57142857142856</ele><time>2026-03-24T15:12:33Z</time></trkpt><trkpt lat="43.1259815135007" lon="12.17728965653266"><ele>399.1428571428571</ele><time>2026-03-24T15:12:34Z</time></trkpt><trkpt lat="43.126051581988555" lon="12.177309855994578"><ele>396.7142857142857</ele><time>2026-03-24T15:12:35Z</time></trkpt><trkpt lat="43.126121426174805" lon="12.177331409608826"><ele>394.2857142857143</ele><time>2026-03-24T15:12:36Z</time></trkpt><trkpt lat="43.12619007807151" lon="12.177349922026885"><ele>391.8571428571429</ele><time>2026-03-24T15:12:37Z</time></trkpt><trkpt lat="43.12626569038781" lon="12.17737025218887"><ele>389.42857142857144</ele><time>2026-03-24T15:12:38Z</time></trkpt><trkpt lat="43.12632849114789" lon="12.177394118987957"><ele>387.0</ele><time>2026-03-24T15:12:39Z</time></trkpt><trkpt lat="43.12639530372448" lon="12.177402869950114"><ele>386.6</ele><time>2026-03-24T15:12:40Z</time></trkpt><trkpt lat="43.126501038725706" lon="12.177407902076856"><ele>386.20000000000005</ele><time>2026-03-24T15:12:42Z</time></trkpt><trkpt lat="43.126626680144945" lon="12.177396505194723"><ele>385.8</ele><time>2026-03-24T15:12:44Z</time></trkpt><trkpt lat="43.12675204507716" lon="12.177402542112805"><ele>385.4</ele><time>2026-03-24T15:12:46Z</time></trkpt><trkpt lat="43.12681535438173" lon="12.177402070562056"><ele>385.0</ele><time>2026-03-24T15:12:47Z</time></trkpt><trkpt lat="43.12691386625046" lon="12.177411540279683"><ele>383.33333333333337</ele><time>2026-03-24T15:12:49Z</time></trkpt><trkpt lat="43.127006098363594" lon="12.177432585161977"><ele>381.6666666666667</ele><time>2026-03-24T15:12:51Z</time></trkpt><trkpt lat="43.12707370675655" lon="12.17744627730273"><ele>380.0</ele><time>2026-03-24T15:12:54Z</time></trkpt><trkpt lat="43.12715120523908" lon="12.177366763214065"><ele>378.33333333333337</ele><time>2026-03-24T15:12:56Z</time></trkpt><trkpt lat="43.12720883101248" lon="12.177313387068985"><ele>376.6666666666667</ele><time>2026-03-24T15:12:57Z</time></trkpt><trkpt lat="43.127272277999175" lon="12.177304084864993"><ele>375.0</ele><time>2026-03-24T15:12:58Z</time></trkpt><trkpt lat="43.12737382042786" lon="12.177360915163913"><ele>374.6</ele><time>2026-03-24T15:13:00Z</time></trkpt><trkpt lat="43.127426200506434" lon="12.17742094220175"><ele>374.2</ele><time>2026-03-24T15:13:01Z</time></trkpt><trkpt lat="43.127500571078194" lon="12.17749399070806"><ele>373.79999999999995</ele><time>2026-03-24T15:13:02Z</time></trkpt><trkpt lat="43.12756858927754" lon="12.177591435836627"><ele>373.4</ele><time>2026-03-24T15:13:03Z</time></trkpt><trkpt lat="43.1276444525744" lon="12.177695320187292"><ele>373.0</ele><time>2026-03-24T15:13:04Z</time></trkpt><trkpt lat="43.12772416864298" lon="12.177803713855836"><ele>373.0</ele><time>2026-03-24T15:13:05Z</time></trkpt><trkpt lat="43.127814409003854" lon="12.177921156581661"><ele>373.0</ele><time>2026-03-24T15:13:06Z</time></trkpt><trkpt lat="43.12790309105669" lon="12.178033626583213"><ele>373.0</ele><time>2026-03-24T15:13:07Z</time></trkpt><trkpt lat="43.12798533056345" lon="12.178130607038144"><ele>373.0</ele><time>2026-03-24T15:13:08Z</time></trkpt><trkpt lat="43.12806859688188" lon="12.178218804381062"><ele>373.75</ele><time>2026-03-24T15:13:09Z</time></trkpt><trkpt lat="43.12814843764523" lon="12.178318889298412"><ele>374.5</ele><time>2026-03-24T15:13:10Z</time></trkpt><trkpt lat="43.12824292879844" lon="12.178395383996541"><ele>375.25</ele><time>2026-03-24T15:13:11Z</time></trkpt><trkpt lat="43.12835181314235" lon="12.178437741305514"><ele>376.0</ele><time>2026-03-24T15:13:12Z</time></trkpt><trkpt lat="43.12847130317016" lon="12.17849584508814"><ele>376.0</ele><time>2026-03-24T15:13:13Z</time></trkpt><trkpt lat="43.12859904413048" lon="12.178566020922863"><ele>376.0</ele><time>2026-03-24T15:13:14Z</time></trkpt><trkpt lat="43.128729484816816" lon="12.178633052955197"><ele>376.0</ele><time>2026-03-24T15:13:15Z</time></trkpt><trkpt lat="43.128865182838176" lon="12.178705338209557"><ele>376.0</ele><time>2026-03-24T15:13:16Z</time></trkpt><trkpt lat="43.129010529273636" lon="12.178785283025514"><ele>376.0</ele><time>2026-03-24T15:13:17Z</time></trkpt><trkpt lat="43.12915899221851" lon="12.178869255244077"><ele>376.0</ele><time>2026-03-24T15:13:18Z</time></trkpt><trkpt lat="43.1293046992063" lon="12.178945592305672"><ele>376.0</ele><time>2026-03-24T15:13:19Z</time></trkpt><trkpt lat="43.12945264066105" lon="12.179020123069902"><ele>376.0</ele><time>2026-03-24T15:13:20Z</time></trkpt><trkpt lat="43.12960131258374" lon="12.17908526798722"><ele>376.0</ele><time>2026-03-24T15:13:21Z</time></trkpt><trkpt lat="43.12974918483706" lon="12.179154128232566"><ele>376.0</ele><time>2026-03-24T15:13:21.999Z</time></trkpt><trkpt lat="43.12989555880265" lon="12.179219535400419"><ele>376.75</ele><time>2026-03-24T15:13:22.999Z</time></trkpt><trkpt lat="43.1300382342961" lon="12.17928214601263"><ele>377.5</ele><time>2026-03-24T15:13:23.999Z</time></trkpt><trkpt lat="43.130179372066586" lon="12.179346871346073"><ele>378.25</ele><time>2026-03-24T15:13:24.999Z</time></trkpt><trkpt lat="43.130323327948965" lon="12.179408372237841"><ele>379.0</ele><time>2026-03-24T15:13:25.999Z</time></trkpt><trkpt lat="43.13046310620191" lon="12.179461417807959"><ele>379.0</ele><time>2026-03-24T15:13:26.999Z</time></trkpt><trkpt lat="43.130605497337136" lon="12.179514902638696"><ele>379.0</ele><time>2026-03-24T15:13:27.999Z</time></trkpt><trkpt lat="43.13074771442432" lon="12.17956976797714"><ele>379.0</ele><time>2026-03-24T15:13:28.999Z</time></trkpt><trkpt lat="43.13088228170037" lon="12.179624261298933"><ele>379.0</ele><time>2026-03-24T15:13:29.999Z</time></trkpt><trkpt lat="43.13101752603972" lon="12.17967463525762"><ele>378.5</ele><time>2026-03-24T15:13:30.999Z</time></trkpt><trkpt lat="43.13114399206985" lon="12.179722997817183"><ele>378.0</ele><time>2026-03-24T15:13:31.999Z</time></trkpt><trkpt lat="43.13126803855958" lon="12.179772477604148"><ele>377.5</ele><time>2026-03-24T15:13:32.999Z</time></trkpt><trkpt lat="43.131388466263964" lon="12.17985815768493"><ele>377.0</ele><time>2026-03-24T15:13:33.999Z</time></trkpt><trkpt lat="43.131498200455745" lon="12.179949694831608"><ele>378.5</ele><time>2026-03-24T15:13:34.999Z</time></trkpt><trkpt lat="43.131613039168634" lon="12.18001589150037"><ele>380.0</ele><time>2026-03-24T15:13:35.999Z</time></trkpt><trkpt lat="43.131738706831726" lon="12.180064822299482"><ele>381.5</ele><time>2026-03-24T15:13:36.999Z</time></trkpt><trkpt lat="43.13188551729031" lon="12.180092763685595"><ele>383.0</ele><time>2026-03-24T15:13:37.999Z</time></trkpt><trkpt lat="43.132025068870824" lon="12.180151474445784"><ele>383.0</ele><time>2026-03-24T15:13:38.999Z</time></trkpt><trkpt lat="43.13215552305636" lon="12.180233494143092"><ele>383.0</ele><time>2026-03-24T15:13:39.999Z</time></trkpt><trkpt lat="43.13228595150808" lon="12.180304811925435"><ele>383.0</ele><time>2026-03-24T15:13:40.999Z</time></trkpt><trkpt lat="43.13241873419029" lon="12.180372161526437"><ele>383.0</ele><time>2026-03-24T15:13:41.999Z</time></trkpt><trkpt lat="43.13255432543937" lon="12.18043289662756"><ele>383.75</ele><time>2026-03-24T15:13:42.999Z</time></trkpt><trkpt lat="43.13269193073019" lon="12.180483226177278"><ele>384.5</ele><time>2026-03-24T15:13:43.999Z</time></trkpt><trkpt lat="43.13283145046193" lon="12.18053491385328"><ele>385.25</ele><time>2026-03-24T15:13:44.999Z</time></trkpt><trkpt lat="43.13296877732598" lon="12.180591001052793"><ele>386.0</ele><time>2026-03-24T15:13:45.999Z</time></trkpt><trkpt lat="43.13310816617013" lon="12.180653402873226"><ele>386.0</ele><time>2026-03-24T15:13:46.999Z</time></trkpt><trkpt lat="43.13325262411587" lon="12.180711338456124"><ele>386.0</ele><time>2026-03-24T15:13:47.999Z</time></trkpt><trkpt lat="43.13341991689145" lon="12.180783502432165"><ele>386.0</ele><time>2026-03-24T15:13:48.999Z</time></trkpt><trkpt lat="43.1335887438315" lon="12.180864829326074"><ele>386.0</ele><time>2026-03-24T15:13:49.999Z</time></trkpt><trkpt lat="43.13372950678901" lon="12.180941095503002"><ele>386.0</ele><time>2026-03-24T15:13:50.999Z</time></trkpt><trkpt lat="43.1338791199743" lon="12.181013860341247"><ele>386.0</ele><time>2026-03-24T15:13:51.999Z</time></trkpt><trkpt lat="43.13401702068005" lon="12.181076447311113"><ele>388.3333333333333</ele><time>2026-03-24T15:13:52.999Z</time></trkpt><trkpt lat="43.13415513758712" lon="12.18115064882715"><ele>390.66666666666663</ele><time>2026-03-24T15:13:53.999Z</time></trkpt><trkpt lat="43.134298776246624" lon="12.181230034990456"><ele>393.0</ele><time>2026-03-24T15:13:54.999Z</time></trkpt><trkpt lat="43.134444301531936" lon="12.181312334940474"><ele>393.0</ele><time>2026-03-24T15:13:55.999Z</time></trkpt><trkpt lat="43.13457549756743" lon="12.18138201283874"><ele>393.0</ele><time>2026-03-24T15:13:56.999Z</time></trkpt><trkpt lat="43.1347007583547" lon="12.181449058738341"><ele>393.0</ele><time>2026-03-24T15:13:57.999Z</time></trkpt><trkpt lat="43.13482481455124" lon="12.18153439570453"><ele>393.0</ele><time>2026-03-24T15:13:58.999Z</time></trkpt><trkpt lat="43.13495440111806" lon="12.181653377095333"><ele>392.25</ele><time>2026-03-24T15:13:59.999Z</time></trkpt><trkpt lat="43.13507998207481" lon="12.181781142281364"><ele>391.5</ele><time>2026-03-24T15:14:00.999Z</time></trkpt><trkpt lat="43.13519122122662" lon="12.1818880052899"><ele>390.75</ele><time>2026-03-24T15:14:01.999Z</time></trkpt><trkpt lat="43.135286420181444" lon="12.181984250713302"><ele>390.0</ele><time>2026-03-24T15:14:02.999Z</time></trkpt><trkpt lat="43.135367005644106" lon="12.182068294171202"><ele>390.0</ele><time>2026-03-24T15:14:03.999Z</time></trkpt><trkpt lat="43.135438644141395" lon="12.182141035061417"><ele>390.0</ele><time>2026-03-24T15:14:04.999Z</time></trkpt><trkpt lat="43.135494966337625" lon="12.182189165515299"><ele>390.0</ele><time>2026-03-24T15:14:05.999Z</time></trkpt><trkpt lat="43.13557204689449" lon="12.182238238769054"><ele>390.0</ele><time>2026-03-24T15:14:07.999Z</time></trkpt><trkpt lat="43.13563329548499" lon="12.1823645739567"><ele>390.0</ele><time>2026-03-24T15:14:11.999Z</time></trkpt><trkpt lat="43.13568558637295" lon="12.182448349188913"><ele>390.0</ele><time>2026-03-24T15:14:12.999Z</time></trkpt><trkpt lat="43.13574762300982" lon="12.18254989158153"><ele>390.6</ele><time>2026-03-24T15:14:13.999Z</time></trkpt><trkpt lat="43.1358290791009" lon="12.182683376673484"><ele>391.2</ele><time>2026-03-24T15:14:14.999Z</time></trkpt><trkpt lat="43.13590359085361" lon="12.182795848105947"><ele>391.79999999999995</ele><time>2026-03-24T15:14:15.999Z</time></trkpt><trkpt lat="43.135958950100935" lon="12.182896853968966"><ele>392.4</ele><time>2026-03-24T15:14:16.999Z</time></trkpt><trkpt lat="43.13599183791952" lon="12.183004399449748"><ele>393.0</ele><time>2026-03-24T15:14:17.999Z</time></trkpt><trkpt lat="43.135989765273315" lon="12.183137330302614"><ele>393.5</ele><time>2026-03-24T15:14:18.999Z</time></trkpt><trkpt lat="43.13595314271959" lon="12.18330298867335"><ele>394.0</ele><time>2026-03-24T15:14:19.999Z</time></trkpt><trkpt lat="43.135896827358316" lon="12.183464359348976"><ele>394.5</ele><time>2026-03-24T15:14:21Z</time></trkpt><trkpt lat="43.13579348097582" lon="12.183569895122153"><ele>395.0</ele><time>2026-03-24T15:14:22Z</time></trkpt><trkpt lat="43.13568297298462" lon="12.183685246775312"><ele>394.8</ele><time>2026-03-24T15:14:23Z</time></trkpt><trkpt lat="43.13557165466118" lon="12.183806185262856"><ele>394.6</ele><time>2026-03-24T15:14:24Z</time></trkpt><trkpt lat="43.13549854984565" lon="12.183909547121422"><ele>394.4</ele><time>2026-03-24T15:14:25Z</time></trkpt><trkpt lat="43.13546018931747" lon="12.184011177906845"><ele>394.2</ele><time>2026-03-24T15:14:26Z</time></trkpt><trkpt lat="43.13542353887871" lon="12.184090896118704"><ele>394.0</ele><time>2026-03-24T15:14:27Z</time></trkpt><trkpt lat="43.13539447570187" lon="12.184199070793778"><ele>394.0</ele><time>2026-03-24T15:14:28Z</time></trkpt><trkpt lat="43.13537033091859" lon="12.184296326719599"><ele>394.0</ele><time>2026-03-24T15:14:29Z</time></trkpt><trkpt lat="43.13537144786308" lon="12.184420036935476"><ele>394.0</ele><time>2026-03-24T15:14:31Z</time></trkpt><trkpt lat="43.13551221942606" lon="12.18444975141909"><ele>394.0</ele><time>2026-03-24T15:14:34Z</time></trkpt><trkpt lat="43.13558655957392" lon="12.18441854695365"><ele>394.0</ele><time>2026-03-24T15:14:35Z</time></trkpt><trkpt lat="43.135657139534224" lon="12.184407626128078"><ele>396.6</ele><time>2026-03-24T15:14:36Z</time></trkpt><trkpt lat="43.13576518310067" lon="12.184439642664639"><ele>399.2</ele><time>2026-03-24T15:14:37Z</time></trkpt><trkpt lat="43.135882887162865" lon="12.184458696976126"><ele>401.8</ele><time>2026-03-24T15:14:38Z</time></trkpt><trkpt lat="43.13595397711897" lon="12.18449180875991"><ele>404.40000000000003</ele><time>2026-03-24T15:14:39Z</time></trkpt><trkpt lat="43.136029398973584" lon="12.184548167461543"><ele>407.0</ele><time>2026-03-24T15:14:40Z</time></trkpt><trkpt lat="43.13609345983065" lon="12.184557536297419"><ele>407.0</ele><time>2026-03-24T15:14:41Z</time></trkpt><trkpt lat="43.13620025499577" lon="12.184512731390207"><ele>407.0</ele><time>2026-03-24T15:14:43Z</time></trkpt><trkpt lat="43.13630954178427" lon="12.18450573787423"><ele>407.0</ele><time>2026-03-24T15:14:45Z</time></trkpt><trkpt lat="43.1364001998118" lon="12.184525306228057"><ele>407.0</ele><time>2026-03-24T15:14:48Z</time></trkpt><trkpt lat="43.13649397224113" lon="12.18453171251059"><ele>407.0</ele><time>2026-03-24T15:14:50Z</time></trkpt><trkpt lat="43.136600153129415" lon="12.18453170225537"><ele>408.3333333333333</ele><time>2026-03-24T15:14:52Z</time></trkpt><trkpt lat="43.13669761584291" lon="12.184545161720393"><ele>409.66666666666663</ele><time>2026-03-24T15:14:54Z</time></trkpt><trkpt lat="43.13674910803047" lon="12.184628280946281"><ele>411.0</ele><time>2026-03-24T15:14:56Z</time></trkpt><trkpt lat="43.136727982214644" lon="12.184734183239081"><ele>412.33333333333337</ele><time>2026-03-24T15:14:57Z</time></trkpt><trkpt lat="43.13670733430156" lon="12.184851355071046"><ele>413.6666666666667</ele><time>2026-03-24T15:14:58Z</time></trkpt><trkpt lat="43.13671203428685" lon="12.184953625681318"><ele>415.0</ele><time>2026-03-24T15:14:59Z</time></trkpt><trkpt lat="43.13671651502499" lon="12.18508643113149"><ele>417.2</ele><time>2026-03-24T15:15:01Z</time></trkpt><trkpt lat="43.13672993029805" lon="12.185191537638872"><ele>419.4</ele><time>2026-03-24T15:15:03Z</time></trkpt><trkpt lat="43.13686714858249" lon="12.185231563067436"><ele>421.6</ele><time>2026-03-24T15:15:05Z</time></trkpt><trkpt lat="43.136976464910234" lon="12.185227067594099"><ele>423.8</ele><time>2026-03-24T15:15:06Z</time></trkpt><trkpt lat="43.137092671723984" lon="12.18521927585486"><ele>426.0</ele><time>2026-03-24T15:15:07Z</time></trkpt><trkpt lat="43.13718060044979" lon="12.185227291663486"><ele>426.0</ele><time>2026-03-24T15:23:22Z</time></trkpt><trkpt lat="43.13724473997924" lon="12.185289569666729"><ele>426.0</ele><time>2026-03-24T15:23:26Z</time></trkpt><trkpt lat="43.13731697617048" lon="12.185336291823166"><ele>426.0</ele><time>2026-03-24T15:23:48.999Z</time></trkpt><trkpt lat="43.137395518451164" lon="12.185350383926162"><ele>426.0</ele><time>2026-03-24T15:23:54.999Z</time></trkpt><trkpt lat="43.13752282967485" lon="12.185406641411628"><ele>426.0</ele><time>2026-03-24T15:23:56.999Z</time></trkpt><trkpt lat="43.137578627178755" lon="12.185464980621855"><ele>426.0</ele><time>2026-03-24T15:23:57.999Z</time></trkpt><trkpt lat="43.13763449642977" lon="12.185514886367457"><ele>426.8333333333333</ele><time>2026-03-24T15:23:58.999Z</time></trkpt><trkpt lat="43.13769123774369" lon="12.185558832125313"><ele>427.66666666666663</ele><time>2026-03-24T15:23:59.999Z</time></trkpt><trkpt lat="43.13777737667941" lon="12.185664262909164"><ele>428.5</ele><time>2026-03-24T15:24:01.999Z</time></trkpt><trkpt lat="43.13783919324122" lon="12.185811199747231"><ele>429.3333333333333</ele><time>2026-03-24T15:24:03.999Z</time></trkpt><trkpt lat="43.13789532393246" lon="12.185853030593076"><ele>430.16666666666663</ele><time>2026-03-24T15:24:04.999Z</time></trkpt><trkpt lat="43.137963410512555" lon="12.185885010743272"><ele>431.0</ele><time>2026-03-24T15:24:05.999Z</time></trkpt><trkpt lat="43.13802561906927" lon="12.18591504646637"><ele>429.3333333333333</ele><time>2026-03-24T15:24:06.999Z</time></trkpt><trkpt lat="43.13808202757211" lon="12.185955718334412"><ele>427.66666666666663</ele><time>2026-03-24T15:24:07.999Z</time></trkpt><trkpt lat="43.13818338582533" lon="12.186027168141404"><ele>426.0</ele><time>2026-03-24T15:24:09.999Z</time></trkpt><trkpt lat="43.138234653759376" lon="12.186080139845181"><ele>424.33333333333337</ele><time>2026-03-24T15:24:11.999Z</time></trkpt><trkpt lat="43.13831940327319" lon="12.186107159360924"><ele>422.6666666666667</ele><time>2026-03-24T15:24:14.999Z</time></trkpt><trkpt lat="43.13839932852485" lon="12.1861528636036"><ele>421.0</ele><time>2026-03-24T15:24:16.999Z</time></trkpt><trkpt lat="43.138517363818366" lon="12.186178945346674"><ele>421.0</ele><time>2026-03-24T15:24:18.999Z</time></trkpt><trkpt lat="43.138584641269475" lon="12.186197678491778"><ele>421.0</ele><time>2026-03-24T15:24:19.999Z</time></trkpt><trkpt lat="43.13869265755001" lon="12.18619092877898"><ele>421.0</ele><time>2026-03-24T15:24:21.999Z</time></trkpt><trkpt lat="43.13879148910492" lon="12.186242398953755"><ele>421.0</ele><time>2026-03-24T15:24:23.999Z</time></trkpt><trkpt lat="43.138884405147095" lon="12.186309749165503"><ele>421.0</ele><time>2026-03-24T15:24:25.999Z</time></trkpt><trkpt lat="43.13897252026002" lon="12.186385035292744"><ele>420.0</ele><time>2026-03-24T15:24:27.999Z</time></trkpt><trkpt lat="43.139062783847336" lon="12.186469784733617"><ele>419.0</ele><time>2026-03-24T15:24:29.999Z</time></trkpt><trkpt lat="43.139154209635514" lon="12.186559973044858"><ele>418.0</ele><time>2026-03-24T15:24:31.999Z</time></trkpt><trkpt lat="43.139234956854445" lon="12.186673343929916"><ele>417.0</ele><time>2026-03-24T15:24:33.999Z</time></trkpt><trkpt lat="43.13929456216038" lon="12.186802093944989"><ele>416.0</ele><time>2026-03-24T15:24:35.999Z</time></trkpt><trkpt lat="43.13936182013107" lon="12.186898855299145"><ele>414.8</ele><time>2026-03-24T15:24:37.999Z</time></trkpt><trkpt lat="43.13944902729003" lon="12.186969120917537"><ele>413.6</ele><time>2026-03-24T15:24:39.999Z</time></trkpt><trkpt lat="43.13953052669616" lon="12.187081330805228"><ele>412.4</ele><time>2026-03-24T15:24:41.999Z</time></trkpt><trkpt lat="43.13959300216067" lon="12.187217465992516"><ele>411.2</ele><time>2026-03-24T15:24:43.999Z</time></trkpt><trkpt lat="43.13962865720727" lon="12.187291738771675"><ele>410.0</ele><time>2026-03-24T15:24:44.999Z</time></trkpt><trkpt lat="43.13966615338085" lon="12.187376170671309"><ele>408.14285714285717</ele><time>2026-03-24T15:24:45.999Z</time></trkpt><trkpt lat="43.139698655240565" lon="12.187465980184337"><ele>406.2857142857143</ele><time>2026-03-24T15:24:46.999Z</time></trkpt><trkpt lat="43.139725575762085" lon="12.18755592665581"><ele>404.42857142857144</ele><time>2026-03-24T15:24:47.999Z</time></trkpt><trkpt lat="43.139754705032544" lon="12.187633810686293"><ele>402.57142857142856</ele><time>2026-03-24T15:24:48.999Z</time></trkpt><trkpt lat="43.139793793980246" lon="12.187717979348951"><ele>400.71428571428567</ele><time>2026-03-24T15:24:50Z</time></trkpt><trkpt lat="43.13984003659633" lon="12.18779512806094"><ele>398.85714285714283</ele><time>2026-03-24T15:24:51Z</time></trkpt><trkpt lat="43.13988699478223" lon="12.187876047330974"><ele>397.0</ele><time>2026-03-24T15:24:52Z</time></trkpt><trkpt lat="43.13992521553489" lon="12.187956889844745"><ele>397.00000000000006</ele><time>2026-03-24T15:24:53Z</time></trkpt><trkpt lat="43.13996145900947" lon="12.188043776956896"><ele>397.0</ele><time>2026-03-24T15:24:54Z</time></trkpt><trkpt lat="43.14004696911308" lon="12.18817908751288"><ele>397.0</ele><time>2026-03-24T15:24:56Z</time></trkpt><trkpt lat="43.140090855379114" lon="12.188244602790501"><ele>397.0</ele><time>2026-03-24T15:24:57Z</time></trkpt><trkpt lat="43.140139182418444" lon="12.1883005764934"><ele>397.00000000000006</ele><time>2026-03-24T15:24:58Z</time></trkpt><trkpt lat="43.140195972914306" lon="12.188345572325538"><ele>397.0</ele><time>2026-03-24T15:24:59Z</time></trkpt><trkpt lat="43.140285543488666" lon="12.188380476328588"><ele>397.0</ele><time>2026-03-24T15:25:01Z</time></trkpt><trkpt lat="43.14035813435498" lon="12.188357117554359"><ele>397.0</ele><time>2026-03-24T15:25:03Z</time></trkpt><trkpt lat="43.140426955375496" lon="12.188290077767082"><ele>397.0</ele><time>2026-03-24T15:25:05Z</time></trkpt><trkpt lat="43.14049645056167" lon="12.188213754165425"><ele>397.0</ele><time>2026-03-24T15:25:07Z</time></trkpt><trkpt lat="43.14055848211699" lon="12.188098900974685"><ele>397.0</ele><time>2026-03-24T15:25:09Z</time></trkpt><trkpt lat="43.140625913010915" lon="12.18798398345971"><ele>397.00000000000006</ele><time>2026-03-24T15:25:11Z</time></trkpt><trkpt lat="43.14067621781236" lon="12.187907328427357"><ele>397.0</ele><time>2026-03-24T15:25:13Z</time></trkpt><trkpt lat="43.14071387492302" lon="12.187835005111403"><ele>397.0</ele><time>2026-03-24T15:25:15Z</time></trkpt><trkpt lat="43.140737343531846" lon="12.187741429485195"><ele>397.0</ele><time>2026-03-24T15:25:17Z</time></trkpt><trkpt lat="43.14078988280856" lon="12.187613798239061"><ele>397.00000000000006</ele><time>2026-03-24T15:25:19Z</time></trkpt><trkpt lat="43.14083812329822" lon="12.187519658030213"><ele>397.0</ele><time>2026-03-24T15:25:21Z</time></trkpt><trkpt lat="43.14082222492294" lon="12.187426952619063"><ele>393.6</ele><time>2026-03-24T15:25:23Z</time></trkpt><trkpt lat="43.14081733479289" lon="12.18730987448785"><ele>390.20000000000005</ele><time>2026-03-24T15:25:25Z</time></trkpt><trkpt lat="43.1408187857334" lon="12.187177560650577"><ele>386.8</ele><time>2026-03-24T15:25:27Z</time></trkpt><trkpt lat="43.1408282922216" lon="12.187042203938748"><ele>383.4</ele><time>2026-03-24T15:25:29Z</time></trkpt><trkpt lat="43.140846434088" lon="12.186921288255705"><ele>380.0</ele><time>2026-03-24T15:25:31Z</time></trkpt><trkpt lat="43.14088181844581" lon="12.186812662540149"><ele>380.0</ele><time>2026-03-24T15:25:33Z</time></trkpt><trkpt lat="43.140929297507896" lon="12.1867151285968"><ele>380.0</ele><time>2026-03-24T15:25:35Z</time></trkpt><trkpt lat="43.14097981440309" lon="12.186639712246103"><ele>380.0</ele><time>2026-03-24T15:25:37Z</time></trkpt><trkpt lat="43.14105546473028" lon="12.186580162298752"><ele>380.0</ele><time>2026-03-24T15:25:40Z</time></trkpt><trkpt lat="43.141124201095494" lon="12.186557656663913"><ele>380.0</ele><time>2026-03-24T15:25:42Z</time></trkpt><trkpt lat="43.141220109125314" lon="12.186574360950923"><ele>380.0</ele><time>2026-03-24T15:25:45Z</time></trkpt><trkpt lat="43.14127111714432" lon="12.186633956158591"><ele>380.0</ele><time>2026-03-24T15:25:47Z</time></trkpt><trkpt lat="43.141345320524096" lon="12.186664670612904"><ele>380.0</ele><time>2026-03-24T15:25:49Z</time></trkpt><trkpt lat="43.141395603408284" lon="12.186718607937898"><ele>380.0</ele><time>2026-03-24T15:25:51Z</time></trkpt><trkpt lat="43.14146554058218" lon="12.186787778483387"><ele>380.0</ele><time>2026-03-24T15:25:53Z</time></trkpt><trkpt lat="43.141529963556316" lon="12.186804373708673"><ele>380.0</ele><time>2026-03-24T15:25:55Z</time></trkpt><trkpt lat="43.14159196457137" lon="12.186765186308316"><ele>380.0</ele><time>2026-03-24T15:25:58Z</time></trkpt><trkpt lat="43.141670536021614" lon="12.18671306311176"><ele>380.0</ele><time>2026-03-24T15:26:00.999Z</time></trkpt><trkpt lat="43.14176662444096" lon="12.186642854230792"><ele>376.5</ele><time>2026-03-24T15:26:02.999Z</time></trkpt><trkpt lat="43.141846810069914" lon="12.186573974772328"><ele>373.0</ele><time>2026-03-24T15:26:04.999Z</time></trkpt><trkpt lat="43.141906342489314" lon="12.18652632203213"><ele>369.5</ele><time>2026-03-24T15:26:06.999Z</time></trkpt><trkpt lat="43.14197671983113" lon="12.186483549849884"><ele>366.0</ele><time>2026-03-24T15:26:08.999Z</time></trkpt><trkpt lat="43.14202928872105" lon="12.186408030679308"><ele>362.5</ele><time>2026-03-24T15:26:10.999Z</time></trkpt><trkpt lat="43.14207045814296" lon="12.186341466993294"><ele>359.0</ele><time>2026-03-24T15:26:12.999Z</time></trkpt><trkpt lat="43.14213165824733" lon="12.186289170356384"><ele>359.0</ele><time>2026-03-24T15:26:15.999Z</time></trkpt><trkpt lat="43.14219943031791" lon="12.186259213116095"><ele>359.0</ele><time>2026-03-24T15:26:18.999Z</time></trkpt><trkpt lat="43.142276110965064" lon="12.18622239216985"><ele>359.0</ele><time>2026-03-24T15:26:23.999Z</time></trkpt><trkpt lat="43.14233541607755" lon="12.186283637108628"><ele>359.0</ele><time>2026-03-24T15:26:28.999Z</time></trkpt><trkpt lat="43.14236695184478" lon="12.18636528824803"><ele>359.0</ele><time>2026-03-24T15:26:31.999Z</time></trkpt><trkpt lat="43.1424538357918" lon="12.186432232635717"><ele>359.0</ele><time>2026-03-24T15:26:34.999Z</time></trkpt><trkpt lat="43.14253451173541" lon="12.186492687057136"><ele>356.83333333333337</ele><time>2026-03-24T15:26:36.999Z</time></trkpt><trkpt lat="43.14261086899239" lon="12.18652914515712"><ele>354.6666666666667</ele><time>2026-03-24T15:26:38.999Z</time></trkpt><trkpt lat="43.14270419309527" lon="12.18655786342666"><ele>352.5</ele><time>2026-03-24T15:26:40.999Z</time></trkpt><trkpt lat="43.14278458651542" lon="12.18657321185166"><ele>350.3333333333333</ele><time>2026-03-24T15:26:42.999Z</time></trkpt><trkpt lat="43.14286098102497" lon="12.186566925747632"><ele>348.16666666666663</ele><time>2026-03-24T15:26:44.999Z</time></trkpt><trkpt lat="43.14292288628251" lon="12.186614964124653"><ele>346.0</ele><time>2026-03-24T15:26:47.999Z</time></trkpt><trkpt lat="43.14296189185953" lon="12.186730849289019"><ele>346.0</ele><time>2026-03-24T15:26:58Z</time></trkpt><trkpt lat="43.142975315138685" lon="12.186832995399831"><ele>346.0</ele><time>2026-03-24T15:27:00Z</time></trkpt><trkpt lat="43.14297573562807" lon="12.186944105362825"><ele>346.0</ele><time>2026-03-24T15:27:02Z</time></trkpt><trkpt lat="43.14297307854496" lon="12.187053816769291"><ele>346.0</ele><time>2026-03-24T15:27:04Z</time></trkpt><trkpt lat="43.14298728082398" lon="12.18715588635861"><ele>346.0</ele><time>2026-03-24T15:27:06Z</time></trkpt><trkpt lat="43.14302758522379" lon="12.187239386944702"><ele>346.0</ele><time>2026-03-24T15:27:08Z</time></trkpt><trkpt lat="43.143081746045446" lon="12.187287125985733"><ele>345.8333333333333</ele><time>2026-03-24T15:27:11Z</time></trkpt><trkpt lat="43.14315796211849" lon="12.1873657517003"><ele>345.66666666666663</ele><time>2026-03-24T15:27:13Z</time></trkpt><trkpt lat="43.14322897867268" lon="12.187418097540831"><ele>345.5</ele><time>2026-03-24T15:27:15Z</time></trkpt><trkpt lat="43.143310898499244" lon="12.187394271666356"><ele>345.3333333333333</ele><time>2026-03-24T15:27:18Z</time></trkpt><trkpt lat="43.14337443660716" lon="12.187321268007077"><ele>345.1666666666667</ele><time>2026-03-24T15:27:22Z</time></trkpt><trkpt lat="43.143339938077496" lon="12.187214850649978"><ele>345.0</ele><time>2026-03-24T15:27:27Z</time></trkpt><trkpt lat="43.14329792469833" lon="12.187145320693029"><ele>345.0</ele><time>2026-03-24T15:27:30Z</time></trkpt><trkpt lat="43.143357267359875" lon="12.187203781349098"><ele>345.0</ele><time>2026-03-24T15:27:53Z</time></trkpt><trkpt lat="43.143366320590275" lon="12.187340137401321"><ele>345.0</ele><time>2026-03-24T15:27:56Z</time></trkpt><trkpt lat="43.143345678147895" lon="12.187427742563768"><ele>345.0</ele><time>2026-03-24T15:27:58Z</time></trkpt><trkpt lat="43.14330358752734" lon="12.187498167512304"><ele>345.0</ele><time>2026-03-24T15:28:01Z</time></trkpt><trkpt lat="43.14336435413354" lon="12.187580432696345"><ele>345.0</ele><time>2026-03-24T15:28:04Z</time></trkpt><trkpt lat="43.143419437416284" lon="12.187648739121874"><ele>344.0</ele><time>2026-03-24T15:28:05Z</time></trkpt><trkpt lat="43.143495818646926" lon="12.187724650199046"><ele>343.0</ele><time>2026-03-24T15:28:07Z</time></trkpt><trkpt lat="43.14358422223848" lon="12.187747428730319"><ele>342.0</ele><time>2026-03-24T15:28:10Z</time></trkpt><trkpt lat="43.14365063054848" lon="12.187798110823003"><ele>341.0</ele><time>2026-03-24T15:28:11.999Z</time></trkpt><trkpt lat="43.14371998239735" lon="12.1878561464497"><ele>340.0</ele><time>2026-03-24T15:28:12.999Z</time></trkpt><trkpt lat="43.14377845674195" lon="12.187921985261239"><ele>339.0</ele><time>2026-03-24T15:28:13.999Z</time></trkpt><trkpt lat="43.14383122744819" lon="12.187990535478376"><ele>339.0</ele><time>2026-03-24T15:28:14.999Z</time></trkpt><trkpt lat="43.14388872629039" lon="12.188040587039225"><ele>339.0</ele><time>2026-03-24T15:28:15.999Z</time></trkpt><trkpt lat="43.14400239188429" lon="12.188104307159302"><ele>339.0</ele><time>2026-03-24T15:28:17.999Z</time></trkpt><trkpt lat="43.144059503539445" lon="12.188162047747962"><ele>339.0</ele><time>2026-03-24T15:28:19.999Z</time></trkpt><trkpt lat="43.14413932336216" lon="12.188159815313385"><ele>339.0</ele><time>2026-03-24T15:28:21.999Z</time></trkpt><trkpt lat="43.144235226983696" lon="12.188117602193605"><ele>339.0</ele><time>2026-03-24T15:28:23.999Z</time></trkpt><trkpt lat="43.14432086526064" lon="12.18806653708481"><ele>341.3333333333333</ele><time>2026-03-24T15:28:25.999Z</time></trkpt><trkpt lat="43.14441308290655" lon="12.18802603340517"><ele>343.6666666666667</ele><time>2026-03-24T15:28:28.999Z</time></trkpt><trkpt lat="43.14449271044348" lon="12.187990307770157"><ele>346.0</ele><time>2026-03-24T15:28:31.999Z</time></trkpt><trkpt lat="43.14457223475234" lon="12.18797497403991"><ele>348.33333333333337</ele><time>2026-03-24T15:28:34.999Z</time></trkpt><trkpt lat="43.14465242115308" lon="12.187949360117086"><ele>350.6666666666667</ele><time>2026-03-24T15:28:37.999Z</time></trkpt><trkpt lat="43.14471460973512" lon="12.18791116475143"><ele>353.0</ele><time>2026-03-24T15:28:52.999Z</time></trkpt><trkpt lat="43.144627294149764" lon="12.187980978247511"><ele>353.0</ele><time>2026-03-24T15:29:10Z</time></trkpt><trkpt lat="43.144557900067554" lon="12.18801571185078"><ele>353.0</ele><time>2026-03-24T15:29:12Z</time></trkpt><trkpt lat="43.144482893877026" lon="12.188045520120989"><ele>353.0</ele><time>2026-03-24T15:29:14Z</time></trkpt><trkpt lat="43.14441275458917" lon="12.188064063424674"><ele>353.0</ele><time>2026-03-24T15:29:16Z</time></trkpt><trkpt lat="43.14433055694887" lon="12.188105574520026"><ele>353.0</ele><time>2026-03-24T15:29:18Z</time></trkpt><trkpt lat="43.14424941970722" lon="12.188136144105055"><ele>353.0</ele><time>2026-03-24T15:29:20Z</time></trkpt><trkpt lat="43.14417008734999" lon="12.188173280127067"><ele>351.0</ele><time>2026-03-24T15:29:22Z</time></trkpt><trkpt lat="43.14409508051836" lon="12.188199772219077"><ele>349.0</ele><time>2026-03-24T15:29:24Z</time></trkpt><trkpt lat="43.144014749076845" lon="12.18814730732113"><ele>347.0</ele><time>2026-03-24T15:29:26Z</time></trkpt><trkpt lat="43.143918488373785" lon="12.188092822369725"><ele>345.0</ele><time>2026-03-24T15:29:29Z</time></trkpt><trkpt lat="43.14385931634381" lon="12.188036377576923"><ele>343.0</ele><time>2026-03-24T15:29:31Z</time></trkpt><trkpt lat="43.143792360450746" lon="12.187964234990512"><ele>341.0</ele><time>2026-03-24T15:29:33Z</time></trkpt><trkpt lat="43.14372858674063" lon="12.187884201042941"><ele>340.6666666666667</ele><time>2026-03-24T15:29:35Z</time></trkpt><trkpt lat="43.143653640337305" lon="12.187820312046172"><ele>340.33333333333337</ele><time>2026-03-24T15:29:37Z</time></trkpt><trkpt lat="43.14359258718172" lon="12.187775603466282"><ele>340.0</ele><time>2026-03-24T15:29:39Z</time></trkpt><trkpt lat="43.14350343322753" lon="12.187763530451205"><ele>339.6666666666667</ele><time>2026-03-24T15:29:42Z</time></trkpt><trkpt lat="43.1434374350222" lon="12.187685284109829"><ele>339.3333333333333</ele><time>2026-03-24T15:29:45Z</time></trkpt><trkpt lat="43.143347907760344" lon="12.187592639206835"><ele>339.0</ele><time>2026-03-24T15:29:47Z</time></trkpt><trkpt lat="43.14326880077348" lon="12.187523608810771"><ele>339.5</ele><time>2026-03-24T15:29:49Z</time></trkpt><trkpt lat="43.14317289175573" lon="12.187466243173892"><ele>340.0</ele><time>2026-03-24T15:29:51Z</time></trkpt><trkpt lat="43.143091653045005" lon="12.187398757291094"><ele>340.5</ele><time>2026-03-24T15:29:53Z</time></trkpt><trkpt lat="43.14304062647229" lon="12.187343165268901"><ele>341.0</ele><time>2026-03-24T15:29:55Z</time></trkpt><trkpt lat="43.142988756069755" lon="12.187254053342777"><ele>341.5</ele><time>2026-03-24T15:29:58Z</time></trkpt><trkpt lat="43.1429697716079" lon="12.187164940700969"><ele>342.0</ele><time>2026-03-24T15:30:00Z</time></trkpt><trkpt lat="43.14298461568911" lon="12.187018953122978"><ele>342.6666666666667</ele><time>2026-03-24T15:30:03Z</time></trkpt><trkpt lat="43.14298839689768" lon="12.186924786401656"><ele>343.3333333333333</ele><time>2026-03-24T15:30:05Z</time></trkpt><trkpt lat="43.14297941606833" lon="12.186812480878544"><ele>344.0</ele><time>2026-03-24T15:30:07Z</time></trkpt><trkpt lat="43.14297852565743" lon="12.186706126656109"><ele>344.66666666666663</ele><time>2026-03-24T15:30:19.999Z</time></trkpt><trkpt lat="43.14291036157931" lon="12.18667586464677"><ele>345.3333333333333</ele><time>2026-03-24T15:30:22.999Z</time></trkpt><trkpt lat="43.142839435571254" lon="12.186676655222406"><ele>346.0</ele><time>2026-03-24T15:30:24.999Z</time></trkpt><trkpt lat="43.142752414525994" lon="12.186650620796346"><ele>346.0</ele><time>2026-03-24T15:30:26.999Z</time></trkpt><trkpt lat="43.14268221853604" lon="12.186619743542991"><ele>346.0</ele><time>2026-03-24T15:30:29.999Z</time></trkpt><trkpt lat="43.142609430268436" lon="12.186590300479793"><ele>346.0</ele><time>2026-03-24T15:30:31.999Z</time></trkpt><trkpt lat="43.14250750978174" lon="12.18652084320173"><ele>346.0</ele><time>2026-03-24T15:30:33.999Z</time></trkpt><trkpt lat="43.142445780324046" lon="12.186436085920995"><ele>346.0</ele><time>2026-03-24T15:30:35.999Z</time></trkpt><trkpt lat="43.14240134855171" lon="12.186345183527983"><ele>346.0</ele><time>2026-03-24T15:30:37.999Z</time></trkpt><trkpt lat="43.142363017916466" lon="12.186274396310626"><ele>348.4</ele><time>2026-03-24T15:30:39.999Z</time></trkpt><trkpt lat="43.14225446480915" lon="12.186266875716116"><ele>350.8</ele><time>2026-03-24T15:30:42.999Z</time></trkpt><trkpt lat="43.14218254853811" lon="12.18630411574239"><ele>353.2</ele><time>2026-03-24T15:30:44.999Z</time></trkpt><trkpt lat="43.142102115724796" lon="12.186435569727479"><ele>355.59999999999997</ele><time>2026-03-24T15:30:46.999Z</time></trkpt><trkpt lat="43.14203926786379" lon="12.186508202820406"><ele>358.0</ele><time>2026-03-24T15:30:47.999Z</time></trkpt><trkpt lat="43.14196538026879" lon="12.186548069187454"><ele>358.0</ele><time>2026-03-24T15:30:49.999Z</time></trkpt><trkpt lat="43.14187686534637" lon="12.18661590550133"><ele>358.0</ele><time>2026-03-24T15:30:53.999Z</time></trkpt><trkpt lat="43.14181388187896" lon="12.186677101266195"><ele>358.0</ele><time>2026-03-24T15:30:54.999Z</time></trkpt><trkpt lat="43.14175082769727" lon="12.186727710691224"><ele>358.0</ele><time>2026-03-24T15:30:55.999Z</time></trkpt><trkpt lat="43.141688744646395" lon="12.186776458979871"><ele>358.0</ele><time>2026-03-24T15:30:57.999Z</time></trkpt><trkpt lat="43.14161295553127" lon="12.186853138607487"><ele>358.0</ele><time>2026-03-24T15:31:25Z</time></trkpt><trkpt lat="43.14159521138459" lon="12.187015709876482"><ele>358.0</ele><time>2026-03-24T15:31:27Z</time></trkpt><trkpt lat="43.14157190979984" lon="12.187121663273174"><ele>358.0</ele><time>2026-03-24T15:31:28Z</time></trkpt><trkpt lat="43.14152863857291" lon="12.187262461192175"><ele>358.0</ele><time>2026-03-24T15:31:30Z</time></trkpt><trkpt lat="43.141527498979706" lon="12.187348725192868"><ele>358.0</ele><time>2026-03-24T15:31:31Z</time></trkpt><trkpt lat="43.14154769045645" lon="12.187450352515661"><ele>358.0</ele><time>2026-03-24T15:31:33Z</time></trkpt><trkpt lat="43.14158464946367" lon="12.187597908186776"><ele>358.0</ele><time>2026-03-24T15:31:35Z</time></trkpt><trkpt lat="43.1416012986936" lon="12.187696212434773"><ele>358.2</ele><time>2026-03-24T15:31:36Z</time></trkpt><trkpt lat="43.14161658841082" lon="12.187809507869998"><ele>358.4</ele><time>2026-03-24T15:31:37Z</time></trkpt><trkpt lat="43.141603266474625" lon="12.187934029000736"><ele>358.59999999999997</ele><time>2026-03-24T15:31:38Z</time></trkpt><trkpt lat="43.14156270087004" lon="12.188062389231009"><ele>358.79999999999995</ele><time>2026-03-24T15:31:39Z</time></trkpt><trkpt lat="43.14153292385064" lon="12.188189358351364"><ele>359.0</ele><time>2026-03-24T15:31:40Z</time></trkpt><trkpt lat="43.14150817290771" lon="12.18829903574219"><ele>359.83333333333337</ele><time>2026-03-24T15:31:41Z</time></trkpt><trkpt lat="43.14149561315582" lon="12.188419338657337"><ele>360.6666666666667</ele><time>2026-03-24T15:31:43Z</time></trkpt><trkpt lat="43.141526650277456" lon="12.18853182961752"><ele>361.5</ele><time>2026-03-24T15:31:45Z</time></trkpt><trkpt lat="43.14156635972703" lon="12.188637088008338"><ele>362.3333333333333</ele><time>2026-03-24T15:31:47Z</time></trkpt><trkpt lat="43.14153543972641" lon="12.188786642881839"><ele>363.16666666666663</ele><time>2026-03-24T15:31:49Z</time></trkpt><trkpt lat="43.14150041552979" lon="12.188872994727607"><ele>364.0</ele><time>2026-03-24T15:31:50Z</time></trkpt><trkpt lat="43.1414705725262" lon="12.188968544658163"><ele>364.6</ele><time>2026-03-24T15:31:51Z</time></trkpt><trkpt lat="43.14142016706533" lon="12.18910843560624"><ele>365.2</ele><time>2026-03-24T15:31:53Z</time></trkpt><trkpt lat="43.14134415959836" lon="12.189107782537613"><ele>365.8</ele><time>2026-03-24T15:32:04Z</time></trkpt><trkpt lat="43.14127032269405" lon="12.189064112715863"><ele>366.40000000000003</ele><time>2026-03-24T15:32:06Z</time></trkpt><trkpt lat="43.14116168941989" lon="12.189014186019463"><ele>367.0</ele><time>2026-03-24T15:32:08Z</time></trkpt><trkpt lat="43.141070989816846" lon="12.18893158162004"><ele>368.8333333333333</ele><time>2026-03-24T15:32:09Z</time></trkpt><trkpt lat="43.14100986549735" lon="12.188857569311484"><ele>370.66666666666663</ele><time>2026-03-24T15:32:10Z</time></trkpt><trkpt lat="43.14096310391094" lon="12.188797505598453"><ele>372.5</ele><time>2026-03-24T15:32:11Z</time></trkpt><trkpt lat="43.140931649989184" lon="12.188697165415242"><ele>374.3333333333333</ele><time>2026-03-24T15:32:13Z</time></trkpt><trkpt lat="43.140868950656156" lon="12.188563364604512"><ele>376.1666666666667</ele><time>2026-03-24T15:32:16.999Z</time></trkpt><trkpt lat="43.14082187099086" lon="12.188484688552094"><ele>378.0</ele><time>2026-03-24T15:32:17.999Z</time></trkpt><trkpt lat="43.14077725509962" lon="12.188408894885963"><ele>379.2</ele><time>2026-03-24T15:32:18.999Z</time></trkpt><trkpt lat="43.14070045400774" lon="12.18828770406422"><ele>380.4</ele><time>2026-03-24T15:32:20.999Z</time></trkpt><trkpt lat="43.140675839427814" lon="12.188133141073385"><ele>381.59999999999997</ele><time>2026-03-24T15:32:22.999Z</time></trkpt><trkpt lat="43.140679773009495" lon="12.188023301711805"><ele>382.79999999999995</ele><time>2026-03-24T15:32:25.999Z</time></trkpt><trkpt lat="43.140583378829234" lon="12.188089629052435"><ele>384.0</ele><time>2026-03-24T15:32:43.999Z</time></trkpt><trkpt lat="43.140534713730275" lon="12.188177065828295"><ele>384.0</ele><time>2026-03-24T15:32:44.999Z</time></trkpt><trkpt lat="43.14047901694399" lon="12.188263532894661"><ele>384.0</ele><time>2026-03-24T15:32:45.999Z</time></trkpt><trkpt lat="43.14042467702334" lon="12.188319096696842"><ele>384.0</ele><time>2026-03-24T15:32:46.999Z</time></trkpt><trkpt lat="43.14036466386301" lon="12.188362711273943"><ele>384.0</ele><time>2026-03-24T15:32:47.999Z</time></trkpt><trkpt lat="43.140256348826334" lon="12.188371053398368"><ele>384.0</ele><time>2026-03-24T15:32:49.999Z</time></trkpt><trkpt lat="43.14017778526813" lon="12.188335727384946"><ele>384.0</ele><time>2026-03-24T15:32:50.999Z</time></trkpt><trkpt lat="43.140098892666686" lon="12.188264400185771"><ele>385.6</ele><time>2026-03-24T15:32:51.999Z</time></trkpt><trkpt lat="43.140033300289694" lon="12.188170454072049"><ele>387.2</ele><time>2026-03-24T15:32:52.999Z</time></trkpt><trkpt lat="43.13997767348601" lon="12.188065029100827"><ele>388.8</ele><time>2026-03-24T15:32:53.999Z</time></trkpt><trkpt lat="43.13992442636598" lon="12.18795467322031"><ele>390.40000000000003</ele><time>2026-03-24T15:32:54.999Z</time></trkpt><trkpt lat="43.13986845560298" lon="12.187846499905099"><ele>392.0</ele><time>2026-03-24T15:32:55.999Z</time></trkpt><trkpt lat="43.13983026955162" lon="12.187761631130781"><ele>391.99999999999994</ele><time>2026-03-24T15:32:56.999Z</time></trkpt><trkpt lat="43.13978798101002" lon="12.18768467374305"><ele>392.0</ele><time>2026-03-24T15:32:57.999Z</time></trkpt><trkpt lat="43.139737199527985" lon="12.18760127264959"><ele>392.0</ele><time>2026-03-24T15:32:58.999Z</time></trkpt><trkpt lat="43.139697912738555" lon="12.18749386522838"><ele>392.0</ele><time>2026-03-24T15:32:59.999Z</time></trkpt><trkpt lat="43.13966222365364" lon="12.187389263854662"><ele>391.99999999999994</ele><time>2026-03-24T15:33:00.999Z</time></trkpt><trkpt lat="43.13962100752343" lon="12.187275440543035"><ele>392.0</ele><time>2026-03-24T15:33:01.999Z</time></trkpt><trkpt lat="43.1395762380277" lon="12.187170064792"><ele>394.99999999999994</ele><time>2026-03-24T15:33:02.999Z</time></trkpt><trkpt lat="43.1395270489263" lon="12.187075654130751"><ele>398.0</ele><time>2026-03-24T15:33:03.999Z</time></trkpt><trkpt lat="43.139468868585936" lon="12.186991869104466"><ele>401.0</ele><time>2026-03-24T15:33:04.999Z</time></trkpt><trkpt lat="43.139401164633306" lon="12.186925502886838"><ele>404.0</ele><time>2026-03-24T15:33:05.999Z</time></trkpt><trkpt lat="43.13932631290358" lon="12.18687222808605"><ele>406.99999999999994</ele><time>2026-03-24T15:33:06.999Z</time></trkpt><trkpt lat="43.139271216798264" lon="12.186809082837032"><ele>410.0</ele><time>2026-03-24T15:33:07.999Z</time></trkpt><trkpt lat="43.139236794241995" lon="12.186720717179153"><ele>409.99999999999994</ele><time>2026-03-24T15:33:08.999Z</time></trkpt><trkpt lat="43.139198403561394" lon="12.186623779827267"><ele>410.0</ele><time>2026-03-24T15:33:09.999Z</time></trkpt><trkpt lat="43.139137940943314" lon="12.18654628858383"><ele>410.0</ele><time>2026-03-24T15:33:10.999Z</time></trkpt><trkpt lat="43.13904846003117" lon="12.186472395532748"><ele>410.0</ele><time>2026-03-24T15:33:11.999Z</time></trkpt><trkpt lat="43.138969120269834" lon="12.186399805231435"><ele>409.99999999999994</ele><time>2026-03-24T15:33:12.999Z</time></trkpt><trkpt lat="43.13890058685046" lon="12.186343923821427"><ele>410.0</ele><time>2026-03-24T15:33:14Z</time></trkpt><trkpt lat="43.13884716161057" lon="12.186294152721135"><ele>411.8333333333333</ele><time>2026-03-24T15:33:15Z</time></trkpt><trkpt lat="43.13877265967335" lon="12.186238342938783"><ele>413.66666666666663</ele><time>2026-03-24T15:33:16Z</time></trkpt><trkpt lat="43.138708126852755" lon="12.186208963790405"><ele>415.5</ele><time>2026-03-24T15:33:17Z</time></trkpt><trkpt lat="43.13862298834623" lon="12.186196128522365"><ele>417.33333333333337</ele><time>2026-03-24T15:33:19Z</time></trkpt><trkpt lat="43.1385310935373" lon="12.186194549113107"><ele>419.1666666666667</ele><time>2026-03-24T15:33:21Z</time></trkpt><trkpt lat="43.13845634620702" lon="12.186178534401023"><ele>421.0</ele><time>2026-03-24T15:33:22Z</time></trkpt><trkpt lat="43.13839141830147" lon="12.186158236745882"><ele>421.0</ele><time>2026-03-24T15:33:23Z</time></trkpt><trkpt lat="43.13828457529219" lon="12.186107328523835"><ele>421.0</ele><time>2026-03-24T15:33:25Z</time></trkpt><trkpt lat="43.138206626545546" lon="12.186058672813298"><ele>421.0</ele><time>2026-03-24T15:33:27Z</time></trkpt><trkpt lat="43.13808755873726" lon="12.185969468166075"><ele>421.0</ele><time>2026-03-24T15:33:29Z</time></trkpt><trkpt lat="43.138014458916054" lon="12.185935314521673"><ele>421.0</ele><time>2026-03-24T15:33:30Z</time></trkpt><trkpt lat="43.137938296694195" lon="12.18588774925943"><ele>421.00000000000006</ele><time>2026-03-24T15:33:31Z</time></trkpt><trkpt lat="43.13785782608886" lon="12.185834211575166"><ele>421.0</ele><time>2026-03-24T15:33:32Z</time></trkpt><trkpt lat="43.13779634631046" lon="12.185773257289707"><ele>421.0</ele><time>2026-03-24T15:33:33Z</time></trkpt><trkpt lat="43.13776068356735" lon="12.1856935176833"><ele>421.0</ele><time>2026-03-24T15:33:34Z</time></trkpt><trkpt lat="43.137734817439934" lon="12.185613112113877"><ele>421.00000000000006</ele><time>2026-03-24T15:33:35Z</time></trkpt><trkpt lat="43.13764365166878" lon="12.185504532918625"><ele>421.0</ele><time>2026-03-24T15:33:37Z</time></trkpt><trkpt lat="43.137580083967684" lon="12.18546796894457"><ele>421.83333333333337</ele><time>2026-03-24T15:33:38Z</time></trkpt><trkpt lat="43.13752213681305" lon="12.185414823704908"><ele>422.6666666666667</ele><time>2026-03-24T15:33:39Z</time></trkpt><trkpt lat="43.13739666777073" lon="12.185365078717656"><ele>423.5</ele><time>2026-03-24T15:33:41Z</time></trkpt><trkpt lat="43.13732011454981" lon="12.185360479126329"><ele>424.33333333333337</ele><time>2026-03-24T15:33:42Z</time></trkpt><trkpt lat="43.13725182322805" lon="12.185264350250144"><ele>425.1666666666667</ele><time>2026-03-24T15:33:44Z</time></trkpt><trkpt lat="43.137275135427274" lon="12.185180488763672"><ele>426.0</ele><time>2026-03-24T15:33:46Z</time></trkpt><trkpt lat="43.13736779036475" lon="12.185083335168068"><ele>425.20000000000005</ele><time>2026-03-24T15:33:48Z</time></trkpt><trkpt lat="43.13745984542023" lon="12.185016173306142"><ele>424.40000000000003</ele><time>2026-03-24T15:33:50Z</time></trkpt><trkpt lat="43.13745728495603" lon="12.184879044352298"><ele>423.6</ele><time>2026-03-24T15:33:52Z</time></trkpt><trkpt lat="43.137443513510526" lon="12.184788705810393"><ele>422.8</ele><time>2026-03-24T15:33:53Z</time></trkpt><trkpt lat="43.13745311482604" lon="12.184634614316785"><ele>422.0</ele><time>2026-03-24T15:33:55Z</time></trkpt><trkpt lat="43.13745988638333" lon="12.184509890567298"><ele>421.99999999999994</ele><time>2026-03-24T15:33:57Z</time></trkpt><trkpt lat="43.1374487107394" lon="12.184375701996759"><ele>422.0</ele><time>2026-03-24T15:33:59Z</time></trkpt><trkpt lat="43.13743808133787" lon="12.184274137747625"><ele>422.0</ele><time>2026-03-24T15:34:01Z</time></trkpt><trkpt lat="43.13736871046877" lon="12.18419661791835"><ele>422.0</ele><time>2026-03-24T15:34:03Z</time></trkpt><trkpt lat="43.137299575717094" lon="12.18416502915727"><ele>421.99999999999994</ele><time>2026-03-24T15:34:06Z</time></trkpt><trkpt lat="43.13723065479332" lon="12.184155447437087"><ele>422.0</ele><time>2026-03-24T15:34:21.999Z</time></trkpt><trkpt lat="43.13718153261263" lon="12.18424097131884"><ele>420.8333333333333</ele><time>2026-03-24T15:34:24.999Z</time></trkpt><trkpt lat="43.137249379784855" lon="12.184187515433997"><ele>419.66666666666663</ele><time>2026-03-24T15:34:27.999Z</time></trkpt><trkpt lat="43.13723307823588" lon="12.184088542534065"><ele>418.5</ele><time>2026-03-24T15:34:31.999Z</time></trkpt><trkpt lat="43.137248161017126" lon="12.1839827722503"><ele>417.33333333333337</ele><time>2026-03-24T15:34:41.999Z</time></trkpt><trkpt lat="43.137296443257426" lon="12.183835712071097"><ele>416.1666666666667</ele><time>2026-03-24T15:34:43.999Z</time></trkpt><trkpt lat="43.13731273914811" lon="12.183747038523881"><ele>415.0</ele><time>2026-03-24T15:34:44.999Z</time></trkpt><trkpt lat="43.1373346667089" lon="12.183606784255046"><ele>415.4</ele><time>2026-03-24T15:34:46.999Z</time></trkpt><trkpt lat="43.13736480318662" lon="12.18346837530856"><ele>415.8</ele><time>2026-03-24T15:34:48.999Z</time></trkpt><trkpt lat="43.13738330984598" lon="12.183335515202089"><ele>416.20000000000005</ele><time>2026-03-24T15:34:50.999Z</time></trkpt><trkpt lat="43.13740034099987" lon="12.183250358505317"><ele>416.6</ele><time>2026-03-24T15:34:51.999Z</time></trkpt><trkpt lat="43.137449272567416" lon="12.183132876510323"><ele>417.0</ele><time>2026-03-24T15:34:53.999Z</time></trkpt><trkpt lat="43.13753806378934" lon="12.183038934440217"><ele>415.3333333333333</ele><time>2026-03-24T15:34:55.999Z</time></trkpt><trkpt lat="43.137604824271165" lon="12.183023038160293"><ele>413.66666666666663</ele><time>2026-03-24T15:34:56.999Z</time></trkpt><trkpt lat="43.13768961571036" lon="12.183041268788992"><ele>412.0</ele><time>2026-03-24T15:34:57.999Z</time></trkpt><trkpt lat="43.13777944068557" lon="12.183058436859076"><ele>410.3333333333333</ele><time>2026-03-24T15:34:58.999Z</time></trkpt><trkpt lat="43.137877176782744" lon="12.183081978501704"><ele>408.66666666666663</ele><time>2026-03-24T15:34:59.999Z</time></trkpt><trkpt lat="43.13798086298731" lon="12.183086032024177"><ele>407.0</ele><time>2026-03-24T15:35:00.999Z</time></trkpt><trkpt lat="43.13809393613756" lon="12.183092906866047"><ele>407.0</ele><time>2026-03-24T15:35:01.999Z</time></trkpt><trkpt lat="43.13820313159091" lon="12.183102154496742"><ele>407.0</ele><time>2026-03-24T15:35:02.999Z</time></trkpt><trkpt lat="43.13831060241201" lon="12.183124307344247"><ele>407.0</ele><time>2026-03-24T15:35:03.999Z</time></trkpt><trkpt lat="43.138413635957356" lon="12.18314437954198"><ele>407.0</ele><time>2026-03-24T15:35:04.999Z</time></trkpt><trkpt lat="43.13851517610038" lon="12.183155259142945"><ele>407.0</ele><time>2026-03-24T15:35:05.999Z</time></trkpt><trkpt lat="43.13861897672121" lon="12.183169412985414"><ele>409.75</ele><time>2026-03-24T15:35:06.999Z</time></trkpt><trkpt lat="43.138726759576144" lon="12.183188210440655"><ele>412.5</ele><time>2026-03-24T15:35:07.999Z</time></trkpt><trkpt lat="43.13883959550926" lon="12.183203506830399"><ele>415.25</ele><time>2026-03-24T15:35:08.999Z</time></trkpt><trkpt lat="43.13895829480693" lon="12.183204390854836"><ele>418.0</ele><time>2026-03-24T15:35:09.999Z</time></trkpt><trkpt lat="43.139074600148284" lon="12.183187470751088"><ele>417.59999999999997</ele><time>2026-03-24T15:35:10.999Z</time></trkpt><trkpt lat="43.1391899773382" lon="12.183153898065889"><ele>417.2</ele><time>2026-03-24T15:35:11.999Z</time></trkpt><trkpt lat="43.13929385367002" lon="12.183117807319636"><ele>416.8</ele><time>2026-03-24T15:35:12.999Z</time></trkpt><trkpt lat="43.139389466725326" lon="12.18311148393004"><ele>416.4</ele><time>2026-03-24T15:35:13.999Z</time></trkpt><trkpt lat="43.13949638460741" lon="12.183112643079951"><ele>416.0</ele><time>2026-03-24T15:35:14.999Z</time></trkpt><trkpt lat="43.139601901390655" lon="12.183102425858628"><ele>416.0</ele><time>2026-03-24T15:35:15.999Z</time></trkpt><trkpt lat="43.13971136609683" lon="12.183079506970564"><ele>416.0</ele><time>2026-03-24T15:35:16.999Z</time></trkpt><trkpt lat="43.13981168706271" lon="12.183060074492612"><ele>416.0</ele><time>2026-03-24T15:35:17.999Z</time></trkpt><trkpt lat="43.1399232024458" lon="12.183057375780216"><ele>416.0</ele><time>2026-03-24T15:35:18.999Z</time></trkpt><trkpt lat="43.140032529232194" lon="12.183065277714803"><ele>416.0</ele><time>2026-03-24T15:35:20Z</time></trkpt><trkpt lat="43.14013787053009" lon="12.183067234091771"><ele>415.5</ele><time>2026-03-24T15:35:21Z</time></trkpt><trkpt lat="43.14024542628441" lon="12.183049101612443"><ele>415.0</ele><time>2026-03-24T15:35:22Z</time></trkpt><trkpt lat="43.14036063082727" lon="12.18302117418518"><ele>414.5</ele><time>2026-03-24T15:35:23Z</time></trkpt><trkpt lat="43.14049334058211" lon="12.182975508330633"><ele>414.0</ele><time>2026-03-24T15:35:24Z</time></trkpt><trkpt lat="43.14061066451064" lon="12.182928522777472"><ele>414.0</ele><time>2026-03-24T15:35:25Z</time></trkpt><trkpt lat="43.14070460182807" lon="12.182894305943549"><ele>414.0</ele><time>2026-03-24T15:35:26Z</time></trkpt><trkpt lat="43.14077924544002" lon="12.182861239736033"><ele>414.0</ele><time>2026-03-24T15:35:27Z</time></trkpt><trkpt lat="43.140839745252705" lon="12.182825483955009"><ele>414.0</ele><time>2026-03-24T15:35:28Z</time></trkpt><trkpt lat="43.14093126042241" lon="12.182774344748374"><ele>414.0</ele><time>2026-03-24T15:35:30Z</time></trkpt><trkpt lat="43.140994771023735" lon="12.182684723106346"><ele>414.0</ele><time>2026-03-24T15:35:32Z</time></trkpt><trkpt lat="43.14103964644966" lon="12.182591580310408"><ele>413.6</ele><time>2026-03-24T15:35:34Z</time></trkpt><trkpt lat="43.14097243232505" lon="12.182607945628726"><ele>413.2</ele><time>2026-03-24T15:35:36Z</time></trkpt><trkpt lat="43.14111979946135" lon="12.18248136994772"><ele>412.8</ele><time>2026-03-24T15:35:37Z</time></trkpt><trkpt lat="43.14121740027749" lon="12.182441648235349"><ele>412.40000000000003</ele><time>2026-03-24T15:35:39Z</time></trkpt><trkpt lat="43.14127392855097" lon="12.182400908539691"><ele>412.0</ele><time>2026-03-24T15:35:41Z</time></trkpt><trkpt lat="43.14140622520749" lon="12.18245073082197"><ele>411.6</ele><time>2026-03-24T15:35:43Z</time></trkpt><trkpt lat="43.14155156667074" lon="12.18268349867808"><ele>411.20000000000005</ele><time>2026-03-24T15:35:45Z</time></trkpt><trkpt lat="43.14161350162436" lon="12.182699795457882"><ele>410.8</ele><time>2026-03-24T15:36:20.999Z</time></trkpt><trkpt lat="43.14168194373747" lon="12.182699129366238"><ele>410.4</ele><time>2026-03-24T15:36:25.999Z</time></trkpt><trkpt lat="43.14175903138313" lon="12.182709573147507"><ele>410.0</ele><time>2026-03-24T15:36:27.999Z</time></trkpt><trkpt lat="43.14184342240013" lon="12.182736364787743"><ele>409.99999999999994</ele><time>2026-03-24T15:36:29.999Z</time></trkpt><trkpt lat="43.14193014730585" lon="12.182771355449088"><ele>410.0</ele><time>2026-03-24T15:36:44.999Z</time></trkpt><trkpt lat="43.14199596101643" lon="12.182805638423122"><ele>410.0</ele><time>2026-03-24T15:36:46.999Z</time></trkpt><trkpt lat="43.142055266421124" lon="12.182840252570605"><ele>410.0</ele><time>2026-03-24T15:36:47.999Z</time></trkpt><trkpt lat="43.14211923698744" lon="12.182877221807383"><ele>409.99999999999994</ele><time>2026-03-24T15:36:48.999Z</time></trkpt><trkpt lat="43.14221296237399" lon="12.18293827643398"><ele>410.0</ele><time>2026-03-24T15:36:50.999Z</time></trkpt><trkpt lat="43.14232917350988" lon="12.182986262684524"><ele>410.8333333333333</ele><time>2026-03-24T15:36:52.999Z</time></trkpt><trkpt lat="43.14239628497879" lon="12.183012660862476"><ele>411.66666666666663</ele><time>2026-03-24T15:36:53.999Z</time></trkpt><trkpt lat="43.14246872219097" lon="12.183045675542436"><ele>412.5</ele><time>2026-03-24T15:36:54.999Z</time></trkpt><trkpt lat="43.14253623015811" lon="12.183074271137928"><ele>413.33333333333337</ele><time>2026-03-24T15:36:55.999Z</time></trkpt><trkpt lat="43.142661039492204" lon="12.183115810233751"><ele>414.1666666666667</ele><time>2026-03-24T15:36:57.999Z</time></trkpt><trkpt lat="43.1427267925362" lon="12.183136772756509"><ele>415.0</ele><time>2026-03-24T15:36:58.999Z</time></trkpt><trkpt lat="43.14286481175579" lon="12.183192860866573"><ele>413.1666666666667</ele><time>2026-03-24T15:37:00.999Z</time></trkpt><trkpt lat="43.14294728126663" lon="12.18323338463822"><ele>411.33333333333337</ele><time>2026-03-24T15:37:01.999Z</time></trkpt><trkpt lat="43.14303188744765" lon="12.183281532765571"><ele>409.5</ele><time>2026-03-24T15:37:02.999Z</time></trkpt><trkpt lat="43.14310303423537" lon="12.18332582291051"><ele>407.66666666666663</ele><time>2026-03-24T15:37:03.999Z</time></trkpt><trkpt lat="43.143160228054946" lon="12.183373944563801"><ele>405.8333333333333</ele><time>2026-03-24T15:37:04.999Z</time></trkpt><trkpt lat="43.14322360432091" lon="12.183444831622479"><ele>404.0</ele><time>2026-03-24T15:37:05.999Z</time></trkpt><trkpt lat="43.143288937265076" lon="12.18353963554039"><ele>404.0</ele><time>2026-03-24T15:37:06.999Z</time></trkpt><trkpt lat="43.143349894443084" lon="12.183621471831607"><ele>404.0</ele><time>2026-03-24T15:37:07.999Z</time></trkpt><trkpt lat="43.14340047800432" lon="12.18368207717649"><ele>404.0</ele><time>2026-03-24T15:37:08.999Z</time></trkpt><trkpt lat="43.14345454015245" lon="12.183744415352036"><ele>404.0</ele><time>2026-03-24T15:37:09.999Z</time></trkpt><trkpt lat="43.14350774640137" lon="12.183803370000724"><ele>404.0</ele><time>2026-03-24T15:37:10.999Z</time></trkpt><trkpt lat="43.14356117991339" lon="12.183858994479012"><ele>404.0</ele><time>2026-03-24T15:37:11.999Z</time></trkpt><trkpt lat="43.14361125975402" lon="12.183912933275478"><ele>404.0</ele><time>2026-03-24T15:37:12.999Z</time></trkpt><trkpt lat="43.14369080807536" lon="12.184026844394737"><ele>400.6</ele><time>2026-03-24T15:37:14.999Z</time></trkpt><trkpt lat="43.14376484315055" lon="12.184110827529349"><ele>397.2</ele><time>2026-03-24T15:37:16.999Z</time></trkpt><trkpt lat="43.14384493992333" lon="12.18421286422941"><ele>393.8</ele><time>2026-03-24T15:37:18.999Z</time></trkpt><trkpt lat="43.1439081572538" lon="12.184345207097566"><ele>390.40000000000003</ele><time>2026-03-24T15:37:20.999Z</time></trkpt><trkpt lat="43.143952493204324" lon="12.18442558161897"><ele>387.0</ele><time>2026-03-24T15:37:21.999Z</time></trkpt><trkpt lat="43.143991526878395" lon="12.18450043105287"><ele>387.0</ele><time>2026-03-24T15:37:22.999Z</time></trkpt><trkpt lat="43.14404422153652" lon="12.18462298599482"><ele>387.0</ele><time>2026-03-24T15:37:24.999Z</time></trkpt><trkpt lat="43.14405857814674" lon="12.184776202732664"><ele>387.0</ele><time>2026-03-24T15:37:27Z</time></trkpt><trkpt lat="43.14408836443258" lon="12.184917730070397"><ele>387.0</ele><time>2026-03-24T15:37:29Z</time></trkpt><trkpt lat="43.1441116003421" lon="12.185051860689018"><ele>387.0</ele><time>2026-03-24T15:37:31Z</time></trkpt><trkpt lat="43.144155809632586" lon="12.185206769863779"><ele>386.20000000000005</ele><time>2026-03-24T15:37:33Z</time></trkpt><trkpt lat="43.14421166056075" lon="12.185348104194645"><ele>385.4</ele><time>2026-03-24T15:37:35Z</time></trkpt><trkpt lat="43.14422944616266" lon="12.185430869222781"><ele>384.6</ele><time>2026-03-24T15:37:36Z</time></trkpt><trkpt lat="43.14425374993124" lon="12.185514310219123"><ele>383.79999999999995</ele><time>2026-03-24T15:37:37Z</time></trkpt><trkpt lat="43.14429554523756" lon="12.18566438117409"><ele>383.0</ele><time>2026-03-24T15:37:39Z</time></trkpt><trkpt lat="43.144329097792756" lon="12.185828266663883"><ele>380.83333333333337</ele><time>2026-03-24T15:37:41Z</time></trkpt><trkpt lat="43.14433723842657" lon="12.185914633377925"><ele>378.6666666666667</ele><time>2026-03-24T15:37:42Z</time></trkpt><trkpt lat="43.14433842048404" lon="12.186046468958997"><ele>376.5</ele><time>2026-03-24T15:37:44Z</time></trkpt><trkpt lat="43.14431674460374" lon="12.186154182937075"><ele>374.3333333333333</ele><time>2026-03-24T15:37:46Z</time></trkpt><trkpt lat="43.144277282269606" lon="12.186266127702993"><ele>372.16666666666663</ele><time>2026-03-24T15:37:48Z</time></trkpt><trkpt lat="43.14422145342985" lon="12.18636118376516"><ele>370.0</ele><time>2026-03-24T15:37:50Z</time></trkpt><trkpt lat="43.144285046434305" lon="12.186437557274813"><ele>368.0</ele><time>2026-03-24T15:37:58Z</time></trkpt><trkpt lat="43.144318994318525" lon="12.186513294505957"><ele>366.0</ele><time>2026-03-24T15:38:00Z</time></trkpt><trkpt lat="43.14431100541937" lon="12.186635377077499"><ele>364.0</ele><time>2026-03-24T15:38:01Z</time></trkpt><trkpt lat="43.14431104201696" lon="12.186838946556911"><ele>362.0</ele><time>2026-03-24T15:38:02Z</time></trkpt><trkpt lat="43.14431644058942" lon="12.186989138187535"><ele>360.0</ele><time>2026-03-24T15:38:03Z</time></trkpt><trkpt lat="43.144320626546154" lon="12.187111423383357"><ele>360.0</ele><time>2026-03-24T15:38:04Z</time></trkpt><trkpt lat="43.1443264400942" lon="12.187226535018226"><ele>360.0</ele><time>2026-03-24T15:38:05Z</time></trkpt><trkpt lat="43.144331768795794" lon="12.187340897605498"><ele>360.0</ele><time>2026-03-24T15:38:06Z</time></trkpt><trkpt lat="43.144337602939906" lon="12.187448184646525"><ele>360.0</ele><time>2026-03-24T15:38:07Z</time></trkpt><trkpt lat="43.14433250574895" lon="12.18754801773424"><ele>360.0</ele><time>2026-03-24T15:38:08Z</time></trkpt><trkpt lat="43.14433730374292" lon="12.187635726437307"><ele>360.0</ele><time>2026-03-24T15:38:09Z</time></trkpt><trkpt lat="43.144382706900494" lon="12.187745912597473"><ele>359.8333333333333</ele><time>2026-03-24T15:38:11Z</time></trkpt><trkpt lat="43.144449433730806" lon="12.187773493364569"><ele>359.6666666666667</ele><time>2026-03-24T15:38:12Z</time></trkpt><trkpt lat="43.14453210446048" lon="12.18776804926729"><ele>359.5</ele><time>2026-03-24T15:38:13Z</time></trkpt><trkpt lat="43.144622522864" lon="12.187747172636634"><ele>359.33333333333337</ele><time>2026-03-24T15:38:14Z</time></trkpt><trkpt lat="43.14470125772358" lon="12.187713132720836"><ele>359.1666666666667</ele><time>2026-03-24T15:38:15Z</time></trkpt><trkpt lat="43.14479362122266" lon="12.187684545390168"><ele>359.0</ele><time>2026-03-24T15:38:16Z</time></trkpt><trkpt lat="43.14489562642383" lon="12.187637614823217"><ele>359.0</ele><time>2026-03-24T15:38:17Z</time></trkpt><trkpt lat="43.1449847521267" lon="12.187608924170105"><ele>359.0</ele><time>2026-03-24T15:38:18Z</time></trkpt><trkpt lat="43.14505511350893" lon="12.187610824609203"><ele>359.0</ele><time>2026-03-24T15:38:19Z</time></trkpt><trkpt lat="43.14518541185533" lon="12.18763292070381"><ele>359.0</ele><time>2026-03-24T15:38:21Z</time></trkpt><trkpt lat="43.145275813727615" lon="12.187669509726488"><ele>359.0</ele><time>2026-03-24T15:38:21.999Z</time></trkpt><trkpt lat="43.145343872238456" lon="12.187717172259541"><ele>359.0</ele><time>2026-03-24T15:38:22.999Z</time></trkpt><trkpt lat="43.14541551222655" lon="12.187764427555104"><ele>359.0</ele><time>2026-03-24T15:38:23.999Z</time></trkpt><trkpt lat="43.14549460590495" lon="12.187854296312171"><ele>359.0</ele><time>2026-03-24T15:38:24.999Z</time></trkpt><trkpt lat="43.145572817551404" lon="12.187941122975635"><ele>359.0</ele><time>2026-03-24T15:38:25.999Z</time></trkpt><trkpt lat="43.14565278682127" lon="12.18802749782377"><ele>359.0</ele><time>2026-03-24T15:38:26.999Z</time></trkpt><trkpt lat="43.145703025061806" lon="12.18811610783957"><ele>357.79999999999995</ele><time>2026-03-24T15:38:27.999Z</time></trkpt><trkpt lat="43.14575559172681" lon="12.18818612949507"><ele>356.59999999999997</ele><time>2026-03-24T15:38:28.999Z</time></trkpt><trkpt lat="43.14581167744643" lon="12.188231222117807"><ele>355.4</ele><time>2026-03-24T15:38:29.999Z</time></trkpt><trkpt lat="43.14588466247529" lon="12.188361920799348"><ele>354.2</ele><time>2026-03-24T15:38:31.999Z</time></trkpt><trkpt lat="43.145971904072205" lon="12.188485432513875"><ele>353.0</ele><time>2026-03-24T15:38:33.999Z</time></trkpt><trkpt lat="43.14604695458469" lon="12.188597918289112"><ele>353.0</ele><time>2026-03-24T15:38:35.999Z</time></trkpt><trkpt lat="43.14610186727993" lon="12.188683099257702"><ele>353.0</ele><time>2026-03-24T15:38:36.999Z</time></trkpt><trkpt lat="43.146173427780234" lon="12.18879891590415"><ele>353.0</ele><time>2026-03-24T15:38:37.999Z</time></trkpt><trkpt lat="43.14625327403087" lon="12.188911515000743"><ele>353.0</ele><time>2026-03-24T15:38:38.999Z</time></trkpt><trkpt lat="43.14631963659624" lon="12.189026893484167"><ele>353.0</ele><time>2026-03-24T15:38:39.999Z</time></trkpt><trkpt lat="43.14637319740102" lon="12.189133206769895"><ele>353.83333333333337</ele><time>2026-03-24T15:38:40.999Z</time></trkpt><trkpt lat="43.14641481427368" lon="12.189211077317134"><ele>354.6666666666667</ele><time>2026-03-24T15:38:41.999Z</time></trkpt><trkpt lat="43.14645337055359" lon="12.189307901768228"><ele>355.5</ele><time>2026-03-24T15:38:43.999Z</time></trkpt><trkpt lat="43.14650073671142" lon="12.189393909104437"><ele>356.3333333333333</ele><time>2026-03-24T15:38:45.999Z</time></trkpt><trkpt lat="43.14657051959147" lon="12.189453337086725"><ele>357.16666666666663</ele><time>2026-03-24T15:38:47.999Z</time></trkpt><trkpt lat="43.14663471314627" lon="12.189495486819935"><ele>358.0</ele><time>2026-03-24T15:38:48.999Z</time></trkpt><trkpt lat="43.14676913570368" lon="12.18937419945539"><ele>358.0</ele><time>2026-03-24T15:38:49.999Z</time></trkpt><trkpt lat="43.14687582549968" lon="12.18933117047564"><ele>358.0</ele><time>2026-03-24T15:38:50.999Z</time></trkpt><trkpt lat="43.146974629176995" lon="12.189328184452647"><ele>358.0</ele><time>2026-03-24T15:38:51.999Z</time></trkpt><trkpt lat="43.14707443674557" lon="12.18930837995321"><ele>358.0</ele><time>2026-03-24T15:38:52.999Z</time></trkpt><trkpt lat="43.1471991390911" lon="12.18934814017953"><ele>358.0</ele><time>2026-03-24T15:38:53.999Z</time></trkpt><trkpt lat="43.14735463737239" lon="12.189368584671156"><ele>361.0</ele><time>2026-03-24T15:38:54.999Z</time></trkpt><trkpt lat="43.14753208948012" lon="12.189405764341426"><ele>364.0</ele><time>2026-03-24T15:38:55.999Z</time></trkpt><trkpt lat="43.147681749400036" lon="12.189438122907804"><ele>367.0</ele><time>2026-03-24T15:38:56.999Z</time></trkpt><trkpt lat="43.14779449296154" lon="12.18943784179374"><ele>370.0</ele><time>2026-03-24T15:38:57.999Z</time></trkpt><trkpt lat="43.14789852023677" lon="12.189470701012155"><ele>370.0</ele><time>2026-03-24T15:38:58.999Z</time></trkpt><trkpt lat="43.14799047071536" lon="12.189489124734543"><ele>370.0</ele><time>2026-03-24T15:38:59.999Z</time></trkpt><trkpt lat="43.14807679854891" lon="12.189488244484915"><ele>370.0</ele><time>2026-03-24T15:39:00.999Z</time></trkpt><trkpt lat="43.14816965930272" lon="12.189498010868178"><ele>370.0</ele><time>2026-03-24T15:39:01.999Z</time></trkpt><trkpt lat="43.14826643132618" lon="12.189524853395751"><ele>370.0</ele><time>2026-03-24T15:39:02.999Z</time></trkpt><trkpt lat="43.14836670980745" lon="12.189568265562837"><ele>372.2</ele><time>2026-03-24T15:39:03.999Z</time></trkpt><trkpt lat="43.148471901552504" lon="12.189617202076029"><ele>374.4</ele><time>2026-03-24T15:39:04.999Z</time></trkpt><trkpt lat="43.14856137278008" lon="12.189666798471986"><ele>376.6</ele><time>2026-03-24T15:39:05.999Z</time></trkpt><trkpt lat="43.14863964771323" lon="12.189707405254861"><ele>378.8</ele><time>2026-03-24T15:39:06.999Z</time></trkpt><trkpt lat="43.14870746526734" lon="12.18974425679765"><ele>381.0</ele><time>2026-03-24T15:39:07.999Z</time></trkpt><trkpt lat="43.14882239610081" lon="12.18979662909606"><ele>381.0</ele><time>2026-03-24T15:39:09.999Z</time></trkpt><trkpt lat="43.14890113168298" lon="12.189829857738433"><ele>381.0</ele><time>2026-03-24T15:39:10.999Z</time></trkpt><trkpt lat="43.148983973020016" lon="12.189862618884735"><ele>381.0</ele><time>2026-03-24T15:39:11.999Z</time></trkpt><trkpt lat="43.149061819962256" lon="12.189882986729419"><ele>381.0</ele><time>2026-03-24T15:39:12.999Z</time></trkpt><trkpt lat="43.14913391765569" lon="12.189906199807607"><ele>381.0</ele><time>2026-03-24T15:39:13.999Z</time></trkpt><trkpt lat="43.14919716723486" lon="12.189925948113562"><ele>381.0</ele><time>2026-03-24T15:39:14.999Z</time></trkpt><trkpt lat="43.14926033072111" lon="12.189934735370764"><ele>379.0</ele><time>2026-03-24T15:39:15.999Z</time></trkpt><trkpt lat="43.14934195492707" lon="12.189956666182736"><ele>377.0</ele><time>2026-03-24T15:39:17.999Z</time></trkpt><trkpt lat="43.14940170778606" lon="12.190094832412619"><ele>375.0</ele><time>2026-03-24T15:39:20.999Z</time></trkpt><trkpt lat="43.149409895029045" lon="12.19023075035403"><ele>373.0</ele><time>2026-03-24T15:39:21.999Z</time></trkpt><trkpt lat="43.149410502067795" lon="12.19037221668172"><ele>371.0</ele><time>2026-03-24T15:39:22.999Z</time></trkpt><trkpt lat="43.1493836894272" lon="12.190540346860542"><ele>370.0</ele><time>2026-03-24T15:39:23.999Z</time></trkpt><trkpt lat="43.149334056337196" lon="12.190707867988248"><ele>369.0</ele><time>2026-03-24T15:39:24.999Z</time></trkpt><trkpt lat="43.14928342969758" lon="12.190860818977201"><ele>368.0</ele><time>2026-03-24T15:39:25.999Z</time></trkpt><trkpt lat="43.14922601486976" lon="12.191016839690942"><ele>367.0</ele><time>2026-03-24T15:39:26.999Z</time></trkpt><trkpt lat="43.149179635973454" lon="12.19117732041409"><ele>367.0</ele><time>2026-03-24T15:39:27.999Z</time></trkpt><trkpt lat="43.149130884760396" lon="12.191355217913145"><ele>367.0</ele><time>2026-03-24T15:39:28.999Z</time></trkpt><trkpt lat="43.149079991677816" lon="12.191543793067575"><ele>367.0</ele><time>2026-03-24T15:39:29.999Z</time></trkpt><trkpt lat="43.149028433188676" lon="12.191718305480308"><ele>367.0</ele><time>2026-03-24T15:39:30.999Z</time></trkpt><trkpt lat="43.14899018742065" lon="12.191887848879762"><ele>361.25</ele><time>2026-03-24T15:39:32Z</time></trkpt><trkpt lat="43.14896794733013" lon="12.192049248977213"><ele>355.5</ele><time>2026-03-24T15:39:33Z</time></trkpt><trkpt lat="43.14895416100308" lon="12.192203329237495"><ele>349.75</ele><time>2026-03-24T15:39:34Z</time></trkpt><trkpt lat="43.14897780892055" lon="12.192369446368836"><ele>344.0</ele><time>2026-03-24T15:39:35Z</time></trkpt><trkpt lat="43.14903687891315" lon="12.192542644762973"><ele>347.5</ele><time>2026-03-24T15:39:36Z</time></trkpt><trkpt lat="43.149099417646205" lon="12.192715938596317"><ele>351.0</ele><time>2026-03-24T15:39:37Z</time></trkpt><trkpt lat="43.14916850945868" lon="12.19288857071099"><ele>354.5</ele><time>2026-03-24T15:39:38Z</time></trkpt><trkpt lat="43.14924045871563" lon="12.193069898639768"><ele>358.0</ele><time>2026-03-24T15:39:39Z</time></trkpt><trkpt lat="43.14930655133463" lon="12.193241106258878"><ele>358.0</ele><time>2026-03-24T15:39:40Z</time></trkpt><trkpt lat="43.149378402289976" lon="12.193402204311706"><ele>358.0</ele><time>2026-03-24T15:39:41Z</time></trkpt><trkpt lat="43.14946092824827" lon="12.193557443464542"><ele>358.0</ele><time>2026-03-24T15:39:42Z</time></trkpt><trkpt lat="43.149550957739706" lon="12.19370299509566"><ele>358.0</ele><time>2026-03-24T15:39:43Z</time></trkpt><trkpt lat="43.14965224898045" lon="12.19381517351159"><ele>358.0</ele><time>2026-03-24T15:39:44Z</time></trkpt><trkpt lat="43.14975001993523" lon="12.193915741352885"><ele>358.0</ele><time>2026-03-24T15:39:45Z</time></trkpt><trkpt lat="43.14984545377215" lon="12.194012749412282"><ele>358.0</ele><time>2026-03-24T15:39:46Z</time></trkpt><trkpt lat="43.14992990338276" lon="12.194103648121198"><ele>358.0</ele><time>2026-03-24T15:39:47Z</time></trkpt><trkpt lat="43.14998954919953" lon="12.19418873187833"><ele>358.0</ele><time>2026-03-24T15:39:48Z</time></trkpt><trkpt lat="43.15003509078556" lon="12.194273445038059"><ele>358.0</ele><time>2026-03-24T15:39:49Z</time></trkpt><trkpt lat="43.150062570837086" lon="12.194355612658574"><ele>358.0</ele><time>2026-03-24T15:39:50Z</time></trkpt><trkpt lat="43.15010175777487" lon="12.194517465089845"><ele>358.0</ele><time>2026-03-24T15:39:52Z</time></trkpt><trkpt lat="43.15014093671262" lon="12.194664164279406"><ele>358.0</ele><time>2026-03-24T15:39:54Z</time></trkpt><trkpt lat="43.150158695439266" lon="12.194754263577863"><ele>358.0</ele><time>2026-03-24T15:39:56Z</time></trkpt><trkpt lat="43.150103916238976" lon="12.194425618766934"><ele>358.0</ele><time>2026-03-24T15:40:14Z</time></trkpt><trkpt lat="43.15008468653931" lon="12.194341914059853"><ele>358.0</ele><time>2026-03-24T15:40:15Z</time></trkpt><trkpt lat="43.150037398766656" lon="12.194223585972232"><ele>358.0</ele><time>2026-03-24T15:40:16Z</time></trkpt><trkpt lat="43.149947811448534" lon="12.194080157656552"><ele>358.0</ele><time>2026-03-24T15:40:17Z</time></trkpt><trkpt lat="43.14982798314067" lon="12.193967105451955"><ele>358.0</ele><time>2026-03-24T15:40:18Z</time></trkpt><trkpt lat="43.14968931848749" lon="12.193849633728556"><ele>358.0</ele><time>2026-03-24T15:40:19Z</time></trkpt><trkpt lat="43.14958772836968" lon="12.193757542372964"><ele>358.0</ele><time>2026-03-24T15:40:20Z</time></trkpt><trkpt lat="43.14950042510745" lon="12.193629863402816"><ele>358.0</ele><time>2026-03-24T15:40:21Z</time></trkpt><trkpt lat="43.149419559179236" lon="12.193470898045756"><ele>358.0</ele><time>2026-03-24T15:40:22Z</time></trkpt><trkpt lat="43.14935771788435" lon="12.193292541976218"><ele>360.0</ele><time>2026-03-24T15:40:23Z</time></trkpt><trkpt lat="43.149285191667886" lon="12.193119802183423"><ele>362.0</ele><time>2026-03-24T15:40:24Z</time></trkpt><trkpt lat="43.14922595193702" lon="12.192985832973028"><ele>364.0</ele><time>2026-03-24T15:40:24.999Z</time></trkpt><trkpt lat="43.14916382343131" lon="12.192835264613732"><ele>366.0</ele><time>2026-03-24T15:40:25.999Z</time></trkpt><trkpt lat="43.14910381545537" lon="12.19268196520064"><ele>366.0</ele><time>2026-03-24T15:40:26.999Z</time></trkpt><trkpt lat="43.14905737810507" lon="12.192520030402042"><ele>366.0</ele><time>2026-03-24T15:40:27.999Z</time></trkpt><trkpt lat="43.14901078403338" lon="12.192375855583705"><ele>366.0</ele><time>2026-03-24T15:40:28.999Z</time></trkpt><trkpt lat="43.14896204389937" lon="12.192209090707236"><ele>366.0</ele><time>2026-03-24T15:40:29.999Z</time></trkpt><trkpt lat="43.14899963835341" lon="12.19201361126756"><ele>366.3333333333333</ele><time>2026-03-24T15:40:30.999Z</time></trkpt><trkpt lat="43.149030342825654" lon="12.191794255030338"><ele>366.66666666666663</ele><time>2026-03-24T15:40:31.999Z</time></trkpt><trkpt lat="43.149096828243536" lon="12.191576179339377"><ele>367.0</ele><time>2026-03-24T15:40:32.999Z</time></trkpt><trkpt lat="43.149158080945526" lon="12.19136153299083"><ele>367.0</ele><time>2026-03-24T15:40:33.999Z</time></trkpt><trkpt lat="43.1492206846769" lon="12.191162402455468"><ele>367.0</ele><time>2026-03-24T15:40:34.999Z</time></trkpt><trkpt lat="43.14927315942011" lon="12.191003006568812"><ele>367.0</ele><time>2026-03-24T15:40:35.999Z</time></trkpt><trkpt lat="43.149324016847146" lon="12.190861507214862"><ele>367.0</ele><time>2026-03-24T15:40:36.999Z</time></trkpt><trkpt lat="43.14936501791445" lon="12.190739113730677"><ele>367.66666666666663</ele><time>2026-03-24T15:40:37.999Z</time></trkpt><trkpt lat="43.149397543674695" lon="12.190637201773464"><ele>368.3333333333333</ele><time>2026-03-24T15:40:38.999Z</time></trkpt><trkpt lat="43.14942173426478" lon="12.190535313361943"><ele>369.0</ele><time>2026-03-24T15:40:39.999Z</time></trkpt><trkpt lat="43.149434249736096" lon="12.190448870126568"><ele>369.6666666666667</ele><time>2026-03-24T15:40:40.999Z</time></trkpt><trkpt lat="43.14948515060952" lon="12.190314988735919"><ele>370.33333333333337</ele><time>2026-03-24T15:40:42.999Z</time></trkpt><trkpt lat="43.149578312872116" lon="12.190223126736143"><ele>371.0</ele><time>2026-03-24T15:40:44.999Z</time></trkpt><trkpt lat="43.149693991113594" lon="12.190146889504673"><ele>371.0</ele><time>2026-03-24T15:40:46.999Z</time></trkpt><trkpt lat="43.149795182428235" lon="12.190069141535275"><ele>371.0</ele><time>2026-03-24T15:40:48.999Z</time></trkpt><trkpt lat="43.14985522654908" lon="12.190034326843287"><ele>371.0</ele><time>2026-03-24T15:40:49.999Z</time></trkpt><trkpt lat="43.149917953676294" lon="12.190006826224819"><ele>371.0</ele><time>2026-03-24T15:40:50.999Z</time></trkpt><trkpt lat="43.15000213148552" lon="12.189989462286524"><ele>371.0</ele><time>2026-03-24T15:40:51.999Z</time></trkpt><trkpt lat="43.15010192043783" lon="12.189976531190457"><ele>371.0</ele><time>2026-03-24T15:40:52.999Z</time></trkpt><trkpt lat="43.15018736624595" lon="12.189958774670133"><ele>369.83333333333337</ele><time>2026-03-24T15:40:53.999Z</time></trkpt><trkpt lat="43.150268309720346" lon="12.189931564136984"><ele>368.6666666666667</ele><time>2026-03-24T15:40:54.999Z</time></trkpt><trkpt lat="43.150349928733185" lon="12.189920077812676"><ele>367.5</ele><time>2026-03-24T15:40:55.999Z</time></trkpt><trkpt lat="43.15042076398709" lon="12.189923559261706"><ele>366.3333333333333</ele><time>2026-03-24T15:40:56.999Z</time></trkpt><trkpt lat="43.15048871039568" lon="12.189950806647605"><ele>365.16666666666663</ele><time>2026-03-24T15:40:57.999Z</time></trkpt><trkpt lat="43.15054875164441" lon="12.190010019597224"><ele>364.0</ele><time>2026-03-24T15:40:58.999Z</time></trkpt><trkpt lat="43.1506020512752" lon="12.190088404220877"><ele>364.0</ele><time>2026-03-24T15:40:59.999Z</time></trkpt><trkpt lat="43.150652750387195" lon="12.190155000122996"><ele>364.0</ele><time>2026-03-24T15:41:00.999Z</time></trkpt><trkpt lat="43.15070382802507" lon="12.19022268167759"><ele>364.0</ele><time>2026-03-24T15:41:01.999Z</time></trkpt><trkpt lat="43.15075328111753" lon="12.190284993139473"><ele>364.0</ele><time>2026-03-24T15:41:02.999Z</time></trkpt><trkpt lat="43.150807063273945" lon="12.190332771576914"><ele>364.0</ele><time>2026-03-24T15:41:03.999Z</time></trkpt><trkpt lat="43.15092414541885" lon="12.190344221495288"><ele>364.0</ele><time>2026-03-24T15:41:05.999Z</time></trkpt><trkpt lat="43.151043212934766" lon="12.190385067628748"><ele>358.5</ele><time>2026-03-24T15:41:07.999Z</time></trkpt><trkpt lat="43.15111503877095" lon="12.19038875536715"><ele>353.0</ele><time>2026-03-24T15:41:08.999Z</time></trkpt><trkpt lat="43.151512560801024" lon="12.189985700516921"><ele>351.83333333333337</ele><time>2026-03-24T15:41:13.999Z</time></trkpt><trkpt lat="43.15158894362971" lon="12.190006258206807"><ele>350.6666666666667</ele><time>2026-03-24T15:41:14.999Z</time></trkpt><trkpt lat="43.15167155905073" lon="12.190060747040333"><ele>349.5</ele><time>2026-03-24T15:41:15.999Z</time></trkpt><trkpt lat="43.15175348193588" lon="12.19011873432237"><ele>348.3333333333333</ele><time>2026-03-24T15:41:16.999Z</time></trkpt><trkpt lat="43.15182979678311" lon="12.190172728151321"><ele>347.16666666666663</ele><time>2026-03-24T15:41:17.999Z</time></trkpt><trkpt lat="43.15190326846846" lon="12.190211210521337"><ele>346.0</ele><time>2026-03-24T15:41:18.999Z</time></trkpt><trkpt lat="43.151981325267094" lon="12.190233887031418"><ele>346.0</ele><time>2026-03-24T15:41:19.999Z</time></trkpt><trkpt lat="43.15205908692884" lon="12.190251235111258"><ele>346.0</ele><time>2026-03-24T15:41:20.999Z</time></trkpt><trkpt lat="43.152138601877866" lon="12.190249707092612"><ele>346.0</ele><time>2026-03-24T15:41:21.999Z</time></trkpt><trkpt lat="43.15222623301964" lon="12.190231280910194"><ele>346.0</ele><time>2026-03-24T15:41:22.999Z</time></trkpt><trkpt lat="43.152319407669694" lon="12.190194969882112"><ele>346.0</ele><time>2026-03-24T15:41:23.999Z</time></trkpt><trkpt lat="43.15239086820003" lon="12.190137839887429"><ele>346.0</ele><time>2026-03-24T15:41:24.999Z</time></trkpt><trkpt lat="43.15245005521937" lon="12.19007013418099"><ele>343.6</ele><time>2026-03-24T15:41:25.999Z</time></trkpt><trkpt lat="43.15250432603114" lon="12.190024219725576"><ele>341.20000000000005</ele><time>2026-03-24T15:41:26.999Z</time></trkpt><trkpt lat="43.152626299141005" lon="12.190003011632276"><ele>338.79999999999995</ele><time>2026-03-24T15:41:28.999Z</time></trkpt><trkpt lat="43.1527559036067" lon="12.189995646763448"><ele>336.4</ele><time>2026-03-24T15:41:30.999Z</time></trkpt><trkpt lat="43.15282387258954" lon="12.189973009488545"><ele>334.0</ele><time>2026-03-24T15:41:31.999Z</time></trkpt><trkpt lat="43.15289138785154" lon="12.189950991391099"><ele>334.0</ele><time>2026-03-24T15:41:32.999Z</time></trkpt><trkpt lat="43.15302000655572" lon="12.189938717391842"><ele>334.0</ele><time>2026-03-24T15:41:34.999Z</time></trkpt><trkpt lat="43.15308827169369" lon="12.189962954543759"><ele>334.0</ele><time>2026-03-24T15:41:35.998Z</time></trkpt><trkpt lat="43.153149404114096" lon="12.189999151705145"><ele>334.0</ele><time>2026-03-24T15:41:36.998Z</time></trkpt><trkpt lat="43.153254573536664" lon="12.190007975733694"><ele>334.0</ele><time>2026-03-24T15:41:39Z</time></trkpt><trkpt lat="43.153339980530255" lon="12.189946766712762"><ele>330.59999999999997</ele><time>2026-03-24T15:41:41Z</time></trkpt><trkpt lat="43.15334370592662" lon="12.189820673190429"><ele>327.2</ele><time>2026-03-24T15:41:43Z</time></trkpt><trkpt lat="43.15331402515612" lon="12.189743455337974"><ele>323.79999999999995</ele><time>2026-03-24T15:41:44Z</time></trkpt><trkpt lat="43.15326620900484" lon="12.18960449490002"><ele>320.4</ele><time>2026-03-24T15:41:46Z</time></trkpt><trkpt lat="43.15319869275829" lon="12.189476456478987"><ele>317.0</ele><time>2026-03-24T15:41:48Z</time></trkpt><trkpt lat="43.153159036994836" lon="12.18937257852219"><ele>317.0</ele><time>2026-03-24T15:41:50Z</time></trkpt><trkpt lat="43.15314160011576" lon="12.189233554288126"><ele>317.0</ele><time>2026-03-24T15:41:52Z</time></trkpt><trkpt lat="43.15312190086248" lon="12.189116376569963"><ele>317.0</ele><time>2026-03-24T15:41:54Z</time></trkpt><trkpt lat="43.1531778478529" lon="12.189011011069319"><ele>317.0</ele><time>2026-03-24T15:41:56Z</time></trkpt><trkpt lat="43.15329154760636" lon="12.188961982765472"><ele>317.0</ele><time>2026-03-24T15:41:58Z</time></trkpt><trkpt lat="43.153358380866486" lon="12.188939219693406"><ele>314.1666666666667</ele><time>2026-03-24T15:41:59Z</time></trkpt><trkpt lat="43.153424495732736" lon="12.188910066691124"><ele>311.33333333333337</ele><time>2026-03-24T15:42:00Z</time></trkpt><trkpt lat="43.153538568303716" lon="12.188821827453404"><ele>308.5</ele><time>2026-03-24T15:42:02Z</time></trkpt><trkpt lat="43.15359038257391" lon="12.188767613240282"><ele>305.6666666666667</ele><time>2026-03-24T15:42:03Z</time></trkpt><trkpt lat="43.15364567955449" lon="12.18870226272076"><ele>302.8333333333333</ele><time>2026-03-24T15:42:04Z</time></trkpt><trkpt lat="43.15369821356649" lon="12.188647607928763"><ele>300.0</ele><time>2026-03-24T15:42:05Z</time></trkpt><trkpt lat="43.15379706584959" lon="12.188573394762336"><ele>300.0</ele><time>2026-03-24T15:42:07Z</time></trkpt><trkpt lat="43.15386974187997" lon="12.188508589204485"><ele>300.0</ele><time>2026-03-24T15:42:09Z</time></trkpt><trkpt lat="43.15394042938057" lon="12.18842921306656"><ele>300.0</ele><time>2026-03-24T15:42:11Z</time></trkpt><trkpt lat="43.15400839793111" lon="12.18831835090131"><ele>300.0</ele><time>2026-03-24T15:42:13Z</time></trkpt><trkpt lat="43.15415923700831" lon="12.18819564447162"><ele>297.1666666666667</ele><time>2026-03-24T15:42:16Z</time></trkpt><trkpt lat="43.15423382472353" lon="12.188165384419381"><ele>294.3333333333333</ele><time>2026-03-24T15:42:17Z</time></trkpt><trkpt lat="43.154294862666696" lon="12.188094300913269"><ele>291.5</ele><time>2026-03-24T15:42:18Z</time></trkpt><trkpt lat="43.15433134196937" lon="12.187978686163484"><ele>288.66666666666663</ele><time>2026-03-24T15:42:19Z</time></trkpt><trkpt lat="43.15434127657794" lon="12.187863158291597"><ele>285.8333333333333</ele><time>2026-03-24T15:42:20Z</time></trkpt><trkpt lat="43.15435739515147" lon="12.187774192530155"><ele>283.0</ele><time>2026-03-24T15:42:21Z</time></trkpt><trkpt lat="43.15443992238376" lon="12.187668753780985"><ele>283.0</ele><time>2026-03-24T15:42:22.999Z</time></trkpt><trkpt lat="43.15451175579513" lon="12.187650887923406"><ele>283.0</ele><time>2026-03-24T15:42:23.999Z</time></trkpt><trkpt lat="43.15457951969912" lon="12.187659155504686"><ele>283.0</ele><time>2026-03-24T15:42:24.999Z</time></trkpt><trkpt lat="43.15469275162519" lon="12.187766507997383"><ele>283.0</ele><time>2026-03-24T15:42:26.999Z</time></trkpt><trkpt lat="43.15476420430841" lon="12.187879928847638"><ele>283.0</ele><time>2026-03-24T15:42:27.999Z</time></trkpt><trkpt lat="43.15483617874784" lon="12.18803618954584"><ele>281.6</ele><time>2026-03-24T15:42:28.999Z</time></trkpt><trkpt lat="43.1548866531417" lon="12.18815325055629"><ele>280.20000000000005</ele><time>2026-03-24T15:42:29.999Z</time></trkpt><trkpt lat="43.15492744843599" lon="12.18826242950628"><ele>278.8</ele><time>2026-03-24T15:42:30.999Z</time></trkpt><trkpt lat="43.1549363121004" lon="12.1883896216867"><ele>277.40000000000003</ele><time>2026-03-24T15:42:31.999Z</time></trkpt><trkpt lat="43.15492306577539" lon="12.188537650085475"><ele>276.0</ele><time>2026-03-24T15:42:32.999Z</time></trkpt><trkpt lat="43.15493422961958" lon="12.188675444842508"><ele>276.0</ele><time>2026-03-24T15:42:33.999Z</time></trkpt><trkpt lat="43.15497543226775" lon="12.188777991334998"><ele>276.0</ele><time>2026-03-24T15:42:34.999Z</time></trkpt><trkpt lat="43.15500647422579" lon="12.188879566521587"><ele>276.0</ele><time>2026-03-24T15:42:35.999Z</time></trkpt><trkpt lat="43.15506281828623" lon="12.188969410201384"><ele>276.0</ele><time>2026-03-24T15:42:36.999Z</time></trkpt><trkpt lat="43.15510000150964" lon="12.189090311403515"><ele>276.0</ele><time>2026-03-24T15:42:37.999Z</time></trkpt><trkpt lat="43.155143666858294" lon="12.18919709886535"><ele>276.0</ele><time>2026-03-24T15:42:38.999Z</time></trkpt><trkpt lat="43.155179686076885" lon="12.189317448693034"><ele>276.6666666666667</ele><time>2026-03-24T15:42:39.999Z</time></trkpt><trkpt lat="43.15522586567836" lon="12.189420654124637"><ele>277.3333333333333</ele><time>2026-03-24T15:42:40.999Z</time></trkpt><trkpt lat="43.15526413020248" lon="12.189522887683236"><ele>278.0</ele><time>2026-03-24T15:42:41.999Z</time></trkpt><trkpt lat="43.15530738121672" lon="12.189616202892088"><ele>278.66666666666663</ele><time>2026-03-24T15:42:42.999Z</time></trkpt><trkpt lat="43.15534623379657" lon="12.189716305491222"><ele>279.3333333333333</ele><time>2026-03-24T15:42:43.999Z</time></trkpt><trkpt lat="43.15536060595451" lon="12.189830710437803"><ele>280.0</ele><time>2026-03-24T15:42:44.999Z</time></trkpt><trkpt lat="43.155385664270256" lon="12.189956450504077"><ele>281.0</ele><time>2026-03-24T15:42:45.999Z</time></trkpt><trkpt lat="43.15540604688951" lon="12.190092167257374"><ele>282.0</ele><time>2026-03-24T15:42:46.999Z</time></trkpt><trkpt lat="43.15542917275795" lon="12.190215348343738"><ele>283.0</ele><time>2026-03-24T15:42:47.999Z</time></trkpt><trkpt lat="43.15547623451652" lon="12.190322984989534"><ele>284.0</ele><time>2026-03-24T15:42:48.999Z</time></trkpt><trkpt lat="43.15553032658188" lon="12.190435112786735"><ele>285.0</ele><time>2026-03-24T15:42:49.999Z</time></trkpt><trkpt lat="43.15557431144388" lon="12.19058610084659"><ele>284.8</ele><time>2026-03-24T15:42:50.999Z</time></trkpt><trkpt lat="43.15562509080958" lon="12.190719123043968"><ele>284.6</ele><time>2026-03-24T15:42:51.999Z</time></trkpt><trkpt lat="43.15567664007725" lon="12.190832187912774"><ele>284.4</ele><time>2026-03-24T15:42:52.999Z</time></trkpt><trkpt lat="43.155728334363694" lon="12.190929234055375"><ele>284.2</ele><time>2026-03-24T15:42:53.999Z</time></trkpt><trkpt lat="43.15575969274387" lon="12.191029012437417"><ele>284.0</ele><time>2026-03-24T15:42:54.999Z</time></trkpt><trkpt lat="43.15581109341028" lon="12.191110251669832"><ele>282.0</ele><time>2026-03-24T15:42:56.999Z</time></trkpt><trkpt lat="43.15584125921451" lon="12.191276061951681"><ele>280.0</ele><time>2026-03-24T15:43:00.999Z</time></trkpt><trkpt lat="43.15589335125194" lon="12.19138095678936"><ele>278.0</ele><time>2026-03-24T15:43:01.999Z</time></trkpt><trkpt lat="43.15594090924439" lon="12.191475546369801"><ele>276.0</ele><time>2026-03-24T15:43:02.999Z</time></trkpt><trkpt lat="43.156015740394665" lon="12.19161960921009"><ele>274.0</ele><time>2026-03-24T15:43:04.999Z</time></trkpt><trkpt lat="43.156045139200295" lon="12.191696062689815"><ele>274.0</ele><time>2026-03-24T15:43:05.999Z</time></trkpt><trkpt lat="43.1560594445578" lon="12.191891945694863"><ele>274.0</ele><time>2026-03-24T15:43:07.999Z</time></trkpt><trkpt lat="43.15607701461837" lon="12.192001325692734"><ele>274.0</ele><time>2026-03-24T15:43:08.999Z</time></trkpt><trkpt lat="43.156114894788615" lon="12.19210649690906"><ele>274.0</ele><time>2026-03-24T15:43:09.999Z</time></trkpt><trkpt lat="43.15618416467434" lon="12.192203570317877"><ele>274.0</ele><time>2026-03-24T15:43:10.999Z</time></trkpt><trkpt lat="43.1562274082501" lon="12.192274993040236"><ele>275.0</ele><time>2026-03-24T15:43:11.999Z</time></trkpt><trkpt lat="43.15625790915352" lon="12.192355291764631"><ele>276.0</ele><time>2026-03-24T15:43:12.999Z</time></trkpt><trkpt lat="43.15631961070749" lon="12.192460295983759"><ele>277.0</ele><time>2026-03-24T15:43:14.999Z</time></trkpt><trkpt lat="43.156366408846985" lon="12.192539937432162"><ele>278.0</ele><time>2026-03-24T15:43:15.999Z</time></trkpt><trkpt lat="43.156402307046456" lon="12.192650682306324"><ele>279.0</ele><time>2026-03-24T15:43:16.999Z</time></trkpt><trkpt lat="43.15642434190335" lon="12.192814618172982"><ele>280.0</ele><time>2026-03-24T15:43:17.999Z</time></trkpt><trkpt lat="43.15645916921186" lon="12.192971828230839"><ele>280.0</ele><time>2026-03-24T15:43:18.999Z</time></trkpt><trkpt lat="43.15650626970726" lon="12.19311409250103"><ele>280.0</ele><time>2026-03-24T15:43:19.999Z</time></trkpt><trkpt lat="43.15654667840726" lon="12.193236267386688"><ele>280.0</ele><time>2026-03-24T15:43:20.999Z</time></trkpt><trkpt lat="43.15657886932642" lon="12.19335072054684"><ele>280.0</ele><time>2026-03-24T15:43:21.999Z</time></trkpt><trkpt lat="43.156606211514955" lon="12.19345702508654"><ele>280.0</ele><time>2026-03-24T15:43:22.999Z</time></trkpt><trkpt lat="43.15664120093796" lon="12.19355206981859"><ele>280.16666666666663</ele><time>2026-03-24T15:43:23.999Z</time></trkpt><trkpt lat="43.15668775044316" lon="12.193629557264632"><ele>280.3333333333333</ele><time>2026-03-24T15:43:24.999Z</time></trkpt><trkpt lat="43.15674571202825" lon="12.193684491922381"><ele>280.5</ele><time>2026-03-24T15:43:25.999Z</time></trkpt><trkpt lat="43.15681269710911" lon="12.193721292713585"><ele>280.6666666666667</ele><time>2026-03-24T15:43:26.999Z</time></trkpt><trkpt lat="43.156898736963676" lon="12.193737533822063"><ele>280.83333333333337</ele><time>2026-03-24T15:43:27.999Z</time></trkpt><trkpt lat="43.15699388719872" lon="12.193742891691404"><ele>281.0</ele><time>2026-03-24T15:43:28.999Z</time></trkpt><trkpt lat="43.1570667636546" lon="12.193755557634946"><ele>281.0</ele><time>2026-03-24T15:43:29.999Z</time></trkpt><trkpt lat="43.15712392402824" lon="12.19380443078146"><ele>281.0</ele><time>2026-03-24T15:43:30.999Z</time></trkpt><trkpt lat="43.157171661800014" lon="12.193875129947697"><ele>281.0</ele><time>2026-03-24T15:43:31.999Z</time></trkpt><trkpt lat="43.157233079838" lon="12.193950229206733"><ele>281.0</ele><time>2026-03-24T15:43:32.999Z</time></trkpt><trkpt lat="43.157342401359855" lon="12.194016062701339"><ele>281.0</ele><time>2026-03-24T15:43:34.998Z</time></trkpt><trkpt lat="43.15740591703793" lon="12.193959157468523"><ele>281.0</ele><time>2026-03-24T15:43:37.998Z</time></trkpt><trkpt lat="43.157474868489786" lon="12.194124801120473"><ele>281.5</ele><time>2026-03-24T15:43:38.998Z</time></trkpt><trkpt lat="43.15755365320131" lon="12.194133635263565"><ele>282.0</ele><time>2026-03-24T15:43:40.998Z</time></trkpt><trkpt lat="43.1577420871498" lon="12.194197826685679"><ele>282.5</ele><time>2026-03-24T15:43:42.998Z</time></trkpt><trkpt lat="43.15780703495261" lon="12.19423093198126"><ele>283.0</ele><time>2026-03-24T15:43:47Z</time></trkpt><trkpt lat="43.15780455626108" lon="12.19440743860543"><ele>283.0</ele><time>2026-03-24T15:43:48Z</time></trkpt><trkpt lat="43.15780477688841" lon="12.194576410352898"><ele>283.0</ele><time>2026-03-24T15:43:49Z</time></trkpt><trkpt lat="43.15783340123265" lon="12.194718238846008"><ele>283.0</ele><time>2026-03-24T15:43:50Z</time></trkpt><trkpt lat="43.15786446947645" lon="12.194849133780284"><ele>283.0</ele><time>2026-03-24T15:43:51Z</time></trkpt><trkpt lat="43.15787163008269" lon="12.19495770177049"><ele>283.0</ele><time>2026-03-24T15:43:52Z</time></trkpt><trkpt lat="43.15788268720416" lon="12.195089108633262"><ele>283.8333333333333</ele><time>2026-03-24T15:43:53Z</time></trkpt><trkpt lat="43.15789041511438" lon="12.195228804782468"><ele>284.66666666666663</ele><time>2026-03-24T15:43:54Z</time></trkpt><trkpt lat="43.15790376356303" lon="12.195339754789169"><ele>285.5</ele><time>2026-03-24T15:43:55Z</time></trkpt><trkpt lat="43.15785558582166" lon="12.19540157660871"><ele>286.3333333333333</ele><time>2026-03-24T15:43:58Z</time></trkpt><trkpt lat="43.15778077451939" lon="12.195406812369763"><ele>287.1666666666667</ele><time>2026-03-24T15:44:00Z</time></trkpt><trkpt lat="43.157710009275654" lon="12.195357204571994"><ele>288.0</ele><time>2026-03-24T15:44:02Z</time></trkpt><trkpt lat="43.15763502019346" lon="12.195403180089633"><ele>288.0</ele><time>2026-03-24T15:44:04Z</time></trkpt><trkpt lat="43.157575898248226" lon="12.195434169477505"><ele>288.0</ele><time>2026-03-24T15:44:21Z</time></trkpt><trkpt lat="43.157633040860325" lon="12.195376122436407"><ele>288.0</ele><time>2026-03-24T15:44:24Z</time></trkpt><trkpt lat="43.15773441927952" lon="12.195379860585334"><ele>288.0</ele><time>2026-03-24T15:44:26Z</time></trkpt><trkpt lat="43.15781582644696" lon="12.195388093578694"><ele>288.0</ele><time>2026-03-24T15:44:29Z</time></trkpt><trkpt lat="43.157885718408146" lon="12.195371212186934"><ele>288.0</ele><time>2026-03-24T15:44:31.999Z</time></trkpt><trkpt lat="43.15790375318122" lon="12.195232743372218"><ele>288.0</ele><time>2026-03-24T15:44:33.999Z</time></trkpt><trkpt lat="43.15787443867088" lon="12.195129799258694"><ele>288.0</ele><time>2026-03-24T15:44:34.999Z</time></trkpt><trkpt lat="43.157857348529404" lon="12.194965815169313"><ele>288.0</ele><time>2026-03-24T15:44:36.999Z</time></trkpt><trkpt lat="43.157842787668244" lon="12.194876286932022"><ele>288.0</ele><time>2026-03-24T15:44:37.999Z</time></trkpt><trkpt lat="43.15783413558941" lon="12.194782475249426"><ele>288.0</ele><time>2026-03-24T15:44:38.999Z</time></trkpt><trkpt lat="43.157822461578164" lon="12.194692162117164"><ele>288.0</ele><time>2026-03-24T15:44:39.999Z</time></trkpt><trkpt lat="43.15780079415135" lon="12.194598036927442"><ele>287.1666666666667</ele><time>2026-03-24T15:44:40.999Z</time></trkpt><trkpt lat="43.157792137871546" lon="12.19449305587321"><ele>286.3333333333333</ele><time>2026-03-24T15:44:41.999Z</time></trkpt><trkpt lat="43.157808449343904" lon="12.194381093111001"><ele>285.5</ele><time>2026-03-24T15:44:42.999Z</time></trkpt><trkpt lat="43.157817809500955" lon="12.194290138364257"><ele>284.66666666666663</ele><time>2026-03-24T15:44:43.999Z</time></trkpt><trkpt lat="43.15777155758734" lon="12.194163514971752"><ele>283.8333333333333</ele><time>2026-03-24T15:44:45.999Z</time></trkpt><trkpt lat="43.157688258075275" lon="12.194199952828528"><ele>283.0</ele><time>2026-03-24T15:44:47.999Z</time></trkpt><trkpt lat="43.157675147001775" lon="12.194334230080472"><ele>283.0</ele><time>2026-03-24T15:44:50.999Z</time></trkpt><trkpt lat="43.15769412857855" lon="12.194426259356236"><ele>283.0</ele><time>2026-03-24T15:44:51.999Z</time></trkpt><trkpt lat="43.15770916890544" lon="12.194542022659231"><ele>283.0</ele><time>2026-03-24T15:44:52.999Z</time></trkpt><trkpt lat="43.15772634403057" lon="12.194681708708819"><ele>283.0</ele><time>2026-03-24T15:44:53.999Z</time></trkpt><trkpt lat="43.157738764700625" lon="12.194793564446108"><ele>283.0</ele><time>2026-03-24T15:44:54.999Z</time></trkpt><trkpt lat="43.1577602489502" lon="12.19492533304183"><ele>283.0</ele><time>2026-03-24T15:44:56.999Z</time></trkpt><trkpt lat="43.15779652296629" lon="12.195025901623417"><ele>284.0</ele><time>2026-03-24T15:44:58.999Z</time></trkpt><trkpt lat="43.157818743645144" lon="12.195114612287272"><ele>285.0</ele><time>2026-03-24T15:44:59.999Z</time></trkpt><trkpt lat="43.15780945717411" lon="12.195245606398117"><ele>286.0</ele><time>2026-03-24T15:45:01.999Z</time></trkpt><trkpt lat="43.157816402302025" lon="12.195383034368263"><ele>287.0</ele><time>2026-03-24T15:45:03.999Z</time></trkpt><trkpt lat="43.15782025570255" lon="12.195565186835497"><ele>288.0</ele><time>2026-03-24T15:45:05.999Z</time></trkpt><trkpt lat="43.15783837164301" lon="12.195670113874515"><ele>289.1666666666667</ele><time>2026-03-24T15:45:06.999Z</time></trkpt><trkpt lat="43.157868338667434" lon="12.195750288901765"><ele>290.3333333333333</ele><time>2026-03-24T15:45:07.999Z</time></trkpt><trkpt lat="43.15791344350395" lon="12.195822942415171"><ele>291.5</ele><time>2026-03-24T15:45:08.999Z</time></trkpt><trkpt lat="43.15795541325313" lon="12.195916661594158"><ele>292.66666666666663</ele><time>2026-03-24T15:45:09.999Z</time></trkpt><trkpt lat="43.15799993965828" lon="12.196057559073282"><ele>293.8333333333333</ele><time>2026-03-24T15:45:10.999Z</time></trkpt><trkpt lat="43.158049813976234" lon="12.196200713176465"><ele>295.0</ele><time>2026-03-24T15:45:11.999Z</time></trkpt><trkpt lat="43.158110009425" lon="12.19631290849724"><ele>295.0</ele><time>2026-03-24T15:45:12.999Z</time></trkpt><trkpt lat="43.15815960908389" lon="12.196405803068208"><ele>295.0</ele><time>2026-03-24T15:45:13.999Z</time></trkpt><trkpt lat="43.15820933388382" lon="12.196580814206861"><ele>295.0</ele><time>2026-03-24T15:45:15.999Z</time></trkpt><trkpt lat="43.15824260918888" lon="12.196670068328054"><ele>295.0</ele><time>2026-03-24T15:45:16.999Z</time></trkpt><trkpt lat="43.158279924862676" lon="12.196763265166567"><ele>295.0</ele><time>2026-03-24T15:45:17.999Z</time></trkpt><trkpt lat="43.15832666859519" lon="12.196841274815217"><ele>295.0</ele><time>2026-03-24T15:45:18.999Z</time></trkpt><trkpt lat="43.15838332543315" lon="12.196959713050045"><ele>297.16666666666663</ele><time>2026-03-24T15:45:20.999Z</time></trkpt><trkpt lat="43.15844854284057" lon="12.197020011255482"><ele>299.3333333333333</ele><time>2026-03-24T15:45:22.999Z</time></trkpt><trkpt lat="43.158508517210436" lon="12.197051644009692"><ele>301.5</ele><time>2026-03-24T15:45:23.999Z</time></trkpt><trkpt lat="43.15861243800715" lon="12.197079164973015"><ele>303.6666666666667</ele><time>2026-03-24T15:45:25.999Z</time></trkpt><trkpt lat="43.15868004062599" lon="12.197060781983676"><ele>305.83333333333337</ele><time>2026-03-24T15:45:26.999Z</time></trkpt><trkpt lat="43.15876621555355" lon="12.197055675669683"><ele>308.0</ele><time>2026-03-24T15:45:28.999Z</time></trkpt><trkpt lat="43.15868310677321" lon="12.197061942846055"><ele>308.0</ele><time>2026-03-24T15:45:57Z</time></trkpt><trkpt lat="43.15859701515238" lon="12.19705628586501"><ele>308.0</ele><time>2026-03-24T15:46:00Z</time></trkpt><trkpt lat="43.15849524708429" lon="12.197027641420114"><ele>308.0</ele><time>2026-03-24T15:46:02Z</time></trkpt><trkpt lat="43.15841876998307" lon="12.196975134525967"><ele>308.0</ele><time>2026-03-24T15:46:04Z</time></trkpt><trkpt lat="43.15834438957512" lon="12.196879019648895"><ele>308.0</ele><time>2026-03-24T15:46:07Z</time></trkpt><trkpt lat="43.15830614377761" lon="12.196752453319943"><ele>308.0</ele><time>2026-03-24T15:46:09Z</time></trkpt><trkpt lat="43.158275438142724" lon="12.196629881113022"><ele>308.0</ele><time>2026-03-24T15:46:11Z</time></trkpt><trkpt lat="43.15821123175216" lon="12.196507352728968"><ele>308.0</ele><time>2026-03-24T15:46:13Z</time></trkpt><trkpt lat="43.15814727361293" lon="12.196369876414371"><ele>308.0</ele><time>2026-03-24T15:46:15Z</time></trkpt><trkpt lat="43.15808547442961" lon="12.19624136172872"><ele>308.0</ele><time>2026-03-24T15:46:17Z</time></trkpt><trkpt lat="43.158035567337336" lon="12.196126500728065"><ele>305.4</ele><time>2026-03-24T15:46:19Z</time></trkpt><trkpt lat="43.15799328590639" lon="12.195990577592859"><ele>302.8</ele><time>2026-03-24T15:46:21Z</time></trkpt><trkpt lat="43.15793083993678" lon="12.195851001583865"><ele>300.2</ele><time>2026-03-24T15:46:23Z</time></trkpt><trkpt lat="43.15787740234629" lon="12.195719402896929"><ele>297.6</ele><time>2026-03-24T15:46:25Z</time></trkpt><trkpt lat="43.1578435822029" lon="12.19563100795061"><ele>295.0</ele><time>2026-03-24T15:46:27Z</time></trkpt><trkpt lat="43.157801266556746" lon="12.195528561637461"><ele>293.6</ele><time>2026-03-24T15:46:30Z</time></trkpt><trkpt lat="43.15782539666546" lon="12.195345979527476"><ele>292.2</ele><time>2026-03-24T15:46:33Z</time></trkpt><trkpt lat="43.15781500646267" lon="12.195174719109543"><ele>290.8</ele><time>2026-03-24T15:46:35Z</time></trkpt><trkpt lat="43.157805337849666" lon="12.195051096710843"><ele>289.4</ele><time>2026-03-24T15:46:37Z</time></trkpt><trkpt lat="43.15776085197345" lon="12.19495536210584"><ele>288.0</ele><time>2026-03-24T15:46:38.999Z</time></trkpt><trkpt lat="43.157739714257445" lon="12.194855449287026"><ele>287.1666666666667</ele><time>2026-03-24T15:46:40.999Z</time></trkpt><trkpt lat="43.15773784382053" lon="12.194757469991169"><ele>286.3333333333333</ele><time>2026-03-24T15:46:42.999Z</time></trkpt><trkpt lat="43.15771075006561" lon="12.194659583606738"><ele>285.5</ele><time>2026-03-24T15:46:44.999Z</time></trkpt><trkpt lat="43.157700421779566" lon="12.194548749991514"><ele>284.66666666666663</ele><time>2026-03-24T15:46:47.999Z</time></trkpt><trkpt lat="43.15769105203317" lon="12.194461571645087"><ele>283.8333333333333</ele><time>2026-03-24T15:46:48.999Z</time></trkpt><trkpt lat="43.15768680747097" lon="12.194339400165282"><ele>283.0</ele><time>2026-03-24T15:46:50.999Z</time></trkpt><trkpt lat="43.15772932308644" lon="12.194245423489068"><ele>283.0</ele><time>2026-03-24T15:46:56.999Z</time></trkpt><trkpt lat="43.15779769827999" lon="12.194171064036118"><ele>283.0</ele><time>2026-03-24T15:46:57.999Z</time></trkpt><trkpt lat="43.157863593320535" lon="12.194061523373474"><ele>283.0</ele><time>2026-03-24T15:46:58.999Z</time></trkpt><trkpt lat="43.15791600430944" lon="12.193978963039223"><ele>283.0</ele><time>2026-03-24T15:46:59.999Z</time></trkpt><trkpt lat="43.15794466064304" lon="12.193896542537573"><ele>283.0</ele><time>2026-03-24T15:47:00.999Z</time></trkpt><trkpt lat="43.15802276665949" lon="12.193805037527277"><ele>283.0</ele><time>2026-03-24T15:47:02.999Z</time></trkpt><trkpt lat="43.158123251716894" lon="12.193804019010916"><ele>281.5</ele><time>2026-03-24T15:47:04.999Z</time></trkpt><trkpt lat="43.15827972167292" lon="12.1938801968358"><ele>280.0</ele><time>2026-03-24T15:47:06.999Z</time></trkpt><trkpt lat="43.15839579573009" lon="12.193927750948673"><ele>278.5</ele><time>2026-03-24T15:47:07.999Z</time></trkpt><trkpt lat="43.158531446937914" lon="12.193985254681575"><ele>277.0</ele><time>2026-03-24T15:47:09.999Z</time></trkpt><trkpt lat="43.158640916821405" lon="12.194002846997979"><ele>277.4</ele><time>2026-03-24T15:47:10.999Z</time></trkpt><trkpt lat="43.15873639752628" lon="12.194030283088882"><ele>277.79999999999995</ele><time>2026-03-24T15:47:11.999Z</time></trkpt><trkpt lat="43.15882804824416" lon="12.194067840361724"><ele>278.2</ele><time>2026-03-24T15:47:12.999Z</time></trkpt><trkpt lat="43.158901642993754" lon="12.1940852284547"><ele>278.59999999999997</ele><time>2026-03-24T15:47:13.999Z</time></trkpt><trkpt lat="43.15902746835386" lon="12.194114298240304"><ele>279.0</ele><time>2026-03-24T15:47:15.999Z</time></trkpt><trkpt lat="43.15913536189401" lon="12.1941556656332"><ele>279.4</ele><time>2026-03-24T15:47:16.999Z</time></trkpt><trkpt lat="43.15922913958894" lon="12.194188384565706"><ele>279.79999999999995</ele><time>2026-03-24T15:47:17.999Z</time></trkpt><trkpt lat="43.159311426431096" lon="12.194214609970459"><ele>280.20000000000005</ele><time>2026-03-24T15:47:18.999Z</time></trkpt><trkpt lat="43.15940988989058" lon="12.194254191790932"><ele>280.6</ele><time>2026-03-24T15:47:19.999Z</time></trkpt><trkpt lat="43.159498330739844" lon="12.19427788727318"><ele>281.0</ele><time>2026-03-24T15:47:20.999Z</time></trkpt><trkpt lat="43.15959302669394" lon="12.1942405352174"><ele>281.0</ele><time>2026-03-24T15:47:22.999Z</time></trkpt><trkpt lat="43.159628064620826" lon="12.194120841540101"><ele>281.0</ele><time>2026-03-24T15:47:24.999Z</time></trkpt><trkpt lat="43.15967859326111" lon="12.19403005097774"><ele>281.0</ele><time>2026-03-24T15:47:27.999Z</time></trkpt><trkpt lat="43.15975252617542" lon="12.194010653753566"><ele>281.0</ele><time>2026-03-24T15:47:28.999Z</time></trkpt><trkpt lat="43.159859401499865" lon="12.194020615918182"><ele>281.0</ele><time>2026-03-24T15:47:29.999Z</time></trkpt><trkpt lat="43.159995524541685" lon="12.194038954747292"><ele>282.6666666666667</ele><time>2026-03-24T15:47:30.999Z</time></trkpt><trkpt lat="43.16016461487856" lon="12.194067184218392"><ele>284.3333333333333</ele><time>2026-03-24T15:47:31.999Z</time></trkpt><trkpt lat="43.16032403855418" lon="12.19410462251695"><ele>286.0</ele><time>2026-03-24T15:47:32.999Z</time></trkpt><trkpt lat="43.16043901660771" lon="12.194149636995892"><ele>286.0</ele><time>2026-03-24T15:47:33.999Z</time></trkpt><trkpt lat="43.16055499013517" lon="12.194221160803671"><ele>286.0</ele><time>2026-03-24T15:47:34.999Z</time></trkpt><trkpt lat="43.16066014635334" lon="12.194323111179829"><ele>286.0</ele><time>2026-03-24T15:47:35.999Z</time></trkpt><trkpt lat="43.16072778505793" lon="12.19440168355653"><ele>286.0</ele><time>2026-03-24T15:47:36.999Z</time></trkpt><trkpt lat="43.160785245921" lon="12.194485267296047"><ele>286.0</ele><time>2026-03-24T15:47:38.999Z</time></trkpt><trkpt lat="43.16073675443561" lon="12.194620370896684"><ele>288.2</ele><time>2026-03-24T15:47:41.999Z</time></trkpt><trkpt lat="43.160776593288546" lon="12.19468956805554"><ele>290.40000000000003</ele><time>2026-03-24T15:47:44.999Z</time></trkpt><trkpt lat="43.16081118735675" lon="12.194765690809817"><ele>292.6</ele><time>2026-03-24T15:47:48.999Z</time></trkpt><trkpt lat="43.16098025830443" lon="12.194808463843005"><ele>294.8</ele><time>2026-03-24T15:47:51.998Z</time></trkpt><trkpt lat="43.161038048978625" lon="12.194856169094313"><ele>297.0</ele><time>2026-03-24T15:47:53.998Z</time></trkpt><trkpt lat="43.161342794989494" lon="12.19499670938486"><ele>298.4</ele><time>2026-03-24T15:47:58Z</time></trkpt><trkpt lat="43.16139830099146" lon="12.195124074718724"><ele>299.79999999999995</ele><time>2026-03-24T15:48:00Z</time></trkpt><trkpt lat="43.16140729506763" lon="12.19521684672132"><ele>301.2</ele><time>2026-03-24T15:48:01Z</time></trkpt><trkpt lat="43.1614060367035" lon="12.195313011590363"><ele>302.59999999999997</ele><time>2026-03-24T15:48:02Z</time></trkpt><trkpt lat="43.16143418240141" lon="12.195453275667269"><ele>304.0</ele><time>2026-03-24T15:48:04Z</time></trkpt><trkpt lat="43.16151773984472" lon="12.195608456080848"><ele>306.0</ele><time>2026-03-24T15:48:06Z</time></trkpt><trkpt lat="43.16157352685104" lon="12.195690970228533"><ele>308.0</ele><time>2026-03-24T15:48:07Z</time></trkpt><trkpt lat="43.161693255262506" lon="12.195759346356208"><ele>310.0</ele><time>2026-03-24T15:48:09Z</time></trkpt><trkpt lat="43.16175799459107" lon="12.195764224017285"><ele>312.0</ele><time>2026-03-24T15:48:10Z</time></trkpt><trkpt lat="43.16183176347984" lon="12.195758999515226"><ele>314.0</ele><time>2026-03-24T15:48:11Z</time></trkpt><trkpt lat="43.16190145654916" lon="12.19576039671585"><ele>316.0</ele><time>2026-03-24T15:48:12Z</time></trkpt><trkpt lat="43.161983632217456" lon="12.195829973860324"><ele>316.0</ele><time>2026-03-24T15:48:14Z</time></trkpt><trkpt lat="43.16209246183991" lon="12.195791324957545"><ele>316.0</ele><time>2026-03-24T15:48:16Z</time></trkpt><trkpt lat="43.162234028319624" lon="12.195886686233019"><ele>316.0</ele><time>2026-03-24T15:48:18Z</time></trkpt><trkpt lat="43.162303080146806" lon="12.195947981637499"><ele>316.0</ele><time>2026-03-24T15:48:19Z</time></trkpt><trkpt lat="43.16235218467545" lon="12.196004093335706"><ele>316.0</ele><time>2026-03-24T15:48:21Z</time></trkpt><trkpt lat="43.162373271555566" lon="12.196092890625689"><ele>318.6</ele><time>2026-03-24T15:48:29Z</time></trkpt><trkpt lat="43.16245713023438" lon="12.196009991163452"><ele>321.20000000000005</ele><time>2026-03-24T15:48:32Z</time></trkpt><trkpt lat="43.1624418184611" lon="12.19587486096766"><ele>323.79999999999995</ele><time>2026-03-24T15:48:34Z</time></trkpt><trkpt lat="43.16246391527445" lon="12.195772330061326"><ele>326.4</ele><time>2026-03-24T15:48:36Z</time></trkpt><trkpt lat="43.162511907676446" lon="12.195680294574089"><ele>329.0</ele><time>2026-03-24T15:48:38Z</time></trkpt><trkpt lat="43.16258957155188" lon="12.195612077999296"><ele>329.0</ele><time>2026-03-24T15:48:40Z</time></trkpt><trkpt lat="43.16266484222813" lon="12.195612835751497"><ele>329.0</ele><time>2026-03-24T15:48:41Z</time></trkpt><trkpt lat="43.162745296990046" lon="12.195603243606877"><ele>329.0</ele><time>2026-03-24T15:48:42Z</time></trkpt><trkpt lat="43.162816094930534" lon="12.195572463891903"><ele>329.0</ele><time>2026-03-24T15:48:43Z</time></trkpt><trkpt lat="43.162901145021735" lon="12.195547248493522"><ele>329.0</ele><time>2026-03-24T15:48:43.999Z</time></trkpt><trkpt lat="43.16298984284088" lon="12.195527383993642"><ele>329.0</ele><time>2026-03-24T15:48:44.999Z</time></trkpt><trkpt lat="43.163076847540765" lon="12.195559413865299"><ele>329.0</ele><time>2026-03-24T15:48:47.999Z</time></trkpt><trkpt lat="43.163150480296075" lon="12.195665906099439"><ele>329.0</ele><time>2026-03-24T15:48:49.999Z</time></trkpt><trkpt lat="43.163213925697136" lon="12.195665554456902"><ele>329.0</ele><time>2026-03-24T15:48:50.999Z</time></trkpt><trkpt lat="43.163310178694225" lon="12.195597603563352"><ele>329.0</ele><time>2026-03-24T15:48:52.999Z</time></trkpt><trkpt lat="43.16338125474899" lon="12.195534725668324"><ele>329.0</ele><time>2026-03-24T15:48:53.999Z</time></trkpt><trkpt lat="43.16345232898455" lon="12.195509312061409"><ele>329.0</ele><time>2026-03-24T15:49:01.999Z</time></trkpt><trkpt lat="43.163513576507405" lon="12.195577556750631"><ele>333.0</ele><time>2026-03-24T15:49:18.999Z</time></trkpt><trkpt lat="43.163569355803375" lon="12.195719173736396"><ele>337.0</ele><time>2026-03-24T15:49:20.999Z</time></trkpt><trkpt lat="43.163596846225474" lon="12.195819033182026"><ele>341.0</ele><time>2026-03-24T15:49:21.999Z</time></trkpt><trkpt lat="43.16363099187921" lon="12.195925068086213"><ele>345.0</ele><time>2026-03-24T15:49:22.999Z</time></trkpt><trkpt lat="43.16366100820823" lon="12.196006631503597"><ele>349.0</ele><time>2026-03-24T15:49:23.999Z</time></trkpt><trkpt lat="43.163733188790104" lon="12.196162248540535"><ele>349.0</ele><time>2026-03-24T15:49:25.999Z</time></trkpt><trkpt lat="43.163790934536244" lon="12.196228274429819"><ele>349.0</ele><time>2026-03-24T15:49:26.999Z</time></trkpt><trkpt lat="43.16387603620082" lon="12.196266347259579"><ele>349.0</ele><time>2026-03-24T15:49:27.999Z</time></trkpt><trkpt lat="43.163938069569724" lon="12.196316266008786"><ele>349.0</ele><time>2026-03-24T15:49:28.999Z</time></trkpt><trkpt lat="43.1639930622023" lon="12.19636047851277"><ele>349.0</ele><time>2026-03-24T15:49:29.999Z</time></trkpt><trkpt lat="43.16402037216129" lon="12.196465562454105"><ele>349.0</ele><time>2026-03-24T15:49:30.999Z</time></trkpt><trkpt lat="43.164024667671924" lon="12.196563265059767"><ele>351.5</ele><time>2026-03-24T15:49:31.999Z</time></trkpt><trkpt lat="43.164048224133865" lon="12.196677532005992"><ele>354.0</ele><time>2026-03-24T15:49:33.999Z</time></trkpt><trkpt lat="43.16412564445608" lon="12.196707959964401"><ele>356.5</ele><time>2026-03-24T15:49:34.999Z</time></trkpt><trkpt lat="43.1642458542743" lon="12.196675677500629"><ele>359.0</ele><time>2026-03-24T15:49:35.999Z</time></trkpt><trkpt lat="43.164229578268454" lon="12.1967606723137"><ele>361.5</ele><time>2026-03-24T15:49:36.999Z</time></trkpt><trkpt lat="43.16420873094944" lon="12.19687299555088"><ele>364.0</ele><time>2026-03-24T15:49:37.999Z</time></trkpt><trkpt lat="43.164291088743525" lon="12.196993872568408"><ele>364.0</ele><time>2026-03-24T15:49:39.999Z</time></trkpt><trkpt lat="43.16433808609338" lon="12.19706259474914"><ele>364.0</ele><time>2026-03-24T15:49:40.999Z</time></trkpt><trkpt lat="43.1642719533383" lon="12.197241229976258"><ele>364.0</ele><time>2026-03-24T15:49:42.999Z</time></trkpt><trkpt lat="43.164178533165156" lon="12.197330723136968"><ele>364.0</ele><time>2026-03-24T15:49:43.999Z</time></trkpt><trkpt lat="43.1640471728597" lon="12.197397594151706"><ele>364.4</ele><time>2026-03-24T15:49:44.999Z</time></trkpt><trkpt lat="43.163917490697166" lon="12.197455966269066"><ele>364.79999999999995</ele><time>2026-03-24T15:49:45.999Z</time></trkpt><trkpt lat="43.16385270128629" lon="12.197490623580705"><ele>365.20000000000005</ele><time>2026-03-24T15:49:46.999Z</time></trkpt><trkpt lat="43.163818552528056" lon="12.197613022915004"><ele>365.6</ele><time>2026-03-24T15:49:48.999Z</time></trkpt><trkpt lat="43.16381411747859" lon="12.197776733067597"><ele>366.0</ele><time>2026-03-24T15:49:50.999Z</time></trkpt><trkpt lat="43.16391797725418" lon="12.197912073589716"><ele>366.0</ele><time>2026-03-24T15:49:52.999Z</time></trkpt><trkpt lat="43.163980435002344" lon="12.19795538350235"><ele>366.0</ele><time>2026-03-24T15:49:53.999Z</time></trkpt><trkpt lat="43.1640515187595" lon="12.19796101489269"><ele>366.0</ele><time>2026-03-24T15:49:54.998Z</time></trkpt><trkpt lat="43.16415001104262" lon="12.19797700257513"><ele>366.0</ele><time>2026-03-24T15:49:55.998Z</time></trkpt><trkpt lat="43.16421719922006" lon="12.198031999365496"><ele>366.0</ele><time>2026-03-24T15:49:56.998Z</time></trkpt><trkpt lat="43.16431848383548" lon="12.1980984163025"><ele>366.0</ele><time>2026-03-24T15:49:57.998Z</time></trkpt><trkpt lat="43.16439708192859" lon="12.19809670400797"><ele>371.4</ele><time>2026-03-24T15:49:58.998Z</time></trkpt><trkpt lat="43.16442873053329" lon="12.198223252721071"><ele>376.8</ele><time>2026-03-24T15:50:00.998Z</time></trkpt><trkpt lat="43.16448519088617" lon="12.198317200095275"><ele>382.2</ele><time>2026-03-24T15:50:02Z</time></trkpt><trkpt lat="43.16454427397971" lon="12.198432942150708"><ele>387.59999999999997</ele><time>2026-03-24T15:50:03Z</time></trkpt><trkpt lat="43.16459536622533" lon="12.198534748568418"><ele>393.0</ele><time>2026-03-24T15:50:04Z</time></trkpt><trkpt lat="43.16464225335168" lon="12.198635451454232"><ele>393.0</ele><time>2026-03-24T15:50:05Z</time></trkpt><trkpt lat="43.164705548687756" lon="12.19874738136068"><ele>393.0</ele><time>2026-03-24T15:50:06Z</time></trkpt><trkpt lat="43.16476392692988" lon="12.19886095517602"><ele>393.0</ele><time>2026-03-24T15:50:07Z</time></trkpt><trkpt lat="43.16480445182928" lon="12.198941627912813"><ele>393.0</ele><time>2026-03-24T15:50:08Z</time></trkpt><trkpt lat="43.16487042363677" lon="12.198977633394081"><ele>393.0</ele><time>2026-03-24T15:50:11Z</time></trkpt><trkpt lat="43.16496010701357" lon="12.199038182345612"><ele>393.0</ele><time>2026-03-24T15:50:13Z</time></trkpt><trkpt lat="43.16500257198969" lon="12.199143501303185"><ele>398.0</ele><time>2026-03-24T15:50:15Z</time></trkpt><trkpt lat="43.16511453212414" lon="12.199353359530788"><ele>403.0</ele><time>2026-03-24T15:50:16Z</time></trkpt><trkpt lat="43.16517856825412" lon="12.19947389465049"><ele>408.0</ele><time>2026-03-24T15:50:17Z</time></trkpt><trkpt lat="43.16522921668449" lon="12.19957969200074"><ele>413.0</ele><time>2026-03-24T15:50:18Z</time></trkpt><trkpt lat="43.165276924447234" lon="12.199675719260028"><ele>412.99999999999994</ele><time>2026-03-24T15:50:19Z</time></trkpt><trkpt lat="43.165327348037536" lon="12.199768169453625"><ele>413.0</ele><time>2026-03-24T15:50:20Z</time></trkpt><trkpt lat="43.165380494434565" lon="12.19986063972159"><ele>413.0</ele><time>2026-03-24T15:50:21Z</time></trkpt><trkpt lat="43.16543285618688" lon="12.19996061937052"><ele>413.0</ele><time>2026-03-24T15:50:22Z</time></trkpt><trkpt lat="43.16547675815454" lon="12.200051491663032"><ele>412.99999999999994</ele><time>2026-03-24T15:50:23Z</time></trkpt><trkpt lat="43.16553297828" lon="12.200135109920716"><ele>413.0</ele><time>2026-03-24T15:50:24Z</time></trkpt><trkpt lat="43.165608756666906" lon="12.200223789488893"><ele>414.8333333333333</ele><time>2026-03-24T15:50:25Z</time></trkpt><trkpt lat="43.165676286708766" lon="12.20029146006431"><ele>416.66666666666663</ele><time>2026-03-24T15:50:26Z</time></trkpt><trkpt lat="43.165738099004734" lon="12.200354144822576"><ele>418.5</ele><time>2026-03-24T15:50:27Z</time></trkpt><trkpt lat="43.16577819718803" lon="12.200457066066345"><ele>420.33333333333337</ele><time>2026-03-24T15:50:29Z</time></trkpt><trkpt lat="43.16581992696316" lon="12.200559458046627"><ele>422.1666666666667</ele><time>2026-03-24T15:50:31Z</time></trkpt><trkpt lat="43.16586954347359" lon="12.200655715977303"><ele>424.0</ele><time>2026-03-24T15:50:32Z</time></trkpt><trkpt lat="43.16591371112377" lon="12.200747620189865"><ele>426.2</ele><time>2026-03-24T15:50:33Z</time></trkpt><trkpt lat="43.16595413902611" lon="12.200825062913024"><ele>428.4</ele><time>2026-03-24T15:50:34Z</time></trkpt><trkpt lat="43.16604157048108" lon="12.200856118428206"><ele>430.6</ele><time>2026-03-24T15:50:36Z</time></trkpt><trkpt lat="43.16612772572657" lon="12.200822775854167"><ele>432.8</ele><time>2026-03-24T15:50:37Z</time></trkpt><trkpt lat="43.16622960530909" lon="12.200800855692425"><ele>435.0</ele><time>2026-03-24T15:50:38Z</time></trkpt><trkpt lat="43.16633183681849" lon="12.200760171382319"><ele>435.0</ele><time>2026-03-24T15:50:39Z</time></trkpt><trkpt lat="43.166409596395475" lon="12.200725936662126"><ele>435.0</ele><time>2026-03-24T15:50:40Z</time></trkpt><trkpt lat="43.16651677399008" lon="12.200691008408652"><ele>435.0</ele><time>2026-03-24T15:50:41Z</time></trkpt><trkpt lat="43.166601433600675" lon="12.200664764307955"><ele>435.0</ele><time>2026-03-24T15:50:42Z</time></trkpt><trkpt lat="43.166665134169314" lon="12.200643182449959"><ele>435.0</ele><time>2026-03-24T15:50:43Z</time></trkpt><trkpt lat="43.16672700456643" lon="12.200659456927657"><ele>435.0</ele><time>2026-03-24T15:50:44Z</time></trkpt><trkpt lat="43.166807500990274" lon="12.20072449709819"><ele>436.6</ele><time>2026-03-24T15:50:45Z</time></trkpt><trkpt lat="43.16687830816113" lon="12.200792548783806"><ele>438.2</ele><time>2026-03-24T15:50:46Z</time></trkpt><trkpt lat="43.166983579586386" lon="12.200806969453382"><ele>439.79999999999995</ele><time>2026-03-24T15:50:48Z</time></trkpt><trkpt lat="43.16710376545925" lon="12.200799217085098"><ele>441.4</ele><time>2026-03-24T15:50:49.999Z</time></trkpt><trkpt lat="43.167170497652" lon="12.20081160683065"><ele>443.0</ele><time>2026-03-24T15:50:50.999Z</time></trkpt><trkpt lat="43.16728462907838" lon="12.200857993141968"><ele>443.0</ele><time>2026-03-24T15:50:52.999Z</time></trkpt><trkpt lat="43.16734711937897" lon="12.200879679132008"><ele>443.0</ele><time>2026-03-24T15:50:53.999Z</time></trkpt><trkpt lat="43.1674110076362" lon="12.200905521840182"><ele>443.0</ele><time>2026-03-24T15:50:54.999Z</time></trkpt><trkpt lat="43.16747758289666" lon="12.200942615165905"><ele>443.0</ele><time>2026-03-24T15:50:55.999Z</time></trkpt><trkpt lat="43.167551366387265" lon="12.20096798402354"><ele>443.0</ele><time>2026-03-24T15:50:56.999Z</time></trkpt><trkpt lat="43.16763594975203" lon="12.200994591956928"><ele>443.0</ele><time>2026-03-24T15:50:57.999Z</time></trkpt><trkpt lat="43.16770588843637" lon="12.201028894349358"><ele>443.0</ele><time>2026-03-24T15:50:58.999Z</time></trkpt><trkpt lat="43.16781433653768" lon="12.201058058035692"><ele>443.59999999999997</ele><time>2026-03-24T15:51:00.999Z</time></trkpt><trkpt lat="43.167909525142605" lon="12.20107075142907"><ele>444.19999999999993</ele><time>2026-03-24T15:51:02.999Z</time></trkpt><trkpt lat="43.16800447251622" lon="12.201099331942302"><ele>444.8</ele><time>2026-03-24T15:51:05.999Z</time></trkpt><trkpt lat="43.16815217339743" lon="12.201106067979074"><ele>445.4</ele><time>2026-03-24T15:51:07.999Z</time></trkpt><trkpt lat="43.168228638759516" lon="12.201119614121975"><ele>446.0</ele><time>2026-03-24T15:51:08.999Z</time></trkpt><trkpt lat="43.16830676342215" lon="12.201142712870276"><ele>446.16666666666663</ele><time>2026-03-24T15:51:09.999Z</time></trkpt><trkpt lat="43.16837110594925" lon="12.201153560104967"><ele>446.3333333333333</ele><time>2026-03-24T15:51:10.999Z</time></trkpt><trkpt lat="43.16850605490847" lon="12.201183468439535"><ele>446.5</ele><time>2026-03-24T15:51:12.999Z</time></trkpt><trkpt lat="43.168587664702365" lon="12.201195556686951"><ele>446.66666666666663</ele><time>2026-03-24T15:51:13.999Z</time></trkpt><trkpt lat="43.16865386764868" lon="12.201206136842933"><ele>446.8333333333333</ele><time>2026-03-24T15:51:14.999Z</time></trkpt><trkpt lat="43.16871762437914" lon="12.201221961119641"><ele>447.0</ele><time>2026-03-24T15:51:15.999Z</time></trkpt><trkpt lat="43.16884085963504" lon="12.201249393692061"><ele>447.0</ele><time>2026-03-24T15:51:17.999Z</time></trkpt><trkpt lat="43.16896341065242" lon="12.201259532612923"><ele>447.00000000000006</ele><time>2026-03-24T15:51:19.999Z</time></trkpt><trkpt lat="43.169070364712354" lon="12.201261986954018"><ele>447.00000000000006</ele><time>2026-03-24T15:51:21.999Z</time></trkpt><trkpt lat="43.16916584527303" lon="12.201305729808789"><ele>447.0</ele><time>2026-03-24T15:51:23.999Z</time></trkpt><trkpt lat="43.1692542986048" lon="12.201299838472654"><ele>447.0</ele><time>2026-03-24T15:51:26.999Z</time></trkpt><trkpt lat="43.169329723219604" lon="12.201296562686938"><ele>446.8333333333333</ele><time>2026-03-24T15:51:29.999Z</time></trkpt><trkpt lat="43.16941375087185" lon="12.201281038878436"><ele>446.66666666666663</ele><time>2026-03-24T15:51:41.999Z</time></trkpt><trkpt lat="43.16949174474718" lon="12.201275311033337"><ele>446.5</ele><time>2026-03-24T15:51:43.999Z</time></trkpt><trkpt lat="43.169551727309184" lon="12.20132017098493"><ele>446.3333333333333</ele><time>2026-03-24T16:00:43Z</time></trkpt><trkpt lat="43.16955129538139" lon="12.201206212351702"><ele>446.16666666666663</ele><time>2026-03-24T16:02:24.999Z</time></trkpt><trkpt lat="43.169470357623645" lon="12.201246802030598"><ele>446.0</ele><time>2026-03-24T16:02:27.998Z</time></trkpt><trkpt lat="43.16938417411186" lon="12.201276404009613"><ele>445.99999999999994</ele><time>2026-03-24T16:02:30.998Z</time></trkpt><trkpt lat="43.16937771860261" lon="12.201391388427371"><ele>446.0</ele><time>2026-03-24T16:02:34.998Z</time></trkpt><trkpt lat="43.16945951198911" lon="12.201464791659246"><ele>446.0</ele><time>2026-03-24T16:02:36.999Z</time></trkpt><trkpt lat="43.169515653021975" lon="12.201524656265136"><ele>446.0</ele><time>2026-03-24T16:02:38.999Z</time></trkpt><trkpt lat="43.16959767428328" lon="12.20151071070442"><ele>445.99999999999994</ele><time>2026-03-24T16:02:41.999Z</time></trkpt><trkpt lat="43.1697045401178" lon="12.201546390556006"><ele>446.0</ele><time>2026-03-24T16:02:43.999Z</time></trkpt><trkpt lat="43.169773654251124" lon="12.20156339461672"><ele>449.20000000000005</ele><time>2026-03-24T16:02:44.999Z</time></trkpt><trkpt lat="43.16987594089932" lon="12.201616944825622"><ele>452.40000000000003</ele><time>2026-03-24T16:02:46.999Z</time></trkpt><trkpt lat="43.16996982554196" lon="12.201683187080134"><ele>455.6</ele><time>2026-03-24T16:02:48.999Z</time></trkpt><trkpt lat="43.170034153148315" lon="12.201800815577457"><ele>458.8</ele><time>2026-03-24T16:02:51.999Z</time></trkpt><trkpt lat="43.17008523174096" lon="12.201898325268454"><ele>462.0</ele><time>2026-03-24T16:02:53.999Z</time></trkpt><trkpt lat="43.17017232151403" lon="12.201953941179658"><ele>462.0</ele><time>2026-03-24T16:02:55.999Z</time></trkpt><trkpt lat="43.17026535785145" lon="12.202032941268525"><ele>462.00000000000006</ele><time>2026-03-24T16:02:57.999Z</time></trkpt><trkpt lat="43.17035545316498" lon="12.20213897274997"><ele>462.00000000000006</ele><time>2026-03-24T16:02:59.999Z</time></trkpt><trkpt lat="43.17044482647558" lon="12.202166215452296"><ele>462.0</ele><time>2026-03-24T16:03:01.999Z</time></trkpt><trkpt lat="43.17053161732406" lon="12.202164136441475"><ele>462.0</ele><time>2026-03-24T16:03:03.999Z</time></trkpt><trkpt lat="43.170596482099825" lon="12.202129160320219"><ele>462.0</ele><time>2026-03-24T16:03:06.999Z</time></trkpt><trkpt lat="43.17066363940495" lon="12.202162428057502"><ele>462.0</ele><time>2026-03-24T16:03:09.999Z</time></trkpt><trkpt lat="43.170719445303476" lon="12.202210791752387"><ele>462.0</ele><time>2026-03-24T16:03:24.999Z</time></trkpt><trkpt lat="43.17078973813355" lon="12.202180585310877"><ele>462.0</ele><time>2026-03-24T16:03:27.999Z</time></trkpt><trkpt lat="43.17089317304047" lon="12.202188496922535"><ele>462.0</ele><time>2026-03-24T16:03:31.999Z</time></trkpt><trkpt lat="43.17097302286983" lon="12.20221759823398"><ele>462.0</ele><time>2026-03-24T16:03:34.999Z</time></trkpt><trkpt lat="43.17104995714511" lon="12.202230168680218"><ele>461.6666666666667</ele><time>2026-03-24T16:03:38.999Z</time></trkpt><trkpt lat="43.17111492733613" lon="12.202306940284833"><ele>461.33333333333337</ele><time>2026-03-24T16:03:41.999Z</time></trkpt><trkpt lat="43.17119206319399" lon="12.202368864194572"><ele>461.0</ele><time>2026-03-24T16:03:44.999Z</time></trkpt><trkpt lat="43.17126218462431" lon="12.20242586594317"><ele>460.6666666666667</ele><time>2026-03-24T16:03:46.999Z</time></trkpt><trkpt lat="43.17134945395221" lon="12.202455876510593"><ele>460.33333333333337</ele><time>2026-03-24T16:03:49.999Z</time></trkpt><trkpt lat="43.17141669398258" lon="12.202472206235669"><ele>460.0</ele><time>2026-03-24T16:03:51.999Z</time></trkpt><trkpt lat="43.17148451045517" lon="12.202524843970815"><ele>459.99999999999994</ele><time>2026-03-24T16:03:55.999Z</time></trkpt><trkpt lat="43.17155197416796" lon="12.202548279922778"><ele>460.0</ele><time>2026-03-24T16:03:58.999Z</time></trkpt><trkpt lat="43.171620531457414" lon="12.20254796993223"><ele>459.99999999999994</ele><time>2026-03-24T16:04:04.999Z</time></trkpt><trkpt lat="43.17168744168162" lon="12.202575689774676"><ele>459.99999999999994</ele><time>2026-03-24T16:04:14.998Z</time></trkpt><trkpt lat="43.171734448105134" lon="12.202646401286806"><ele>460.0</ele><time>2026-03-24T16:04:17.998Z</time></trkpt><trkpt lat="43.17179388250213" lon="12.202696638764612"><ele>459.99999999999994</ele><time>2026-03-24T16:04:21.998Z</time></trkpt><trkpt lat="43.17183524032897" lon="12.202774687910226"><ele>459.99999999999994</ele><time>2026-03-24T16:04:25.998Z</time></trkpt><trkpt lat="43.17187248177791" lon="12.202863336412024"><ele>460.00000000000006</ele><time>2026-03-24T16:04:31.998Z</time></trkpt><trkpt lat="43.17184916619536" lon="12.202780840415661"><ele>460.0</ele><time>2026-03-24T16:05:22.999Z</time></trkpt><trkpt lat="43.1718009025536" lon="12.202720345782149"><ele>460.0</ele><time>2026-03-24T16:05:24.999Z</time></trkpt><trkpt lat="43.171739408704816" lon="12.202622106270262"><ele>460.0</ele><time>2026-03-24T16:05:27.999Z</time></trkpt><trkpt lat="43.17165119803435" lon="12.2025837881898"><ele>460.00000000000006</ele><time>2026-03-24T16:05:30.999Z</time></trkpt><trkpt lat="43.17158048749691" lon="12.202566337859233"><ele>460.0</ele><time>2026-03-24T16:05:33.999Z</time></trkpt><trkpt lat="43.17149357189565" lon="12.202519314496781"><ele>459.99999999999994</ele><time>2026-03-24T16:05:37.999Z</time></trkpt><trkpt lat="43.17142701044616" lon="12.202503485275741"><ele>460.0</ele><time>2026-03-24T16:05:38.999Z</time></trkpt><trkpt lat="43.17134558638301" lon="12.202502912018245"><ele>459.99999999999994</ele><time>2026-03-24T16:05:39.999Z</time></trkpt><trkpt lat="43.17129036410895" lon="12.20243075402531"><ele>459.99999999999994</ele><time>2026-03-24T16:05:40.999Z</time></trkpt><trkpt lat="43.171221931591006" lon="12.2023802484374"><ele>460.0</ele><time>2026-03-24T16:05:42.999Z</time></trkpt><trkpt lat="43.17116572048402" lon="12.202334448102162"><ele>459.99999999999994</ele><time>2026-03-24T16:05:43.999Z</time></trkpt><trkpt lat="43.171107021615676" lon="12.202279512896013"><ele>459.99999999999994</ele><time>2026-03-24T16:05:44.999Z</time></trkpt><trkpt lat="43.171058902637284" lon="12.202197054033066"><ele>460.00000000000006</ele><time>2026-03-24T16:05:46.999Z</time></trkpt><trkpt lat="43.17099381777646" lon="12.202149596749916"><ele>460.0</ele><time>2026-03-24T16:05:49.999Z</time></trkpt><trkpt lat="43.17091284789405" lon="12.202123235624871"><ele>460.0</ele><time>2026-03-24T16:05:52.999Z</time></trkpt><trkpt lat="43.170844713051416" lon="12.202132459113319"><ele>460.0</ele><time>2026-03-24T16:05:54.999Z</time></trkpt><trkpt lat="43.1707584263593" lon="12.202179126624243"><ele>460.00000000000006</ele><time>2026-03-24T16:05:56.999Z</time></trkpt><trkpt lat="43.17069122394151" lon="12.202218606533796"><ele>460.0</ele><time>2026-03-24T16:05:58.999Z</time></trkpt><trkpt lat="43.17068978898797" lon="12.202130164079628"><ele>460.2857142857142</ele><time>2026-03-24T16:06:02.999Z</time></trkpt><trkpt lat="43.170620280826306" lon="12.202132988895134"><ele>460.57142857142856</ele><time>2026-03-24T16:06:04.999Z</time></trkpt><trkpt lat="43.170536891612095" lon="12.202159305272172"><ele>460.85714285714283</ele><time>2026-03-24T16:06:06.999Z</time></trkpt><trkpt lat="43.1704730312129" lon="12.202145192737541"><ele>461.1428571428571</ele><time>2026-03-24T16:06:08.999Z</time></trkpt><trkpt lat="43.17040569996209" lon="12.202118169762251"><ele>461.42857142857144</ele><time>2026-03-24T16:06:10.999Z</time></trkpt><trkpt lat="43.17032883772095" lon="12.202083220600668"><ele>461.7142857142857</ele><time>2026-03-24T16:06:12.999Z</time></trkpt><trkpt lat="43.17027722504485" lon="12.2020240014246"><ele>462.0</ele><time>2026-03-24T16:06:14.999Z</time></trkpt><trkpt lat="43.17022502926637" lon="12.201953157690419"><ele>462.0</ele><time>2026-03-24T16:06:16.999Z</time></trkpt><trkpt lat="43.170159980638005" lon="12.201922033315451"><ele>462.0</ele><time>2026-03-24T16:06:18.999Z</time></trkpt><trkpt lat="43.170095492700376" lon="12.201875168756699"><ele>462.0</ele><time>2026-03-24T16:06:21.999Z</time></trkpt><trkpt lat="43.17004066132465" lon="12.20177515908015"><ele>462.0</ele><time>2026-03-24T16:06:24.999Z</time></trkpt><trkpt lat="43.16998478868496" lon="12.201690258265689"><ele>462.0</ele><time>2026-03-24T16:06:27.999Z</time></trkpt><trkpt lat="43.169913544403855" lon="12.201638835883852"><ele>462.0</ele><time>2026-03-24T16:06:29.999Z</time></trkpt><trkpt lat="43.16984167637653" lon="12.201582725709532"><ele>461.0</ele><time>2026-03-24T16:06:31.999Z</time></trkpt><trkpt lat="43.169721231408595" lon="12.201543614815563"><ele>460.00000000000006</ele><time>2026-03-24T16:06:33.999Z</time></trkpt><trkpt lat="43.169624355470255" lon="12.201526035469982"><ele>459.00000000000006</ele><time>2026-03-24T16:06:35.999Z</time></trkpt><trkpt lat="43.169532554194475" lon="12.201511420502342"><ele>458.0</ele><time>2026-03-24T16:06:37.999Z</time></trkpt><trkpt lat="43.16945781758764" lon="12.201487304640212"><ele>457.0</ele><time>2026-03-24T16:06:39.999Z</time></trkpt><trkpt lat="43.16940466194606" lon="12.201402628713842"><ele>454.8</ele><time>2026-03-24T16:06:41.999Z</time></trkpt><trkpt lat="43.169379940687136" lon="12.201300627557748"><ele>452.6</ele><time>2026-03-24T16:07:05Z</time></trkpt><trkpt lat="43.16949185301835" lon="12.201257282070111"><ele>450.40000000000003</ele><time>2026-03-24T16:07:08Z</time></trkpt><trkpt lat="43.16955716926555" lon="12.201248673857767"><ele>448.20000000000005</ele><time>2026-03-24T16:07:09Z</time></trkpt><trkpt lat="43.16966615754406" lon="12.201221851383066"><ele>446.0</ele><time>2026-03-24T16:07:11Z</time></trkpt><trkpt lat="43.16977493518267" lon="12.201238409314895"><ele>445.99999999999994</ele><time>2026-03-24T16:07:13Z</time></trkpt><trkpt lat="43.16983921096174" lon="12.2012717225743"><ele>446.0</ele><time>2026-03-24T16:07:14Z</time></trkpt><trkpt lat="43.1699322140347" lon="12.201254642232334"><ele>446.0</ele><time>2026-03-24T16:07:16Z</time></trkpt><trkpt lat="43.17000712406675" lon="12.201197048581959"><ele>446.0</ele><time>2026-03-24T16:07:18Z</time></trkpt><trkpt lat="43.17009347433214" lon="12.201134986401053"><ele>445.99999999999994</ele><time>2026-03-24T16:07:20Z</time></trkpt><trkpt lat="43.17019108945005" lon="12.201116698636257"><ele>446.0</ele><time>2026-03-24T16:07:22Z</time></trkpt><trkpt lat="43.1702563605955" lon="12.201091084506228"><ele>446.16666666666663</ele><time>2026-03-24T16:07:24Z</time></trkpt><trkpt lat="43.170314227823745" lon="12.201048869606574"><ele>446.3333333333333</ele><time>2026-03-24T16:07:29Z</time></trkpt><trkpt lat="43.17039267284797" lon="12.201001598907238"><ele>446.5</ele><time>2026-03-24T16:07:31Z</time></trkpt><trkpt lat="43.17045835674199" lon="12.20098372539691"><ele>446.66666666666663</ele><time>2026-03-24T16:07:33Z</time></trkpt><trkpt lat="43.17051965221985" lon="12.201015018609104"><ele>446.8333333333333</ele><time>2026-03-24T16:07:35Z</time></trkpt><trkpt lat="43.1705922642012" lon="12.201077294312269"><ele>447.0</ele><time>2026-03-24T16:07:37Z</time></trkpt><trkpt lat="43.17069911710935" lon="12.201075588103189"><ele>446.5</ele><time>2026-03-24T16:07:39Z</time></trkpt><trkpt lat="43.17077245971045" lon="12.201061845592992"><ele>446.0</ele><time>2026-03-24T16:07:40Z</time></trkpt><trkpt lat="43.17086342214961" lon="12.201079447875813"><ele>445.5</ele><time>2026-03-24T16:07:42Z</time></trkpt><trkpt lat="43.170933864493456" lon="12.201162216123915"><ele>445.0</ele><time>2026-03-24T16:07:44.999Z</time></trkpt><trkpt lat="43.171008994443326" lon="12.201187744721915"><ele>444.5</ele><time>2026-03-24T16:07:46.999Z</time></trkpt><trkpt lat="43.17107585544843" lon="12.201162488246053"><ele>444.0</ele><time>2026-03-24T16:07:48.999Z</time></trkpt><trkpt lat="43.17117077664112" lon="12.20116126409876"><ele>444.0</ele><time>2026-03-24T16:07:50.999Z</time></trkpt><trkpt lat="43.17123610806301" lon="12.2011772044215"><ele>444.0</ele><time>2026-03-24T16:07:52.999Z</time></trkpt><trkpt lat="43.1713055190746" lon="12.201150864907937"><ele>444.0</ele><time>2026-03-24T16:07:55.999Z</time></trkpt><trkpt lat="43.1713783770051" lon="12.20114218529254"><ele>444.0</ele><time>2026-03-24T16:07:59.999Z</time></trkpt><trkpt lat="43.17144806017092" lon="12.201149499113313"><ele>444.0</ele><time>2026-03-24T16:08:03.999Z</time></trkpt><trkpt lat="43.17153063967514" lon="12.201171302452828"><ele>444.0</ele><time>2026-03-24T16:08:06.999Z</time></trkpt><trkpt lat="43.17159388685903" lon="12.201185237175656"><ele>444.0</ele><time>2026-03-24T16:08:09.999Z</time></trkpt><trkpt lat="43.17168791253523" lon="12.201188066755234"><ele>442.6666666666667</ele><time>2026-03-24T16:08:18.999Z</time></trkpt><trkpt lat="43.17175512098004" lon="12.201207981773614"><ele>441.33333333333337</ele><time>2026-03-24T16:08:26.999Z</time></trkpt><trkpt lat="43.1718216633579" lon="12.201191241793747"><ele>440.0</ele><time>2026-03-24T16:08:30.999Z</time></trkpt><trkpt lat="43.1719046853127" lon="12.201200147286402"><ele>438.6666666666667</ele><time>2026-03-24T16:08:33.999Z</time></trkpt><trkpt lat="43.171984386513586" lon="12.201166518544847"><ele>437.33333333333337</ele><time>2026-03-24T16:08:36.999Z</time></trkpt><trkpt lat="43.172087093091164" lon="12.201145649903456"><ele>436.0</ele><time>2026-03-24T16:08:39.999Z</time></trkpt><trkpt lat="43.17215971534181" lon="12.201140064625383"><ele>436.00000000000006</ele><time>2026-03-24T16:08:41.999Z</time></trkpt><trkpt lat="43.172231276297246" lon="12.201172379513165"><ele>436.0</ele><time>2026-03-24T16:08:43.999Z</time></trkpt><trkpt lat="43.17230440706064" lon="12.201181763595649"><ele>436.0</ele><time>2026-03-24T16:08:45.999Z</time></trkpt><trkpt lat="43.172390058966634" lon="12.201178943317151"><ele>436.0</ele><time>2026-03-24T16:08:48.999Z</time></trkpt><trkpt lat="43.17248114359592" lon="12.201176158754267"><ele>436.00000000000006</ele><time>2026-03-24T16:08:51.999Z</time></trkpt><trkpt lat="43.17255057474258" lon="12.201189554326591"><ele>436.0</ele><time>2026-03-24T16:08:54Z</time></trkpt><trkpt lat="43.172626858300895" lon="12.201183375117365"><ele>433.83333333333337</ele><time>2026-03-24T16:08:57Z</time></trkpt><trkpt lat="43.17269814297795" lon="12.20117088998306"><ele>431.6666666666667</ele><time>2026-03-24T16:09:00Z</time></trkpt><trkpt lat="43.172763961443806" lon="12.201141079191988"><ele>429.5</ele><time>2026-03-24T16:09:03Z</time></trkpt><trkpt lat="43.172841647034076" lon="12.201124507129762"><ele>427.33333333333337</ele><time>2026-03-24T16:09:06Z</time></trkpt><trkpt lat="43.17290129429025" lon="12.201157187150358"><ele>425.1666666666667</ele><time>2026-03-24T16:09:10Z</time></trkpt><trkpt lat="43.17297580427355" lon="12.201301406041702"><ele>423.0</ele><time>2026-03-24T16:09:12Z</time></trkpt><trkpt lat="43.17301328456831" lon="12.201464314292537"><ele>425.79999999999995</ele><time>2026-03-24T16:09:14Z</time></trkpt><trkpt lat="43.173035702453674" lon="12.201548619920155"><ele>428.6</ele><time>2026-03-24T16:09:15Z</time></trkpt><trkpt lat="43.17307112161466" lon="12.201693678363563"><ele>431.40000000000003</ele><time>2026-03-24T16:09:17Z</time></trkpt><trkpt lat="43.17312550119201" lon="12.201824739058477"><ele>434.20000000000005</ele><time>2026-03-24T16:09:19Z</time></trkpt><trkpt lat="43.17314375642065" lon="12.20197290763925"><ele>437.0</ele><time>2026-03-24T16:09:21Z</time></trkpt><trkpt lat="43.17312956869728" lon="12.202107628622793"><ele>437.0</ele><time>2026-03-24T16:09:23Z</time></trkpt><trkpt lat="43.173105519815685" lon="12.202251514974593"><ele>437.00000000000006</ele><time>2026-03-24T16:09:25Z</time></trkpt><trkpt lat="43.17304587454426" lon="12.202427949759555"><ele>437.00000000000006</ele><time>2026-03-24T16:09:27Z</time></trkpt><trkpt lat="43.17301215896485" lon="12.202536325521683"><ele>437.0</ele><time>2026-03-24T16:09:28Z</time></trkpt><trkpt lat="43.172988917827624" lon="12.202628901418793"><ele>437.0</ele><time>2026-03-24T16:09:29Z</time></trkpt><trkpt lat="43.17296912881167" lon="12.20271329208754"><ele>437.66666666666663</ele><time>2026-03-24T16:09:30Z</time></trkpt><trkpt lat="43.172944159086846" lon="12.20282812975104"><ele>438.3333333333333</ele><time>2026-03-24T16:09:32Z</time></trkpt><trkpt lat="43.17296418311753" lon="12.202913704948275"><ele>439.0</ele><time>2026-03-24T16:09:34Z</time></trkpt><trkpt lat="43.172948391148005" lon="12.203050431861222"><ele>439.66666666666663</ele><time>2026-03-24T16:09:37Z</time></trkpt><trkpt lat="43.17294290956923" lon="12.203175895459145"><ele>440.3333333333333</ele><time>2026-03-24T16:09:39Z</time></trkpt><trkpt lat="43.172882852903435" lon="12.203242918070854"><ele>441.0</ele><time>2026-03-24T16:09:43Z</time></trkpt><trkpt lat="43.17285915838669" lon="12.203340320999356"><ele>438.20000000000005</ele><time>2026-03-24T16:09:45Z</time></trkpt><trkpt lat="43.17282446486575" lon="12.203422730679245"><ele>435.40000000000003</ele><time>2026-03-24T16:09:47Z</time></trkpt><trkpt lat="43.17276268788188" lon="12.203467674964433"><ele>432.6</ele><time>2026-03-24T16:09:50Z</time></trkpt><trkpt lat="43.1727015576242" lon="12.203556160320613"><ele>429.8</ele><time>2026-03-24T16:09:52.999Z</time></trkpt><trkpt lat="43.172621912667324" lon="12.203706880934384"><ele>427.0</ele><time>2026-03-24T16:09:54.999Z</time></trkpt><trkpt lat="43.17258193417607" lon="12.203820288288917"><ele>427.00000000000006</ele><time>2026-03-24T16:09:55.999Z</time></trkpt><trkpt lat="43.172560803432994" lon="12.203904728381733"><ele>427.0</ele><time>2026-03-24T16:09:56.999Z</time></trkpt><trkpt lat="43.17252916578508" lon="12.204013491290636"><ele>427.0</ele><time>2026-03-24T16:09:57.999Z</time></trkpt><trkpt lat="43.17248171125156" lon="12.20412678247164"><ele>427.0</ele><time>2026-03-24T16:09:58.999Z</time></trkpt><trkpt lat="43.17243195848258" lon="12.204232003445908"><ele>427.00000000000006</ele><time>2026-03-24T16:09:59.999Z</time></trkpt><trkpt lat="43.17240660050522" lon="12.20433158916898"><ele>427.0</ele><time>2026-03-24T16:10:00.999Z</time></trkpt><trkpt lat="43.17238918757566" lon="12.204430546110045"><ele>426.6</ele><time>2026-03-24T16:10:01.999Z</time></trkpt><trkpt lat="43.17236238114939" lon="12.204514292790595"><ele>426.20000000000005</ele><time>2026-03-24T16:10:02.999Z</time></trkpt><trkpt lat="43.17229594147834" lon="12.204636190164878"><ele>425.8</ele><time>2026-03-24T16:10:04.999Z</time></trkpt><trkpt lat="43.17221211316973" lon="12.20468996032732"><ele>425.4</ele><time>2026-03-24T16:10:06.999Z</time></trkpt><trkpt lat="43.17210361829489" lon="12.204729946154334"><ele>425.0</ele><time>2026-03-24T16:10:08.999Z</time></trkpt><trkpt lat="43.17196986315685" lon="12.204774710651545"><ele>422.16666666666663</ele><time>2026-03-24T16:10:10.999Z</time></trkpt><trkpt lat="43.17187086116249" lon="12.204835421301505"><ele>419.3333333333333</ele><time>2026-03-24T16:10:11.999Z</time></trkpt><trkpt lat="43.17178989936264" lon="12.2048744174329"><ele>416.5</ele><time>2026-03-24T16:10:12.999Z</time></trkpt><trkpt lat="43.171717479378856" lon="12.204902395861776"><ele>413.66666666666663</ele><time>2026-03-24T16:10:13.999Z</time></trkpt><trkpt lat="43.171641552134055" lon="12.204947607787046"><ele>410.8333333333333</ele><time>2026-03-24T16:10:15.999Z</time></trkpt><trkpt lat="43.171557101789745" lon="12.204968428615292"><ele>408.0</ele><time>2026-03-24T16:10:18.999Z</time></trkpt><trkpt lat="43.17148439522715" lon="12.205014825638731"><ele>408.0</ele><time>2026-03-24T16:10:22.999Z</time></trkpt><trkpt lat="43.17143310624799" lon="12.205078740076644"><ele>408.0</ele><time>2026-03-24T16:10:25.999Z</time></trkpt><trkpt lat="43.17136320330818" lon="12.205215868888702"><ele>408.0</ele><time>2026-03-24T16:10:33.999Z</time></trkpt><trkpt lat="43.17133707095259" lon="12.205309466202527"><ele>408.0</ele><time>2026-03-24T16:10:34.999Z</time></trkpt><trkpt lat="43.17130516533908" lon="12.205395709375201"><ele>408.0</ele><time>2026-03-24T16:10:35.999Z</time></trkpt><trkpt lat="43.17126971968703" lon="12.205476650661124"><ele>408.0</ele><time>2026-03-24T16:10:36.999Z</time></trkpt><trkpt lat="43.171194858780076" lon="12.205607132980795"><ele>404.4</ele><time>2026-03-24T16:10:38.999Z</time></trkpt><trkpt lat="43.171111223244125" lon="12.205705779004058"><ele>400.79999999999995</ele><time>2026-03-24T16:10:40.999Z</time></trkpt><trkpt lat="43.17107945289537" lon="12.205786097786248"><ele>397.2</ele><time>2026-03-24T16:10:41.999Z</time></trkpt><trkpt lat="43.17101354573793" lon="12.205920658449738"><ele>393.6</ele><time>2026-03-24T16:10:43.999Z</time></trkpt><trkpt lat="43.1709404469368" lon="12.206023308114005"><ele>390.0</ele><time>2026-03-24T16:10:45.999Z</time></trkpt><trkpt lat="43.17085153788888" lon="12.206107485499745"><ele>390.0</ele><time>2026-03-24T16:10:47.999Z</time></trkpt><trkpt lat="43.17076160967073" lon="12.206191020326871"><ele>390.0</ele><time>2026-03-24T16:10:49.999Z</time></trkpt><trkpt lat="43.170678473792" lon="12.206260928277032"><ele>390.0</ele><time>2026-03-24T16:10:51.999Z</time></trkpt><trkpt lat="43.17061290725056" lon="12.206278067530764"><ele>390.0</ele><time>2026-03-24T16:10:54.999Z</time></trkpt><trkpt lat="43.17055088986118" lon="12.206296695672204"><ele>390.0</ele><time>2026-03-24T16:10:55.999Z</time></trkpt><trkpt lat="43.17047212627328" lon="12.206343236075211"><ele>390.0</ele><time>2026-03-24T16:10:56.999Z</time></trkpt><trkpt lat="43.17039328445234" lon="12.206376650632597"><ele>389.8333333333333</ele><time>2026-03-24T16:10:57.999Z</time></trkpt><trkpt lat="43.170324773319365" lon="12.206405578567487"><ele>389.66666666666663</ele><time>2026-03-24T16:10:58.999Z</time></trkpt><trkpt lat="43.170200230648845" lon="12.206455262226184"><ele>389.5</ele><time>2026-03-24T16:11:01Z</time></trkpt><trkpt lat="43.17013610616573" lon="12.206473865553559"><ele>389.3333333333333</ele><time>2026-03-24T16:11:02Z</time></trkpt><trkpt lat="43.170055251958416" lon="12.20650663664268"><ele>389.16666666666663</ele><time>2026-03-24T16:11:04Z</time></trkpt><trkpt lat="43.16998383910977" lon="12.206552546515836"><ele>389.0</ele><time>2026-03-24T16:11:06Z</time></trkpt><trkpt lat="43.169910627506454" lon="12.206608965303205"><ele>384.16666666666663</ele><time>2026-03-24T16:11:08Z</time></trkpt><trkpt lat="43.16982535394635" lon="12.206673722435598"><ele>379.3333333333333</ele><time>2026-03-24T16:11:10Z</time></trkpt><trkpt lat="43.16976090941107" lon="12.20675501384271"><ele>374.5</ele><time>2026-03-24T16:11:12Z</time></trkpt><trkpt lat="43.16972217898912" lon="12.206836322684989"><ele>369.66666666666663</ele><time>2026-03-24T16:11:14Z</time></trkpt><trkpt lat="43.16968145864808" lon="12.206941722890067"><ele>364.8333333333333</ele><time>2026-03-24T16:11:16Z</time></trkpt><trkpt lat="43.16962882244903" lon="12.207013865138642"><ele>360.0</ele><time>2026-03-24T16:11:18Z</time></trkpt><trkpt lat="43.169626332878615" lon="12.207137838084972"><ele>360.0</ele><time>2026-03-24T16:11:20Z</time></trkpt><trkpt lat="43.169623813041895" lon="12.207279626221835"><ele>360.0</ele><time>2026-03-24T16:11:22Z</time></trkpt><trkpt lat="43.16956817283825" lon="12.207406009394607"><ele>360.0</ele><time>2026-03-24T16:11:24Z</time></trkpt><trkpt lat="43.16952599745857" lon="12.207503648011945"><ele>360.0</ele><time>2026-03-24T16:11:26Z</time></trkpt><trkpt lat="43.169483986090064" lon="12.20757472468396"><ele>360.0</ele><time>2026-03-24T16:11:28Z</time></trkpt><trkpt lat="43.16940963011328" lon="12.207540184138162"><ele>360.0</ele><time>2026-03-24T16:11:43Z</time></trkpt><trkpt lat="43.16935649155055" lon="12.207423436326737"><ele>360.0</ele><time>2026-03-24T16:11:44Z</time></trkpt><trkpt lat="43.169306086283505" lon="12.207327866975422"><ele>360.0</ele><time>2026-03-24T16:11:45Z</time></trkpt><trkpt lat="43.169250982373384" lon="12.207273003367503"><ele>360.0</ele><time>2026-03-24T16:11:46Z</time></trkpt><trkpt lat="43.16919439855261" lon="12.207234088464418"><ele>360.0</ele><time>2026-03-24T16:11:47Z</time></trkpt><trkpt lat="43.169129033205714" lon="12.207203927289417"><ele>360.0</ele><time>2026-03-24T16:11:48Z</time></trkpt><trkpt lat="43.1690055346493" lon="12.207191152702"><ele>360.0</ele><time>2026-03-24T16:11:50Z</time></trkpt><trkpt lat="43.16893537673721" lon="12.207170261590537"><ele>357.57142857142856</ele><time>2026-03-24T16:11:51Z</time></trkpt><trkpt lat="43.1688550106018" lon="12.207160985625823"><ele>355.14285714285717</ele><time>2026-03-24T16:11:52Z</time></trkpt><trkpt lat="43.168781841141104" lon="12.20715474747643"><ele>352.7142857142857</ele><time>2026-03-24T16:11:53Z</time></trkpt><trkpt lat="43.168709818395186" lon="12.207135340011291"><ele>350.2857142857143</ele><time>2026-03-24T16:11:54Z</time></trkpt><trkpt lat="43.16864548024428" lon="12.207090264721893"><ele>347.8571428571429</ele><time>2026-03-24T16:11:55Z</time></trkpt><trkpt lat="43.16859194443469" lon="12.207021571742809"><ele>345.42857142857144</ele><time>2026-03-24T16:11:55.999Z</time></trkpt><trkpt lat="43.16855000052795" lon="12.206953564890798"><ele>343.0</ele><time>2026-03-24T16:11:56.999Z</time></trkpt><trkpt lat="43.16848655178919" lon="12.206893836423072"><ele>343.0</ele><time>2026-03-24T16:11:58.999Z</time></trkpt><trkpt lat="43.16838811242645" lon="12.206963424417427"><ele>343.0</ele><time>2026-03-24T16:12:00.999Z</time></trkpt><trkpt lat="43.16835396510167" lon="12.207047718580919"><ele>343.0</ele><time>2026-03-24T16:12:01.999Z</time></trkpt><trkpt lat="43.16830339051152" lon="12.207170983789512"><ele>343.0</ele><time>2026-03-24T16:12:03.999Z</time></trkpt><trkpt lat="43.16823925772021" lon="12.2072712298574"><ele>343.0</ele><time>2026-03-24T16:12:05.999Z</time></trkpt><trkpt lat="43.16818238396631" lon="12.207361088220331"><ele>338.5</ele><time>2026-03-24T16:12:07.999Z</time></trkpt><trkpt lat="43.168114985888764" lon="12.207468579435856"><ele>334.0</ele><time>2026-03-24T16:12:09.999Z</time></trkpt><trkpt lat="43.16804367690739" lon="12.207557672732412"><ele>329.5</ele><time>2026-03-24T16:12:11.999Z</time></trkpt><trkpt lat="43.167959528496894" lon="12.207634647532368"><ele>325.0</ele><time>2026-03-24T16:12:13.999Z</time></trkpt><trkpt lat="43.16791845788077" lon="12.20770035682443"><ele>320.5</ele><time>2026-03-24T16:12:14.999Z</time></trkpt><trkpt lat="43.16787794690729" lon="12.207776232615146"><ele>316.0</ele><time>2026-03-24T16:12:15.999Z</time></trkpt><trkpt lat="43.16783589758353" lon="12.207845029368762"><ele>316.0</ele><time>2026-03-24T16:12:16.999Z</time></trkpt><trkpt lat="43.16779810367314" lon="12.207919265038031"><ele>316.0</ele><time>2026-03-24T16:12:17.999Z</time></trkpt><trkpt lat="43.16776677328148" lon="12.208003117399747"><ele>316.0</ele><time>2026-03-24T16:12:18.999Z</time></trkpt><trkpt lat="43.16774160852627" lon="12.208089349129255"><ele>316.0</ele><time>2026-03-24T16:12:19.999Z</time></trkpt><trkpt lat="43.167684576413954" lon="12.20824496157976"><ele>316.0</ele><time>2026-03-24T16:12:21.999Z</time></trkpt><trkpt lat="43.16765170249384" lon="12.208322060479166"><ele>316.0</ele><time>2026-03-24T16:12:22.999Z</time></trkpt><trkpt lat="43.167571181703536" lon="12.208467001876748"><ele>314.7142857142857</ele><time>2026-03-24T16:12:24.999Z</time></trkpt><trkpt lat="43.16751506584127" lon="12.20853309520961"><ele>313.42857142857144</ele><time>2026-03-24T16:12:25.999Z</time></trkpt><trkpt lat="43.16744955431679" lon="12.208594460638986"><ele>312.1428571428571</ele><time>2026-03-24T16:12:26.999Z</time></trkpt><trkpt lat="43.167383348076044" lon="12.20865280838883"><ele>310.8571428571429</ele><time>2026-03-24T16:12:27.999Z</time></trkpt><trkpt lat="43.16732535059177" lon="12.208706084522236"><ele>309.57142857142856</ele><time>2026-03-24T16:12:28.999Z</time></trkpt><trkpt lat="43.16727760036213" lon="12.20877439840613"><ele>308.2857142857143</ele><time>2026-03-24T16:12:29.999Z</time></trkpt><trkpt lat="43.16723066860105" lon="12.208849601121884"><ele>307.0</ele><time>2026-03-24T16:12:30.999Z</time></trkpt><trkpt lat="43.167192010949144" lon="12.208923128205736"><ele>304.66666666666663</ele><time>2026-03-24T16:12:31.999Z</time></trkpt><trkpt lat="43.16713439933811" lon="12.209002364739078"><ele>302.3333333333333</ele><time>2026-03-24T16:12:33.999Z</time></trkpt><trkpt lat="43.1670724625471" lon="12.209131197273969"><ele>300.0</ele><time>2026-03-24T16:12:35.999Z</time></trkpt><trkpt lat="43.167046355286566" lon="12.209227435968442"><ele>297.6666666666667</ele><time>2026-03-24T16:12:36.999Z</time></trkpt><trkpt lat="43.167064203982946" lon="12.209328397691449"><ele>295.33333333333337</ele><time>2026-03-24T16:12:37.999Z</time></trkpt><trkpt lat="43.167061624885825" lon="12.20943381212216"><ele>293.0</ele><time>2026-03-24T16:12:38.999Z</time></trkpt><trkpt lat="43.16707310873854" lon="12.20956220060074"><ele>293.0</ele><time>2026-03-24T16:12:39.999Z</time></trkpt><trkpt lat="43.16710471201809" lon="12.209675767228786"><ele>293.0</ele><time>2026-03-24T16:12:40.999Z</time></trkpt><trkpt lat="43.16694411852078" lon="12.209869307291694"><ele>293.0</ele><time>2026-03-24T16:12:41.999Z</time></trkpt><trkpt lat="43.16697211067553" lon="12.209970844200505"><ele>293.0</ele><time>2026-03-24T16:12:42.999Z</time></trkpt><trkpt lat="43.167002507985096" lon="12.210065305147735"><ele>291.5</ele><time>2026-03-24T16:12:43.999Z</time></trkpt><trkpt lat="43.16704292154926" lon="12.210170944954506"><ele>290.0</ele><time>2026-03-24T16:12:44.999Z</time></trkpt><trkpt lat="43.167092038314436" lon="12.210278206168086"><ele>288.5</ele><time>2026-03-24T16:12:45.999Z</time></trkpt><trkpt lat="43.16713340180054" lon="12.210362326904335"><ele>287.0</ele><time>2026-03-24T16:12:46.999Z</time></trkpt><trkpt lat="43.16718381408994" lon="12.210466893731699"><ele>285.5</ele><time>2026-03-24T16:12:47.999Z</time></trkpt><trkpt lat="43.167229347861834" lon="12.210543534848346"><ele>284.0</ele><time>2026-03-24T16:12:48.999Z</time></trkpt><trkpt lat="43.167227629672794" lon="12.210659171148235"><ele>282.2</ele><time>2026-03-24T16:12:53.999Z</time></trkpt><trkpt lat="43.16721733412393" lon="12.210808980158564"><ele>280.4</ele><time>2026-03-24T16:12:55.999Z</time></trkpt><trkpt lat="43.167204336564694" lon="12.210976181211105"><ele>278.6</ele><time>2026-03-24T16:12:57.999Z</time></trkpt><trkpt lat="43.167194900041544" lon="12.21113471178315"><ele>276.8</ele><time>2026-03-24T16:12:59.999Z</time></trkpt><trkpt lat="43.167188646187554" lon="12.211258803618293"><ele>275.0</ele><time>2026-03-24T16:13:01.999Z</time></trkpt><trkpt lat="43.167183749456846" lon="12.211370838010113"><ele>275.0</ele><time>2026-03-24T16:13:03.999Z</time></trkpt><trkpt lat="43.167180215923096" lon="12.211465644467841"><ele>275.0</ele><time>2026-03-24T16:13:07Z</time></trkpt><trkpt lat="43.16721772278893" lon="12.211556755606356"><ele>275.0</ele><time>2026-03-24T16:13:36Z</time></trkpt><trkpt lat="43.16728990340677" lon="12.21159400079335"><ele>275.0</ele><time>2026-03-24T16:13:39Z</time></trkpt><trkpt lat="43.16738473012626" lon="12.211474779375841"><ele>275.0</ele><time>2026-03-24T16:13:41Z</time></trkpt><trkpt lat="43.16747407288449" lon="12.21140851324595"><ele>274.75</ele><time>2026-03-24T16:13:42Z</time></trkpt><trkpt lat="43.16758075118002" lon="12.211343834857097"><ele>274.5</ele><time>2026-03-24T16:13:43Z</time></trkpt><trkpt lat="43.167695579251586" lon="12.21133000849213"><ele>274.25</ele><time>2026-03-24T16:13:44Z</time></trkpt><trkpt lat="43.167806760159664" lon="12.211308500476058"><ele>274.0</ele><time>2026-03-24T16:13:45Z</time></trkpt><trkpt lat="43.16793173102947" lon="12.211298588660501"><ele>274.0</ele><time>2026-03-24T16:13:46Z</time></trkpt><trkpt lat="43.1680641447389" lon="12.21127991022543"><ele>274.0</ele><time>2026-03-24T16:13:47Z</time></trkpt><trkpt lat="43.1682104418467" lon="12.211281749790238"><ele>274.0</ele><time>2026-03-24T16:13:48Z</time></trkpt><trkpt lat="43.16834520446374" lon="12.211271765352508"><ele>274.0</ele><time>2026-03-24T16:13:49Z</time></trkpt><trkpt lat="43.16847196927508" lon="12.211253572088564"><ele>275.75</ele><time>2026-03-24T16:13:50Z</time></trkpt><trkpt lat="43.16859999089778" lon="12.211263799375145"><ele>277.5</ele><time>2026-03-24T16:13:51Z</time></trkpt><trkpt lat="43.1687363974427" lon="12.211255113046876"><ele>279.25</ele><time>2026-03-24T16:13:52Z</time></trkpt><trkpt lat="43.16887263077133" lon="12.211247271746412"><ele>281.0</ele><time>2026-03-24T16:13:53Z</time></trkpt><trkpt lat="43.168993390732055" lon="12.211222934173612"><ele>284.0</ele><time>2026-03-24T16:13:54Z</time></trkpt><trkpt lat="43.16911353431818" lon="12.21123280964832"><ele>287.0</ele><time>2026-03-24T16:13:55Z</time></trkpt><trkpt lat="43.16926436903758" lon="12.211222072451088"><ele>290.0</ele><time>2026-03-24T16:13:56Z</time></trkpt><trkpt lat="43.16941670176338" lon="12.211198149026293"><ele>293.0</ele><time>2026-03-24T16:13:57Z</time></trkpt><trkpt lat="43.16951703228744" lon="12.211188683045485"><ele>293.0</ele><time>2026-03-24T16:13:58Z</time></trkpt><trkpt lat="43.169597616583104" lon="12.211173066174718"><ele>293.0</ele><time>2026-03-24T16:13:58.999Z</time></trkpt><trkpt lat="43.16966999371666" lon="12.211145398491565"><ele>293.0</ele><time>2026-03-24T16:13:59.999Z</time></trkpt><trkpt lat="43.16973589580796" lon="12.2111096700074"><ele>293.0</ele><time>2026-03-24T16:14:00.999Z</time></trkpt><trkpt lat="43.1698174687184" lon="12.211065477539861"><ele>293.0</ele><time>2026-03-24T16:14:01.999Z</time></trkpt><trkpt lat="43.16992002246221" lon="12.210978659516684"><ele>293.0</ele><time>2026-03-24T16:14:02.999Z</time></trkpt><trkpt lat="43.17000723298765" lon="12.210901756748443"><ele>292.6666666666667</ele><time>2026-03-24T16:14:03.999Z</time></trkpt><trkpt lat="43.17005974255861" lon="12.21083128923171"><ele>292.33333333333337</ele><time>2026-03-24T16:14:04.999Z</time></trkpt><trkpt lat="43.170130263874846" lon="12.210750741863299"><ele>292.0</ele><time>2026-03-24T16:14:06.999Z</time></trkpt><trkpt lat="43.17019602895537" lon="12.210606966413753"><ele>291.6666666666667</ele><time>2026-03-24T16:14:31.999Z</time></trkpt><trkpt lat="43.17024927116365" lon="12.210538592994078"><ele>291.3333333333333</ele><time>2026-03-24T16:14:32.999Z</time></trkpt><trkpt lat="43.170293653900444" lon="12.210459730458883"><ele>291.0</ele><time>2026-03-24T16:14:33.999Z</time></trkpt><trkpt lat="43.170307263863165" lon="12.21036892407054"><ele>294.8</ele><time>2026-03-24T16:14:34.999Z</time></trkpt><trkpt lat="43.170339211168695" lon="12.210182628819911"><ele>298.6</ele><time>2026-03-24T16:14:36.999Z</time></trkpt><trkpt lat="43.17036060498753" lon="12.210044358871343"><ele>302.4</ele><time>2026-03-24T16:14:37.999Z</time></trkpt><trkpt lat="43.170377029809856" lon="12.209911782404056"><ele>306.2</ele><time>2026-03-24T16:14:38.999Z</time></trkpt><trkpt lat="43.17038794388367" lon="12.209798955316552"><ele>310.0</ele><time>2026-03-24T16:14:39.999Z</time></trkpt><trkpt lat="43.170402066859864" lon="12.20969121367045"><ele>312.0</ele><time>2026-03-24T16:14:40.999Z</time></trkpt><trkpt lat="43.17041855520559" lon="12.2095835856135"><ele>314.0</ele><time>2026-03-24T16:14:41.999Z</time></trkpt><trkpt lat="43.17044095799488" lon="12.209459415123584"><ele>316.0</ele><time>2026-03-24T16:14:42.999Z</time></trkpt><trkpt lat="43.17047894099547" lon="12.209334763700639"><ele>318.0</ele><time>2026-03-24T16:14:43.999Z</time></trkpt><trkpt lat="43.17053052506671" lon="12.209237135235252"><ele>320.0</ele><time>2026-03-24T16:14:44.999Z</time></trkpt><trkpt lat="43.170572153440524" lon="12.209148165185963"><ele>322.0</ele><time>2026-03-24T16:14:45.999Z</time></trkpt><trkpt lat="43.17059871181558" lon="12.208990990340276"><ele>324.25</ele><time>2026-03-24T16:14:47.999Z</time></trkpt><trkpt lat="43.17068318869382" lon="12.20889243594454"><ele>326.5</ele><time>2026-03-24T16:14:49.999Z</time></trkpt><trkpt lat="43.17078319397999" lon="12.208980765475477"><ele>328.75</ele><time>2026-03-24T16:14:51.999Z</time></trkpt><trkpt lat="43.17090263277492" lon="12.209053293860212"><ele>331.0</ele><time>2026-03-24T16:14:53.999Z</time></trkpt><trkpt lat="43.17100426737502" lon="12.209097048654705"><ele>327.40000000000003</ele><time>2026-03-24T16:14:55.999Z</time></trkpt><trkpt lat="43.17108460758504" lon="12.209084385070494"><ele>323.8</ele><time>2026-03-24T16:14:57.999Z</time></trkpt><trkpt lat="43.17121433855461" lon="12.209096315438325"><ele>320.20000000000005</ele><time>2026-03-24T16:14:59.999Z</time></trkpt><trkpt lat="43.17129909094941" lon="12.20907638378776"><ele>316.6</ele><time>2026-03-24T16:15:00.999Z</time></trkpt><trkpt lat="43.1713720918124" lon="12.209053972793212"><ele>313.0</ele><time>2026-03-24T16:15:01.999Z</time></trkpt><trkpt lat="43.17148255824386" lon="12.209020970805152"><ele>314.8333333333333</ele><time>2026-03-24T16:15:03.999Z</time></trkpt><trkpt lat="43.17156536406242" lon="12.208966500409188"><ele>316.66666666666663</ele><time>2026-03-24T16:15:05.999Z</time></trkpt><trkpt lat="43.17164847767739" lon="12.208885903387628"><ele>318.5</ele><time>2026-03-24T16:15:07.999Z</time></trkpt><trkpt lat="43.171688512249396" lon="12.208813736062803"><ele>320.3333333333333</ele><time>2026-03-24T16:15:08.999Z</time></trkpt><trkpt lat="43.17173283052396" lon="12.208738615804245"><ele>322.1666666666667</ele><time>2026-03-24T16:15:09.999Z</time></trkpt><trkpt lat="43.17180425895729" lon="12.208641634590723"><ele>324.0</ele><time>2026-03-24T16:15:12Z</time></trkpt><trkpt lat="43.17187197385414" lon="12.208573446366902"><ele>324.0</ele><time>2026-03-24T16:15:14Z</time></trkpt><trkpt lat="43.17195249160839" lon="12.208561884120021"><ele>324.0</ele><time>2026-03-24T16:15:16Z</time></trkpt><trkpt lat="43.17202353344019" lon="12.208603239298593"><ele>324.0</ele><time>2026-03-24T16:15:17Z</time></trkpt><trkpt lat="43.17209687109505" lon="12.208620783092156"><ele>324.0</ele><time>2026-03-24T16:15:18Z</time></trkpt><trkpt lat="43.172208192781305" lon="12.208567056664586"><ele>324.0</ele><time>2026-03-24T16:15:20Z</time></trkpt><trkpt lat="43.172269871991965" lon="12.208531649834386"><ele>324.0</ele><time>2026-03-24T16:15:21Z</time></trkpt><trkpt lat="43.17233952090358" lon="12.20849082162836"><ele>322.8333333333333</ele><time>2026-03-24T16:15:22Z</time></trkpt><trkpt lat="43.17245920403831" lon="12.208529748819753"><ele>321.6666666666667</ele><time>2026-03-24T16:15:24Z</time></trkpt><trkpt lat="43.172525008518676" lon="12.208563815673202"><ele>320.5</ele><time>2026-03-24T16:15:25Z</time></trkpt><trkpt lat="43.172591029518195" lon="12.208556080951308"><ele>319.33333333333337</ele><time>2026-03-24T16:15:26Z</time></trkpt><trkpt lat="43.172665683832726" lon="12.208515799312186"><ele>318.1666666666667</ele><time>2026-03-24T16:15:27Z</time></trkpt><trkpt lat="43.17273078210713" lon="12.208484331659301"><ele>317.0</ele><time>2026-03-24T16:15:28Z</time></trkpt><trkpt lat="43.172791388816805" lon="12.20845435305241"><ele>317.0</ele><time>2026-03-24T16:15:29Z</time></trkpt><trkpt lat="43.1728666565872" lon="12.208409085298262"><ele>317.0</ele><time>2026-03-24T16:15:30Z</time></trkpt><trkpt lat="43.172953290415876" lon="12.208359402973535"><ele>317.0</ele><time>2026-03-24T16:15:31Z</time></trkpt><trkpt lat="43.17303452116288" lon="12.208323203015192"><ele>317.0</ele><time>2026-03-24T16:15:32Z</time></trkpt><trkpt lat="43.1731275850723" lon="12.208275688773172"><ele>317.0</ele><time>2026-03-24T16:15:33Z</time></trkpt><trkpt lat="43.17323337283215" lon="12.208227206955051"><ele>315.6</ele><time>2026-03-24T16:15:34Z</time></trkpt><trkpt lat="43.173319277311585" lon="12.208184306376493"><ele>314.2</ele><time>2026-03-24T16:15:35Z</time></trkpt><trkpt lat="43.1733982422294" lon="12.20814748194422"><ele>312.8</ele><time>2026-03-24T16:15:36Z</time></trkpt><trkpt lat="43.173492114920435" lon="12.208104943149438"><ele>311.4</ele><time>2026-03-24T16:15:37Z</time></trkpt><trkpt lat="43.173588570749786" lon="12.208060382370357"><ele>310.0</ele><time>2026-03-24T16:15:38Z</time></trkpt><trkpt lat="43.173670292090726" lon="12.2080211796913"><ele>311.16666666666663</ele><time>2026-03-24T16:15:39Z</time></trkpt><trkpt lat="43.17373217195983" lon="12.20798213078846"><ele>312.3333333333333</ele><time>2026-03-24T16:15:40Z</time></trkpt><trkpt lat="43.17379688730154" lon="12.207930057569055"><ele>313.5</ele><time>2026-03-24T16:15:41Z</time></trkpt><trkpt lat="43.17387057730081" lon="12.207862690679919"><ele>314.6666666666667</ele><time>2026-03-24T16:15:42Z</time></trkpt><trkpt lat="43.173946305240136" lon="12.207778333550094"><ele>315.83333333333337</ele><time>2026-03-24T16:15:43Z</time></trkpt><trkpt lat="43.17401555493915" lon="12.207706097951165"><ele>317.0</ele><time>2026-03-24T16:15:44Z</time></trkpt><trkpt lat="43.17408476102738" lon="12.207658571107368"><ele>317.0</ele><time>2026-03-24T16:15:45Z</time></trkpt><trkpt lat="43.17415018550208" lon="12.207583598249684"><ele>317.0</ele><time>2026-03-24T16:15:46Z</time></trkpt><trkpt lat="43.17422514277784" lon="12.207498402019246"><ele>317.0</ele><time>2026-03-24T16:15:47Z</time></trkpt><trkpt lat="43.17429120566858" lon="12.207400316136"><ele>317.0</ele><time>2026-03-24T16:15:48Z</time></trkpt><trkpt lat="43.174357640235755" lon="12.207323664524889"><ele>317.0</ele><time>2026-03-24T16:15:49Z</time></trkpt><trkpt lat="43.174413134755966" lon="12.207280556493515"><ele>317.0</ele><time>2026-03-24T16:15:50Z</time></trkpt><trkpt lat="43.17446904617868" lon="12.207216622924907"><ele>320.4</ele><time>2026-03-24T16:15:52Z</time></trkpt><trkpt lat="43.17454311775901" lon="12.207151509513595"><ele>323.79999999999995</ele><time>2026-03-24T16:16:13.999Z</time></trkpt><trkpt lat="43.17461155253958" lon="12.207088988874359"><ele>327.2</ele><time>2026-03-24T16:16:15.999Z</time></trkpt><trkpt lat="43.174499164078014" lon="12.207172559047443"><ele>330.59999999999997</ele><time>2026-03-24T16:16:59.999Z</time></trkpt><trkpt lat="43.174432025813545" lon="12.20724748944307"><ele>334.0</ele><time>2026-03-24T16:17:00.999Z</time></trkpt><trkpt lat="43.17435885448162" lon="12.207316988659038"><ele>333.66666666666663</ele><time>2026-03-24T16:17:01.999Z</time></trkpt><trkpt lat="43.174289655316784" lon="12.207375386671355"><ele>333.3333333333333</ele><time>2026-03-24T16:17:02.999Z</time></trkpt><trkpt lat="43.174225557933084" lon="12.207442467175298"><ele>333.0</ele><time>2026-03-24T16:17:03.999Z</time></trkpt><trkpt lat="43.174174481332564" lon="12.207519411634065"><ele>332.6666666666667</ele><time>2026-03-24T16:17:04.999Z</time></trkpt><trkpt lat="43.17412978096588" lon="12.20759555311068"><ele>332.33333333333337</ele><time>2026-03-24T16:17:05.999Z</time></trkpt><trkpt lat="43.17407072975995" lon="12.207661493293157"><ele>332.0</ele><time>2026-03-24T16:17:06.999Z</time></trkpt><trkpt lat="43.1739988096056" lon="12.207720362231685"><ele>332.0</ele><time>2026-03-24T16:17:07.999Z</time></trkpt><trkpt lat="43.17392355358854" lon="12.207770727339964"><ele>332.0</ele><time>2026-03-24T16:17:08.999Z</time></trkpt><trkpt lat="43.173857665703885" lon="12.2078385652228"><ele>332.0</ele><time>2026-03-24T16:17:09.999Z</time></trkpt><trkpt lat="43.17379643701743" lon="12.207915847934013"><ele>332.0</ele><time>2026-03-24T16:17:10.999Z</time></trkpt><trkpt lat="43.173724850046426" lon="12.207972644498042"><ele>332.0</ele><time>2026-03-24T16:17:11.999Z</time></trkpt><trkpt lat="43.17364623232164" lon="12.208009096306043"><ele>332.0</ele><time>2026-03-24T16:17:12.999Z</time></trkpt><trkpt lat="43.173552834726415" lon="12.208056992603673"><ele>332.0</ele><time>2026-03-24T16:17:13.999Z</time></trkpt><trkpt lat="43.173463227917196" lon="12.208097663107742"><ele>332.0</ele><time>2026-03-24T16:17:14.999Z</time></trkpt><trkpt lat="43.173371551520795" lon="12.208140422069427"><ele>332.0</ele><time>2026-03-24T16:17:15.999Z</time></trkpt><trkpt lat="43.17327282614739" lon="12.20818823526714"><ele>332.0</ele><time>2026-03-24T16:17:16.999Z</time></trkpt><trkpt lat="43.17315260981676" lon="12.208239339122438"><ele>332.0</ele><time>2026-03-24T16:17:18Z</time></trkpt><trkpt lat="43.173022430402966" lon="12.208295969706581"><ele>329.5</ele><time>2026-03-24T16:17:19Z</time></trkpt><trkpt lat="43.17293600416962" lon="12.20836043239597"><ele>327.0</ele><time>2026-03-24T16:17:20Z</time></trkpt><trkpt lat="43.17283638163374" lon="12.208424802049098"><ele>324.5</ele><time>2026-03-24T16:17:21Z</time></trkpt><trkpt lat="43.172756311693384" lon="12.20845132166735"><ele>322.0</ele><time>2026-03-24T16:17:22Z</time></trkpt><trkpt lat="43.172695171665644" lon="12.208480715833495"><ele>319.5</ele><time>2026-03-24T16:17:23Z</time></trkpt><trkpt lat="43.172628986180285" lon="12.208509888173555"><ele>317.0</ele><time>2026-03-24T16:17:24Z</time></trkpt><trkpt lat="43.17255995112807" lon="12.208535928201744"><ele>317.0</ele><time>2026-03-24T16:17:25Z</time></trkpt><trkpt lat="43.172448296036336" lon="12.208542094688962"><ele>317.0</ele><time>2026-03-24T16:17:27Z</time></trkpt><trkpt lat="43.172392352705465" lon="12.208500470735023"><ele>317.0</ele><time>2026-03-24T16:17:28Z</time></trkpt><trkpt lat="43.17231434617338" lon="12.208467542203278"><ele>317.0</ele><time>2026-03-24T16:17:30Z</time></trkpt><trkpt lat="43.172209965266774" lon="12.208534874403755"><ele>317.0</ele><time>2026-03-24T16:17:32Z</time></trkpt><trkpt lat="43.172156078783104" lon="12.20858042816867"><ele>317.0</ele><time>2026-03-24T16:17:33Z</time></trkpt><trkpt lat="43.172092968358776" lon="12.20859591742173"><ele>318.1666666666667</ele><time>2026-03-24T16:17:37Z</time></trkpt><trkpt lat="43.17201884567647" lon="12.208581128648788"><ele>319.33333333333337</ele><time>2026-03-24T16:18:37.999Z</time></trkpt><trkpt lat="43.17193822939579" lon="12.208559416741275"><ele>320.5</ele><time>2026-03-24T16:18:39.999Z</time></trkpt><trkpt lat="43.171832880684605" lon="12.208615874840266"><ele>321.6666666666667</ele><time>2026-03-24T16:18:41.999Z</time></trkpt><trkpt lat="43.17176195020518" lon="12.20859952647703"><ele>322.8333333333333</ele><time>2026-03-24T16:18:45.999Z</time></trkpt><trkpt lat="43.17174690022445" lon="12.208491710850915"><ele>324.0</ele><time>2026-03-24T16:18:47.999Z</time></trkpt><trkpt lat="43.17164248997894" lon="12.208434065738647"><ele>324.0</ele><time>2026-03-24T16:18:49.999Z</time></trkpt><trkpt lat="43.171526491685256" lon="12.208364424461239"><ele>324.0</ele><time>2026-03-24T16:18:51.999Z</time></trkpt><trkpt lat="43.171456319258986" lon="12.208324756637094"><ele>324.0</ele><time>2026-03-24T16:18:52.999Z</time></trkpt><trkpt lat="43.17134679073256" lon="12.208305000818687"><ele>324.0</ele><time>2026-03-24T16:18:54.999Z</time></trkpt><trkpt lat="43.17125717448738" lon="12.208297245655036"><ele>324.0</ele><time>2026-03-24T16:18:56.999Z</time></trkpt><trkpt lat="43.17122235313008" lon="12.208221290261372"><ele>330.0</ele><time>2026-03-24T16:18:58.999Z</time></trkpt><trkpt lat="43.171232950665825" lon="12.208104417948888"><ele>336.0</ele><time>2026-03-24T16:19:00.999Z</time></trkpt><trkpt lat="43.17113214129982" lon="12.207984744280193"><ele>342.0</ele><time>2026-03-24T16:19:02.999Z</time></trkpt><trkpt lat="43.17103568560731" lon="12.207913766956176"><ele>348.0</ele><time>2026-03-24T16:19:04.999Z</time></trkpt><trkpt lat="43.17095067445835" lon="12.207870065642684"><ele>354.0</ele><time>2026-03-24T16:19:24Z</time></trkpt><trkpt lat="43.17089417604165" lon="12.20783091775633"><ele>354.0</ele><time>2026-03-24T16:19:25Z</time></trkpt><trkpt lat="43.170795213300856" lon="12.207736449192074"><ele>354.0</ele><time>2026-03-24T16:19:27Z</time></trkpt><trkpt lat="43.17075422673056" lon="12.207652434523949"><ele>354.0</ele><time>2026-03-24T16:19:29Z</time></trkpt><trkpt lat="43.17074945942006" lon="12.207560243546624"><ele>354.0</ele><time>2026-03-24T16:19:31Z</time></trkpt><trkpt lat="43.1708154310614" lon="12.207539133780397"><ele>354.0</ele><time>2026-03-24T16:19:34Z</time></trkpt><trkpt lat="43.170889131303305" lon="12.207555991775934"><ele>354.0</ele><time>2026-03-24T16:19:36Z</time></trkpt><trkpt lat="43.170969526014794" lon="12.207531574895532"><ele>354.0</ele><time>2026-03-24T16:19:38Z</time></trkpt><trkpt lat="43.17102443641883" lon="12.207454916608118"><ele>354.0</ele><time>2026-03-24T16:19:43Z</time></trkpt><trkpt lat="43.17106415385339" lon="12.207373620813335"><ele>354.0</ele><time>2026-03-24T16:19:45Z</time></trkpt><trkpt lat="43.171112591958156" lon="12.207290426224501"><ele>354.0</ele><time>2026-03-24T16:19:47Z</time></trkpt><trkpt lat="43.171174587853166" lon="12.207230121002473"><ele>354.0</ele><time>2026-03-24T16:19:50Z</time></trkpt><trkpt lat="43.171210866804586" lon="12.207145280367225"><ele>354.0</ele><time>2026-03-24T16:19:53Z</time></trkpt><trkpt lat="43.17126198692903" lon="12.207060898229376"><ele>356.5</ele><time>2026-03-24T16:19:55Z</time></trkpt><trkpt lat="43.17132210734611" lon="12.206963045985528"><ele>359.0</ele><time>2026-03-24T16:19:58Z</time></trkpt><trkpt lat="43.171344677525994" lon="12.206855632296127"><ele>361.5</ele><time>2026-03-24T16:20:02Z</time></trkpt><trkpt lat="43.1712926949154" lon="12.206773100200426"><ele>364.0</ele><time>2026-03-24T16:20:07Z</time></trkpt><trkpt lat="43.17124882029895" lon="12.2066992588545"><ele>366.5</ele><time>2026-03-24T16:20:10Z</time></trkpt><trkpt lat="43.17120705224225" lon="12.20662250510281"><ele>369.0</ele><time>2026-03-24T16:20:12Z</time></trkpt><trkpt lat="43.171158258640425" lon="12.206546089927603"><ele>372.0</ele><time>2026-03-24T16:20:15.999Z</time></trkpt><trkpt lat="43.17110843228535" lon="12.206490044896528"><ele>375.0</ele><time>2026-03-24T16:20:17.999Z</time></trkpt><trkpt lat="43.17104271397483" lon="12.206464998056706"><ele>378.0</ele><time>2026-03-24T16:20:19.999Z</time></trkpt><trkpt lat="43.170967362549" lon="12.206431843843632"><ele>381.0</ele><time>2026-03-24T16:20:35.999Z</time></trkpt><trkpt lat="43.170903584018774" lon="12.206395818754189"><ele>384.0</ele><time>2026-03-24T16:20:37.999Z</time></trkpt><trkpt lat="43.170834979620395" lon="12.206354659065148"><ele>387.0</ele><time>2026-03-24T16:20:39.999Z</time></trkpt><trkpt lat="43.170752874039756" lon="12.206337664279529"><ele>390.0</ele><time>2026-03-24T16:20:41.999Z</time></trkpt><trkpt lat="43.17076668206823" lon="12.206240924282259"><ele>390.0</ele><time>2026-03-24T16:20:45.999Z</time></trkpt><trkpt lat="43.170856925059496" lon="12.206183763038293"><ele>390.0</ele><time>2026-03-24T16:20:47.999Z</time></trkpt><trkpt lat="43.17092125204368" lon="12.206133291199013"><ele>390.0</ele><time>2026-03-24T16:20:48.999Z</time></trkpt><trkpt lat="43.17100690405621" lon="12.206026694461544"><ele>390.0</ele><time>2026-03-24T16:20:50.999Z</time></trkpt><trkpt lat="43.171077502218246" lon="12.205883896447281"><ele>390.0</ele><time>2026-03-24T16:20:52.999Z</time></trkpt><trkpt lat="43.171131751699676" lon="12.205786169671352"><ele>390.0</ele><time>2026-03-24T16:20:53.999Z</time></trkpt><trkpt lat="43.1711779787697" lon="12.205705413794915"><ele>390.0</ele><time>2026-03-24T16:20:54.999Z</time></trkpt><trkpt lat="43.17122505478804" lon="12.205626892313594"><ele>390.0</ele><time>2026-03-24T16:20:55.999Z</time></trkpt><trkpt lat="43.17126967026957" lon="12.205552857812716"><ele>390.0</ele><time>2026-03-24T16:20:56.999Z</time></trkpt><trkpt lat="43.171325639835786" lon="12.205429971633837"><ele>390.0</ele><time>2026-03-24T16:20:58.999Z</time></trkpt><trkpt lat="43.171375147627316" lon="12.20528978349788"><ele>390.0</ele><time>2026-03-24T16:21:00.999Z</time></trkpt><trkpt lat="43.17139754023788" lon="12.2051912873316"><ele>392.3333333333333</ele><time>2026-03-24T16:21:01.999Z</time></trkpt><trkpt lat="43.171455992753174" lon="12.2050845031439"><ele>394.66666666666663</ele><time>2026-03-24T16:21:03.999Z</time></trkpt><trkpt lat="43.17152445087212" lon="12.205041009274987"><ele>397.0</ele><time>2026-03-24T16:21:11.999Z</time></trkpt><trkpt lat="43.17159650020477" lon="12.205040962458229"><ele>399.3333333333333</ele><time>2026-03-24T16:21:13.999Z</time></trkpt><trkpt lat="43.17166345967407" lon="12.20502058579144"><ele>401.66666666666663</ele><time>2026-03-24T16:21:16.999Z</time></trkpt><trkpt lat="43.17172355682042" lon="12.204991544347601"><ele>404.0</ele><time>2026-03-24T16:21:19.999Z</time></trkpt><trkpt lat="43.17182743200252" lon="12.204950294329684"><ele>404.0</ele><time>2026-03-24T16:21:23.999Z</time></trkpt><trkpt lat="43.17190603837337" lon="12.20491816210112"><ele>404.0</ele><time>2026-03-24T16:21:24.999Z</time></trkpt><trkpt lat="43.17198204754664" lon="12.204880885534456"><ele>404.0</ele><time>2026-03-24T16:21:25.999Z</time></trkpt><trkpt lat="43.1720476776926" lon="12.204836910152615"><ele>404.0</ele><time>2026-03-24T16:21:26.999Z</time></trkpt><trkpt lat="43.172169168690466" lon="12.204803837521387"><ele>404.0</ele><time>2026-03-24T16:21:29Z</time></trkpt><trkpt lat="43.172266838073575" lon="12.204735350873369"><ele>404.66666666666663</ele><time>2026-03-24T16:21:31Z</time></trkpt><trkpt lat="43.17231791341756" lon="12.204665622700483"><ele>405.3333333333333</ele><time>2026-03-24T16:21:34Z</time></trkpt><trkpt lat="43.172346814085174" lon="12.20454349447821"><ele>406.0</ele><time>2026-03-24T16:21:36Z</time></trkpt><trkpt lat="43.17237382765074" lon="12.204463969597384"><ele>406.66666666666663</ele><time>2026-03-24T16:21:37Z</time></trkpt><trkpt lat="43.1724120205673" lon="12.204360887393122"><ele>407.3333333333333</ele><time>2026-03-24T16:21:38Z</time></trkpt><trkpt lat="43.172451810845686" lon="12.204254879040281"><ele>408.0</ele><time>2026-03-24T16:21:39Z</time></trkpt><trkpt lat="43.172485382078214" lon="12.204174270530753"><ele>408.0</ele><time>2026-03-24T16:21:40Z</time></trkpt><trkpt lat="43.172544149649994" lon="12.204021340579958"><ele>408.0</ele><time>2026-03-24T16:21:42Z</time></trkpt><trkpt lat="43.17257228090129" lon="12.203921443587873"><ele>408.0</ele><time>2026-03-24T16:21:43Z</time></trkpt><trkpt lat="43.172604887073014" lon="12.20381502959364"><ele>408.0</ele><time>2026-03-24T16:21:44Z</time></trkpt><trkpt lat="43.17264544971606" lon="12.203719347524038"><ele>408.0</ele><time>2026-03-24T16:21:45Z</time></trkpt><trkpt lat="43.1726880077801" lon="12.203645328875208"><ele>408.0</ele><time>2026-03-24T16:21:46Z</time></trkpt><trkpt lat="43.172750369731325" lon="12.20355818963711"><ele>411.1666666666667</ele><time>2026-03-24T16:21:48Z</time></trkpt><trkpt lat="43.172811983117604" lon="12.203503807486186"><ele>414.33333333333337</ele><time>2026-03-24T16:21:50Z</time></trkpt><trkpt lat="43.172864715489716" lon="12.203417927866536"><ele>417.5</ele><time>2026-03-24T16:21:52Z</time></trkpt><trkpt lat="43.172908865127525" lon="12.20332793391982"><ele>420.6666666666667</ele><time>2026-03-24T16:21:55Z</time></trkpt><trkpt lat="43.172953380164344" lon="12.203188275418698"><ele>423.83333333333337</ele><time>2026-03-24T16:21:57Z</time></trkpt><trkpt lat="43.17295266875552" lon="12.203062777192864"><ele>427.0</ele><time>2026-03-24T16:21:59Z</time></trkpt><trkpt lat="43.17295558568527" lon="12.202920892611921"><ele>428.6666666666667</ele><time>2026-03-24T16:22:01Z</time></trkpt><trkpt lat="43.173003325429285" lon="12.202765578945133"><ele>430.33333333333337</ele><time>2026-03-24T16:22:03Z</time></trkpt><trkpt lat="43.173037625896455" lon="12.202669991428401"><ele>432.0</ele><time>2026-03-24T16:22:04Z</time></trkpt><trkpt lat="43.17305636164009" lon="12.202582154706334"><ele>433.66666666666663</ele><time>2026-03-24T16:22:05Z</time></trkpt><trkpt lat="43.173083585291955" lon="12.202491341743526"><ele>435.3333333333333</ele><time>2026-03-24T16:22:06Z</time></trkpt><trkpt lat="43.17312301985531" lon="12.202402009947827"><ele>437.0</ele><time>2026-03-24T16:22:07Z</time></trkpt><trkpt lat="43.17315555118908" lon="12.202322791810412"><ele>437.0</ele><time>2026-03-24T16:22:08Z</time></trkpt><trkpt lat="43.173181440281724" lon="12.202174120814815"><ele>437.0</ele><time>2026-03-24T16:22:10Z</time></trkpt><trkpt lat="43.173182786330216" lon="12.202033354852144"><ele>437.0</ele><time>2026-03-24T16:22:12Z</time></trkpt><trkpt lat="43.17314154920701" lon="12.20187202125701"><ele>437.0</ele><time>2026-03-24T16:22:14Z</time></trkpt><trkpt lat="43.17309504977999" lon="12.201689761826241"><ele>436.99999999999994</ele><time>2026-03-24T16:22:15.999Z</time></trkpt><trkpt lat="43.17308000378643" lon="12.201593302973839"><ele>437.0</ele><time>2026-03-24T16:22:16.999Z</time></trkpt><trkpt lat="43.17307561982207" lon="12.201502395408243"><ele>437.0</ele><time>2026-03-24T16:22:17.999Z</time></trkpt><trkpt lat="43.173043329485" lon="12.201336846406827"><ele>437.0</ele><time>2026-03-24T16:22:19.999Z</time></trkpt><trkpt lat="43.17301349932287" lon="12.201253369175673"><ele>436.99999999999994</ele><time>2026-03-24T16:22:20.999Z</time></trkpt><trkpt lat="43.172980270759524" lon="12.20115756615474"><ele>437.0</ele><time>2026-03-24T16:22:22.999Z</time></trkpt><trkpt lat="43.17290880782355" lon="12.20110287601429"><ele>434.66666666666663</ele><time>2026-03-24T16:22:28.999Z</time></trkpt><trkpt lat="43.172842538613" lon="12.201112392214334"><ele>432.3333333333333</ele><time>2026-03-24T16:22:30.999Z</time></trkpt><trkpt lat="43.17277425501268" lon="12.201101655276876"><ele>430.0</ele><time>2026-03-24T16:22:32.999Z</time></trkpt><trkpt lat="43.17267034921525" lon="12.201115761016283"><ele>427.66666666666663</ele><time>2026-03-24T16:22:34.999Z</time></trkpt><trkpt lat="43.1725791831489" lon="12.201123655832571"><ele>425.3333333333333</ele><time>2026-03-24T16:22:36.999Z</time></trkpt><trkpt lat="43.17246498013967" lon="12.201124569777027"><ele>423.0</ele><time>2026-03-24T16:22:38.999Z</time></trkpt><trkpt lat="43.17238209958348" lon="12.201130540241014"><ele>425.1666666666667</ele><time>2026-03-24T16:22:40.999Z</time></trkpt><trkpt lat="43.17227963468207" lon="12.20112999015049"><ele>427.33333333333337</ele><time>2026-03-24T16:22:42.999Z</time></trkpt><trkpt lat="43.17219773518658" lon="12.201110975535912"><ele>429.5</ele><time>2026-03-24T16:22:45.999Z</time></trkpt><trkpt lat="43.17213380659564" lon="12.201119058695781"><ele>431.6666666666667</ele><time>2026-03-24T16:22:47.999Z</time></trkpt><trkpt lat="43.172054233354096" lon="12.20112485151449"><ele>433.83333333333337</ele><time>2026-03-24T16:22:49.999Z</time></trkpt><trkpt lat="43.17199226162" lon="12.201144777968906"><ele>436.0</ele><time>2026-03-24T16:22:51.999Z</time></trkpt><trkpt lat="43.17192566138731" lon="12.20116713839001"><ele>436.00000000000006</ele><time>2026-03-24T16:22:53.999Z</time></trkpt><trkpt lat="43.171841979655056" lon="12.201187036905914"><ele>436.0</ele><time>2026-03-24T16:22:56.999Z</time></trkpt><trkpt lat="43.17175643962158" lon="12.201182130158958"><ele>436.0</ele><time>2026-03-24T16:23:00.999Z</time></trkpt><trkpt lat="43.17169130259808" lon="12.201155825330328"><ele>436.0</ele><time>2026-03-24T16:23:14.999Z</time></trkpt><trkpt lat="43.17159915380427" lon="12.201138433573355"><ele>436.00000000000006</ele><time>2026-03-24T16:23:17.999Z</time></trkpt><trkpt lat="43.171532939921555" lon="12.201123804285473"><ele>436.0</ele><time>2026-03-24T16:23:19.999Z</time></trkpt><trkpt lat="43.17147113446232" lon="12.20109764460586"><ele>437.6</ele><time>2026-03-24T16:23:21.999Z</time></trkpt><trkpt lat="43.171408766357956" lon="12.201111361555764"><ele>439.20000000000005</ele><time>2026-03-24T16:23:24.999Z</time></trkpt><trkpt lat="43.171342842340124" lon="12.201096611045127"><ele>440.79999999999995</ele><time>2026-03-24T16:23:26.999Z</time></trkpt><trkpt lat="43.17125030607037" lon="12.201125281408965"><ele>442.4</ele><time>2026-03-24T16:23:28.999Z</time></trkpt><trkpt lat="43.17112993912535" lon="12.201132942428808"><ele>444.0</ele><time>2026-03-24T16:23:30.999Z</time></trkpt><trkpt lat="43.17102616920862" lon="12.201148992297403"><ele>444.0</ele><time>2026-03-24T16:23:32.998Z</time></trkpt><trkpt lat="43.170949931335485" lon="12.20109273013852"><ele>444.0</ele><time>2026-03-24T16:23:35Z</time></trkpt><trkpt lat="43.17089939998778" lon="12.201035082825834"><ele>444.0</ele><time>2026-03-24T16:23:37Z</time></trkpt><trkpt lat="43.17083180378398" lon="12.201052921043134"><ele>444.0</ele><time>2026-03-24T16:23:38Z</time></trkpt><trkpt lat="43.170741258845375" lon="12.201050123109859"><ele>444.0</ele><time>2026-03-24T16:23:39Z</time></trkpt><trkpt lat="43.17067769895171" lon="12.20103433056197"><ele>444.0</ele><time>2026-03-24T16:23:40Z</time></trkpt><trkpt lat="43.17059213455458" lon="12.201034837087255"><ele>444.6</ele><time>2026-03-24T16:23:42Z</time></trkpt><trkpt lat="43.17052020473618" lon="12.200969931204881"><ele>445.2</ele><time>2026-03-24T16:23:44Z</time></trkpt><trkpt lat="43.17042058053546" lon="12.20094531643059"><ele>445.80000000000007</ele><time>2026-03-24T16:23:46Z</time></trkpt><trkpt lat="43.17033051544023" lon="12.201013748489787"><ele>446.40000000000003</ele><time>2026-03-24T16:23:48Z</time></trkpt><trkpt lat="43.17025437160215" lon="12.201064612526292"><ele>447.0</ele><time>2026-03-24T16:23:50Z</time></trkpt><trkpt lat="43.17016354903722" lon="12.20109567829549"><ele>447.0</ele><time>2026-03-24T16:23:52Z</time></trkpt><trkpt lat="43.17003972556531" lon="12.201124199032172"><ele>447.00000000000006</ele><time>2026-03-24T16:23:54Z</time></trkpt><trkpt lat="43.16993859366911" lon="12.201178145062244"><ele>447.00000000000006</ele><time>2026-03-24T16:23:56Z</time></trkpt><trkpt lat="43.16983802740394" lon="12.201250612651178"><ele>447.0</ele><time>2026-03-24T16:23:58Z</time></trkpt><trkpt lat="43.16977274628889" lon="12.201244024317733"><ele>447.0</ele><time>2026-03-24T16:23:59Z</time></trkpt><trkpt lat="43.16971066000387" lon="12.201201443918102"><ele>446.85714285714283</ele><time>2026-03-24T16:24:00Z</time></trkpt><trkpt lat="43.169621113475706" lon="12.201193033402554"><ele>446.7142857142857</ele><time>2026-03-24T16:24:02Z</time></trkpt><trkpt lat="43.16955524320288" lon="12.201221480095095"><ele>446.57142857142856</ele><time>2026-03-24T16:24:04Z</time></trkpt><trkpt lat="43.16949182511909" lon="12.201259388396545"><ele>446.42857142857144</ele><time>2026-03-24T16:24:07Z</time></trkpt><trkpt lat="43.16941667562804" lon="12.201280137589018"><ele>446.2857142857143</ele><time>2026-03-24T16:34:27Z</time></trkpt><trkpt lat="43.169351452014745" lon="12.201287642675066"><ele>446.1428571428571</ele><time>2026-03-24T16:34:28Z</time></trkpt><trkpt lat="43.169285578765866" lon="12.201304546420417"><ele>446.0</ele><time>2026-03-24T16:34:29Z</time></trkpt><trkpt lat="43.16921972880988" lon="12.201301320042367"><ele>446.0</ele><time>2026-03-24T16:34:30Z</time></trkpt><trkpt lat="43.16911429453989" lon="12.201280067494821"><ele>446.0</ele><time>2026-03-24T16:34:32Z</time></trkpt><trkpt lat="43.16901895075799" lon="12.201252437128515"><ele>446.0</ele><time>2026-03-24T16:34:34Z</time></trkpt><trkpt lat="43.16889595170235" lon="12.201252091558956"><ele>446.0</ele><time>2026-03-24T16:34:36Z</time></trkpt><trkpt lat="43.168828605690116" lon="12.201240496987714"><ele>446.0</ele><time>2026-03-24T16:34:37Z</time></trkpt><trkpt lat="43.1687649689453" lon="12.201228529580321"><ele>446.16666666666663</ele><time>2026-03-24T16:34:38Z</time></trkpt><trkpt lat="43.168642119525906" lon="12.201194550022906"><ele>446.3333333333333</ele><time>2026-03-24T16:34:40Z</time></trkpt><trkpt lat="43.168578842331705" lon="12.20117710765493"><ele>446.5</ele><time>2026-03-24T16:34:41Z</time></trkpt><trkpt lat="43.16849378884174" lon="12.201171205089617"><ele>446.66666666666663</ele><time>2026-03-24T16:34:42Z</time></trkpt><trkpt lat="43.16840437521943" lon="12.20115987361762"><ele>446.8333333333333</ele><time>2026-03-24T16:34:43Z</time></trkpt><trkpt lat="43.1683332857918" lon="12.201146581290587"><ele>447.0</ele><time>2026-03-24T16:34:43.999Z</time></trkpt><trkpt lat="43.16827131363309" lon="12.201129379589448"><ele>447.0</ele><time>2026-03-24T16:34:44.999Z</time></trkpt><trkpt lat="43.16820897745603" lon="12.201113068415443"><ele>447.0</ele><time>2026-03-24T16:34:45.999Z</time></trkpt><trkpt lat="43.16814006087982" lon="12.20110306718296"><ele>447.0</ele><time>2026-03-24T16:34:46.999Z</time></trkpt><trkpt lat="43.168031424916975" lon="12.201093568628872"><ele>447.0</ele><time>2026-03-24T16:34:48.999Z</time></trkpt><trkpt lat="43.16794538737108" lon="12.20107497577867"><ele>447.0</ele><time>2026-03-24T16:34:50.999Z</time></trkpt><trkpt lat="43.16787405374019" lon="12.201087292818631"><ele>447.0</ele><time>2026-03-24T16:34:52.999Z</time></trkpt><trkpt lat="43.167813472921715" lon="12.201061565215802"><ele>446.8333333333333</ele><time>2026-03-24T16:34:54.999Z</time></trkpt><trkpt lat="43.167726510250475" lon="12.201014906839852"><ele>446.66666666666663</ele><time>2026-03-24T16:34:56.999Z</time></trkpt><trkpt lat="43.16761455782648" lon="12.20096797634861"><ele>446.5</ele><time>2026-03-24T16:34:58.999Z</time></trkpt><trkpt lat="43.16753958999389" lon="12.200942825153572"><ele>446.3333333333333</ele><time>2026-03-24T16:34:59.999Z</time></trkpt><trkpt lat="43.167551402317656" lon="12.20103079492063"><ele>446.16666666666663</ele><time>2026-03-24T16:35:25.999Z</time></trkpt><trkpt lat="43.16751056695588" lon="12.200953041854188"><ele>446.0</ele><time>2026-03-24T16:35:34.999Z</time></trkpt><trkpt lat="43.16744257010001" lon="12.2009276233071"><ele>445.4</ele><time>2026-03-24T16:35:35.999Z</time></trkpt><trkpt lat="43.16735488201662" lon="12.200897031312724"><ele>444.8</ele><time>2026-03-24T16:35:36.999Z</time></trkpt><trkpt lat="43.16728426211402" lon="12.200855270210186"><ele>444.19999999999993</ele><time>2026-03-24T16:35:37.999Z</time></trkpt><trkpt lat="43.16717809040425" lon="12.200813189382595"><ele>443.59999999999997</ele><time>2026-03-24T16:35:39.999Z</time></trkpt><trkpt lat="43.16706474471236" lon="12.200795564713761"><ele>443.0</ele><time>2026-03-24T16:35:41.999Z</time></trkpt><trkpt lat="43.16697895042229" lon="12.200787287202084"><ele>443.0</ele><time>2026-03-24T16:35:43.999Z</time></trkpt><trkpt lat="43.16688683543923" lon="12.200781362083358"><ele>442.99999999999994</ele><time>2026-03-24T16:35:45.999Z</time></trkpt><trkpt lat="43.16678113573807" lon="12.20074372059489"><ele>442.99999999999994</ele><time>2026-03-24T16:35:47.999Z</time></trkpt><trkpt lat="43.166721530654364" lon="12.200694514565598"><ele>443.0</ele><time>2026-03-24T16:35:48.999Z</time></trkpt><trkpt lat="43.166611039740495" lon="12.200646034886121"><ele>443.0</ele><time>2026-03-24T16:35:50.999Z</time></trkpt><trkpt lat="43.16654765064875" lon="12.200651061611676"><ele>441.66666666666663</ele><time>2026-03-24T16:35:51.999Z</time></trkpt><trkpt lat="43.16648601451653" lon="12.200679361924692"><ele>440.3333333333333</ele><time>2026-03-24T16:35:52.999Z</time></trkpt><trkpt lat="43.16641247938485" lon="12.200711406045574"><ele>439.0</ele><time>2026-03-24T16:35:53.999Z</time></trkpt><trkpt lat="43.16631318704029" lon="12.200742501704193"><ele>437.66666666666663</ele><time>2026-03-24T16:35:54.999Z</time></trkpt><trkpt lat="43.16621721722747" lon="12.200768762463944"><ele>436.3333333333333</ele><time>2026-03-24T16:35:55.999Z</time></trkpt><trkpt lat="43.16613913181426" lon="12.200788801837524"><ele>435.0</ele><time>2026-03-24T16:35:56.999Z</time></trkpt><trkpt lat="43.166064576752035" lon="12.200805258055528"><ele>435.0</ele><time>2026-03-24T16:35:57.999Z</time></trkpt><trkpt lat="43.16599105476663" lon="12.20082466080908"><ele>435.0</ele><time>2026-03-24T16:35:58.999Z</time></trkpt><trkpt lat="43.16592463858442" lon="12.200847729576997"><ele>435.0</ele><time>2026-03-24T16:35:59.999Z</time></trkpt><trkpt lat="43.16583367695542" lon="12.200879672330174"><ele>435.0</ele><time>2026-03-24T16:36:01.999Z</time></trkpt><trkpt lat="43.1658092089926" lon="12.200741691703485"><ele>435.0</ele><time>2026-03-24T16:36:13Z</time></trkpt><trkpt lat="43.165841620683366" lon="12.200636989549164"><ele>435.0</ele><time>2026-03-24T16:36:15Z</time></trkpt><trkpt lat="43.16580326232498" lon="12.200503969107343"><ele>434.1666666666667</ele><time>2026-03-24T16:36:17Z</time></trkpt><trkpt lat="43.16574558470072" lon="12.200406458401952"><ele>433.33333333333337</ele><time>2026-03-24T16:36:18Z</time></trkpt><trkpt lat="43.165691969600516" lon="12.200330464561702"><ele>432.5</ele><time>2026-03-24T16:36:19Z</time></trkpt><trkpt lat="43.16563412822081" lon="12.200264743240568"><ele>431.6666666666667</ele><time>2026-03-24T16:36:20Z</time></trkpt><trkpt lat="43.16557650305124" lon="12.20020506157761"><ele>430.83333333333337</ele><time>2026-03-24T16:36:21Z</time></trkpt><trkpt lat="43.165524233209496" lon="12.20014663846482"><ele>430.0</ele><time>2026-03-24T16:36:22Z</time></trkpt><trkpt lat="43.16547481072227" lon="12.200080492731612"><ele>429.1428571428571</ele><time>2026-03-24T16:36:23Z</time></trkpt><trkpt lat="43.165431988731314" lon="12.200009431040248"><ele>428.28571428571433</ele><time>2026-03-24T16:36:24Z</time></trkpt><trkpt lat="43.16539166530454" lon="12.199932959126402"><ele>427.42857142857144</ele><time>2026-03-24T16:36:25Z</time></trkpt><trkpt lat="43.16535081350144" lon="12.199848089981078"><ele>426.57142857142856</ele><time>2026-03-24T16:36:26Z</time></trkpt><trkpt lat="43.16530900266907" lon="12.199759028501028"><ele>425.71428571428567</ele><time>2026-03-24T16:36:27Z</time></trkpt><trkpt lat="43.16526183119861" lon="12.199677597127616"><ele>424.8571428571429</ele><time>2026-03-24T16:36:28Z</time></trkpt><trkpt lat="43.16521532122447" lon="12.199591097310753"><ele>424.0</ele><time>2026-03-24T16:36:29Z</time></trkpt><trkpt lat="43.16517104346857" lon="12.19950747289958"><ele>422.1666666666667</ele><time>2026-03-24T16:36:30Z</time></trkpt><trkpt lat="43.16513802499076" lon="12.199424453945726"><ele>420.33333333333337</ele><time>2026-03-24T16:36:31Z</time></trkpt><trkpt lat="43.16509550969868" lon="12.199343046836727"><ele>418.5</ele><time>2026-03-24T16:36:32Z</time></trkpt><trkpt lat="43.165046508515445" lon="12.199261498178872"><ele>416.66666666666663</ele><time>2026-03-24T16:36:33Z</time></trkpt><trkpt lat="43.16500221853658" lon="12.199185618872344"><ele>414.8333333333333</ele><time>2026-03-24T16:36:34Z</time></trkpt><trkpt lat="43.16493767985535" lon="12.199048663225225"><ele>413.0</ele><time>2026-03-24T16:36:36Z</time></trkpt><trkpt lat="43.16486706362215" lon="12.198957948057245"><ele>410.14285714285717</ele><time>2026-03-24T16:36:38Z</time></trkpt><trkpt lat="43.164762723925115" lon="12.198927871884594"><ele>407.2857142857143</ele><time>2026-03-24T16:36:40Z</time></trkpt><trkpt lat="43.16473682047887" lon="12.198844982021656"><ele>404.42857142857144</ele><time>2026-03-24T16:36:41Z</time></trkpt><trkpt lat="43.16471132630827" lon="12.19876479424403"><ele>401.57142857142856</ele><time>2026-03-24T16:36:42Z</time></trkpt><trkpt lat="43.16467351719472" lon="12.198688331457523"><ele>398.7142857142857</ele><time>2026-03-24T16:36:43Z</time></trkpt><trkpt lat="43.16462777433648" lon="12.198613012359656"><ele>395.8571428571429</ele><time>2026-03-24T16:36:44Z</time></trkpt><trkpt lat="43.16458725517361" lon="12.198535601821854"><ele>393.0</ele><time>2026-03-24T16:36:45Z</time></trkpt><trkpt lat="43.1645510583833" lon="12.198457769540255"><ele>393.0</ele><time>2026-03-24T16:36:46Z</time></trkpt><trkpt lat="43.16451190141759" lon="12.198383743046595"><ele>393.0</ele><time>2026-03-24T16:36:47Z</time></trkpt><trkpt lat="43.16444065469498" lon="12.198244115134333"><ele>393.0</ele><time>2026-03-24T16:36:49Z</time></trkpt><trkpt lat="43.16437314065406" lon="12.198132718518323"><ele>393.0</ele><time>2026-03-24T16:36:50.999Z</time></trkpt><trkpt lat="43.164275038387125" lon="12.198059311859323"><ele>393.0</ele><time>2026-03-24T16:36:52.999Z</time></trkpt><trkpt lat="43.16421384403353" lon="12.19803877707046"><ele>390.5</ele><time>2026-03-24T16:36:53.999Z</time></trkpt><trkpt lat="43.16415104894413" lon="12.198021764190482"><ele>388.0</ele><time>2026-03-24T16:36:54.999Z</time></trkpt><trkpt lat="43.16409397317297" lon="12.197983771879626"><ele>385.5</ele><time>2026-03-24T16:36:55.999Z</time></trkpt><trkpt lat="43.163969010966305" lon="12.197960301119265"><ele>383.0</ele><time>2026-03-24T16:36:57.999Z</time></trkpt><trkpt lat="43.16387423795074" lon="12.197888236359477"><ele>380.5</ele><time>2026-03-24T16:36:59.999Z</time></trkpt><trkpt lat="43.163845317549324" lon="12.19780691752007"><ele>378.0</ele><time>2026-03-24T16:37:00.999Z</time></trkpt><trkpt lat="43.163817050708666" lon="12.19767719604175"><ele>378.0</ele><time>2026-03-24T16:37:02.999Z</time></trkpt><trkpt lat="43.16385630428415" lon="12.19752342560012"><ele>378.0</ele><time>2026-03-24T16:37:04.999Z</time></trkpt><trkpt lat="43.163931270416455" lon="12.197418752100223"><ele>378.0</ele><time>2026-03-24T16:37:06.999Z</time></trkpt><trkpt lat="43.163995580639096" lon="12.197400185417596"><ele>378.0</ele><time>2026-03-24T16:37:07.999Z</time></trkpt><trkpt lat="43.16405675375581" lon="12.197378733708817"><ele>378.0</ele><time>2026-03-24T16:37:08.999Z</time></trkpt><trkpt lat="43.1641173749304" lon="12.197344170499651"><ele>378.0</ele><time>2026-03-24T16:37:09.999Z</time></trkpt><trkpt lat="43.164177116933786" lon="12.197307390335894"><ele>375.2</ele><time>2026-03-24T16:37:10.999Z</time></trkpt><trkpt lat="43.164273700243164" lon="12.197247259921618"><ele>372.4</ele><time>2026-03-24T16:37:12.999Z</time></trkpt><trkpt lat="43.16431794015308" lon="12.197129014701275"><ele>369.59999999999997</ele><time>2026-03-24T16:37:14.999Z</time></trkpt><trkpt lat="43.16430630490452" lon="12.196984534849856"><ele>366.79999999999995</ele><time>2026-03-24T16:37:16.999Z</time></trkpt><trkpt lat="43.164224440657144" lon="12.196877806399637"><ele>364.0</ele><time>2026-03-24T16:37:18.999Z</time></trkpt><trkpt lat="43.16420731179562" lon="12.196750349979988"><ele>364.0</ele><time>2026-03-24T16:37:20.999Z</time></trkpt><trkpt lat="43.16421807673977" lon="12.19664085670172"><ele>364.0</ele><time>2026-03-24T16:37:22.999Z</time></trkpt><trkpt lat="43.16412115452334" lon="12.196622794654953"><ele>364.0</ele><time>2026-03-24T16:37:24.999Z</time></trkpt><trkpt lat="43.16405097266747" lon="12.196544790280859"><ele>364.0</ele><time>2026-03-24T16:37:26.999Z</time></trkpt><trkpt lat="43.164020767220755" lon="12.19646852675239"><ele>364.0</ele><time>2026-03-24T16:37:27.999Z</time></trkpt><trkpt lat="43.16399510502531" lon="12.196309650670662"><ele>361.0</ele><time>2026-03-24T16:37:29.999Z</time></trkpt><trkpt lat="43.16387139575307" lon="12.196233829643855"><ele>358.0</ele><time>2026-03-24T16:37:31.999Z</time></trkpt><trkpt lat="43.16381302179427" lon="12.19619450261444"><ele>355.0</ele><time>2026-03-24T16:37:32.999Z</time></trkpt><trkpt lat="43.16373104102428" lon="12.196087220383157"><ele>352.0</ele><time>2026-03-24T16:37:34.999Z</time></trkpt><trkpt lat="43.16369600329511" lon="12.196004913125627"><ele>349.0</ele><time>2026-03-24T16:37:35.999Z</time></trkpt><trkpt lat="43.163643525454205" lon="12.195837577826182"><ele>349.0</ele><time>2026-03-24T16:37:37.999Z</time></trkpt><trkpt lat="43.163598314358985" lon="12.195699632938018"><ele>349.0</ele><time>2026-03-24T16:37:39.999Z</time></trkpt><trkpt lat="43.16356926971564" lon="12.195610215572522"><ele>349.0</ele><time>2026-03-24T16:37:42.999Z</time></trkpt><trkpt lat="43.163535344885574" lon="12.195505689260756"><ele>349.0</ele><time>2026-03-24T16:37:46.999Z</time></trkpt><trkpt lat="43.16350442372961" lon="12.195410345765358"><ele>349.0</ele><time>2026-03-24T16:37:49.999Z</time></trkpt><trkpt lat="43.16347820862277" lon="12.195327168507559"><ele>349.0</ele><time>2026-03-24T16:37:57.999Z</time></trkpt><trkpt lat="43.163482596339975" lon="12.195219152898607"><ele>348.0</ele><time>2026-03-24T16:37:59.999Z</time></trkpt><trkpt lat="43.16350794976675" lon="12.195102339900082"><ele>347.0</ele><time>2026-03-24T16:38:01.999Z</time></trkpt><trkpt lat="43.16356965443792" lon="12.19501306066573"><ele>346.0</ele><time>2026-03-24T16:38:03.999Z</time></trkpt><trkpt lat="43.16359671449091" lon="12.194905768145954"><ele>345.0</ele><time>2026-03-24T16:38:05.999Z</time></trkpt><trkpt lat="43.16359134653692" lon="12.194764845406482"><ele>344.0</ele><time>2026-03-24T16:38:07.999Z</time></trkpt><trkpt lat="43.16358970367519" lon="12.194616391542109"><ele>342.83333333333337</ele><time>2026-03-24T16:38:09.998Z</time></trkpt><trkpt lat="43.163605024137375" lon="12.194491075946894"><ele>341.6666666666667</ele><time>2026-03-24T16:38:11.998Z</time></trkpt><trkpt lat="43.163563450569015" lon="12.19438005232418"><ele>340.5</ele><time>2026-03-24T16:38:13.998Z</time></trkpt><trkpt lat="43.16352708152442" lon="12.194259236341397"><ele>339.3333333333333</ele><time>2026-03-24T16:38:15.998Z</time></trkpt><trkpt lat="43.16350434095553" lon="12.19417125600966"><ele>338.16666666666663</ele><time>2026-03-24T16:38:17Z</time></trkpt><trkpt lat="43.16349115898237" lon="12.194081973464343"><ele>337.0</ele><time>2026-03-24T16:38:18Z</time></trkpt><trkpt lat="43.16347495079682" lon="12.193984995456933"><ele>335.8</ele><time>2026-03-24T16:38:19Z</time></trkpt><trkpt lat="43.163454128712175" lon="12.193900801852768"><ele>334.6</ele><time>2026-03-24T16:38:20Z</time></trkpt><trkpt lat="43.16343068388844" lon="12.193740777743054"><ele>333.40000000000003</ele><time>2026-03-24T16:38:22Z</time></trkpt><trkpt lat="43.16337437641545" lon="12.193621825007666"><ele>332.20000000000005</ele><time>2026-03-24T16:38:24Z</time></trkpt><trkpt lat="43.163316494444764" lon="12.193512081077497"><ele>331.0</ele><time>2026-03-24T16:38:26Z</time></trkpt><trkpt lat="43.163230513557494" lon="12.19340734206016"><ele>329.16666666666663</ele><time>2026-03-24T16:38:28Z</time></trkpt><trkpt lat="43.16313259248458" lon="12.193356495245899"><ele>327.3333333333333</ele><time>2026-03-24T16:38:30Z</time></trkpt><trkpt lat="43.16307702608223" lon="12.193301477592573"><ele>325.5</ele><time>2026-03-24T16:38:32Z</time></trkpt><trkpt lat="43.163009034381986" lon="12.193260215733693"><ele>323.6666666666667</ele><time>2026-03-24T16:38:34Z</time></trkpt><trkpt lat="43.16292126646621" lon="12.193202133189494"><ele>321.83333333333337</ele><time>2026-03-24T16:38:36Z</time></trkpt><trkpt lat="43.16285077553543" lon="12.193120128864003"><ele>320.0</ele><time>2026-03-24T16:38:38Z</time></trkpt><trkpt lat="43.162792519825004" lon="12.19300202035189"><ele>320.0</ele><time>2026-03-24T16:38:40Z</time></trkpt><trkpt lat="43.16275410652019" lon="12.192855554101303"><ele>320.0</ele><time>2026-03-24T16:38:42Z</time></trkpt><trkpt lat="43.162745470513" lon="12.19272831196333"><ele>320.0</ele><time>2026-03-24T16:38:44Z</time></trkpt><trkpt lat="43.1628016325872" lon="12.192640604114969"><ele>320.0</ele><time>2026-03-24T16:38:46Z</time></trkpt><trkpt lat="43.16285885830293" lon="12.192602250346612"><ele>320.0</ele><time>2026-03-24T16:38:47Z</time></trkpt><trkpt lat="43.162958972559856" lon="12.192533797455367"><ele>320.0</ele><time>2026-03-24T16:38:49Z</time></trkpt><trkpt lat="43.16302994447901" lon="12.1924800452669"><ele>320.0</ele><time>2026-03-24T16:38:51Z</time></trkpt><trkpt lat="43.16306706340491" lon="12.192372547071846"><ele>320.0</ele><time>2026-03-24T16:38:53Z</time></trkpt><trkpt lat="43.16305071491968" lon="12.19224706373723"><ele>320.0</ele><time>2026-03-24T16:38:55Z</time></trkpt><trkpt lat="43.162997269768816" lon="12.192135059678085"><ele>320.0</ele><time>2026-03-24T16:38:57Z</time></trkpt><trkpt lat="43.16292786774276" lon="12.192038062372745"><ele>317.4</ele><time>2026-03-24T16:38:59Z</time></trkpt><trkpt lat="43.16282215656956" lon="12.192012561759555"><ele>314.8</ele><time>2026-03-24T16:39:01Z</time></trkpt><trkpt lat="43.16270375702748" lon="12.192016044641646"><ele>312.2</ele><time>2026-03-24T16:39:03Z</time></trkpt><trkpt lat="43.16259171195153" lon="12.192043089689694"><ele>309.6</ele><time>2026-03-24T16:39:04.999Z</time></trkpt><trkpt lat="43.16248839079052" lon="12.192054531720899"><ele>307.0</ele><time>2026-03-24T16:39:06.999Z</time></trkpt><trkpt lat="43.16239531504863" lon="12.192065261072704"><ele>307.0</ele><time>2026-03-24T16:39:08.999Z</time></trkpt><trkpt lat="43.16231280672635" lon="12.192055162401918"><ele>307.0</ele><time>2026-03-24T16:39:10.999Z</time></trkpt><trkpt lat="43.162245590599646" lon="12.192049628033356"><ele>307.0</ele><time>2026-03-24T16:39:23.999Z</time></trkpt><trkpt lat="43.16228496892967" lon="12.191979916300761"><ele>307.0</ele><time>2026-03-24T16:39:24.999Z</time></trkpt><trkpt lat="43.16233343563299" lon="12.191887627043242"><ele>307.0</ele><time>2026-03-24T16:39:27.999Z</time></trkpt><trkpt lat="43.162380341527474" lon="12.191769357439346"><ele>307.0</ele><time>2026-03-24T16:39:29.999Z</time></trkpt><trkpt lat="43.162391683445264" lon="12.191667966390247"><ele>305.6</ele><time>2026-03-24T16:39:31.999Z</time></trkpt><trkpt lat="43.162348533502616" lon="12.191587989324116"><ele>304.2</ele><time>2026-03-24T16:39:33.999Z</time></trkpt><trkpt lat="43.1622669392758" lon="12.19152896489398"><ele>302.8</ele><time>2026-03-24T16:39:35.999Z</time></trkpt><trkpt lat="43.16217043230566" lon="12.191549493831856"><ele>301.4</ele><time>2026-03-24T16:39:37.999Z</time></trkpt><trkpt lat="43.16211665588118" lon="12.191432146130659"><ele>300.0</ele><time>2026-03-24T16:39:39.999Z</time></trkpt><trkpt lat="43.162116958913074" lon="12.191295418653898"><ele>298.8</ele><time>2026-03-24T16:39:41.999Z</time></trkpt><trkpt lat="43.16220735774054" lon="12.191231814932724"><ele>297.6</ele><time>2026-03-24T16:39:44.999Z</time></trkpt><trkpt lat="43.162288112955174" lon="12.19119521561835"><ele>296.4</ele><time>2026-03-24T16:39:45.999Z</time></trkpt><trkpt lat="43.162396653249665" lon="12.19114366195722"><ele>295.2</ele><time>2026-03-24T16:39:46.999Z</time></trkpt><trkpt lat="43.16252727052983" lon="12.191077581943622"><ele>294.0</ele><time>2026-03-24T16:39:47.999Z</time></trkpt><trkpt lat="43.16263514947886" lon="12.190991361418952"><ele>294.0</ele><time>2026-03-24T16:39:48.999Z</time></trkpt><trkpt lat="43.1627182635046" lon="12.19091927568736"><ele>294.0</ele><time>2026-03-24T16:39:49.999Z</time></trkpt><trkpt lat="43.16278778807662" lon="12.19086529978174"><ele>294.0</ele><time>2026-03-24T16:39:50.999Z</time></trkpt><trkpt lat="43.162849750592386" lon="12.190829019932737"><ele>294.0</ele><time>2026-03-24T16:39:51.999Z</time></trkpt><trkpt lat="43.16294622491003" lon="12.190756055217589"><ele>294.0</ele><time>2026-03-24T16:39:53.999Z</time></trkpt><trkpt lat="43.162984306665116" lon="12.190631461405173"><ele>291.6666666666667</ele><time>2026-03-24T16:39:55.999Z</time></trkpt><trkpt lat="43.16295095777913" lon="12.190488109930289"><ele>289.3333333333333</ele><time>2026-03-24T16:39:57.999Z</time></trkpt><trkpt lat="43.16286747814969" lon="12.190479756153769"><ele>287.0</ele><time>2026-03-24T16:39:58.999Z</time></trkpt><trkpt lat="43.16280336307802" lon="12.190485351709771"><ele>284.66666666666663</ele><time>2026-03-24T16:39:59.999Z</time></trkpt><trkpt lat="43.16273049636557" lon="12.190492422858535"><ele>282.3333333333333</ele><time>2026-03-24T16:40:00.999Z</time></trkpt><trkpt lat="43.16263457646283" lon="12.190515515019094"><ele>280.0</ele><time>2026-03-24T16:40:02.999Z</time></trkpt><trkpt lat="43.162553588933" lon="12.190600974393027"><ele>280.0</ele><time>2026-03-24T16:40:04.999Z</time></trkpt><trkpt lat="43.162458212082875" lon="12.190616385653168"><ele>280.0</ele><time>2026-03-24T16:40:06.999Z</time></trkpt><trkpt lat="43.16239457591918" lon="12.190625246362607"><ele>280.0</ele><time>2026-03-24T16:40:07.999Z</time></trkpt><trkpt lat="43.162320276646604" lon="12.19059825952923"><ele>280.0</ele><time>2026-03-24T16:40:08.999Z</time></trkpt><trkpt lat="43.162262355007186" lon="12.190544098322864"><ele>280.0</ele><time>2026-03-24T16:40:09.999Z</time></trkpt><trkpt lat="43.1622124370459" lon="12.190488442525961"><ele>280.0</ele><time>2026-03-24T16:40:10.999Z</time></trkpt><trkpt lat="43.162116198432194" lon="12.190380797083689"><ele>279.8333333333333</ele><time>2026-03-24T16:40:12.999Z</time></trkpt><trkpt lat="43.16207783394292" lon="12.190304465074064"><ele>279.66666666666663</ele><time>2026-03-24T16:40:13.999Z</time></trkpt><trkpt lat="43.162020845536226" lon="12.190235277955873"><ele>279.5</ele><time>2026-03-24T16:40:15.999Z</time></trkpt><trkpt lat="43.16206432851156" lon="12.190328120815698"><ele>279.3333333333333</ele><time>2026-03-24T16:40:45Z</time></trkpt><trkpt lat="43.16211723064324" lon="12.190418976958721"><ele>279.1666666666667</ele><time>2026-03-24T16:40:46Z</time></trkpt><trkpt lat="43.16220149582735" lon="12.190514123490585"><ele>279.0</ele><time>2026-03-24T16:40:47Z</time></trkpt><trkpt lat="43.162279370560974" lon="12.190611018279714"><ele>279.2</ele><time>2026-03-24T16:40:48Z</time></trkpt><trkpt lat="43.16238945699196" lon="12.19063655773362"><ele>279.4</ele><time>2026-03-24T16:40:49Z</time></trkpt><trkpt lat="43.16247045740269" lon="12.190646894080869"><ele>279.6</ele><time>2026-03-24T16:40:50Z</time></trkpt><trkpt lat="43.16255775238392" lon="12.190614561931598"><ele>279.8</ele><time>2026-03-24T16:40:51Z</time></trkpt><trkpt lat="43.16265172503928" lon="12.19055859217144"><ele>280.0</ele><time>2026-03-24T16:40:52Z</time></trkpt><trkpt lat="43.16273413569405" lon="12.190517478012815"><ele>280.0</ele><time>2026-03-24T16:40:53Z</time></trkpt><trkpt lat="43.162824753805275" lon="12.19051214161366"><ele>280.0</ele><time>2026-03-24T16:40:54Z</time></trkpt><trkpt lat="43.16289709264098" lon="12.190522975659825"><ele>280.0</ele><time>2026-03-24T16:40:55Z</time></trkpt><trkpt lat="43.16296876215495" lon="12.190585796379333"><ele>280.0</ele><time>2026-03-24T16:40:57Z</time></trkpt><trkpt lat="43.162922106454054" lon="12.190724597053906"><ele>280.0</ele><time>2026-03-24T16:40:59Z</time></trkpt><trkpt lat="43.16286155615955" lon="12.190777990416045"><ele>280.0</ele><time>2026-03-24T16:41:00Z</time></trkpt><trkpt lat="43.162774801415864" lon="12.190832887515805"><ele>282.5</ele><time>2026-03-24T16:41:01Z</time></trkpt><trkpt lat="43.1626795503628" lon="12.190933372945137"><ele>285.0</ele><time>2026-03-24T16:41:02Z</time></trkpt><trkpt lat="43.16254115256625" lon="12.191021847258714"><ele>287.5</ele><time>2026-03-24T16:41:03Z</time></trkpt><trkpt lat="43.1624073632853" lon="12.191088383451662"><ele>290.0</ele><time>2026-03-24T16:41:04Z</time></trkpt><trkpt lat="43.1622938504085" lon="12.191141904807473"><ele>290.0</ele><time>2026-03-24T16:41:05Z</time></trkpt><trkpt lat="43.16220388745662" lon="12.191190809876758"><ele>290.0</ele><time>2026-03-24T16:41:06Z</time></trkpt><trkpt lat="43.16213869191965" lon="12.191240124483574"><ele>290.0</ele><time>2026-03-24T16:41:07Z</time></trkpt><trkpt lat="43.16208241538856" lon="12.191299612277389"><ele>290.0</ele><time>2026-03-24T16:41:09Z</time></trkpt><trkpt lat="43.16208631336647" lon="12.19142917771338"><ele>290.0</ele><time>2026-03-24T16:41:10.999Z</time></trkpt><trkpt lat="43.1621215028761" lon="12.191516856597225"><ele>290.0</ele><time>2026-03-24T16:41:11.999Z</time></trkpt><trkpt lat="43.162185362317246" lon="12.19157100915149"><ele>291.6666666666667</ele><time>2026-03-24T16:41:12.999Z</time></trkpt><trkpt lat="43.162251036729835" lon="12.191580191089756"><ele>293.33333333333337</ele><time>2026-03-24T16:41:13.999Z</time></trkpt><trkpt lat="43.16232400494453" lon="12.191573214493932"><ele>295.0</ele><time>2026-03-24T16:41:14.999Z</time></trkpt><trkpt lat="43.162394148181626" lon="12.19163363043668"><ele>296.6666666666667</ele><time>2026-03-24T16:41:16.999Z</time></trkpt><trkpt lat="43.16234229705913" lon="12.191809225756764"><ele>298.3333333333333</ele><time>2026-03-24T16:41:18.999Z</time></trkpt><trkpt lat="43.16228248500123" lon="12.191883718308922"><ele>300.0</ele><time>2026-03-24T16:41:19.999Z</time></trkpt><trkpt lat="43.162243825448286" lon="12.1919634423522"><ele>300.0</ele><time>2026-03-24T16:41:20.999Z</time></trkpt><trkpt lat="43.162254125432206" lon="12.192072969541933"><ele>300.0</ele><time>2026-03-24T16:41:22.999Z</time></trkpt><trkpt lat="43.16239377117012" lon="12.192085536784152"><ele>300.0</ele><time>2026-03-24T16:41:24.999Z</time></trkpt><trkpt lat="43.16247716451866" lon="12.192084701537885"><ele>300.0</ele><time>2026-03-24T16:41:25.999Z</time></trkpt><trkpt lat="43.16260626858848" lon="12.192069391510788"><ele>300.0</ele><time>2026-03-24T16:41:27.999Z</time></trkpt><trkpt lat="43.1627068843937" lon="12.192061414418134"><ele>301.1666666666667</ele><time>2026-03-24T16:41:28.999Z</time></trkpt><trkpt lat="43.16279790768003" lon="12.192056935084418"><ele>302.3333333333333</ele><time>2026-03-24T16:41:29.999Z</time></trkpt><trkpt lat="43.16287064939053" lon="12.192062364083386"><ele>303.5</ele><time>2026-03-24T16:41:30.999Z</time></trkpt><trkpt lat="43.16295085797568" lon="12.19206990397032"><ele>304.66666666666663</ele><time>2026-03-24T16:41:31.999Z</time></trkpt><trkpt lat="43.1630043993487" lon="12.192129696476474"><ele>305.8333333333333</ele><time>2026-03-24T16:41:32.999Z</time></trkpt><trkpt lat="43.16304179851053" lon="12.192225699048558"><ele>307.0</ele><time>2026-03-24T16:41:33.999Z</time></trkpt><trkpt lat="43.16303276522539" lon="12.192333728891988"><ele>309.6</ele><time>2026-03-24T16:41:34.999Z</time></trkpt><trkpt lat="43.163012261973115" lon="12.192492782690122"><ele>312.2</ele><time>2026-03-24T16:41:36.999Z</time></trkpt><trkpt lat="43.16292547047167" lon="12.192519137179817"><ele>314.8</ele><time>2026-03-24T16:41:37.999Z</time></trkpt><trkpt lat="43.162854419107134" lon="12.192572406002741"><ele>317.4</ele><time>2026-03-24T16:41:38.999Z</time></trkpt><trkpt lat="43.16279560305111" lon="12.192634270196196"><ele>320.0</ele><time>2026-03-24T16:41:39.999Z</time></trkpt><trkpt lat="43.16271544706854" lon="12.192725464275926"><ele>320.0</ele><time>2026-03-24T16:41:41.999Z</time></trkpt><trkpt lat="43.16275137888797" lon="12.192930216870366"><ele>320.0</ele><time>2026-03-24T16:41:43.999Z</time></trkpt><trkpt lat="43.16278863394732" lon="12.193040932698654"><ele>320.0</ele><time>2026-03-24T16:41:44.999Z</time></trkpt><trkpt lat="43.16284586835092" lon="12.193180204538901"><ele>320.0</ele><time>2026-03-24T16:41:46.999Z</time></trkpt><trkpt lat="43.162909946535834" lon="12.193253451000434"><ele>320.0</ele><time>2026-03-24T16:41:47.999Z</time></trkpt><trkpt lat="43.16298240792828" lon="12.193294768189572"><ele>319.6666666666667</ele><time>2026-03-24T16:41:48.999Z</time></trkpt><trkpt lat="43.16305382747568" lon="12.193337180402246"><ele>319.33333333333337</ele><time>2026-03-24T16:41:49.999Z</time></trkpt><trkpt lat="43.1631162927035" lon="12.193376149885262"><ele>319.0</ele><time>2026-03-24T16:41:50.999Z</time></trkpt><trkpt lat="43.1632096787367" lon="12.193442253951607"><ele>318.6666666666667</ele><time>2026-03-24T16:41:52.999Z</time></trkpt><trkpt lat="43.16326344479809" lon="12.193506381329973"><ele>318.3333333333333</ele><time>2026-03-24T16:41:53.999Z</time></trkpt><trkpt lat="43.163335995208755" lon="12.193597227921098"><ele>318.0</ele><time>2026-03-24T16:41:54.999Z</time></trkpt><trkpt lat="43.16339622816162" lon="12.193677217240177"><ele>320.1666666666667</ele><time>2026-03-24T16:41:55.999Z</time></trkpt><trkpt lat="43.163425605900194" lon="12.193768797600605"><ele>322.3333333333333</ele><time>2026-03-24T16:41:56.999Z</time></trkpt><trkpt lat="43.16343749808526" lon="12.19388940751776"><ele>324.5</ele><time>2026-03-24T16:41:57.999Z</time></trkpt><trkpt lat="43.163446771692286" lon="12.19402996377209"><ele>326.66666666666663</ele><time>2026-03-24T16:41:58.999Z</time></trkpt><trkpt lat="43.163459484337594" lon="12.19415401034947"><ele>328.8333333333333</ele><time>2026-03-24T16:41:59.999Z</time></trkpt><trkpt lat="43.16348143546993" lon="12.194247125342095"><ele>331.0</ele><time>2026-03-24T16:42:00.999Z</time></trkpt><trkpt lat="43.163523353851296" lon="12.194347333074216"><ele>332.0</ele><time>2026-03-24T16:42:01.999Z</time></trkpt><trkpt lat="43.16356890407779" lon="12.1944361541743"><ele>333.0</ele><time>2026-03-24T16:42:02.999Z</time></trkpt><trkpt lat="43.16358382400483" lon="12.194601361154303"><ele>334.0</ele><time>2026-03-24T16:42:04.999Z</time></trkpt><trkpt lat="43.16356985949919" lon="12.19470435279535"><ele>335.0</ele><time>2026-03-24T16:42:05.999Z</time></trkpt><trkpt lat="43.16356347484211" lon="12.19480415394705"><ele>336.0</ele><time>2026-03-24T16:42:06.999Z</time></trkpt><trkpt lat="43.16357140404317" lon="12.194914365042775"><ele>337.0</ele><time>2026-03-24T16:42:07.999Z</time></trkpt><trkpt lat="43.16355953889715" lon="12.195002712836917"><ele>338.16666666666663</ele><time>2026-03-24T16:42:08.999Z</time></trkpt><trkpt lat="43.16352651436139" lon="12.195085140024416"><ele>339.3333333333333</ele><time>2026-03-24T16:42:09.999Z</time></trkpt><trkpt lat="43.163466098907506" lon="12.1951721968699"><ele>340.5</ele><time>2026-03-24T16:42:11.999Z</time></trkpt><trkpt lat="43.16346703159245" lon="12.19529443327161"><ele>341.6666666666667</ele><time>2026-03-24T16:42:14.999Z</time></trkpt><trkpt lat="43.16348488535087" lon="12.195387266007838"><ele>342.83333333333337</ele><time>2026-03-24T16:42:30Z</time></trkpt><trkpt lat="43.1634626638492" lon="12.195482390668422"><ele>344.0</ele><time>2026-03-24T16:42:34Z</time></trkpt><trkpt lat="43.16338388064973" lon="12.195524206886306"><ele>344.00000000000006</ele><time>2026-03-24T16:42:37Z</time></trkpt><trkpt lat="43.163327965603365" lon="12.19556996571793"><ele>344.0</ele><time>2026-03-24T16:42:39Z</time></trkpt><trkpt lat="43.163269685172054" lon="12.195625342904021"><ele>344.0</ele><time>2026-03-24T16:42:41Z</time></trkpt><trkpt lat="43.16320347408072" lon="12.195657021041278"><ele>344.0</ele><time>2026-03-24T16:42:43Z</time></trkpt><trkpt lat="43.163120102910156" lon="12.195616090457657"><ele>344.0</ele><time>2026-03-24T16:42:45Z</time></trkpt><trkpt lat="43.16305125175655" lon="12.195568985739097"><ele>344.00000000000006</ele><time>2026-03-24T16:42:47Z</time></trkpt><trkpt lat="43.16301811116964" lon="12.195474817342776"><ele>344.0</ele><time>2026-03-24T16:42:49Z</time></trkpt><trkpt lat="43.16293211989969" lon="12.195518943052953"><ele>341.2</ele><time>2026-03-24T16:42:52Z</time></trkpt><trkpt lat="43.16281976674315" lon="12.19554853182411"><ele>338.4</ele><time>2026-03-24T16:42:54Z</time></trkpt><trkpt lat="43.162710951566964" lon="12.195578020412253"><ele>335.6</ele><time>2026-03-24T16:42:56Z</time></trkpt><trkpt lat="43.162610105091034" lon="12.195599873508097"><ele>332.8</ele><time>2026-03-24T16:42:58Z</time></trkpt><trkpt lat="43.16253284502245" lon="12.195629197454961"><ele>330.0</ele><time>2026-03-24T16:43:00Z</time></trkpt><trkpt lat="43.16247237917226" lon="12.195777521164695"><ele>330.0</ele><time>2026-03-24T16:43:02Z</time></trkpt><trkpt lat="43.16245012515399" lon="12.195863100186447"><ele>330.0</ele><time>2026-03-24T16:43:03Z</time></trkpt><trkpt lat="43.16240355734998" lon="12.19594948504325"><ele>330.0</ele><time>2026-03-24T16:43:05Z</time></trkpt><trkpt lat="43.162328519520386" lon="12.195958294012705"><ele>330.0</ele><time>2026-03-24T16:43:07Z</time></trkpt><trkpt lat="43.16224123876578" lon="12.195906264044938"><ele>330.0</ele><time>2026-03-24T16:43:09Z</time></trkpt><trkpt lat="43.162139244806056" lon="12.195825100755583"><ele>330.0</ele><time>2026-03-24T16:43:11Z</time></trkpt><trkpt lat="43.16207720053975" lon="12.19578752820651"><ele>327.6666666666667</ele><time>2026-03-24T16:43:12Z</time></trkpt><trkpt lat="43.16201345738163" lon="12.1957588392099"><ele>325.3333333333333</ele><time>2026-03-24T16:43:13Z</time></trkpt><trkpt lat="43.16195086416529" lon="12.195729768223277"><ele>323.0</ele><time>2026-03-24T16:43:14Z</time></trkpt><trkpt lat="43.161861317219824" lon="12.195694848834835"><ele>320.66666666666663</ele><time>2026-03-24T16:43:15.999Z</time></trkpt><trkpt lat="43.16176667303498" lon="12.195707286170927"><ele>318.3333333333333</ele><time>2026-03-24T16:43:17.999Z</time></trkpt><trkpt lat="43.16170161545891" lon="12.195750961942002"><ele>316.0</ele><time>2026-03-24T16:43:19.999Z</time></trkpt><trkpt lat="43.1616034298986" lon="12.195729828549368"><ele>313.0</ele><time>2026-03-24T16:43:21.999Z</time></trkpt><trkpt lat="43.16152032680998" lon="12.195627091270891"><ele>310.0</ele><time>2026-03-24T16:43:23.999Z</time></trkpt><trkpt lat="43.16144189220282" lon="12.195492043692155"><ele>307.0</ele><time>2026-03-24T16:43:25.999Z</time></trkpt><trkpt lat="43.16134686996947" lon="12.195386113432791"><ele>304.0</ele><time>2026-03-24T16:43:27.999Z</time></trkpt><trkpt lat="43.16124809867499" lon="12.195286133912834"><ele>304.0</ele><time>2026-03-24T16:43:29.999Z</time></trkpt><trkpt lat="43.16116033780049" lon="12.195183583966074"><ele>304.0</ele><time>2026-03-24T16:43:31.999Z</time></trkpt><trkpt lat="43.1610953806379" lon="12.195089013393156"><ele>304.0</ele><time>2026-03-24T16:43:33.999Z</time></trkpt><trkpt lat="43.1610085971369" lon="12.195036167168348"><ele>304.0</ele><time>2026-03-24T16:43:35.999Z</time></trkpt><trkpt lat="43.1609390303466" lon="12.194963343095477"><ele>304.0</ele><time>2026-03-24T16:43:37.999Z</time></trkpt><trkpt lat="43.16086617078431" lon="12.194906326222544"><ele>304.0</ele><time>2026-03-24T16:43:40.999Z</time></trkpt><trkpt lat="43.16079206131326" lon="12.194886774141446"><ele>304.0</ele><time>2026-03-24T16:43:42.999Z</time></trkpt><trkpt lat="43.16071303571007" lon="12.194835925547917"><ele>304.0</ele><time>2026-03-24T16:43:43.999Z</time></trkpt><trkpt lat="43.16069558678712" lon="12.194722846965798"><ele>304.0</ele><time>2026-03-24T16:43:44.999Z</time></trkpt><trkpt lat="43.16074371948821" lon="12.194594679743654"><ele>304.0</ele><time>2026-03-24T16:43:46.999Z</time></trkpt><trkpt lat="43.160724147976836" lon="12.194489541386917"><ele>304.0</ele><time>2026-03-24T16:43:47.999Z</time></trkpt><trkpt lat="43.1606522476671" lon="12.194380996888908"><ele>300.4</ele><time>2026-03-24T16:43:48.999Z</time></trkpt><trkpt lat="43.16056122598568" lon="12.194299388551073"><ele>296.79999999999995</ele><time>2026-03-24T16:43:49.999Z</time></trkpt><trkpt lat="43.16048454768552" lon="12.194218879941875"><ele>293.20000000000005</ele><time>2026-03-24T16:43:50.999Z</time></trkpt><trkpt lat="43.16039020631344" lon="12.19415250826114"><ele>289.6</ele><time>2026-03-24T16:43:51.999Z</time></trkpt><trkpt lat="43.16026317626945" lon="12.19410361978691"><ele>286.0</ele><time>2026-03-24T16:43:52.999Z</time></trkpt><trkpt lat="43.16013123907839" lon="12.194068032127705"><ele>286.0</ele><time>2026-03-24T16:43:53.999Z</time></trkpt><trkpt lat="43.160019556621386" lon="12.194047133096085"><ele>286.0</ele><time>2026-03-24T16:43:54.999Z</time></trkpt><trkpt lat="43.15992650443532" lon="12.1940278786641"><ele>286.0</ele><time>2026-03-24T16:43:55.999Z</time></trkpt><trkpt lat="43.15985407368368" lon="12.194019932338092"><ele>286.0</ele><time>2026-03-24T16:43:56.999Z</time></trkpt><trkpt lat="43.1597417155595" lon="12.194009903179667"><ele>286.0</ele><time>2026-03-24T16:43:58.999Z</time></trkpt><trkpt lat="43.15966310070495" lon="12.194041964734406"><ele>285.0</ele><time>2026-03-24T16:44:01.999Z</time></trkpt><trkpt lat="43.159629149606914" lon="12.194123126862701"><ele>284.0</ele><time>2026-03-24T16:44:03.999Z</time></trkpt><trkpt lat="43.159593437244105" lon="12.194201054984294"><ele>283.0</ele><time>2026-03-24T16:44:05.999Z</time></trkpt><trkpt lat="43.15949156699656" lon="12.194248496514158"><ele>282.0</ele><time>2026-03-24T16:44:07.999Z</time></trkpt><trkpt lat="43.159356921689486" lon="12.194200656082174"><ele>281.0</ele><time>2026-03-24T16:44:09.999Z</time></trkpt><trkpt lat="43.159240326478226" lon="12.194155034357273"><ele>281.0</ele><time>2026-03-24T16:44:10.999Z</time></trkpt><trkpt lat="43.15913433313505" lon="12.194109533606126"><ele>281.0</ele><time>2026-03-24T16:44:11.999Z</time></trkpt><trkpt lat="43.159044354848966" lon="12.194087754108581"><ele>281.0</ele><time>2026-03-24T16:44:12.999Z</time></trkpt><trkpt lat="43.158979673705325" lon="12.194065124301968"><ele>281.0</ele><time>2026-03-24T16:44:13.999Z</time></trkpt><trkpt lat="43.15887938991522" lon="12.194023743765769"><ele>281.0</ele><time>2026-03-24T16:44:15.999Z</time></trkpt><trkpt lat="43.15878896839172" lon="12.194003812199051"><ele>280.2</ele><time>2026-03-24T16:44:16.999Z</time></trkpt><trkpt lat="43.158694953969466" lon="12.19397965431773"><ele>279.40000000000003</ele><time>2026-03-24T16:44:17.999Z</time></trkpt><trkpt lat="43.158587169919926" lon="12.19393754868245"><ele>278.6</ele><time>2026-03-24T16:44:18.999Z</time></trkpt><trkpt lat="43.158496571705356" lon="12.193908559378512"><ele>277.8</ele><time>2026-03-24T16:44:19.999Z</time></trkpt><trkpt lat="43.15840918840061" lon="12.19389627212529"><ele>277.0</ele><time>2026-03-24T16:44:20.999Z</time></trkpt><trkpt lat="43.158328844388976" lon="12.193872805127546"><ele>277.0</ele><time>2026-03-24T16:44:21.999Z</time></trkpt><trkpt lat="43.158262377785555" lon="12.193821055037846"><ele>277.0</ele><time>2026-03-24T16:44:22.999Z</time></trkpt><trkpt lat="43.15819537613877" lon="12.193783742740573"><ele>277.0</ele><time>2026-03-24T16:44:23.999Z</time></trkpt><trkpt lat="43.15812553901425" lon="12.193758453148007"><ele>277.0</ele><time>2026-03-24T16:44:24.999Z</time></trkpt><trkpt lat="43.15803751338154" lon="12.193723159491256"><ele>277.0</ele><time>2026-03-24T16:44:26.999Z</time></trkpt><trkpt lat="43.157971159523115" lon="12.19377392828172"><ele>277.0</ele><time>2026-03-24T16:44:27.998Z</time></trkpt><trkpt lat="43.157907976817135" lon="12.193875533159728"><ele>277.2</ele><time>2026-03-24T16:44:28.998Z</time></trkpt><trkpt lat="43.15785064042784" lon="12.194004585520055"><ele>277.4</ele><time>2026-03-24T16:44:29.998Z</time></trkpt><trkpt lat="43.15778199217446" lon="12.194131917142434"><ele>277.6</ele><time>2026-03-24T16:44:30.998Z</time></trkpt><trkpt lat="43.15772310518558" lon="12.194186855995138"><ele>277.8</ele><time>2026-03-24T16:44:31.998Z</time></trkpt><trkpt lat="43.15762429354414" lon="12.194249026803009"><ele>278.0</ele><time>2026-03-24T16:44:33.998Z</time></trkpt><trkpt lat="43.157565520731126" lon="12.194212510661108"><ele>279.0</ele><time>2026-03-24T16:44:35Z</time></trkpt><trkpt lat="43.15750166824951" lon="12.194148997015109"><ele>280.0</ele><time>2026-03-24T16:44:36Z</time></trkpt><trkpt lat="43.157417963550564" lon="12.19416125928908"><ele>281.0</ele><time>2026-03-24T16:44:37Z</time></trkpt><trkpt lat="43.157320885602246" lon="12.194158448130535"><ele>282.0</ele><time>2026-03-24T16:44:38Z</time></trkpt><trkpt lat="43.15722114579295" lon="12.194128005063911"><ele>283.0</ele><time>2026-03-24T16:44:39Z</time></trkpt><trkpt lat="43.157142848603925" lon="12.194043128084958"><ele>282.6</ele><time>2026-03-24T16:44:40Z</time></trkpt><trkpt lat="43.15711102989713" lon="12.193886244923874"><ele>282.20000000000005</ele><time>2026-03-24T16:44:41Z</time></trkpt><trkpt lat="43.15708305362773" lon="12.193792847616425"><ele>281.8</ele><time>2026-03-24T16:44:42Z</time></trkpt><trkpt lat="43.156970731646716" lon="12.1937356975322"><ele>281.40000000000003</ele><time>2026-03-24T16:44:44Z</time></trkpt><trkpt lat="43.156873213860806" lon="12.19372550285127"><ele>281.0</ele><time>2026-03-24T16:44:45Z</time></trkpt><trkpt lat="43.15676079445448" lon="12.193711341491863"><ele>281.0</ele><time>2026-03-24T16:44:46Z</time></trkpt><trkpt lat="43.156670259481054" lon="12.193657513847056"><ele>281.0</ele><time>2026-03-24T16:44:47Z</time></trkpt><trkpt lat="43.156613477807255" lon="12.193548820904024"><ele>281.0</ele><time>2026-03-24T16:44:48Z</time></trkpt><trkpt lat="43.156572462760195" lon="12.1934425060459"><ele>281.0</ele><time>2026-03-24T16:44:49Z</time></trkpt><trkpt lat="43.15654366739818" lon="12.193288683680153"><ele>281.0</ele><time>2026-03-24T16:44:50Z</time></trkpt><trkpt lat="43.15649743487738" lon="12.19311188019515"><ele>280.8</ele><time>2026-03-24T16:44:51Z</time></trkpt><trkpt lat="43.1564484018552" lon="12.192961700023002"><ele>280.6</ele><time>2026-03-24T16:44:52Z</time></trkpt><trkpt lat="43.156408535885014" lon="12.192833660256918"><ele>280.4</ele><time>2026-03-24T16:44:53Z</time></trkpt><trkpt lat="43.15638289887981" lon="12.19271817567018"><ele>280.2</ele><time>2026-03-24T16:44:54Z</time></trkpt><trkpt lat="43.156364089543736" lon="12.192605213540356"><ele>280.0</ele><time>2026-03-24T16:44:55Z</time></trkpt><trkpt lat="43.15635575722996" lon="12.192501647185583"><ele>280.0</ele><time>2026-03-24T16:44:56Z</time></trkpt><trkpt lat="43.15634420520296" lon="12.192345974327111"><ele>280.0</ele><time>2026-03-24T16:44:58Z</time></trkpt><trkpt lat="43.156244198017426" lon="12.192274176006235"><ele>280.0</ele><time>2026-03-24T16:45:00Z</time></trkpt><trkpt lat="43.15620606596474" lon="12.192196204541908"><ele>280.0</ele><time>2026-03-24T16:45:01Z</time></trkpt><trkpt lat="43.15615085090417" lon="12.19209797478678"><ele>280.0</ele><time>2026-03-24T16:45:02Z</time></trkpt><trkpt lat="43.156106225186875" lon="12.192003221771895"><ele>278.8</ele><time>2026-03-24T16:45:03Z</time></trkpt><trkpt lat="43.15608474001391" lon="12.191827194076131"><ele>277.6</ele><time>2026-03-24T16:45:05Z</time></trkpt><trkpt lat="43.1560773791451" lon="12.191736926325714"><ele>276.4</ele><time>2026-03-24T16:45:06Z</time></trkpt><trkpt lat="43.15605280210438" lon="12.191650319859734"><ele>275.2</ele><time>2026-03-24T16:45:07Z</time></trkpt><trkpt lat="43.15597609015015" lon="12.191482372823645"><ele>274.0</ele><time>2026-03-24T16:45:09Z</time></trkpt><trkpt lat="43.1559207898922" lon="12.191368871498746"><ele>273.5</ele><time>2026-03-24T16:45:10Z</time></trkpt><trkpt lat="43.15587808153718" lon="12.191291969502329"><ele>273.0</ele><time>2026-03-24T16:45:11Z</time></trkpt><trkpt lat="43.155839776002765" lon="12.191207806756488"><ele>272.5</ele><time>2026-03-24T16:45:13Z</time></trkpt><trkpt lat="43.15579766140246" lon="12.191102664393664"><ele>272.0</ele><time>2026-03-24T16:45:18Z</time></trkpt><trkpt lat="43.15576977862546" lon="12.191003254038689"><ele>271.5</ele><time>2026-03-24T16:45:18.999Z</time></trkpt><trkpt lat="43.155710347594734" lon="12.190869530474615"><ele>271.0</ele><time>2026-03-24T16:45:19.999Z</time></trkpt><trkpt lat="43.155652603131664" lon="12.190692805971892"><ele>274.5</ele><time>2026-03-24T16:45:20.999Z</time></trkpt><trkpt lat="43.15558581643259" lon="12.190517850793071"><ele>278.0</ele><time>2026-03-24T16:45:21.999Z</time></trkpt><trkpt lat="43.155522530092824" lon="12.190367646731085"><ele>281.5</ele><time>2026-03-24T16:45:22.999Z</time></trkpt><trkpt lat="43.155471960966246" lon="12.190237226953583"><ele>285.0</ele><time>2026-03-24T16:45:23.999Z</time></trkpt><trkpt lat="43.15544078001657" lon="12.19010343275187"><ele>285.0</ele><time>2026-03-24T16:45:24.999Z</time></trkpt><trkpt lat="43.155403405508736" lon="12.189949990455242"><ele>285.0</ele><time>2026-03-24T16:45:25.999Z</time></trkpt><trkpt lat="43.15537982795168" lon="12.189806519714576"><ele>285.0</ele><time>2026-03-24T16:45:26.999Z</time></trkpt><trkpt lat="43.15533695965541" lon="12.189664163259275"><ele>285.0</ele><time>2026-03-24T16:45:27.999Z</time></trkpt><trkpt lat="43.15529098785585" lon="12.189503205288043"><ele>283.75</ele><time>2026-03-24T16:45:28.999Z</time></trkpt><trkpt lat="43.155226528161194" lon="12.189348611909207"><ele>282.5</ele><time>2026-03-24T16:45:29.999Z</time></trkpt><trkpt lat="43.155163476970145" lon="12.189188894911627"><ele>281.25</ele><time>2026-03-24T16:45:30.999Z</time></trkpt><trkpt lat="43.15510621777067" lon="12.189031767374168"><ele>280.0</ele><time>2026-03-24T16:45:31.999Z</time></trkpt><trkpt lat="43.15503825647664" lon="12.188888832644858"><ele>279.2</ele><time>2026-03-24T16:45:32.999Z</time></trkpt><trkpt lat="43.154988621773605" lon="12.188749171712033"><ele>278.4</ele><time>2026-03-24T16:45:33.999Z</time></trkpt><trkpt lat="43.15496555760617" lon="12.188615660916424"><ele>277.6</ele><time>2026-03-24T16:45:34.999Z</time></trkpt><trkpt lat="43.15494861036425" lon="12.188485868072744"><ele>276.8</ele><time>2026-03-24T16:45:35.999Z</time></trkpt><trkpt lat="43.15494101470233" lon="12.188325863905856"><ele>276.0</ele><time>2026-03-24T16:45:36.999Z</time></trkpt><trkpt lat="43.15493808626783" lon="12.18817106382071"><ele>274.6</ele><time>2026-03-24T16:45:37.999Z</time></trkpt><trkpt lat="43.15489010452363" lon="12.188043886767822"><ele>273.20000000000005</ele><time>2026-03-24T16:45:38.999Z</time></trkpt><trkpt lat="43.154821579621085" lon="12.187933823978469"><ele>271.79999999999995</ele><time>2026-03-24T16:45:39.999Z</time></trkpt><trkpt lat="43.15475314359004" lon="12.187819491600262"><ele>270.4</ele><time>2026-03-24T16:45:40.999Z</time></trkpt><trkpt lat="43.15468134730727" lon="12.1877229886785"><ele>269.0</ele><time>2026-03-24T16:45:41.999Z</time></trkpt><trkpt lat="43.15461326593518" lon="12.187652519570094"><ele>272.5</ele><time>2026-03-24T16:45:42.999Z</time></trkpt><trkpt lat="43.15456413011748" lon="12.187585857075153"><ele>276.0</ele><time>2026-03-24T16:45:43.999Z</time></trkpt><trkpt lat="43.154444667495994" lon="12.187517866232094"><ele>279.5</ele><time>2026-03-24T16:45:45.999Z</time></trkpt><trkpt lat="43.15438301042079" lon="12.187497707541011"><ele>283.0</ele><time>2026-03-24T16:45:46.999Z</time></trkpt><trkpt lat="43.154325823408186" lon="12.18800517673948"><ele>283.0</ele><time>2026-03-24T16:45:48.999Z</time></trkpt><trkpt lat="43.154287448499524" lon="12.188110062733164"><ele>283.0</ele><time>2026-03-24T16:45:49.999Z</time></trkpt><trkpt lat="43.15420565610565" lon="12.188178278288659"><ele>283.0</ele><time>2026-03-24T16:45:50.999Z</time></trkpt><trkpt lat="43.154118453339606" lon="12.188210361308123"><ele>283.0</ele><time>2026-03-24T16:45:51.999Z</time></trkpt><trkpt lat="43.15404148631043" lon="12.188239625433019"><ele>283.0</ele><time>2026-03-24T16:45:52.999Z</time></trkpt><trkpt lat="43.15397574735932" lon="12.188308517261957"><ele>283.0</ele><time>2026-03-24T16:45:53.999Z</time></trkpt><trkpt lat="43.153916737734875" lon="12.188426567642123"><ele>286.4</ele><time>2026-03-24T16:45:54.999Z</time></trkpt><trkpt lat="43.15385687092181" lon="12.188525399245359"><ele>289.8</ele><time>2026-03-24T16:45:55.999Z</time></trkpt><trkpt lat="43.15379538116889" lon="12.18857801264198"><ele>293.2</ele><time>2026-03-24T16:45:56.999Z</time></trkpt><trkpt lat="43.153705832022965" lon="12.188610765873372"><ele>296.6</ele><time>2026-03-24T16:45:57.999Z</time></trkpt><trkpt lat="43.15361237902479" lon="12.188680947734117"><ele>300.0</ele><time>2026-03-24T16:45:58.999Z</time></trkpt><trkpt lat="43.15352008997037" lon="12.188777683380511"><ele>300.0</ele><time>2026-03-24T16:45:59.999Z</time></trkpt><trkpt lat="43.153423963118016" lon="12.188876930664422"><ele>300.0</ele><time>2026-03-24T16:46:00.999Z</time></trkpt><trkpt lat="43.153312519167855" lon="12.188919933439202"><ele>300.0</ele><time>2026-03-24T16:46:01.999Z</time></trkpt><trkpt lat="43.15320316590951" lon="12.188968963663404"><ele>300.0</ele><time>2026-03-24T16:46:02.999Z</time></trkpt><trkpt lat="43.153138418162726" lon="12.18899114863929"><ele>300.0</ele><time>2026-03-24T16:46:03.999Z</time></trkpt><trkpt lat="43.15311969665052" lon="12.189087813124255"><ele>302.1666666666667</ele><time>2026-03-24T16:46:06.999Z</time></trkpt><trkpt lat="43.15314643263191" lon="12.189173098751136"><ele>304.3333333333333</ele><time>2026-03-24T16:46:07.999Z</time></trkpt><trkpt lat="43.15317293080755" lon="12.189272134894264"><ele>306.5</ele><time>2026-03-24T16:46:08.999Z</time></trkpt><trkpt lat="43.15318306364821" lon="12.189369258629645"><ele>308.66666666666663</ele><time>2026-03-24T16:46:09.999Z</time></trkpt><trkpt lat="43.15319745436246" lon="12.189460833478911"><ele>310.8333333333333</ele><time>2026-03-24T16:46:10.999Z</time></trkpt><trkpt lat="43.153233536062515" lon="12.189544657400303"><ele>313.0</ele><time>2026-03-24T16:46:11.999Z</time></trkpt><trkpt lat="43.15331091656393" lon="12.18962260158863"><ele>313.0</ele><time>2026-03-24T16:46:12.999Z</time></trkpt><trkpt lat="43.15333730737511" lon="12.18972854331383"><ele>313.0</ele><time>2026-03-24T16:46:13.999Z</time></trkpt><trkpt lat="43.15334300229084" lon="12.189842975278452"><ele>313.0</ele><time>2026-03-24T16:46:14.999Z</time></trkpt><trkpt lat="43.153327042882346" lon="12.189938629207372"><ele>313.0</ele><time>2026-03-24T16:46:16.999Z</time></trkpt><trkpt lat="43.153221223662285" lon="12.189987711890877"><ele>313.0</ele><time>2026-03-24T16:46:18.999Z</time></trkpt><trkpt lat="43.15314183110536" lon="12.189958331784483"><ele>313.0</ele><time>2026-03-24T16:46:20.999Z</time></trkpt><trkpt lat="43.15304520851879" lon="12.189902127005817"><ele>317.2</ele><time>2026-03-24T16:46:22.999Z</time></trkpt><trkpt lat="43.15294868552243" lon="12.18993025158135"><ele>321.4</ele><time>2026-03-24T16:46:27.999Z</time></trkpt><trkpt lat="43.152804226792504" lon="12.189950540592452"><ele>325.59999999999997</ele><time>2026-03-24T16:46:29.998Z</time></trkpt><trkpt lat="43.152704737801834" lon="12.189982651056189"><ele>329.8</ele><time>2026-03-24T16:46:30.998Z</time></trkpt><trkpt lat="43.15261965928051" lon="12.189989337042695"><ele>334.0</ele><time>2026-03-24T16:46:31.998Z</time></trkpt><trkpt lat="43.15254801752509" lon="12.189990927996702"><ele>334.0</ele><time>2026-03-24T16:46:32.998Z</time></trkpt><trkpt lat="43.15247132091544" lon="12.19003424194915"><ele>334.0</ele><time>2026-03-24T16:46:33.998Z</time></trkpt><trkpt lat="43.152375414137666" lon="12.19012508401735"><ele>334.0</ele><time>2026-03-24T16:46:34.998Z</time></trkpt><trkpt lat="43.15228737593209" lon="12.190195639241024"><ele>334.0</ele><time>2026-03-24T16:46:35.998Z</time></trkpt><trkpt lat="43.15218177521915" lon="12.190228867436295"><ele>334.0</ele><time>2026-03-24T16:46:36.998Z</time></trkpt><trkpt lat="43.15206827562049" lon="12.190233935688124"><ele>336.4</ele><time>2026-03-24T16:46:37.998Z</time></trkpt><trkpt lat="43.15197041962211" lon="12.190218695365907"><ele>338.79999999999995</ele><time>2026-03-24T16:46:38.998Z</time></trkpt><trkpt lat="43.15188650561309" lon="12.190181472430389"><ele>341.20000000000005</ele><time>2026-03-24T16:46:39.998Z</time></trkpt><trkpt lat="43.1517827715453" lon="12.190104618739838"><ele>343.6</ele><time>2026-03-24T16:46:41Z</time></trkpt><trkpt lat="43.15167755962786" lon="12.190042543334105"><ele>346.0</ele><time>2026-03-24T16:46:42Z</time></trkpt><trkpt lat="43.1515929086398" lon="12.189994771384228"><ele>347.4</ele><time>2026-03-24T16:46:43Z</time></trkpt><trkpt lat="43.151513973274476" lon="12.189970002016729"><ele>348.8</ele><time>2026-03-24T16:46:44Z</time></trkpt><trkpt lat="43.15142067010901" lon="12.189977532433199"><ele>350.2</ele><time>2026-03-24T16:46:45Z</time></trkpt><trkpt lat="43.15131880196632" lon="12.190013042198041"><ele>351.59999999999997</ele><time>2026-03-24T16:46:46Z</time></trkpt><trkpt lat="43.15121490740868" lon="12.190079407666488"><ele>353.0</ele><time>2026-03-24T16:46:47Z</time></trkpt><trkpt lat="43.151131608163" lon="12.190146004377144"><ele>353.0</ele><time>2026-03-24T16:46:48Z</time></trkpt><trkpt lat="43.151071647542146" lon="12.190205727229639"><ele>353.0</ele><time>2026-03-24T16:46:49Z</time></trkpt><trkpt lat="43.15102024665897" lon="12.190271199792694"><ele>353.0</ele><time>2026-03-24T16:46:50Z</time></trkpt><trkpt lat="43.150918040406054" lon="12.190334802464474"><ele>353.0</ele><time>2026-03-24T16:46:52Z</time></trkpt><trkpt lat="43.15083767302919" lon="12.190312367413373"><ele>353.0</ele><time>2026-03-24T16:46:53Z</time></trkpt><trkpt lat="43.150757258805676" lon="12.190216958955558"><ele>353.0</ele><time>2026-03-24T16:46:54Z</time></trkpt><trkpt lat="43.1506709052289" lon="12.190099337270446"><ele>355.2</ele><time>2026-03-24T16:46:55Z</time></trkpt><trkpt lat="43.15057666890467" lon="12.189968713937777"><ele>357.4</ele><time>2026-03-24T16:46:56Z</time></trkpt><trkpt lat="43.15049864817581" lon="12.189891524944352"><ele>359.59999999999997</ele><time>2026-03-24T16:46:57Z</time></trkpt><trkpt lat="43.15043462281176" lon="12.189846714806693"><ele>361.79999999999995</ele><time>2026-03-24T16:46:58Z</time></trkpt><trkpt lat="43.15033604976349" lon="12.189875815095332"><ele>364.0</ele><time>2026-03-24T16:46:59Z</time></trkpt><trkpt lat="43.15022864225174" lon="12.189901422904752"><ele>364.0</ele><time>2026-03-24T16:47:00Z</time></trkpt><trkpt lat="43.150111746998284" lon="12.189938823606953"><ele>364.0</ele><time>2026-03-24T16:47:01Z</time></trkpt><trkpt lat="43.15001542776214" lon="12.189955212457294"><ele>364.0</ele><time>2026-03-24T16:47:02Z</time></trkpt><trkpt lat="43.14993136969217" lon="12.189963944419805"><ele>364.0</ele><time>2026-03-24T16:47:03Z</time></trkpt><trkpt lat="43.149867097780266" lon="12.189981250546088"><ele>364.0</ele><time>2026-03-24T16:47:04Z</time></trkpt><trkpt lat="43.14974987224033" lon="12.190041674837282"><ele>365.16666666666663</ele><time>2026-03-24T16:47:06Z</time></trkpt><trkpt lat="43.14967023869645" lon="12.190092428800416"><ele>366.3333333333333</ele><time>2026-03-24T16:47:07Z</time></trkpt><trkpt lat="43.14961050728719" lon="12.1901719794657"><ele>367.5</ele><time>2026-03-24T16:47:08Z</time></trkpt><trkpt lat="43.149538343409006" lon="12.190222971049302"><ele>368.6666666666667</ele><time>2026-03-24T16:47:09Z</time></trkpt><trkpt lat="43.14947782730305" lon="12.190247454932665"><ele>369.83333333333337</ele><time>2026-03-24T16:47:13Z</time></trkpt><trkpt lat="43.14941244588332" lon="12.190227298179268"><ele>371.0</ele><time>2026-03-24T16:47:15Z</time></trkpt><trkpt lat="43.14942473223093" lon="12.190021780391081"><ele>371.0</ele><time>2026-03-24T16:47:16Z</time></trkpt><trkpt lat="43.14941352520585" lon="12.189931177817412"><ele>371.0</ele><time>2026-03-24T16:47:17Z</time></trkpt><trkpt lat="43.14925783005152" lon="12.189909638925325"><ele>371.0</ele><time>2026-03-24T16:47:18Z</time></trkpt><trkpt lat="43.14913603743882" lon="12.189859048058548"><ele>371.0</ele><time>2026-03-24T16:47:19Z</time></trkpt><trkpt lat="43.14899407129649" lon="12.189813760363645"><ele>373.5</ele><time>2026-03-24T16:47:20Z</time></trkpt><trkpt lat="43.148839327248716" lon="12.189759470614995"><ele>376.0</ele><time>2026-03-24T16:47:21Z</time></trkpt><trkpt lat="43.14871165987136" lon="12.189703795359078"><ele>378.5</ele><time>2026-03-24T16:47:22Z</time></trkpt><trkpt lat="43.148597812211" lon="12.1896475375256"><ele>381.0</ele><time>2026-03-24T16:47:22.999Z</time></trkpt><trkpt lat="43.148494132576936" lon="12.189592106006458"><ele>381.0</ele><time>2026-03-24T16:47:23.999Z</time></trkpt><trkpt lat="43.14840737625788" lon="12.18954989739283"><ele>381.0</ele><time>2026-03-24T16:47:24.999Z</time></trkpt><trkpt lat="43.14832285614832" lon="12.189513355456931"><ele>381.0</ele><time>2026-03-24T16:47:25.999Z</time></trkpt><trkpt lat="43.148241328705765" lon="12.189485676574481"><ele>381.0</ele><time>2026-03-24T16:47:26.999Z</time></trkpt><trkpt lat="43.14814466362564" lon="12.189460638355495"><ele>381.0</ele><time>2026-03-24T16:47:27.999Z</time></trkpt><trkpt lat="43.14801055385654" lon="12.189431805905855"><ele>378.25</ele><time>2026-03-24T16:47:28.999Z</time></trkpt><trkpt lat="43.147862348123205" lon="12.189403913944389"><ele>375.5</ele><time>2026-03-24T16:47:29.999Z</time></trkpt><trkpt lat="43.147719736702385" lon="12.189381038784978"><ele>372.75</ele><time>2026-03-24T16:47:30.999Z</time></trkpt><trkpt lat="43.14759530957774" lon="12.189367811629111"><ele>370.0</ele><time>2026-03-24T16:47:31.999Z</time></trkpt><trkpt lat="43.147479878131215" lon="12.189354491937674"><ele>367.6</ele><time>2026-03-24T16:47:32.999Z</time></trkpt><trkpt lat="43.147367353723574" lon="12.189333676314396"><ele>365.2</ele><time>2026-03-24T16:47:33.999Z</time></trkpt><trkpt lat="43.14726347419059" lon="12.189332703208786"><ele>362.79999999999995</ele><time>2026-03-24T16:47:34.999Z</time></trkpt><trkpt lat="43.14717176621605" lon="12.189288968595838"><ele>360.4</ele><time>2026-03-24T16:47:35.999Z</time></trkpt><trkpt lat="43.14708656853461" lon="12.18927833290541"><ele>358.0</ele><time>2026-03-24T16:47:36.999Z</time></trkpt><trkpt lat="43.14700813494466" lon="12.189278796421961"><ele>358.0</ele><time>2026-03-24T16:47:37.999Z</time></trkpt><trkpt lat="43.14693264059201" lon="12.189307154034758"><ele>358.0</ele><time>2026-03-24T16:47:38.999Z</time></trkpt><trkpt lat="43.14685336111777" lon="12.189305830406159"><ele>358.0</ele><time>2026-03-24T16:47:39.999Z</time></trkpt><trkpt lat="43.14677041386564" lon="12.189329223620641"><ele>358.0</ele><time>2026-03-24T16:47:40.999Z</time></trkpt><trkpt lat="43.14670846627607" lon="12.189373075041056"><ele>358.0</ele><time>2026-03-24T16:47:41.999Z</time></trkpt><trkpt lat="43.146646040179895" lon="12.18938855931976"><ele>358.0</ele><time>2026-03-24T16:47:42.999Z</time></trkpt><trkpt lat="43.14655202943241" lon="12.18941924741184"><ele>357.16666666666663</ele><time>2026-03-24T16:47:44.999Z</time></trkpt><trkpt lat="43.14647492529638" lon="12.189299262561688"><ele>356.3333333333333</ele><time>2026-03-24T16:47:46.999Z</time></trkpt><trkpt lat="43.14644529384961" lon="12.189203357639109"><ele>355.5</ele><time>2026-03-24T16:47:47.999Z</time></trkpt><trkpt lat="43.14639956846043" lon="12.18910674907355"><ele>354.6666666666667</ele><time>2026-03-24T16:47:48.999Z</time></trkpt><trkpt lat="43.146355200582846" lon="12.189032669200653"><ele>353.83333333333337</ele><time>2026-03-24T16:47:49.999Z</time></trkpt><trkpt lat="43.146309009112784" lon="12.188967420201815"><ele>353.0</ele><time>2026-03-24T16:47:50.999Z</time></trkpt><trkpt lat="43.14624140901967" lon="12.188847524232779"><ele>353.0</ele><time>2026-03-24T16:47:52.999Z</time></trkpt><trkpt lat="43.14618541466607" lon="12.18875643014481"><ele>353.0</ele><time>2026-03-24T16:47:54.999Z</time></trkpt><trkpt lat="43.14611151386286" lon="12.188596231129557"><ele>353.0</ele><time>2026-03-24T16:47:56.999Z</time></trkpt><trkpt lat="43.146051479275364" lon="12.188536425275982"><ele>353.0</ele><time>2026-03-24T16:47:57.999Z</time></trkpt><trkpt lat="43.14597029496323" lon="12.188416478147559"><ele>353.0</ele><time>2026-03-24T16:47:59.999Z</time></trkpt><trkpt lat="43.145915210114225" lon="12.188339088060008"><ele>353.0</ele><time>2026-03-24T16:48:00.999Z</time></trkpt><trkpt lat="43.145843771906115" lon="12.188269327654579"><ele>353.0</ele><time>2026-03-24T16:48:01.999Z</time></trkpt><trkpt lat="43.14578710602438" lon="12.188164691046037"><ele>353.0</ele><time>2026-03-24T16:48:02.999Z</time></trkpt><trkpt lat="43.14573108069774" lon="12.18808979956424"><ele>353.0</ele><time>2026-03-24T16:48:03.999Z</time></trkpt><trkpt lat="43.145647199516596" lon="12.187980555754814"><ele>353.0</ele><time>2026-03-24T16:48:05.999Z</time></trkpt><trkpt lat="43.14560103828817" lon="12.187921794089915"><ele>353.0</ele><time>2026-03-24T16:48:06.999Z</time></trkpt><trkpt lat="43.145517684806244" lon="12.18782479027022"><ele>354.0</ele><time>2026-03-24T16:48:08.999Z</time></trkpt><trkpt lat="43.145455228759054" lon="12.187763588968958"><ele>355.0</ele><time>2026-03-24T16:48:09.999Z</time></trkpt><trkpt lat="43.145385929570686" lon="12.18769768572473"><ele>356.0</ele><time>2026-03-24T16:48:10.999Z</time></trkpt><trkpt lat="43.14530857317898" lon="12.187638270854203"><ele>357.0</ele><time>2026-03-24T16:48:11.999Z</time></trkpt><trkpt lat="43.14522047381067" lon="12.187609658985714"><ele>358.0</ele><time>2026-03-24T16:48:12.999Z</time></trkpt><trkpt lat="43.145141172806326" lon="12.187570741737655"><ele>359.0</ele><time>2026-03-24T16:48:13.999Z</time></trkpt><trkpt lat="43.145062378374504" lon="12.187547526787947"><ele>359.0</ele><time>2026-03-24T16:48:14.999Z</time></trkpt><trkpt lat="43.144989474737216" lon="12.187559199279406"><ele>359.0</ele><time>2026-03-24T16:48:15.999Z</time></trkpt><trkpt lat="43.14490525809169" lon="12.18759091109192"><ele>359.0</ele><time>2026-03-24T16:48:16.999Z</time></trkpt><trkpt lat="43.14479318361438" lon="12.187639738778016"><ele>359.0</ele><time>2026-03-24T16:48:17.999Z</time></trkpt><trkpt lat="43.14469483751292" lon="12.187696227541581"><ele>359.0</ele><time>2026-03-24T16:48:18.999Z</time></trkpt><trkpt lat="43.144611349288155" lon="12.187722532251716"><ele>357.5</ele><time>2026-03-24T16:48:19.999Z</time></trkpt><trkpt lat="43.14454407775122" lon="12.187739574851593"><ele>356.0</ele><time>2026-03-24T16:48:20.999Z</time></trkpt><trkpt lat="43.144409424824346" lon="12.187741006109723"><ele>354.5</ele><time>2026-03-24T16:48:22.999Z</time></trkpt><trkpt lat="43.14432985621298" lon="12.187737037233436"><ele>353.0</ele><time>2026-03-24T16:48:24.999Z</time></trkpt><trkpt lat="43.14434377488212" lon="12.18742327398347"><ele>354.75</ele><time>2026-03-24T16:48:26.999Z</time></trkpt><trkpt lat="43.144350656853824" lon="12.187227076514056"><ele>356.5</ele><time>2026-03-24T16:48:27.999Z</time></trkpt><trkpt lat="43.144343105305644" lon="12.187008056653676"><ele>358.25</ele><time>2026-03-24T16:48:28.999Z</time></trkpt><trkpt lat="43.144344257932566" lon="12.186838269164411"><ele>360.0</ele><time>2026-03-24T16:48:29.999Z</time></trkpt><trkpt lat="43.144345166042676" lon="12.186691306500272"><ele>360.0</ele><time>2026-03-24T16:48:30.999Z</time></trkpt><trkpt lat="43.1443341443068" lon="12.186575046959943"><ele>360.0</ele><time>2026-03-24T16:48:31.999Z</time></trkpt><trkpt lat="43.14432794338821" lon="12.18645429260119"><ele>360.0</ele><time>2026-03-24T16:48:33.998Z</time></trkpt><trkpt lat="43.14426134159905" lon="12.186444377543575"><ele>360.0</ele><time>2026-03-24T16:48:35.998Z</time></trkpt><trkpt lat="43.14424976953378" lon="12.186349304753973"><ele>360.0</ele><time>2026-03-24T16:48:38.998Z</time></trkpt><trkpt lat="43.144292008166325" lon="12.186269659357738"><ele>360.0</ele><time>2026-03-24T16:48:39.998Z</time></trkpt><trkpt lat="43.14434849474697" lon="12.186194186170944"><ele>362.0</ele><time>2026-03-24T16:48:40.998Z</time></trkpt><trkpt lat="43.14436642254032" lon="12.186021293436562"><ele>364.0</ele><time>2026-03-24T16:48:42.998Z</time></trkpt><trkpt lat="43.14436282702538" lon="12.185907641619663"><ele>366.0</ele><time>2026-03-24T16:48:43.998Z</time></trkpt><trkpt lat="43.14435323167099" lon="12.185778554669588"><ele>368.0</ele><time>2026-03-24T16:48:44.998Z</time></trkpt><trkpt lat="43.144325002691524" lon="12.185660971903655"><ele>370.0</ele><time>2026-03-24T16:48:46Z</time></trkpt><trkpt lat="43.14428719580006" lon="12.18553779878954"><ele>372.16666666666663</ele><time>2026-03-24T16:48:47Z</time></trkpt><trkpt lat="43.14425911186584" lon="12.185436204707734"><ele>374.3333333333333</ele><time>2026-03-24T16:48:48Z</time></trkpt><trkpt lat="43.14423352273705" lon="12.185344621508303"><ele>376.5</ele><time>2026-03-24T16:48:49Z</time></trkpt><trkpt lat="43.14420809973742" lon="12.18525751419427"><ele>378.6666666666667</ele><time>2026-03-24T16:48:50Z</time></trkpt><trkpt lat="43.144177791213664" lon="12.185161086342992"><ele>380.83333333333337</ele><time>2026-03-24T16:48:51Z</time></trkpt><trkpt lat="43.144126462494285" lon="12.185073558289204"><ele>383.0</ele><time>2026-03-24T16:48:52Z</time></trkpt><trkpt lat="43.144114167027624" lon="12.184959433031079"><ele>383.0</ele><time>2026-03-24T16:48:53Z</time></trkpt><trkpt lat="43.14410188549105" lon="12.184847662555427"><ele>383.0</ele><time>2026-03-24T16:48:54Z</time></trkpt><trkpt lat="43.144082641434295" lon="12.184697650508861"><ele>383.0</ele><time>2026-03-24T16:48:56Z</time></trkpt><trkpt lat="43.14405326312531" lon="12.184535105688125"><ele>383.0</ele><time>2026-03-24T16:48:58Z</time></trkpt><trkpt lat="43.14401389456396" lon="12.184462937793539"><ele>383.0</ele><time>2026-03-24T16:48:59Z</time></trkpt><trkpt lat="43.143943229499584" lon="12.18432027679656"><ele>383.79999999999995</ele><time>2026-03-24T16:49:01Z</time></trkpt><trkpt lat="43.1438951045485" lon="12.184243096627362"><ele>384.6</ele><time>2026-03-24T16:49:02Z</time></trkpt><trkpt lat="43.143847937921976" lon="12.184164862030666"><ele>385.4</ele><time>2026-03-24T16:49:03Z</time></trkpt><trkpt lat="43.14377454553476" lon="12.184075238714687"><ele>386.20000000000005</ele><time>2026-03-24T16:49:05Z</time></trkpt><trkpt lat="43.14369193967415" lon="12.183974705575752"><ele>387.0</ele><time>2026-03-24T16:49:07Z</time></trkpt><trkpt lat="43.143605821586576" lon="12.183862668694529"><ele>389.8333333333333</ele><time>2026-03-24T16:49:09Z</time></trkpt><trkpt lat="43.14352472739047" lon="12.183775621757956"><ele>392.66666666666663</ele><time>2026-03-24T16:49:11Z</time></trkpt><trkpt lat="43.1434776153527" lon="12.183714771741737"><ele>395.5</ele><time>2026-03-24T16:49:12Z</time></trkpt><trkpt lat="43.14342110031838" lon="12.183649661680652"><ele>398.3333333333333</ele><time>2026-03-24T16:49:13Z</time></trkpt><trkpt lat="43.14336550300539" lon="12.183578374593196"><ele>401.16666666666663</ele><time>2026-03-24T16:49:14Z</time></trkpt><trkpt lat="43.14329784407029" lon="12.183504216833473"><ele>404.0</ele><time>2026-03-24T16:49:15Z</time></trkpt><trkpt lat="43.143244900316425" lon="12.18343695196746"><ele>402.79999999999995</ele><time>2026-03-24T16:49:16Z</time></trkpt><trkpt lat="43.14315809764339" lon="12.183342168190014"><ele>401.59999999999997</ele><time>2026-03-24T16:49:18Z</time></trkpt><trkpt lat="43.14309211266487" lon="12.183291312358639"><ele>400.4</ele><time>2026-03-24T16:49:19Z</time></trkpt><trkpt lat="43.14301261554484" lon="12.183258660084428"><ele>399.2</ele><time>2026-03-24T16:49:20Z</time></trkpt><trkpt lat="43.142917208578346" lon="12.183205926072498"><ele>398.0</ele><time>2026-03-24T16:49:21Z</time></trkpt><trkpt lat="43.14283773130836" lon="12.183170429410184"><ele>400.4</ele><time>2026-03-24T16:49:22Z</time></trkpt><trkpt lat="43.14275369654007" lon="12.18314730716577"><ele>402.79999999999995</ele><time>2026-03-24T16:49:22.999Z</time></trkpt><trkpt lat="43.14265584125507" lon="12.18311720290961"><ele>405.2</ele><time>2026-03-24T16:49:23.999Z</time></trkpt><trkpt lat="43.14254984927441" lon="12.183075247167263"><ele>407.6</ele><time>2026-03-24T16:49:24.999Z</time></trkpt><trkpt lat="43.14244169710558" lon="12.183041641163753"><ele>410.0</ele><time>2026-03-24T16:49:25.999Z</time></trkpt><trkpt lat="43.142369923678736" lon="12.183009725626873"><ele>410.0</ele><time>2026-03-24T16:49:26.999Z</time></trkpt><trkpt lat="43.14225173365976" lon="12.182952687672921"><ele>410.0</ele><time>2026-03-24T16:49:28.999Z</time></trkpt><trkpt lat="43.14218213761535" lon="12.182903487833311"><ele>410.0</ele><time>2026-03-24T16:49:29.999Z</time></trkpt><trkpt lat="43.142078221229525" lon="12.1828418429663"><ele>410.0</ele><time>2026-03-24T16:49:31.999Z</time></trkpt><trkpt lat="43.141982957477694" lon="12.182780798209558"><ele>410.0</ele><time>2026-03-24T16:49:33.999Z</time></trkpt><trkpt lat="43.141882194366254" lon="12.182722523034911"><ele>409.99999999999994</ele><time>2026-03-24T16:49:35.999Z</time></trkpt><trkpt lat="43.14181882632767" lon="12.182704628488949"><ele>410.0</ele><time>2026-03-24T16:49:36.999Z</time></trkpt><trkpt lat="43.14175254049178" lon="12.182683456376678"><ele>410.0</ele><time>2026-03-24T16:49:39.999Z</time></trkpt><trkpt lat="43.14166831479409" lon="12.18268057564383"><ele>410.0</ele><time>2026-03-24T16:49:45.999Z</time></trkpt><trkpt lat="43.141597967961424" lon="12.182673996857302"><ele>409.99999999999994</ele><time>2026-03-24T16:49:52.999Z</time></trkpt><trkpt lat="43.14149306752527" lon="12.182639307517574"><ele>410.0</ele><time>2026-03-24T16:49:54.999Z</time></trkpt><trkpt lat="43.141402187701615" lon="12.182657459046727"><ele>410.4</ele><time>2026-03-24T16:49:56.999Z</time></trkpt><trkpt lat="43.14126090429774" lon="12.182706773642883"><ele>410.8</ele><time>2026-03-24T16:49:58.999Z</time></trkpt><trkpt lat="43.14117061901411" lon="12.182747964825689"><ele>411.20000000000005</ele><time>2026-03-24T16:49:59.999Z</time></trkpt><trkpt lat="43.14107768742984" lon="12.182771786446555"><ele>411.6</ele><time>2026-03-24T16:50:00.999Z</time></trkpt><trkpt lat="43.14101356096925" lon="12.182789770697788"><ele>412.0</ele><time>2026-03-24T16:50:01.999Z</time></trkpt><trkpt lat="43.14091303716234" lon="12.18279024625051"><ele>412.0</ele><time>2026-03-24T16:50:03.999Z</time></trkpt><trkpt lat="43.140750555601656" lon="12.182842388599763"><ele>412.0</ele><time>2026-03-24T16:50:05.999Z</time></trkpt><trkpt lat="43.140651373066596" lon="12.182880058691872"><ele>412.0</ele><time>2026-03-24T16:50:06.999Z</time></trkpt><trkpt lat="43.140573088579885" lon="12.182911325170092"><ele>412.0</ele><time>2026-03-24T16:50:07.999Z</time></trkpt><trkpt lat="43.14049977544649" lon="12.18293872614154"><ele>412.0</ele><time>2026-03-24T16:50:08.999Z</time></trkpt><trkpt lat="43.14042221760814" lon="12.182965416596325"><ele>412.40000000000003</ele><time>2026-03-24T16:50:09.999Z</time></trkpt><trkpt lat="43.140352012373754" lon="12.182985891081533"><ele>412.8</ele><time>2026-03-24T16:50:10.999Z</time></trkpt><trkpt lat="43.140266709181404" lon="12.183007722630608"><ele>413.2</ele><time>2026-03-24T16:50:11.999Z</time></trkpt><trkpt lat="43.140167248393595" lon="12.183020490504719"><ele>413.6</ele><time>2026-03-24T16:50:12.999Z</time></trkpt><trkpt lat="43.140065023644944" lon="12.183025455447165"><ele>414.0</ele><time>2026-03-24T16:50:13.999Z</time></trkpt><trkpt lat="43.139956354260825" lon="12.183021250527238"><ele>414.4</ele><time>2026-03-24T16:50:14.999Z</time></trkpt><trkpt lat="43.13985794627062" lon="12.183011587589487"><ele>414.79999999999995</ele><time>2026-03-24T16:50:15.999Z</time></trkpt><trkpt lat="43.13976444596628" lon="12.183019156086079"><ele>415.20000000000005</ele><time>2026-03-24T16:50:16.999Z</time></trkpt><trkpt lat="43.13967062138379" lon="12.183041871443512"><ele>415.6</ele><time>2026-03-24T16:50:17.999Z</time></trkpt><trkpt lat="43.139572914655" lon="12.18307091242945"><ele>416.0</ele><time>2026-03-24T16:50:18.999Z</time></trkpt><trkpt lat="43.13946077800274" lon="12.18308422386801"><ele>416.0</ele><time>2026-03-24T16:50:19.999Z</time></trkpt><trkpt lat="43.13933649860633" lon="12.183078298409212"><ele>416.0</ele><time>2026-03-24T16:50:20.999Z</time></trkpt><trkpt lat="43.13919238413298" lon="12.183088087827334"><ele>416.0</ele><time>2026-03-24T16:50:21.999Z</time></trkpt><trkpt lat="43.139074991979825" lon="12.183122624697097"><ele>416.0</ele><time>2026-03-24T16:50:22.999Z</time></trkpt><trkpt lat="43.13895418145336" lon="12.183151158880095"><ele>415.66666666666663</ele><time>2026-03-24T16:50:23.999Z</time></trkpt><trkpt lat="43.13884940981595" lon="12.1831519770022"><ele>415.3333333333333</ele><time>2026-03-24T16:50:24.999Z</time></trkpt><trkpt lat="43.13875239169988" lon="12.183138546284667"><ele>415.0</ele><time>2026-03-24T16:50:25.999Z</time></trkpt><trkpt lat="43.13866596442768" lon="12.18313025272586"><ele>414.66666666666663</ele><time>2026-03-24T16:50:26.999Z</time></trkpt><trkpt lat="43.13858557618031" lon="12.1831293311868"><ele>414.3333333333333</ele><time>2026-03-24T16:50:27.999Z</time></trkpt><trkpt lat="43.1385120194526" lon="12.183116087510637"><ele>414.0</ele><time>2026-03-24T16:50:28.999Z</time></trkpt><trkpt lat="43.13839927951565" lon="12.183096962406522"><ele>414.0</ele><time>2026-03-24T16:50:30.999Z</time></trkpt><trkpt lat="43.13826679882094" lon="12.183071454100865"><ele>414.0</ele><time>2026-03-24T16:50:32.998Z</time></trkpt><trkpt lat="43.13818062975375" lon="12.183060527398599"><ele>414.0</ele><time>2026-03-24T16:50:33.998Z</time></trkpt><trkpt lat="43.138085241765985" lon="12.183047994495688"><ele>414.0</ele><time>2026-03-24T16:50:34.998Z</time></trkpt><trkpt lat="43.137985482645604" lon="12.183041080340274"><ele>414.0</ele><time>2026-03-24T16:50:35.998Z</time></trkpt><trkpt lat="43.13789398239261" lon="12.183033727928343"><ele>412.6</ele><time>2026-03-24T16:50:36.998Z</time></trkpt><trkpt lat="43.13780549537273" lon="12.183014699084177"><ele>411.2</ele><time>2026-03-24T16:50:37.998Z</time></trkpt><trkpt lat="43.137720036744426" lon="12.182984586836831"><ele>409.8</ele><time>2026-03-24T16:50:38.998Z</time></trkpt><trkpt lat="43.13763207643315" lon="12.182938117213613"><ele>408.40000000000003</ele><time>2026-03-24T16:50:39.998Z</time></trkpt><trkpt lat="43.13755190239525" lon="12.182882861190008"><ele>407.0</ele><time>2026-03-24T16:50:40.998Z</time></trkpt><trkpt lat="43.137469454876026" lon="12.182824629199178"><ele>405.49999999999994</ele><time>2026-03-24T16:50:41.998Z</time></trkpt><trkpt lat="43.13738532220521" lon="12.182775927257792"><ele>404.0</ele><time>2026-03-24T16:50:42.998Z</time></trkpt><trkpt lat="43.13729325942314" lon="12.182748582772751"><ele>402.5</ele><time>2026-03-24T16:50:43.998Z</time></trkpt><trkpt lat="43.13720392318316" lon="12.182734586230938"><ele>401.0</ele><time>2026-03-24T16:50:44.998Z</time></trkpt><trkpt lat="43.13711590075297" lon="12.182734187144277"><ele>399.49999999999994</ele><time>2026-03-24T16:50:45.998Z</time></trkpt><trkpt lat="43.137031952379196" lon="12.182732218947386"><ele>398.0</ele><time>2026-03-24T16:50:46.998Z</time></trkpt><trkpt lat="43.136946127722645" lon="12.182732617947643"><ele>397.99999999999994</ele><time>2026-03-24T16:50:47.998Z</time></trkpt><trkpt lat="43.136859128906615" lon="12.18273223618159"><ele>398.0</ele><time>2026-03-24T16:50:48.998Z</time></trkpt><trkpt lat="43.13677280631049" lon="12.182726759720698"><ele>398.0</ele><time>2026-03-24T16:50:49.998Z</time></trkpt><trkpt lat="43.13668954410539" lon="12.182722236767505"><ele>398.0</ele><time>2026-03-24T16:50:51Z</time></trkpt><trkpt lat="43.13661245571602" lon="12.182716037560118"><ele>397.99999999999994</ele><time>2026-03-24T16:50:52Z</time></trkpt><trkpt lat="43.136540084602004" lon="12.182697686659775"><ele>398.0</ele><time>2026-03-24T16:50:53Z</time></trkpt><trkpt lat="43.136471632754336" lon="12.18267045339885"><ele>397.2857142857143</ele><time>2026-03-24T16:50:54Z</time></trkpt><trkpt lat="43.13640653643262" lon="12.182642749209704"><ele>396.57142857142856</ele><time>2026-03-24T16:50:55Z</time></trkpt><trkpt lat="43.13634399761456" lon="12.18261353889625"><ele>395.8571428571429</ele><time>2026-03-24T16:50:56Z</time></trkpt><trkpt lat="43.136282317747344" lon="12.182587314099045"><ele>395.1428571428571</ele><time>2026-03-24T16:50:57Z</time></trkpt><trkpt lat="43.136216734842655" lon="12.182562344444015"><ele>394.42857142857144</ele><time>2026-03-24T16:50:58Z</time></trkpt><trkpt lat="43.1361516740314" lon="12.182536032244196"><ele>393.7142857142857</ele><time>2026-03-24T16:50:59Z</time></trkpt><trkpt lat="43.13609124962854" lon="12.182511102073926"><ele>393.0</ele><time>2026-03-24T16:51:00Z</time></trkpt><trkpt lat="43.13603044324274" lon="12.18248739662868"><ele>393.0</ele><time>2026-03-24T16:51:01Z</time></trkpt><trkpt lat="43.13591041128944" lon="12.182433230058807"><ele>393.0</ele><time>2026-03-24T16:51:03Z</time></trkpt><trkpt lat="43.13584787396245" lon="12.182400442330414"><ele>393.0</ele><time>2026-03-24T16:51:04Z</time></trkpt><trkpt lat="43.13575691955024" lon="12.182333986535388"><ele>393.0</ele><time>2026-03-24T16:51:06Z</time></trkpt><trkpt lat="43.13566041836068" lon="12.182294600826685"><ele>393.0</ele><time>2026-03-24T16:51:08Z</time></trkpt><trkpt lat="43.1355425710662" lon="12.182180910188203"><ele>392.25</ele><time>2026-03-24T16:51:10Z</time></trkpt><trkpt lat="43.13543143248119" lon="12.182101597430403"><ele>391.5</ele><time>2026-03-24T16:51:11Z</time></trkpt><trkpt lat="43.13532193259216" lon="12.181988933327876"><ele>390.75</ele><time>2026-03-24T16:51:12Z</time></trkpt><trkpt lat="43.13522146298497" lon="12.181868165119623"><ele>390.0</ele><time>2026-03-24T16:51:13Z</time></trkpt><trkpt lat="43.13511312155704" lon="12.181761357587087"><ele>390.0</ele><time>2026-03-24T16:51:14Z</time></trkpt><trkpt lat="43.13499680488202" lon="12.181653215864397"><ele>390.0</ele><time>2026-03-24T16:51:15Z</time></trkpt><trkpt lat="43.134887961331" lon="12.181549848348293"><ele>390.0</ele><time>2026-03-24T16:51:16Z</time></trkpt><trkpt lat="43.13478650406242" lon="12.18144537234416"><ele>390.0</ele><time>2026-03-24T16:51:17Z</time></trkpt><trkpt lat="43.13465395763784" lon="12.18137603781986"><ele>391.0</ele><time>2026-03-24T16:51:18Z</time></trkpt><trkpt lat="43.134514388364636" lon="12.181310695712698"><ele>392.0</ele><time>2026-03-24T16:51:19Z</time></trkpt><trkpt lat="43.13437818344285" lon="12.181214423337824"><ele>393.0</ele><time>2026-03-24T16:51:20Z</time></trkpt><trkpt lat="43.13423237802969" lon="12.181158137098702"><ele>393.0</ele><time>2026-03-24T16:51:21Z</time></trkpt><trkpt lat="43.13410046174642" lon="12.181078460719228"><ele>393.0</ele><time>2026-03-24T16:51:21.999Z</time></trkpt><trkpt lat="43.133961726825305" lon="12.18100775614246"><ele>393.0</ele><time>2026-03-24T16:51:22.999Z</time></trkpt><trkpt lat="43.13381146354813" lon="12.180929733776924"><ele>390.66666666666663</ele><time>2026-03-24T16:51:23.999Z</time></trkpt><trkpt lat="43.13365207186641" lon="12.180853627590892"><ele>388.3333333333333</ele><time>2026-03-24T16:51:24.999Z</time></trkpt><trkpt lat="43.13350950264157" lon="12.180785179474576"><ele>386.0</ele><time>2026-03-24T16:51:25.999Z</time></trkpt><trkpt lat="43.133383105729436" lon="12.180720149162598"><ele>386.0</ele><time>2026-03-24T16:51:26.999Z</time></trkpt><trkpt lat="43.13326119425796" lon="12.18066492349037"><ele>386.0</ele><time>2026-03-24T16:51:27.999Z</time></trkpt><trkpt lat="43.13314420206261" lon="12.180620830675847"><ele>386.0</ele><time>2026-03-24T16:51:28.999Z</time></trkpt><trkpt lat="43.133028454491026" lon="12.180575625516546"><ele>386.0</ele><time>2026-03-24T16:51:29.999Z</time></trkpt><trkpt lat="43.13291508468271" lon="12.180521283667002"><ele>386.0</ele><time>2026-03-24T16:51:30.999Z</time></trkpt><trkpt lat="43.1328065353082" lon="12.180477838944938"><ele>386.0</ele><time>2026-03-24T16:51:31.999Z</time></trkpt><trkpt lat="43.13269461193471" lon="12.18044051014122"><ele>386.0</ele><time>2026-03-24T16:51:32.999Z</time></trkpt><trkpt lat="43.13259280723895" lon="12.180376971070483"><ele>386.0</ele><time>2026-03-24T16:51:33.999Z</time></trkpt><trkpt lat="43.13248378763982" lon="12.180350528414934"><ele>385.4</ele><time>2026-03-24T16:51:34.999Z</time></trkpt><trkpt lat="43.132374970676665" lon="12.18029756153574"><ele>384.8</ele><time>2026-03-24T16:51:35.999Z</time></trkpt><trkpt lat="43.132268012758836" lon="12.180244472627187"><ele>384.2</ele><time>2026-03-24T16:51:36.999Z</time></trkpt><trkpt lat="43.1321697426453" lon="12.180192247840555"><ele>383.59999999999997</ele><time>2026-03-24T16:51:37.999Z</time></trkpt><trkpt lat="43.13206980908019" lon="12.180140012259534"><ele>383.0</ele><time>2026-03-24T16:51:38.999Z</time></trkpt><trkpt lat="43.13196808224284" lon="12.180082787114516"><ele>383.0</ele><time>2026-03-24T16:51:39.999Z</time></trkpt><trkpt lat="43.13186884421768" lon="12.180030981077614"><ele>383.0</ele><time>2026-03-24T16:51:40.999Z</time></trkpt><trkpt lat="43.1317689780212" lon="12.180004740362262"><ele>383.0</ele><time>2026-03-24T16:51:41.999Z</time></trkpt><trkpt lat="43.131678247332886" lon="12.1799620542158"><ele>383.0</ele><time>2026-03-24T16:51:42.999Z</time></trkpt><trkpt lat="43.131594530989794" lon="12.179931608668134"><ele>383.0</ele><time>2026-03-24T16:51:43.999Z</time></trkpt><trkpt lat="43.13152174708927" lon="12.179881895559225"><ele>382.0</ele><time>2026-03-24T16:51:44.999Z</time></trkpt><trkpt lat="43.13146469463417" lon="12.17984170773743"><ele>381.0</ele><time>2026-03-24T16:51:45.999Z</time></trkpt><trkpt lat="43.13138040635296" lon="12.179789921132047"><ele>380.0</ele><time>2026-03-24T16:51:46.999Z</time></trkpt><trkpt lat="43.13129546875549" lon="12.179744589892609"><ele>379.0</ele><time>2026-03-24T16:51:47.999Z</time></trkpt><trkpt lat="43.131222466536606" lon="12.179706850859198"><ele>378.0</ele><time>2026-03-24T16:51:48.999Z</time></trkpt><trkpt lat="43.13116050006534" lon="12.179675618488302"><ele>377.0</ele><time>2026-03-24T16:51:49.999Z</time></trkpt><trkpt lat="43.1310510655138" lon="12.179614681043148"><ele>377.0</ele><time>2026-03-24T16:51:51.999Z</time></trkpt><trkpt lat="43.130988358842146" lon="12.179589827625902"><ele>377.0</ele><time>2026-03-24T16:51:52.999Z</time></trkpt><trkpt lat="43.13092039433525" lon="12.179562890228373"><ele>377.0</ele><time>2026-03-24T16:51:53.999Z</time></trkpt><trkpt lat="43.130841581224836" lon="12.179531653060568"><ele>377.0</ele><time>2026-03-24T16:51:54.999Z</time></trkpt><trkpt lat="43.13074457485012" lon="12.179493205137312"><ele>377.0</ele><time>2026-03-24T16:51:55.999Z</time></trkpt><trkpt lat="43.13063724965291" lon="12.17945210192704"><ele>377.0</ele><time>2026-03-24T16:51:56.999Z</time></trkpt><trkpt lat="43.13052804740586" lon="12.179411445900424"><ele>377.40000000000003</ele><time>2026-03-24T16:51:57.999Z</time></trkpt><trkpt lat="43.13041836819368" lon="12.179370612322755"><ele>377.8</ele><time>2026-03-24T16:51:58.999Z</time></trkpt><trkpt lat="43.13032089712613" lon="12.179331757169043"><ele>378.2</ele><time>2026-03-24T16:51:59.999Z</time></trkpt><trkpt lat="43.13021841720023" lon="12.179310703424951"><ele>378.6</ele><time>2026-03-24T16:52:00.999Z</time></trkpt><trkpt lat="43.130118799034456" lon="12.179262513344042"><ele>379.0</ele><time>2026-03-24T16:52:01.999Z</time></trkpt><trkpt lat="43.13001693794912" lon="12.179203380278175"><ele>379.0</ele><time>2026-03-24T16:52:02.999Z</time></trkpt><trkpt lat="43.129911518585764" lon="12.179152899879714"><ele>379.0</ele><time>2026-03-24T16:52:03.999Z</time></trkpt><trkpt lat="43.129803486826866" lon="12.179117580371022"><ele>379.0</ele><time>2026-03-24T16:52:04.999Z</time></trkpt><trkpt lat="43.12969445557629" lon="12.179070950144064"><ele>379.0</ele><time>2026-03-24T16:52:05.999Z</time></trkpt><trkpt lat="43.129585500580724" lon="12.17900157760353"><ele>377.79999999999995</ele><time>2026-03-24T16:52:06.999Z</time></trkpt><trkpt lat="43.12947581292462" lon="12.178973873166605"><ele>376.59999999999997</ele><time>2026-03-24T16:52:07.999Z</time></trkpt><trkpt lat="43.129378728266715" lon="12.178902993505142"><ele>375.4</ele><time>2026-03-24T16:52:08.999Z</time></trkpt><trkpt lat="43.12928144509399" lon="12.178850003721442"><ele>374.2</ele><time>2026-03-24T16:52:09.999Z</time></trkpt><trkpt lat="43.12919221024355" lon="12.17880012214599"><ele>373.0</ele><time>2026-03-24T16:52:10.999Z</time></trkpt><trkpt lat="43.12910402382435" lon="12.178750826636819"><ele>373.75</ele><time>2026-03-24T16:52:11.999Z</time></trkpt><trkpt lat="43.12899687866663" lon="12.17869272216056"><ele>374.5</ele><time>2026-03-24T16:52:12.999Z</time></trkpt><trkpt lat="43.128887416378944" lon="12.178635295087327"><ele>375.25</ele><time>2026-03-24T16:52:13.999Z</time></trkpt><trkpt lat="43.12877607898907" lon="12.178577822504757"><ele>376.0</ele><time>2026-03-24T16:52:14.999Z</time></trkpt><trkpt lat="43.128656441735146" lon="12.178539934469123"><ele>376.0</ele><time>2026-03-24T16:52:15.999Z</time></trkpt><trkpt lat="43.128547414444185" lon="12.17848319251453"><ele>376.0</ele><time>2026-03-24T16:52:16.999Z</time></trkpt><trkpt lat="43.12844546307963" lon="12.178410285828146"><ele>376.0</ele><time>2026-03-24T16:52:17.999Z</time></trkpt><trkpt lat="43.12833216477636" lon="12.178375796217514"><ele>376.0</ele><time>2026-03-24T16:52:18.999Z</time></trkpt><trkpt lat="43.12823182549515" lon="12.178297787463693"><ele>375.4</ele><time>2026-03-24T16:52:19.999Z</time></trkpt><trkpt lat="43.128147676935214" lon="12.178213882262641"><ele>374.8</ele><time>2026-03-24T16:52:20.999Z</time></trkpt><trkpt lat="43.128065699997315" lon="12.178138302092348"><ele>374.2</ele><time>2026-03-24T16:52:21.999Z</time></trkpt><trkpt lat="43.12798482196962" lon="12.178041854921657"><ele>373.59999999999997</ele><time>2026-03-24T16:52:22.999Z</time></trkpt><trkpt lat="43.12790360403924" lon="12.177943307167686"><ele>373.0</ele><time>2026-03-24T16:52:23.999Z</time></trkpt><trkpt lat="43.12782621875657" lon="12.177842730687557"><ele>373.0</ele><time>2026-03-24T16:52:24.999Z</time></trkpt><trkpt lat="43.12775188776274" lon="12.177759757218153"><ele>373.0</ele><time>2026-03-24T16:52:25.999Z</time></trkpt><trkpt lat="43.12768451863166" lon="12.177679199826635"><ele>373.0</ele><time>2026-03-24T16:52:26.999Z</time></trkpt><trkpt lat="43.127626001946055" lon="12.177591003537733"><ele>373.0</ele><time>2026-03-24T16:52:27.999Z</time></trkpt><trkpt lat="43.12757117834755" lon="12.177511765554241"><ele>373.0</ele><time>2026-03-24T16:52:28.999Z</time></trkpt><trkpt lat="43.12751951328526" lon="12.17744364046443"><ele>373.0</ele><time>2026-03-24T16:52:29.998Z</time></trkpt><trkpt lat="43.1274342052493" lon="12.177342175201458"><ele>373.4</ele><time>2026-03-24T16:52:31.998Z</time></trkpt><trkpt lat="43.12737041949967" lon="12.177274319981738"><ele>373.79999999999995</ele><time>2026-03-24T16:52:33.998Z</time></trkpt><trkpt lat="43.12729037148031" lon="12.177252255990293"><ele>374.2</ele><time>2026-03-24T16:52:36.998Z</time></trkpt><trkpt lat="43.12719613458258" lon="12.177298293645082"><ele>374.6</ele><time>2026-03-24T16:52:46.998Z</time></trkpt><trkpt lat="43.12710543885703" lon="12.177395916134834"><ele>375.0</ele><time>2026-03-24T16:52:48.998Z</time></trkpt><trkpt lat="43.12703995686825" lon="12.177455698317099"><ele>373.4</ele><time>2026-03-24T16:52:51.998Z</time></trkpt><trkpt lat="43.12691730393188" lon="12.177334818821837"><ele>371.8</ele><time>2026-03-24T16:52:52.998Z</time></trkpt><trkpt lat="43.1268472623276" lon="12.17734468352403"><ele>370.20000000000005</ele><time>2026-03-24T16:52:53.998Z</time></trkpt><trkpt lat="43.12676308680286" lon="12.177349276326613"><ele>368.6</ele><time>2026-03-24T16:52:54.998Z</time></trkpt><trkpt lat="43.12666129666975" lon="12.177344264621222"><ele>367.0</ele><time>2026-03-24T16:52:56Z</time></trkpt><trkpt lat="43.126562253322604" lon="12.177341752276018"><ele>370.6</ele><time>2026-03-24T16:52:57Z</time></trkpt><trkpt lat="43.12647175207038" lon="12.177351996128397"><ele>374.20000000000005</ele><time>2026-03-24T16:52:58Z</time></trkpt><trkpt lat="43.12640358321002" lon="12.177354936306735"><ele>377.8</ele><time>2026-03-24T16:52:59Z</time></trkpt><trkpt lat="43.12633884319091" lon="12.177337010562324"><ele>381.4</ele><time>2026-03-24T16:53:00Z</time></trkpt><trkpt lat="43.126223253721676" lon="12.177297385702815"><ele>385.0</ele><time>2026-03-24T16:53:01Z</time></trkpt><trkpt lat="43.12608106956019" lon="12.177242685408093"><ele>385.5</ele><time>2026-03-24T16:53:02Z</time></trkpt><trkpt lat="43.12594009026017" lon="12.17721639017586"><ele>386.0</ele><time>2026-03-24T16:53:03Z</time></trkpt><trkpt lat="43.12582882628003" lon="12.17718860495031"><ele>386.5</ele><time>2026-03-24T16:53:04Z</time></trkpt><trkpt lat="43.12573529057693" lon="12.177156082101897"><ele>387.0</ele><time>2026-03-24T16:53:05Z</time></trkpt><trkpt lat="43.12563708285501" lon="12.177091967267407"><ele>391.25</ele><time>2026-03-24T16:53:06Z</time></trkpt><trkpt lat="43.12549590057717" lon="12.177010202747429"><ele>395.5</ele><time>2026-03-24T16:53:07Z</time></trkpt><trkpt lat="43.125345324817125" lon="12.176937365404372"><ele>399.75</ele><time>2026-03-24T16:53:08Z</time></trkpt><trkpt lat="43.12523126694566" lon="12.176894524767143"><ele>404.0</ele><time>2026-03-24T16:53:09Z</time></trkpt><trkpt lat="43.12510483594876" lon="12.176841736371115"><ele>404.0</ele><time>2026-03-24T16:53:10Z</time></trkpt><trkpt lat="43.12497241865232" lon="12.176779816079867"><ele>404.0</ele><time>2026-03-24T16:53:11Z</time></trkpt><trkpt lat="43.12486869469213" lon="12.176727835808203"><ele>404.0</ele><time>2026-03-24T16:53:12Z</time></trkpt><trkpt lat="43.12476271626874" lon="12.176666709085367"><ele>404.0</ele><time>2026-03-24T16:53:13Z</time></trkpt><trkpt lat="43.124631672209404" lon="12.17660126055315"><ele>404.8333333333333</ele><time>2026-03-24T16:53:14Z</time></trkpt><trkpt lat="43.124515035205896" lon="12.176539172774381"><ele>405.66666666666663</ele><time>2026-03-24T16:53:15Z</time></trkpt><trkpt lat="43.12443780053265" lon="12.176495948044769"><ele>406.5</ele><time>2026-03-24T16:53:16Z</time></trkpt><trkpt lat="43.12437354833475" lon="12.176462597525628"><ele>407.33333333333337</ele><time>2026-03-24T16:53:17Z</time></trkpt><trkpt lat="43.12429001178325" lon="12.176394577765432"><ele>408.1666666666667</ele><time>2026-03-24T16:53:19Z</time></trkpt><trkpt lat="43.124246946400845" lon="12.176318133765042"><ele>409.0</ele><time>2026-03-24T16:53:21Z</time></trkpt><trkpt lat="43.12417800073214" lon="12.176249984792626"><ele>409.00000000000006</ele><time>2026-03-24T16:53:23Z</time></trkpt><trkpt lat="43.12408521050155" lon="12.176196042785318"><ele>409.0</ele><time>2026-03-24T16:53:25Z</time></trkpt><trkpt lat="43.12398014225967" lon="12.176142517839228"><ele>409.0</ele><time>2026-03-24T16:53:27Z</time></trkpt><trkpt lat="43.1239084448186" lon="12.176127754451885"><ele>409.0</ele><time>2026-03-24T16:53:28Z</time></trkpt><trkpt lat="43.12383030431876" lon="12.176112013349028"><ele>409.00000000000006</ele><time>2026-03-24T16:53:29Z</time></trkpt><trkpt lat="43.12375742270105" lon="12.176099435888492"><ele>409.0</ele><time>2026-03-24T16:53:29.999Z</time></trkpt><trkpt lat="43.12369139857987" lon="12.17609074096981"><ele>408.2</ele><time>2026-03-24T16:53:30.999Z</time></trkpt><trkpt lat="43.12356593564259" lon="12.176077921621708"><ele>407.4</ele><time>2026-03-24T16:53:32.999Z</time></trkpt><trkpt lat="43.123454556556595" lon="12.176100205553775"><ele>406.6</ele><time>2026-03-24T16:53:34.999Z</time></trkpt><trkpt lat="43.12339957818038" lon="12.176215664986096"><ele>405.8</ele><time>2026-03-24T16:53:36.999Z</time></trkpt><trkpt lat="43.123399179257994" lon="12.176363912881506"><ele>405.0</ele><time>2026-03-24T16:53:38.999Z</time></trkpt><trkpt lat="43.12341950969657" lon="12.176459527601576"><ele>405.0</ele><time>2026-03-24T16:53:40.999Z</time></trkpt><trkpt lat="43.1233229771507" lon="12.176519975537936"><ele>405.0</ele><time>2026-03-24T16:53:43.999Z</time></trkpt><trkpt lat="43.12325566478153" lon="12.176518389058964"><ele>405.0</ele><time>2026-03-24T16:53:44.999Z</time></trkpt><trkpt lat="43.123139345799835" lon="12.176565828205675"><ele>405.0</ele><time>2026-03-24T16:53:46.999Z</time></trkpt><trkpt lat="43.1230283225731" lon="12.176584794311742"><ele>405.0</ele><time>2026-03-24T16:53:48.999Z</time></trkpt><trkpt lat="43.122912164693865" lon="12.1765377044319"><ele>402.8</ele><time>2026-03-24T16:53:50.999Z</time></trkpt><trkpt lat="43.12279142982263" lon="12.176523401932386"><ele>400.6</ele><time>2026-03-24T16:53:52.999Z</time></trkpt><trkpt lat="43.12268635064641" lon="12.176516876134214"><ele>398.4</ele><time>2026-03-24T16:53:54.999Z</time></trkpt><trkpt lat="43.12260053734238" lon="12.176425267716086"><ele>396.2</ele><time>2026-03-24T16:53:56.999Z</time></trkpt><trkpt lat="43.12249914406855" lon="12.176380553315914"><ele>394.0</ele><time>2026-03-24T16:53:58.999Z</time></trkpt><trkpt lat="43.122379107834014" lon="12.176387240938288"><ele>391.6</ele><time>2026-03-24T16:54:00.999Z</time></trkpt><trkpt lat="43.12231557099439" lon="12.176394022404878"><ele>389.2</ele><time>2026-03-24T16:54:01.999Z</time></trkpt><trkpt lat="43.12225165683237" lon="12.176380098376015"><ele>386.8</ele><time>2026-03-24T16:54:02.999Z</time></trkpt><trkpt lat="43.12213718888648" lon="12.17635654367196"><ele>384.40000000000003</ele><time>2026-03-24T16:54:04.999Z</time></trkpt><trkpt lat="43.122032994033596" lon="12.176374620184994"><ele>382.0</ele><time>2026-03-24T16:54:06.999Z</time></trkpt><trkpt lat="43.12192381045591" lon="12.176384255365758"><ele>382.0</ele><time>2026-03-24T16:54:08.999Z</time></trkpt><trkpt lat="43.12181420826962" lon="12.176357348917175"><ele>382.0</ele><time>2026-03-24T16:54:10.999Z</time></trkpt><trkpt lat="43.12175006653813" lon="12.17631811342052"><ele>382.0</ele><time>2026-03-24T16:54:11.999Z</time></trkpt><trkpt lat="43.121693733871794" lon="12.176273811215532"><ele>382.0</ele><time>2026-03-24T16:54:12.999Z</time></trkpt><trkpt lat="43.12159831472931" lon="12.176185685373051"><ele>382.0</ele><time>2026-03-24T16:54:14.999Z</time></trkpt><trkpt lat="43.12149927990074" lon="12.17614615853659"><ele>379.20000000000005</ele><time>2026-03-24T16:54:16.999Z</time></trkpt><trkpt lat="43.121415875620414" lon="12.176074268082237"><ele>376.4</ele><time>2026-03-24T16:54:18.999Z</time></trkpt><trkpt lat="43.12133105975457" lon="12.17601983298872"><ele>373.6</ele><time>2026-03-24T16:54:20.999Z</time></trkpt><trkpt lat="43.12122920031428" lon="12.175981725806649"><ele>370.79999999999995</ele><time>2026-03-24T16:54:22.999Z</time></trkpt><trkpt lat="43.121122729757005" lon="12.175945426753723"><ele>368.0</ele><time>2026-03-24T16:54:24.999Z</time></trkpt><trkpt lat="43.12101658511838" lon="12.175921591458842"><ele>368.0</ele><time>2026-03-24T16:54:26.999Z</time></trkpt><trkpt lat="43.12090345167681" lon="12.175888505106009"><ele>368.0</ele><time>2026-03-24T16:54:28.999Z</time></trkpt><trkpt lat="43.12080661704136" lon="12.175857467100872"><ele>368.0</ele><time>2026-03-24T16:54:30.999Z</time></trkpt><trkpt lat="43.12074328116359" lon="12.175828834228389"><ele>368.0</ele><time>2026-03-24T16:54:33.999Z</time></trkpt><trkpt lat="43.120679028617275" lon="12.175797091673992"><ele>368.0</ele><time>2026-03-24T16:54:36.999Z</time></trkpt><trkpt lat="43.120615683020276" lon="12.175758906315172"><ele>368.0</ele><time>2026-03-24T16:54:38.999Z</time></trkpt><trkpt lat="43.120534378231035" lon="12.175742258220346"><ele>364.79999999999995</ele><time>2026-03-24T16:54:40.998Z</time></trkpt><trkpt lat="43.120442029479634" lon="12.17572489815927"><ele>361.6</ele><time>2026-03-24T16:54:51.998Z</time></trkpt><trkpt lat="43.12032549469298" lon="12.17568574465456"><ele>358.4</ele><time>2026-03-24T16:54:53.998Z</time></trkpt><trkpt lat="43.120219128835416" lon="12.175668049759036"><ele>355.20000000000005</ele><time>2026-03-24T16:54:55.998Z</time></trkpt><trkpt lat="43.12012227929653" lon="12.175625554036937"><ele>352.0</ele><time>2026-03-24T16:54:57.998Z</time></trkpt><trkpt lat="43.12001788099552" lon="12.175585728900025"><ele>350.6</ele><time>2026-03-24T16:54:59.998Z</time></trkpt><trkpt lat="43.11991130358583" lon="12.175568646490639"><ele>349.20000000000005</ele><time>2026-03-24T16:55:02Z</time></trkpt><trkpt lat="43.11981065454958" lon="12.175566398172851"><ele>347.8</ele><time>2026-03-24T16:55:04Z</time></trkpt><trkpt lat="43.11970215645277" lon="12.175562678915739"><ele>346.4</ele><time>2026-03-24T16:55:06Z</time></trkpt><trkpt lat="43.119595569066945" lon="12.175521902824796"><ele>345.0</ele><time>2026-03-24T16:55:08Z</time></trkpt><trkpt lat="43.11948013141045" lon="12.175494975386766"><ele>343.0</ele><time>2026-03-24T16:55:10Z</time></trkpt><trkpt lat="43.11937253276018" lon="12.175466871092"><ele>341.0</ele><time>2026-03-24T16:55:12Z</time></trkpt><trkpt lat="43.11925575574219" lon="12.175435771219057"><ele>339.0</ele><time>2026-03-24T16:55:14Z</time></trkpt><trkpt lat="43.11907724215733" lon="12.175612270916936"><ele>337.0</ele><time>2026-03-24T16:55:16Z</time></trkpt><trkpt lat="43.118979995639414" lon="12.175535358683144"><ele>334.8333333333333</ele><time>2026-03-24T16:55:18Z</time></trkpt><trkpt lat="43.11888749002607" lon="12.175454555338543"><ele>332.66666666666663</ele><time>2026-03-24T16:55:20Z</time></trkpt><trkpt lat="43.11881055841636" lon="12.17538682440319"><ele>330.5</ele><time>2026-03-24T16:55:22Z</time></trkpt><trkpt lat="43.118748488624185" lon="12.175332178035777"><ele>328.3333333333333</ele><time>2026-03-24T16:55:24Z</time></trkpt><trkpt lat="43.11868153349017" lon="12.175273233273078"><ele>326.1666666666667</ele><time>2026-03-24T16:55:26Z</time></trkpt><trkpt lat="43.11860587886638" lon="12.175206626572097"><ele>324.0</ele><time>2026-03-24T16:55:28Z</time></trkpt><trkpt lat="43.118618436241675" lon="12.175069194252945"><ele>324.0</ele><time>2026-03-24T16:55:29Z</time></trkpt><trkpt lat="43.11859666423177" lon="12.17497869587455"><ele>324.0</ele><time>2026-03-24T16:55:32Z</time></trkpt><trkpt lat="43.118619909085524" lon="12.174891826741643"><ele>324.0</ele><time>2026-03-24T16:55:34Z</time></trkpt><trkpt lat="43.118676449442916" lon="12.174848787775213"><ele>324.0</ele><time>2026-03-24T16:55:35.999Z</time></trkpt><trkpt lat="43.118773025463405" lon="12.174764962804744"><ele>324.0</ele><time>2026-03-24T16:55:37.999Z</time></trkpt><trkpt lat="43.11884502498437" lon="12.174711343601034"><ele>324.0</ele><time>2026-03-24T16:55:39.999Z</time></trkpt><trkpt lat="43.118879713931285" lon="12.174621627227758"><ele>322.1666666666667</ele><time>2026-03-24T16:55:41.999Z</time></trkpt><trkpt lat="43.118926690855105" lon="12.17451804718466"><ele>320.3333333333333</ele><time>2026-03-24T16:55:43.999Z</time></trkpt><trkpt lat="43.118970341040615" lon="12.17441846836039"><ele>318.5</ele><time>2026-03-24T16:55:45.999Z</time></trkpt><trkpt lat="43.119007134479624" lon="12.174325317974464"><ele>316.66666666666663</ele><time>2026-03-24T16:55:47.999Z</time></trkpt><trkpt lat="43.11902513348015" lon="12.174228131609734"><ele>314.8333333333333</ele><time>2026-03-24T16:55:49.999Z</time></trkpt><trkpt lat="43.11898078956056" lon="12.174137932681877"><ele>313.0</ele><time>2026-03-24T16:55:52.999Z</time></trkpt><trkpt lat="43.118902210966034" lon="12.174087184821305"><ele>313.0</ele><time>2026-03-24T16:55:56.999Z</time></trkpt><trkpt lat="43.118836733161" lon="12.174077486976714"><ele>313.0</ele><time>2026-03-24T16:55:58.999Z</time></trkpt><trkpt lat="43.11872568523348" lon="12.174042433175806"><ele>313.0</ele><time>2026-03-24T16:56:00.999Z</time></trkpt><trkpt lat="43.118611347340625" lon="12.17399450908364"><ele>313.0</ele><time>2026-03-24T16:56:01.999Z</time></trkpt><trkpt lat="43.118486545512226" lon="12.173931355660063"><ele>313.0</ele><time>2026-03-24T16:56:02.999Z</time></trkpt><trkpt lat="43.1183608391943" lon="12.173827500444373"><ele>309.4</ele><time>2026-03-24T16:56:03.999Z</time></trkpt><trkpt lat="43.11823309329542" lon="12.173764681248008"><ele>305.8</ele><time>2026-03-24T16:56:04.999Z</time></trkpt><trkpt lat="43.118125495054414" lon="12.173711247081123"><ele>302.2</ele><time>2026-03-24T16:56:05.999Z</time></trkpt><trkpt lat="43.11803089794375" lon="12.173664269402028"><ele>298.6</ele><time>2026-03-24T16:56:06.999Z</time></trkpt><trkpt lat="43.11795141836659" lon="12.173624799266296"><ele>295.0</ele><time>2026-03-24T16:56:07.999Z</time></trkpt><trkpt lat="43.117889954645364" lon="12.173594275859834"><ele>295.0</ele><time>2026-03-24T16:56:08.999Z</time></trkpt><trkpt lat="43.117804988753456" lon="12.173552433310357"><ele>295.0</ele><time>2026-03-24T16:56:10.999Z</time></trkpt><trkpt lat="43.11774125086512" lon="12.173544921047123"><ele>295.0</ele><time>2026-03-24T16:56:12.999Z</time></trkpt><trkpt lat="43.11777314850712" lon="12.173236715417756"><ele>295.0</ele><time>2026-03-24T16:56:22.999Z</time></trkpt><trkpt lat="43.11774668305096" lon="12.17314138919105"><ele>292.8333333333333</ele><time>2026-03-24T16:56:24.999Z</time></trkpt><trkpt lat="43.11769795661223" lon="12.173072241537973"><ele>290.66666666666663</ele><time>2026-03-24T16:56:26.999Z</time></trkpt><trkpt lat="43.117635045200274" lon="12.173024282271305"><ele>288.5</ele><time>2026-03-24T16:56:28.999Z</time></trkpt><trkpt lat="43.11756237526202" lon="12.17295049106917"><ele>286.3333333333333</ele><time>2026-03-24T16:56:35.999Z</time></trkpt><trkpt lat="43.11757601624295" lon="12.172836899839366"><ele>284.1666666666667</ele><time>2026-03-24T16:56:38.999Z</time></trkpt><trkpt lat="43.11755076205123" lon="12.172746792743585"><ele>282.0</ele><time>2026-03-24T16:56:40.999Z</time></trkpt><trkpt lat="43.11743405269336" lon="12.172782232693805"><ele>281.0</ele><time>2026-03-24T16:56:42.999Z</time></trkpt><trkpt lat="43.117369085693284" lon="12.172837814405991"><ele>280.0</ele><time>2026-03-24T16:56:43.999Z</time></trkpt><trkpt lat="43.117260870222474" lon="12.172805859872005"><ele>279.0</ele><time>2026-03-24T16:56:45.998Z</time></trkpt><trkpt lat="43.11714383319366" lon="12.172913217952429"><ele>278.0</ele><time>2026-03-24T16:56:47.998Z</time></trkpt><trkpt lat="43.117072613336695" lon="12.173013890669266"><ele>277.0</ele><time>2026-03-24T16:56:48.998Z</time></trkpt><trkpt lat="43.116975605202065" lon="12.173048216786984"><ele>277.0</ele><time>2026-03-24T16:56:50.998Z</time></trkpt><trkpt lat="43.116931881437864" lon="12.172981442789151"><ele>277.0</ele><time>2026-03-24T16:56:53.998Z</time></trkpt><trkpt lat="43.11703254292337" lon="12.172842352682174"><ele>277.0</ele><time>2026-03-24T16:56:55.998Z</time></trkpt><trkpt lat="43.117102386478855" lon="12.172771856539262"><ele>277.0</ele><time>2026-03-24T16:56:56.998Z</time></trkpt><trkpt lat="43.117160311060836" lon="12.172717729071303"><ele>277.0</ele><time>2026-03-24T16:56:57.998Z</time></trkpt><trkpt lat="43.11720580626114" lon="12.172652637795219"><ele>277.0</ele><time>2026-03-24T16:56:58.998Z</time></trkpt><trkpt lat="43.11726763651777" lon="12.172546699458813"><ele>277.0</ele><time>2026-03-24T16:57:00.998Z</time></trkpt><trkpt lat="43.11723128245799" lon="12.172447493349749"><ele>277.0</ele><time>2026-03-24T16:57:04.998Z</time></trkpt><trkpt lat="43.117257843105826" lon="12.17236892866756"><ele>277.0</ele><time>2026-03-24T16:57:06.998Z</time></trkpt><trkpt lat="43.11725517803442" lon="12.172278373076983"><ele>277.0</ele><time>2026-03-24T16:57:17Z</time></trkpt><trkpt lat="43.11725313081437" lon="12.172179689969614"><ele>277.0</ele><time>2026-03-24T16:57:19Z</time></trkpt><trkpt lat="43.1172369746066" lon="12.172092521919065"><ele>277.0</ele><time>2026-03-24T16:57:21Z</time></trkpt><trkpt lat="43.117230119423205" lon="12.171976725326596"><ele>277.0</ele><time>2026-03-24T16:57:23Z</time></trkpt><trkpt lat="43.117206452790064" lon="12.171853247479415"><ele>275.66666666666663</ele><time>2026-03-24T16:57:25Z</time></trkpt><trkpt lat="43.11715652084926" lon="12.171739998139854"><ele>274.3333333333333</ele><time>2026-03-24T16:57:27Z</time></trkpt><trkpt lat="43.11710597658328" lon="12.17164345083126"><ele>273.0</ele><time>2026-03-24T16:57:29Z</time></trkpt><trkpt lat="43.11706572953293" lon="12.171559566716583"><ele>271.6666666666667</ele><time>2026-03-24T16:57:31Z</time></trkpt><trkpt lat="43.117002335103976" lon="12.171469690699633"><ele>270.33333333333337</ele><time>2026-03-24T16:57:33Z</time></trkpt><trkpt lat="43.1169277865781" lon="12.17139805603427"><ele>269.0</ele><time>2026-03-24T16:57:35Z</time></trkpt><trkpt lat="43.116860185501075" lon="12.171356703636407"><ele>268.33333333333337</ele><time>2026-03-24T16:57:37Z</time></trkpt><trkpt lat="43.11678368777351" lon="12.171330868480867"><ele>267.6666666666667</ele><time>2026-03-24T16:57:39Z</time></trkpt><trkpt lat="43.116696138964635" lon="12.17131046710522"><ele>267.0</ele><time>2026-03-24T16:57:40.999Z</time></trkpt><trkpt lat="43.11663291376639" lon="12.17130279142001"><ele>266.3333333333333</ele><time>2026-03-24T16:57:42.999Z</time></trkpt><trkpt lat="43.116568094770365" lon="12.17128671850566"><ele>265.66666666666663</ele><time>2026-03-24T16:57:44.999Z</time></trkpt><trkpt lat="43.11652662123616" lon="12.171206179675403"><ele>265.0</ele><time>2026-03-24T16:57:47.999Z</time></trkpt><trkpt lat="43.116481603349236" lon="12.171108329990913"><ele>265.0</ele><time>2026-03-24T16:57:50.999Z</time></trkpt><trkpt lat="43.116541099911366" lon="12.171009281751159"><ele>265.0</ele><time>2026-03-24T16:57:53.999Z</time></trkpt><trkpt lat="43.11654195781458" lon="12.170910786434863"><ele>265.0</ele><time>2026-03-24T16:57:54.999Z</time></trkpt><trkpt lat="43.116585370980594" lon="12.170775390125902"><ele>265.0</ele><time>2026-03-24T16:57:56.999Z</time></trkpt><trkpt lat="43.116663484838085" lon="12.170705750724993"><ele>265.0</ele><time>2026-03-24T16:57:57.999Z</time></trkpt><trkpt lat="43.11674842602082" lon="12.170657070500086"><ele>264.66666666666663</ele><time>2026-03-24T16:57:59.999Z</time></trkpt><trkpt lat="43.11679887888704" lon="12.170599129091755"><ele>264.3333333333333</ele><time>2026-03-24T16:58:01.999Z</time></trkpt><trkpt lat="43.116811629279155" lon="12.170502764643526"><ele>264.0</ele><time>2026-03-24T16:58:03.999Z</time></trkpt><trkpt lat="43.11671134501236" lon="12.170391666406331"><ele>263.6666666666667</ele><time>2026-03-24T16:58:05.999Z</time></trkpt><trkpt lat="43.116624904735765" lon="12.170343955417263"><ele>263.33333333333337</ele><time>2026-03-24T16:58:06.999Z</time></trkpt><trkpt lat="43.11654211811519" lon="12.170361814318055"><ele>263.0</ele><time>2026-03-24T16:58:08.999Z</time></trkpt><trkpt lat="43.11658329400075" lon="12.170241373074102"><ele>263.0</ele><time>2026-03-24T16:58:11.999Z</time></trkpt><trkpt lat="43.11663746245322" lon="12.17018487239436"><ele>263.0</ele><time>2026-03-24T16:58:15.999Z</time></trkpt><trkpt lat="43.11668964124831" lon="12.170106304916843"><ele>263.0</ele><time>2026-03-24T16:58:18.999Z</time></trkpt><trkpt lat="43.116753106534915" lon="12.170072360663477"><ele>263.0</ele><time>2026-03-24T16:58:22.999Z</time></trkpt><trkpt lat="43.11680330663698" lon="12.170011966630998"><ele>263.0</ele><time>2026-03-24T16:58:45.999Z</time></trkpt><trkpt lat="43.1168848949364" lon="12.169925956820542"><ele>263.0</ele><time>2026-03-24T16:58:46.999Z</time></trkpt><trkpt lat="43.11696306527418" lon="12.169881304042045"><ele>263.0</ele><time>2026-03-24T16:58:47.999Z</time></trkpt><trkpt lat="43.11707809001292" lon="12.169855833153292"><ele>263.0</ele><time>2026-03-24T16:58:49.998Z</time></trkpt><trkpt lat="43.11716357152556" lon="12.169917172049262"><ele>263.0</ele><time>2026-03-24T16:58:51.998Z</time></trkpt><trkpt lat="43.11721004221244" lon="12.170032124006974"><ele>263.0</ele><time>2026-03-24T16:58:52.998Z</time></trkpt><trkpt lat="43.11725575657442" lon="12.170180755812938"><ele>263.0</ele><time>2026-03-24T16:58:53.998Z</time></trkpt><trkpt lat="43.117278391515235" lon="12.170266482937429"><ele>263.0</ele><time>2026-03-24T16:58:55.998Z</time></trkpt><trkpt lat="43.11720451213123" lon="12.170455560997214"><ele>263.0</ele><time>2026-03-24T16:59:00.998Z</time></trkpt><trkpt lat="43.11724756987369" lon="12.17056138065884"><ele>263.0</ele><time>2026-03-24T16:59:02.998Z</time></trkpt><trkpt lat="43.11721156006372" lon="12.170686529683397"><ele>263.0</ele><time>2026-03-24T17:01:18.998Z</time></trkpt></trkseg></trk></gpx>